<?xml version="1.0" encoding="UTF-8" standalone="no" ?>
<gpx xmlns="http://www.topografix.com/GPX/1/1" xmlns:xsi="http://www.w3.org/2001/XMLSchema-instance" xsi:schemaLocation="http://www.topografix.com/GPX/1/1 http://www.topografix.com/GPX/1/1/gpx.xsd" version="1.1" creator="VisuGPX - https://www.visugpx.com">
  <metadata>
    <name>Sortie BCB d 30 septembre 2018</name>
    <desc><![CDATA[Via Rhona et remontée par courthezon, Serignan, Rochegude.]]></desc>
  </metadata>
  <trk>
    <name><![CDATA[Sortie BCB d 30 septembre 2018_1]]></name>
    <trkseg>
      <trkpt lat="44.30423" lon="4.75498">
        <ele>72</ele>
        <time>2018-09-30T05:45:29Z</time>
      </trkpt>
      <trkpt lat="44.30423" lon="4.75498">
        <ele>72</ele>
        <time>2018-09-30T05:45:31Z</time>
      </trkpt>
      <trkpt lat="44.30424" lon="4.75499">
        <ele>72</ele>
        <time>2018-09-30T05:45:34Z</time>
      </trkpt>
      <trkpt lat="44.30426" lon="4.75503">
        <ele>73</ele>
        <time>2018-09-30T05:45:37Z</time>
      </trkpt>
      <trkpt lat="44.30426" lon="4.75506">
        <ele>73</ele>
        <time>2018-09-30T05:45:39Z</time>
      </trkpt>
      <trkpt lat="44.30428" lon="4.75509">
        <ele>73</ele>
        <time>2018-09-30T05:45:42Z</time>
      </trkpt>
      <trkpt lat="44.30431" lon="4.75506">
        <ele>73</ele>
        <time>2018-09-30T05:45:45Z</time>
      </trkpt>
      <trkpt lat="44.30432" lon="4.75502">
        <ele>73</ele>
        <time>2018-09-30T05:45:47Z</time>
      </trkpt>
      <trkpt lat="44.30433" lon="4.75495">
        <ele>73</ele>
        <time>2018-09-30T05:45:50Z</time>
      </trkpt>
      <trkpt lat="44.30435" lon="4.75482">
        <ele>73</ele>
        <time>2018-09-30T05:45:53Z</time>
      </trkpt>
      <trkpt lat="44.30439" lon="4.75468">
        <ele>74</ele>
        <time>2018-09-30T05:45:56Z</time>
      </trkpt>
      <trkpt lat="44.30442" lon="4.75463">
        <ele>74</ele>
        <time>2018-09-30T05:45:58Z</time>
      </trkpt>
      <trkpt lat="44.30445" lon="4.75461">
        <ele>75</ele>
        <time>2018-09-30T05:46:00Z</time>
      </trkpt>
      <trkpt lat="44.30447" lon="4.7546">
        <ele>76</ele>
        <time>2018-09-30T05:46:02Z</time>
      </trkpt>
      <trkpt lat="44.30449" lon="4.75458">
        <ele>77</ele>
        <time>2018-09-30T05:46:04Z</time>
      </trkpt>
      <trkpt lat="44.30451" lon="4.75454">
        <ele>77</ele>
        <time>2018-09-30T05:46:06Z</time>
      </trkpt>
      <trkpt lat="44.30454" lon="4.75448">
        <ele>77</ele>
        <time>2018-09-30T05:46:09Z</time>
      </trkpt>
      <trkpt lat="44.30455" lon="4.75443">
        <ele>77</ele>
        <time>2018-09-30T05:46:11Z</time>
      </trkpt>
      <trkpt lat="44.30454" lon="4.75437">
        <ele>78</ele>
        <time>2018-09-30T05:46:13Z</time>
      </trkpt>
      <trkpt lat="44.3045" lon="4.75428">
        <ele>78</ele>
        <time>2018-09-30T05:46:15Z</time>
      </trkpt>
      <trkpt lat="44.30447" lon="4.75417">
        <ele>78</ele>
        <time>2018-09-30T05:46:17Z</time>
      </trkpt>
      <trkpt lat="44.30447" lon="4.75402">
        <ele>78</ele>
        <time>2018-09-30T05:46:19Z</time>
      </trkpt>
      <trkpt lat="44.30442" lon="4.7538">
        <ele>77</ele>
        <time>2018-09-30T05:46:22Z</time>
      </trkpt>
      <trkpt lat="44.30429" lon="4.75376">
        <ele>77</ele>
        <time>2018-09-30T05:46:24Z</time>
      </trkpt>
      <trkpt lat="44.30416" lon="4.75375">
        <ele>76</ele>
        <time>2018-09-30T05:46:26Z</time>
      </trkpt>
      <trkpt lat="44.30403" lon="4.75356">
        <ele>74</ele>
        <time>2018-09-30T05:46:29Z</time>
      </trkpt>
      <trkpt lat="44.30395" lon="4.75338">
        <ele>73</ele>
        <time>2018-09-30T05:46:31Z</time>
      </trkpt>
      <trkpt lat="44.30384" lon="4.7532">
        <ele>72</ele>
        <time>2018-09-30T05:46:33Z</time>
      </trkpt>
      <trkpt lat="44.30367" lon="4.75299">
        <ele>70</ele>
        <time>2018-09-30T05:46:36Z</time>
      </trkpt>
      <trkpt lat="44.30355" lon="4.75289">
        <ele>69</ele>
        <time>2018-09-30T05:46:38Z</time>
      </trkpt>
      <trkpt lat="44.30344" lon="4.75276">
        <ele>68</ele>
        <time>2018-09-30T05:46:40Z</time>
      </trkpt>
      <trkpt lat="44.30333" lon="4.75254">
        <ele>66</ele>
        <time>2018-09-30T05:46:43Z</time>
      </trkpt>
      <trkpt lat="44.30326" lon="4.75238">
        <ele>66</ele>
        <time>2018-09-30T05:46:45Z</time>
      </trkpt>
      <trkpt lat="44.30319" lon="4.75221">
        <ele>65</ele>
        <time>2018-09-30T05:46:47Z</time>
      </trkpt>
      <trkpt lat="44.30312" lon="4.75204">
        <ele>65</ele>
        <time>2018-09-30T05:46:49Z</time>
      </trkpt>
      <trkpt lat="44.303" lon="4.75177">
        <ele>65</ele>
        <time>2018-09-30T05:46:52Z</time>
      </trkpt>
      <trkpt lat="44.30292" lon="4.75159">
        <ele>65</ele>
        <time>2018-09-30T05:46:54Z</time>
      </trkpt>
      <trkpt lat="44.30284" lon="4.75142">
        <ele>64</ele>
        <time>2018-09-30T05:46:56Z</time>
      </trkpt>
      <trkpt lat="44.30275" lon="4.75127">
        <ele>62</ele>
        <time>2018-09-30T05:46:59Z</time>
      </trkpt>
      <trkpt lat="44.30267" lon="4.75125">
        <ele>61</ele>
        <time>2018-09-30T05:47:01Z</time>
      </trkpt>
      <trkpt lat="44.3026" lon="4.75128">
        <ele>60</ele>
        <time>2018-09-30T05:47:03Z</time>
      </trkpt>
      <trkpt lat="44.30249" lon="4.75133">
        <ele>60</ele>
        <time>2018-09-30T05:47:06Z</time>
      </trkpt>
      <trkpt lat="44.30235" lon="4.75139">
        <ele>60</ele>
        <time>2018-09-30T05:47:09Z</time>
      </trkpt>
      <trkpt lat="44.30226" lon="4.75143">
        <ele>60</ele>
        <time>2018-09-30T05:47:11Z</time>
      </trkpt>
      <trkpt lat="44.30217" lon="4.75143">
        <ele>60</ele>
        <time>2018-09-30T05:47:13Z</time>
      </trkpt>
      <trkpt lat="44.30214" lon="4.75132">
        <ele>60</ele>
        <time>2018-09-30T05:47:15Z</time>
      </trkpt>
      <trkpt lat="44.30213" lon="4.75112">
        <ele>60</ele>
        <time>2018-09-30T05:47:18Z</time>
      </trkpt>
      <trkpt lat="44.30215" lon="4.75097">
        <ele>60</ele>
        <time>2018-09-30T05:47:20Z</time>
      </trkpt>
      <trkpt lat="44.30218" lon="4.75082">
        <ele>60</ele>
        <time>2018-09-30T05:47:22Z</time>
      </trkpt>
      <trkpt lat="44.3022" lon="4.75058">
        <ele>60</ele>
        <time>2018-09-30T05:47:25Z</time>
      </trkpt>
      <trkpt lat="44.30222" lon="4.75041">
        <ele>60</ele>
        <time>2018-09-30T05:47:27Z</time>
      </trkpt>
      <trkpt lat="44.30222" lon="4.75017">
        <ele>60</ele>
        <time>2018-09-30T05:47:30Z</time>
      </trkpt>
      <trkpt lat="44.30222" lon="4.74999">
        <ele>60</ele>
        <time>2018-09-30T05:47:32Z</time>
      </trkpt>
      <trkpt lat="44.30221" lon="4.74982">
        <ele>59</ele>
        <time>2018-09-30T05:47:34Z</time>
      </trkpt>
      <trkpt lat="44.30216" lon="4.74956">
        <ele>59</ele>
        <time>2018-09-30T05:47:37Z</time>
      </trkpt>
      <trkpt lat="44.30213" lon="4.74938">
        <ele>59</ele>
        <time>2018-09-30T05:47:39Z</time>
      </trkpt>
      <trkpt lat="44.30204" lon="4.74915">
        <ele>59</ele>
        <time>2018-09-30T05:47:42Z</time>
      </trkpt>
      <trkpt lat="44.30192" lon="4.74896">
        <ele>59</ele>
        <time>2018-09-30T05:47:45Z</time>
      </trkpt>
      <trkpt lat="44.30188" lon="4.74872">
        <ele>59</ele>
        <time>2018-09-30T05:47:48Z</time>
      </trkpt>
      <trkpt lat="44.3019" lon="4.74858">
        <ele>59</ele>
        <time>2018-09-30T05:47:50Z</time>
      </trkpt>
      <trkpt lat="44.30194" lon="4.74836">
        <ele>59</ele>
        <time>2018-09-30T05:47:53Z</time>
      </trkpt>
      <trkpt lat="44.30198" lon="4.74823">
        <ele>58</ele>
        <time>2018-09-30T05:47:55Z</time>
      </trkpt>
      <trkpt lat="44.30198" lon="4.74801">
        <ele>58</ele>
        <time>2018-09-30T05:47:58Z</time>
      </trkpt>
      <trkpt lat="44.30187" lon="4.74785">
        <ele>58</ele>
        <time>2018-09-30T05:48:01Z</time>
      </trkpt>
      <trkpt lat="44.30182" lon="4.74765">
        <ele>58</ele>
        <time>2018-09-30T05:48:04Z</time>
      </trkpt>
      <trkpt lat="44.30175" lon="4.74744">
        <ele>59</ele>
        <time>2018-09-30T05:48:07Z</time>
      </trkpt>
      <trkpt lat="44.30161" lon="4.74733">
        <ele>59</ele>
        <time>2018-09-30T05:48:10Z</time>
      </trkpt>
      <trkpt lat="44.30146" lon="4.74742">
        <ele>59</ele>
        <time>2018-09-30T05:48:13Z</time>
      </trkpt>
      <trkpt lat="44.30139" lon="4.74753">
        <ele>59</ele>
        <time>2018-09-30T05:48:15Z</time>
      </trkpt>
      <trkpt lat="44.30127" lon="4.74768">
        <ele>59</ele>
        <time>2018-09-30T05:48:18Z</time>
      </trkpt>
      <trkpt lat="44.30117" lon="4.74776">
        <ele>59</ele>
        <time>2018-09-30T05:48:20Z</time>
      </trkpt>
      <trkpt lat="44.30103" lon="4.74787">
        <ele>59</ele>
        <time>2018-09-30T05:48:23Z</time>
      </trkpt>
      <trkpt lat="44.30093" lon="4.74795">
        <ele>59</ele>
        <time>2018-09-30T05:48:25Z</time>
      </trkpt>
      <trkpt lat="44.30083" lon="4.74802">
        <ele>59</ele>
        <time>2018-09-30T05:48:27Z</time>
      </trkpt>
      <trkpt lat="44.30068" lon="4.74814">
        <ele>59</ele>
        <time>2018-09-30T05:48:30Z</time>
      </trkpt>
      <trkpt lat="44.30058" lon="4.74822">
        <ele>59</ele>
        <time>2018-09-30T05:48:32Z</time>
      </trkpt>
      <trkpt lat="44.30047" lon="4.7483">
        <ele>59</ele>
        <time>2018-09-30T05:48:34Z</time>
      </trkpt>
      <trkpt lat="44.30037" lon="4.74838">
        <ele>59</ele>
        <time>2018-09-30T05:48:36Z</time>
      </trkpt>
      <trkpt lat="44.30022" lon="4.74852">
        <ele>59</ele>
        <time>2018-09-30T05:48:39Z</time>
      </trkpt>
      <trkpt lat="44.30011" lon="4.7486">
        <ele>59</ele>
        <time>2018-09-30T05:48:41Z</time>
      </trkpt>
      <trkpt lat="44.29996" lon="4.74873">
        <ele>59</ele>
        <time>2018-09-30T05:48:44Z</time>
      </trkpt>
      <trkpt lat="44.29981" lon="4.74887">
        <ele>59</ele>
        <time>2018-09-30T05:48:47Z</time>
      </trkpt>
      <trkpt lat="44.29966" lon="4.749">
        <ele>59</ele>
        <time>2018-09-30T05:48:50Z</time>
      </trkpt>
      <trkpt lat="44.29955" lon="4.7491">
        <ele>59</ele>
        <time>2018-09-30T05:48:52Z</time>
      </trkpt>
      <trkpt lat="44.29945" lon="4.74919">
        <ele>60</ele>
        <time>2018-09-30T05:48:54Z</time>
      </trkpt>
      <trkpt lat="44.29934" lon="4.74928">
        <ele>60</ele>
        <time>2018-09-30T05:48:56Z</time>
      </trkpt>
      <trkpt lat="44.29924" lon="4.74937">
        <ele>59</ele>
        <time>2018-09-30T05:48:58Z</time>
      </trkpt>
      <trkpt lat="44.29909" lon="4.74951">
        <ele>59</ele>
        <time>2018-09-30T05:49:01Z</time>
      </trkpt>
      <trkpt lat="44.29899" lon="4.7496">
        <ele>59</ele>
        <time>2018-09-30T05:49:03Z</time>
      </trkpt>
      <trkpt lat="44.29888" lon="4.74968">
        <ele>59</ele>
        <time>2018-09-30T05:49:05Z</time>
      </trkpt>
      <trkpt lat="44.29871" lon="4.74977">
        <ele>59</ele>
        <time>2018-09-30T05:49:08Z</time>
      </trkpt>
      <trkpt lat="44.29859" lon="4.74978">
        <ele>59</ele>
        <time>2018-09-30T05:49:10Z</time>
      </trkpt>
      <trkpt lat="44.29844" lon="4.74993">
        <ele>59</ele>
        <time>2018-09-30T05:49:13Z</time>
      </trkpt>
      <trkpt lat="44.29837" lon="4.75007">
        <ele>59</ele>
        <time>2018-09-30T05:49:15Z</time>
      </trkpt>
      <trkpt lat="44.29823" lon="4.75024">
        <ele>59</ele>
        <time>2018-09-30T05:49:18Z</time>
      </trkpt>
      <trkpt lat="44.29813" lon="4.75033">
        <ele>59</ele>
        <time>2018-09-30T05:49:20Z</time>
      </trkpt>
      <trkpt lat="44.29797" lon="4.75048">
        <ele>59</ele>
        <time>2018-09-30T05:49:23Z</time>
      </trkpt>
      <trkpt lat="44.29786" lon="4.75057">
        <ele>59</ele>
        <time>2018-09-30T05:49:25Z</time>
      </trkpt>
      <trkpt lat="44.29776" lon="4.75067">
        <ele>59</ele>
        <time>2018-09-30T05:49:27Z</time>
      </trkpt>
      <trkpt lat="44.29765" lon="4.75076">
        <ele>59</ele>
        <time>2018-09-30T05:49:29Z</time>
      </trkpt>
      <trkpt lat="44.29755" lon="4.75085">
        <ele>59</ele>
        <time>2018-09-30T05:49:31Z</time>
      </trkpt>
      <trkpt lat="44.2974" lon="4.75099">
        <ele>59</ele>
        <time>2018-09-30T05:49:34Z</time>
      </trkpt>
      <trkpt lat="44.29729" lon="4.75107">
        <ele>59</ele>
        <time>2018-09-30T05:49:36Z</time>
      </trkpt>
      <trkpt lat="44.29719" lon="4.75117">
        <ele>59</ele>
        <time>2018-09-30T05:49:38Z</time>
      </trkpt>
      <trkpt lat="44.29709" lon="4.75126">
        <ele>59</ele>
        <time>2018-09-30T05:49:40Z</time>
      </trkpt>
      <trkpt lat="44.29692" lon="4.7514">
        <ele>59</ele>
        <time>2018-09-30T05:49:43Z</time>
      </trkpt>
      <trkpt lat="44.29676" lon="4.75154">
        <ele>60</ele>
        <time>2018-09-30T05:49:46Z</time>
      </trkpt>
      <trkpt lat="44.29665" lon="4.75164">
        <ele>60</ele>
        <time>2018-09-30T05:49:48Z</time>
      </trkpt>
      <trkpt lat="44.29653" lon="4.75174">
        <ele>60</ele>
        <time>2018-09-30T05:49:50Z</time>
      </trkpt>
      <trkpt lat="44.29642" lon="4.75184">
        <ele>60</ele>
        <time>2018-09-30T05:49:52Z</time>
      </trkpt>
      <trkpt lat="44.29631" lon="4.75194">
        <ele>60</ele>
        <time>2018-09-30T05:49:54Z</time>
      </trkpt>
      <trkpt lat="44.29613" lon="4.75209">
        <ele>60</ele>
        <time>2018-09-30T05:49:57Z</time>
      </trkpt>
      <trkpt lat="44.29602" lon="4.75219">
        <ele>59</ele>
        <time>2018-09-30T05:49:59Z</time>
      </trkpt>
      <trkpt lat="44.29584" lon="4.75233">
        <ele>59</ele>
        <time>2018-09-30T05:50:02Z</time>
      </trkpt>
      <trkpt lat="44.29565" lon="4.75246">
        <ele>59</ele>
        <time>2018-09-30T05:50:05Z</time>
      </trkpt>
      <trkpt lat="44.29546" lon="4.75258">
        <ele>59</ele>
        <time>2018-09-30T05:50:08Z</time>
      </trkpt>
      <trkpt lat="44.29528" lon="4.75269">
        <ele>59</ele>
        <time>2018-09-30T05:50:11Z</time>
      </trkpt>
      <trkpt lat="44.29514" lon="4.75276">
        <ele>59</ele>
        <time>2018-09-30T05:50:13Z</time>
      </trkpt>
      <trkpt lat="44.29494" lon="4.75284">
        <ele>59</ele>
        <time>2018-09-30T05:50:16Z</time>
      </trkpt>
      <trkpt lat="44.29481" lon="4.75289">
        <ele>60</ele>
        <time>2018-09-30T05:50:18Z</time>
      </trkpt>
      <trkpt lat="44.29461" lon="4.75295">
        <ele>60</ele>
        <time>2018-09-30T05:50:21Z</time>
      </trkpt>
      <trkpt lat="44.29447" lon="4.75299">
        <ele>60</ele>
        <time>2018-09-30T05:50:23Z</time>
      </trkpt>
      <trkpt lat="44.29433" lon="4.75301">
        <ele>60</ele>
        <time>2018-09-30T05:50:25Z</time>
      </trkpt>
      <trkpt lat="44.29412" lon="4.75303">
        <ele>60</ele>
        <time>2018-09-30T05:50:28Z</time>
      </trkpt>
      <trkpt lat="44.29399" lon="4.75304">
        <ele>59</ele>
        <time>2018-09-30T05:50:30Z</time>
      </trkpt>
      <trkpt lat="44.2938" lon="4.75305">
        <ele>59</ele>
        <time>2018-09-30T05:50:33Z</time>
      </trkpt>
      <trkpt lat="44.29367" lon="4.75305">
        <ele>59</ele>
        <time>2018-09-30T05:50:35Z</time>
      </trkpt>
      <trkpt lat="44.29353" lon="4.75305">
        <ele>59</ele>
        <time>2018-09-30T05:50:37Z</time>
      </trkpt>
      <trkpt lat="44.29341" lon="4.75299">
        <ele>59</ele>
        <time>2018-09-30T05:50:39Z</time>
      </trkpt>
      <trkpt lat="44.2932" lon="4.75298">
        <ele>59</ele>
        <time>2018-09-30T05:50:42Z</time>
      </trkpt>
      <trkpt lat="44.29307" lon="4.75304">
        <ele>59</ele>
        <time>2018-09-30T05:50:44Z</time>
      </trkpt>
      <trkpt lat="44.29287" lon="4.7531">
        <ele>59</ele>
        <time>2018-09-30T05:50:47Z</time>
      </trkpt>
      <trkpt lat="44.29274" lon="4.75314">
        <ele>59</ele>
        <time>2018-09-30T05:50:49Z</time>
      </trkpt>
      <trkpt lat="44.2926" lon="4.75316">
        <ele>59</ele>
        <time>2018-09-30T05:50:51Z</time>
      </trkpt>
      <trkpt lat="44.29247" lon="4.75319">
        <ele>59</ele>
        <time>2018-09-30T05:50:53Z</time>
      </trkpt>
      <trkpt lat="44.29232" lon="4.75321">
        <ele>59</ele>
        <time>2018-09-30T05:50:55Z</time>
      </trkpt>
      <trkpt lat="44.29212" lon="4.75324">
        <ele>59</ele>
        <time>2018-09-30T05:50:58Z</time>
      </trkpt>
      <trkpt lat="44.29198" lon="4.75325">
        <ele>59</ele>
        <time>2018-09-30T05:51:00Z</time>
      </trkpt>
      <trkpt lat="44.29177" lon="4.75327">
        <ele>59</ele>
        <time>2018-09-30T05:51:03Z</time>
      </trkpt>
      <trkpt lat="44.29156" lon="4.75328">
        <ele>59</ele>
        <time>2018-09-30T05:51:06Z</time>
      </trkpt>
      <trkpt lat="44.29134" lon="4.75328">
        <ele>58</ele>
        <time>2018-09-30T05:51:09Z</time>
      </trkpt>
      <trkpt lat="44.2912" lon="4.75327">
        <ele>58</ele>
        <time>2018-09-30T05:51:11Z</time>
      </trkpt>
      <trkpt lat="44.29106" lon="4.75326">
        <ele>59</ele>
        <time>2018-09-30T05:51:13Z</time>
      </trkpt>
      <trkpt lat="44.29092" lon="4.75325">
        <ele>59</ele>
        <time>2018-09-30T05:51:15Z</time>
      </trkpt>
      <trkpt lat="44.29071" lon="4.75322">
        <ele>59</ele>
        <time>2018-09-30T05:51:18Z</time>
      </trkpt>
      <trkpt lat="44.29057" lon="4.7532">
        <ele>59</ele>
        <time>2018-09-30T05:51:20Z</time>
      </trkpt>
      <trkpt lat="44.29036" lon="4.75314">
        <ele>58</ele>
        <time>2018-09-30T05:51:23Z</time>
      </trkpt>
      <trkpt lat="44.29023" lon="4.75309">
        <ele>58</ele>
        <time>2018-09-30T05:51:25Z</time>
      </trkpt>
      <trkpt lat="44.2901" lon="4.75304">
        <ele>58</ele>
        <time>2018-09-30T05:51:27Z</time>
      </trkpt>
      <trkpt lat="44.28996" lon="4.75297">
        <ele>58</ele>
        <time>2018-09-30T05:51:29Z</time>
      </trkpt>
      <trkpt lat="44.28977" lon="4.75284">
        <ele>58</ele>
        <time>2018-09-30T05:51:32Z</time>
      </trkpt>
      <trkpt lat="44.28965" lon="4.75274">
        <ele>58</ele>
        <time>2018-09-30T05:51:34Z</time>
      </trkpt>
      <trkpt lat="44.28953" lon="4.75264">
        <ele>58</ele>
        <time>2018-09-30T05:51:36Z</time>
      </trkpt>
      <trkpt lat="44.28942" lon="4.75252">
        <ele>58</ele>
        <time>2018-09-30T05:51:38Z</time>
      </trkpt>
      <trkpt lat="44.28925" lon="4.75235">
        <ele>58</ele>
        <time>2018-09-30T05:51:41Z</time>
      </trkpt>
      <trkpt lat="44.28911" lon="4.75215">
        <ele>58</ele>
        <time>2018-09-30T05:51:44Z</time>
      </trkpt>
      <trkpt lat="44.28902" lon="4.75202">
        <ele>58</ele>
        <time>2018-09-30T05:51:46Z</time>
      </trkpt>
      <trkpt lat="44.28895" lon="4.75188">
        <ele>58</ele>
        <time>2018-09-30T05:51:48Z</time>
      </trkpt>
      <trkpt lat="44.28893" lon="4.75163">
        <ele>58</ele>
        <time>2018-09-30T05:51:51Z</time>
      </trkpt>
      <trkpt lat="44.28895" lon="4.75148">
        <ele>57</ele>
        <time>2018-09-30T05:51:53Z</time>
      </trkpt>
      <trkpt lat="44.28897" lon="4.75133">
        <ele>57</ele>
        <time>2018-09-30T05:51:55Z</time>
      </trkpt>
      <trkpt lat="44.28899" lon="4.75115">
        <ele>57</ele>
        <time>2018-09-30T05:51:57Z</time>
      </trkpt>
      <trkpt lat="44.289" lon="4.75097">
        <ele>57</ele>
        <time>2018-09-30T05:51:59Z</time>
      </trkpt>
      <trkpt lat="44.28899" lon="4.75071">
        <ele>57</ele>
        <time>2018-09-30T05:52:02Z</time>
      </trkpt>
      <trkpt lat="44.28896" lon="4.75055">
        <ele>57</ele>
        <time>2018-09-30T05:52:04Z</time>
      </trkpt>
      <trkpt lat="44.28889" lon="4.7503">
        <ele>57</ele>
        <time>2018-09-30T05:52:07Z</time>
      </trkpt>
      <trkpt lat="44.28883" lon="4.75016">
        <ele>57</ele>
        <time>2018-09-30T05:52:09Z</time>
      </trkpt>
      <trkpt lat="44.28875" lon="4.75002">
        <ele>56</ele>
        <time>2018-09-30T05:52:11Z</time>
      </trkpt>
      <trkpt lat="44.28865" lon="4.74992">
        <ele>57</ele>
        <time>2018-09-30T05:52:13Z</time>
      </trkpt>
      <trkpt lat="44.28854" lon="4.74984">
        <ele>57</ele>
        <time>2018-09-30T05:52:15Z</time>
      </trkpt>
      <trkpt lat="44.28841" lon="4.74981">
        <ele>57</ele>
        <time>2018-09-30T05:52:17Z</time>
      </trkpt>
      <trkpt lat="44.2882" lon="4.74987">
        <ele>57</ele>
        <time>2018-09-30T05:52:20Z</time>
      </trkpt>
      <trkpt lat="44.28809" lon="4.74998">
        <ele>57</ele>
        <time>2018-09-30T05:52:22Z</time>
      </trkpt>
      <trkpt lat="44.28799" lon="4.75011">
        <ele>57</ele>
        <time>2018-09-30T05:52:24Z</time>
      </trkpt>
      <trkpt lat="44.2879" lon="4.75035">
        <ele>56</ele>
        <time>2018-09-30T05:52:27Z</time>
      </trkpt>
      <trkpt lat="44.28785" lon="4.75052">
        <ele>56</ele>
        <time>2018-09-30T05:52:29Z</time>
      </trkpt>
      <trkpt lat="44.28778" lon="4.75066">
        <ele>56</ele>
        <time>2018-09-30T05:52:31Z</time>
      </trkpt>
      <trkpt lat="44.28762" lon="4.75078">
        <ele>57</ele>
        <time>2018-09-30T05:52:34Z</time>
      </trkpt>
      <trkpt lat="44.28749" lon="4.7508">
        <ele>57</ele>
        <time>2018-09-30T05:52:36Z</time>
      </trkpt>
      <trkpt lat="44.28728" lon="4.75081">
        <ele>56</ele>
        <time>2018-09-30T05:52:39Z</time>
      </trkpt>
      <trkpt lat="44.28715" lon="4.75081">
        <ele>56</ele>
        <time>2018-09-30T05:52:41Z</time>
      </trkpt>
      <trkpt lat="44.28701" lon="4.75081">
        <ele>56</ele>
        <time>2018-09-30T05:52:43Z</time>
      </trkpt>
      <trkpt lat="44.28687" lon="4.75081">
        <ele>56</ele>
        <time>2018-09-30T05:52:45Z</time>
      </trkpt>
      <trkpt lat="44.28668" lon="4.7508">
        <ele>56</ele>
        <time>2018-09-30T05:52:48Z</time>
      </trkpt>
      <trkpt lat="44.28656" lon="4.75077">
        <ele>56</ele>
        <time>2018-09-30T05:52:50Z</time>
      </trkpt>
      <trkpt lat="44.28637" lon="4.75078">
        <ele>55</ele>
        <time>2018-09-30T05:52:53Z</time>
      </trkpt>
      <trkpt lat="44.28624" lon="4.75079">
        <ele>55</ele>
        <time>2018-09-30T05:52:55Z</time>
      </trkpt>
      <trkpt lat="44.28604" lon="4.75079">
        <ele>55</ele>
        <time>2018-09-30T05:52:58Z</time>
      </trkpt>
      <trkpt lat="44.28591" lon="4.75079">
        <ele>55</ele>
        <time>2018-09-30T05:53:00Z</time>
      </trkpt>
      <trkpt lat="44.28577" lon="4.75079">
        <ele>55</ele>
        <time>2018-09-30T05:53:02Z</time>
      </trkpt>
      <trkpt lat="44.28564" lon="4.75079">
        <ele>55</ele>
        <time>2018-09-30T05:53:04Z</time>
      </trkpt>
      <trkpt lat="44.28543" lon="4.75078">
        <ele>55</ele>
        <time>2018-09-30T05:53:07Z</time>
      </trkpt>
      <trkpt lat="44.2853" lon="4.75077">
        <ele>55</ele>
        <time>2018-09-30T05:53:09Z</time>
      </trkpt>
      <trkpt lat="44.28517" lon="4.75077">
        <ele>54</ele>
        <time>2018-09-30T05:53:11Z</time>
      </trkpt>
      <trkpt lat="44.28497" lon="4.75077">
        <ele>54</ele>
        <time>2018-09-30T05:53:14Z</time>
      </trkpt>
      <trkpt lat="44.28483" lon="4.75076">
        <ele>54</ele>
        <time>2018-09-30T05:53:16Z</time>
      </trkpt>
      <trkpt lat="44.28469" lon="4.75076">
        <ele>55</ele>
        <time>2018-09-30T05:53:18Z</time>
      </trkpt>
      <trkpt lat="44.28448" lon="4.75075">
        <ele>54</ele>
        <time>2018-09-30T05:53:21Z</time>
      </trkpt>
      <trkpt lat="44.28435" lon="4.75073">
        <ele>54</ele>
        <time>2018-09-30T05:53:23Z</time>
      </trkpt>
      <trkpt lat="44.28414" lon="4.7507">
        <ele>54</ele>
        <time>2018-09-30T05:53:26Z</time>
      </trkpt>
      <trkpt lat="44.28401" lon="4.7507">
        <ele>54</ele>
        <time>2018-09-30T05:53:28Z</time>
      </trkpt>
      <trkpt lat="44.28381" lon="4.75074">
        <ele>53</ele>
        <time>2018-09-30T05:53:31Z</time>
      </trkpt>
      <trkpt lat="44.28367" lon="4.75075">
        <ele>53</ele>
        <time>2018-09-30T05:53:33Z</time>
      </trkpt>
      <trkpt lat="44.28353" lon="4.75074">
        <ele>53</ele>
        <time>2018-09-30T05:53:35Z</time>
      </trkpt>
      <trkpt lat="44.28333" lon="4.75074">
        <ele>52</ele>
        <time>2018-09-30T05:53:38Z</time>
      </trkpt>
      <trkpt lat="44.28319" lon="4.75074">
        <ele>53</ele>
        <time>2018-09-30T05:53:40Z</time>
      </trkpt>
      <trkpt lat="44.28306" lon="4.75073">
        <ele>53</ele>
        <time>2018-09-30T05:53:42Z</time>
      </trkpt>
      <trkpt lat="44.28293" lon="4.75073">
        <ele>53</ele>
        <time>2018-09-30T05:53:44Z</time>
      </trkpt>
      <trkpt lat="44.28274" lon="4.75071">
        <ele>52</ele>
        <time>2018-09-30T05:53:47Z</time>
      </trkpt>
      <trkpt lat="44.28262" lon="4.7507">
        <ele>52</ele>
        <time>2018-09-30T05:53:49Z</time>
      </trkpt>
      <trkpt lat="44.28244" lon="4.75072">
        <ele>52</ele>
        <time>2018-09-30T05:53:52Z</time>
      </trkpt>
      <trkpt lat="44.28232" lon="4.75074">
        <ele>52</ele>
        <time>2018-09-30T05:53:54Z</time>
      </trkpt>
      <trkpt lat="44.2822" lon="4.75073">
        <ele>52</ele>
        <time>2018-09-30T05:53:56Z</time>
      </trkpt>
      <trkpt lat="44.28203" lon="4.75072">
        <ele>52</ele>
        <time>2018-09-30T05:53:59Z</time>
      </trkpt>
      <trkpt lat="44.28193" lon="4.75068">
        <ele>52</ele>
        <time>2018-09-30T05:54:01Z</time>
      </trkpt>
      <trkpt lat="44.28183" lon="4.75062">
        <ele>51</ele>
        <time>2018-09-30T05:54:03Z</time>
      </trkpt>
      <trkpt lat="44.28174" lon="4.7507">
        <ele>50</ele>
        <time>2018-09-30T05:54:05Z</time>
      </trkpt>
      <trkpt lat="44.28174" lon="4.75083">
        <ele>50</ele>
        <time>2018-09-30T05:54:07Z</time>
      </trkpt>
      <trkpt lat="44.28174" lon="4.75103">
        <ele>50</ele>
        <time>2018-09-30T05:54:10Z</time>
      </trkpt>
      <trkpt lat="44.28171" lon="4.75117">
        <ele>50</ele>
        <time>2018-09-30T05:54:12Z</time>
      </trkpt>
      <trkpt lat="44.28165" lon="4.75128">
        <ele>50</ele>
        <time>2018-09-30T05:54:14Z</time>
      </trkpt>
      <trkpt lat="44.28149" lon="4.75137">
        <ele>49</ele>
        <time>2018-09-30T05:54:17Z</time>
      </trkpt>
      <trkpt lat="44.28138" lon="4.7514">
        <ele>50</ele>
        <time>2018-09-30T05:54:19Z</time>
      </trkpt>
      <trkpt lat="44.28121" lon="4.75145">
        <ele>50</ele>
        <time>2018-09-30T05:54:22Z</time>
      </trkpt>
      <trkpt lat="44.2811" lon="4.75148">
        <ele>50</ele>
        <time>2018-09-30T05:54:24Z</time>
      </trkpt>
      <trkpt lat="44.28099" lon="4.75151">
        <ele>50</ele>
        <time>2018-09-30T05:54:26Z</time>
      </trkpt>
      <trkpt lat="44.28089" lon="4.75144">
        <ele>50</ele>
        <time>2018-09-30T05:54:29Z</time>
      </trkpt>
      <trkpt lat="44.28087" lon="4.75133">
        <ele>49</ele>
        <time>2018-09-30T05:54:31Z</time>
      </trkpt>
      <trkpt lat="44.28086" lon="4.75121">
        <ele>49</ele>
        <time>2018-09-30T05:54:33Z</time>
      </trkpt>
      <trkpt lat="44.28089" lon="4.7511">
        <ele>49</ele>
        <time>2018-09-30T05:54:36Z</time>
      </trkpt>
      <trkpt lat="44.28088" lon="4.75089">
        <ele>49</ele>
        <time>2018-09-30T05:54:39Z</time>
      </trkpt>
      <trkpt lat="44.28086" lon="4.75074">
        <ele>49</ele>
        <time>2018-09-30T05:54:41Z</time>
      </trkpt>
      <trkpt lat="44.28084" lon="4.75058">
        <ele>49</ele>
        <time>2018-09-30T05:54:43Z</time>
      </trkpt>
      <trkpt lat="44.28083" lon="4.75035">
        <ele>49</ele>
        <time>2018-09-30T05:54:46Z</time>
      </trkpt>
      <trkpt lat="44.28081" lon="4.75022">
        <ele>49</ele>
        <time>2018-09-30T05:54:48Z</time>
      </trkpt>
      <trkpt lat="44.28081" lon="4.75009">
        <ele>49</ele>
        <time>2018-09-30T05:54:50Z</time>
      </trkpt>
      <trkpt lat="44.28082" lon="4.74987">
        <ele>48</ele>
        <time>2018-09-30T05:54:53Z</time>
      </trkpt>
      <trkpt lat="44.28083" lon="4.74973">
        <ele>49</ele>
        <time>2018-09-30T05:54:55Z</time>
      </trkpt>
      <trkpt lat="44.28082" lon="4.74961">
        <ele>49</ele>
        <time>2018-09-30T05:54:57Z</time>
      </trkpt>
      <trkpt lat="44.28076" lon="4.74951">
        <ele>48</ele>
        <time>2018-09-30T05:55:00Z</time>
      </trkpt>
      <trkpt lat="44.2807" lon="4.74948">
        <ele>48</ele>
        <time>2018-09-30T05:55:02Z</time>
      </trkpt>
      <trkpt lat="44.28067" lon="4.74936">
        <ele>48</ele>
        <time>2018-09-30T05:55:05Z</time>
      </trkpt>
      <trkpt lat="44.28067" lon="4.74924">
        <ele>48</ele>
        <time>2018-09-30T05:55:07Z</time>
      </trkpt>
      <trkpt lat="44.28067" lon="4.74905">
        <ele>48</ele>
        <time>2018-09-30T05:55:10Z</time>
      </trkpt>
      <trkpt lat="44.28059" lon="4.7489">
        <ele>48</ele>
        <time>2018-09-30T05:55:13Z</time>
      </trkpt>
      <trkpt lat="44.28047" lon="4.74891">
        <ele>48</ele>
        <time>2018-09-30T05:55:16Z</time>
      </trkpt>
      <trkpt lat="44.28041" lon="4.7489">
        <ele>48</ele>
        <time>2018-09-30T05:55:18Z</time>
      </trkpt>
      <trkpt lat="44.28038" lon="4.74889">
        <ele>48</ele>
        <time>2018-09-30T05:55:20Z</time>
      </trkpt>
      <trkpt lat="44.28035" lon="4.74887">
        <ele>48</ele>
        <time>2018-09-30T05:55:23Z</time>
      </trkpt>
      <trkpt lat="44.28033" lon="4.74885">
        <ele>48</ele>
        <time>2018-09-30T05:55:25Z</time>
      </trkpt>
      <trkpt lat="44.28032" lon="4.74882">
        <ele>48</ele>
        <time>2018-09-30T05:55:27Z</time>
      </trkpt>
      <trkpt lat="44.2803" lon="4.7488">
        <ele>48</ele>
        <time>2018-09-30T05:55:29Z</time>
      </trkpt>
      <trkpt lat="44.28026" lon="4.74878">
        <ele>48</ele>
        <time>2018-09-30T05:55:32Z</time>
      </trkpt>
      <trkpt lat="44.28023" lon="4.74874">
        <ele>48</ele>
        <time>2018-09-30T05:55:35Z</time>
      </trkpt>
      <trkpt lat="44.28021" lon="4.74871">
        <ele>48</ele>
        <time>2018-09-30T05:55:37Z</time>
      </trkpt>
      <trkpt lat="44.28021" lon="4.74868">
        <ele>48</ele>
        <time>2018-09-30T05:55:39Z</time>
      </trkpt>
      <trkpt lat="44.28021" lon="4.74864">
        <ele>48</ele>
        <time>2018-09-30T05:55:41Z</time>
      </trkpt>
      <trkpt lat="44.28021" lon="4.74859">
        <ele>48</ele>
        <time>2018-09-30T05:55:43Z</time>
      </trkpt>
      <trkpt lat="44.28022" lon="4.7485">
        <ele>48</ele>
        <time>2018-09-30T05:55:46Z</time>
      </trkpt>
      <trkpt lat="44.28022" lon="4.74843">
        <ele>48</ele>
        <time>2018-09-30T05:55:48Z</time>
      </trkpt>
      <trkpt lat="44.28022" lon="4.74837">
        <ele>48</ele>
        <time>2018-09-30T05:55:51Z</time>
      </trkpt>
      <trkpt lat="44.28022" lon="4.74833">
        <ele>48</ele>
        <time>2018-09-30T05:55:54Z</time>
      </trkpt>
      <trkpt lat="44.28019" lon="4.7483">
        <ele>48</ele>
        <time>2018-09-30T05:55:57Z</time>
      </trkpt>
      <trkpt lat="44.28017" lon="4.74828">
        <ele>48</ele>
        <time>2018-09-30T05:56:00Z</time>
      </trkpt>
      <trkpt lat="44.28016" lon="4.74826">
        <ele>48</ele>
        <time>2018-09-30T05:56:02Z</time>
      </trkpt>
      <trkpt lat="44.28014" lon="4.74824">
        <ele>48</ele>
        <time>2018-09-30T05:56:05Z</time>
      </trkpt>
      <trkpt lat="44.28013" lon="4.74822">
        <ele>48</ele>
        <time>2018-09-30T05:56:08Z</time>
      </trkpt>
      <trkpt lat="44.28013" lon="4.74821">
        <ele>48</ele>
        <time>2018-09-30T05:56:10Z</time>
      </trkpt>
      <trkpt lat="44.28012" lon="4.74821">
        <ele>48</ele>
        <time>2018-09-30T05:56:14Z</time>
      </trkpt>
      <trkpt lat="44.28012" lon="4.7482">
        <ele>48</ele>
        <time>2018-09-30T05:56:17Z</time>
      </trkpt>
      <trkpt lat="44.28012" lon="4.74819">
        <ele>48</ele>
        <time>2018-09-30T05:56:19Z</time>
      </trkpt>
      <trkpt lat="44.28012" lon="4.74819">
        <ele>48</ele>
        <time>2018-09-30T05:56:22Z</time>
      </trkpt>
      <trkpt lat="44.28013" lon="4.74819">
        <ele>48</ele>
        <time>2018-09-30T05:56:25Z</time>
      </trkpt>
      <trkpt lat="44.28014" lon="4.74819">
        <ele>48</ele>
        <time>2018-09-30T05:56:28Z</time>
      </trkpt>
      <trkpt lat="44.28014" lon="4.74819">
        <ele>48</ele>
        <time>2018-09-30T05:56:30Z</time>
      </trkpt>
      <trkpt lat="44.28015" lon="4.74819">
        <ele>48</ele>
        <time>2018-09-30T05:56:33Z</time>
      </trkpt>
      <trkpt lat="44.28016" lon="4.7482">
        <ele>48</ele>
        <time>2018-09-30T05:56:35Z</time>
      </trkpt>
      <trkpt lat="44.28017" lon="4.74821">
        <ele>48</ele>
        <time>2018-09-30T05:56:38Z</time>
      </trkpt>
      <trkpt lat="44.28016" lon="4.74821">
        <ele>48</ele>
        <time>2018-09-30T05:56:41Z</time>
      </trkpt>
      <trkpt lat="44.28016" lon="4.74821">
        <ele>48</ele>
        <time>2018-09-30T05:56:44Z</time>
      </trkpt>
      <trkpt lat="44.28015" lon="4.7482">
        <ele>48</ele>
        <time>2018-09-30T05:56:46Z</time>
      </trkpt>
      <trkpt lat="44.28014" lon="4.74819">
        <ele>48</ele>
        <time>2018-09-30T05:56:49Z</time>
      </trkpt>
      <trkpt lat="44.28013" lon="4.74818">
        <ele>48</ele>
        <time>2018-09-30T05:56:51Z</time>
      </trkpt>
      <trkpt lat="44.28012" lon="4.74817">
        <ele>48</ele>
        <time>2018-09-30T05:56:54Z</time>
      </trkpt>
      <trkpt lat="44.28011" lon="4.74816">
        <ele>48</ele>
        <time>2018-09-30T05:56:56Z</time>
      </trkpt>
      <trkpt lat="44.2801" lon="4.74815">
        <ele>48</ele>
        <time>2018-09-30T05:56:59Z</time>
      </trkpt>
      <trkpt lat="44.28009" lon="4.74815">
        <ele>48</ele>
        <time>2018-09-30T05:57:01Z</time>
      </trkpt>
      <trkpt lat="44.28009" lon="4.74815">
        <ele>48</ele>
        <time>2018-09-30T05:57:04Z</time>
      </trkpt>
      <trkpt lat="44.28008" lon="4.74815">
        <ele>48</ele>
        <time>2018-09-30T05:57:06Z</time>
      </trkpt>
      <trkpt lat="44.28008" lon="4.74815">
        <ele>48</ele>
        <time>2018-09-30T05:57:09Z</time>
      </trkpt>
      <trkpt lat="44.28008" lon="4.74816">
        <ele>48</ele>
        <time>2018-09-30T05:57:11Z</time>
      </trkpt>
      <trkpt lat="44.28008" lon="4.74817">
        <ele>48</ele>
        <time>2018-09-30T05:57:14Z</time>
      </trkpt>
      <trkpt lat="44.28008" lon="4.74817">
        <ele>48</ele>
        <time>2018-09-30T05:57:16Z</time>
      </trkpt>
      <trkpt lat="44.28008" lon="4.74818">
        <ele>48</ele>
        <time>2018-09-30T05:57:18Z</time>
      </trkpt>
      <trkpt lat="44.28008" lon="4.74819">
        <ele>48</ele>
        <time>2018-09-30T05:57:21Z</time>
      </trkpt>
      <trkpt lat="44.28008" lon="4.74819">
        <ele>48</ele>
        <time>2018-09-30T05:57:24Z</time>
      </trkpt>
      <trkpt lat="44.28009" lon="4.74819">
        <ele>48</ele>
        <time>2018-09-30T05:57:26Z</time>
      </trkpt>
      <trkpt lat="44.28009" lon="4.7482">
        <ele>48</ele>
        <time>2018-09-30T05:57:29Z</time>
      </trkpt>
      <trkpt lat="44.28011" lon="4.7482">
        <ele>48</ele>
        <time>2018-09-30T05:57:31Z</time>
      </trkpt>
      <trkpt lat="44.28012" lon="4.74821">
        <ele>48</ele>
        <time>2018-09-30T05:57:34Z</time>
      </trkpt>
      <trkpt lat="44.28013" lon="4.74821">
        <ele>48</ele>
        <time>2018-09-30T05:57:36Z</time>
      </trkpt>
      <trkpt lat="44.28013" lon="4.74821">
        <ele>48</ele>
        <time>2018-09-30T05:57:40Z</time>
      </trkpt>
      <trkpt lat="44.28013" lon="4.74822">
        <ele>48</ele>
        <time>2018-09-30T05:57:45Z</time>
      </trkpt>
      <trkpt lat="44.28012" lon="4.74822">
        <ele>48</ele>
        <time>2018-09-30T05:57:48Z</time>
      </trkpt>
      <trkpt lat="44.28012" lon="4.74821">
        <ele>48</ele>
        <time>2018-09-30T05:57:50Z</time>
      </trkpt>
      <trkpt lat="44.28011" lon="4.74821">
        <ele>48</ele>
        <time>2018-09-30T05:57:54Z</time>
      </trkpt>
      <trkpt lat="44.28011" lon="4.74821">
        <ele>48</ele>
        <time>2018-09-30T05:57:58Z</time>
      </trkpt>
      <trkpt lat="44.28011" lon="4.74821">
        <ele>48</ele>
        <time>2018-09-30T05:58:01Z</time>
      </trkpt>
      <trkpt lat="44.2801" lon="4.74822">
        <ele>48</ele>
        <time>2018-09-30T05:58:03Z</time>
      </trkpt>
      <trkpt lat="44.28011" lon="4.74822">
        <ele>48</ele>
        <time>2018-09-30T05:58:05Z</time>
      </trkpt>
      <trkpt lat="44.28012" lon="4.74823">
        <ele>48</ele>
        <time>2018-09-30T05:58:08Z</time>
      </trkpt>
      <trkpt lat="44.28012" lon="4.74823">
        <ele>48</ele>
        <time>2018-09-30T05:58:10Z</time>
      </trkpt>
      <trkpt lat="44.28013" lon="4.74823">
        <ele>48</ele>
        <time>2018-09-30T05:58:12Z</time>
      </trkpt>
      <trkpt lat="44.28014" lon="4.74823">
        <ele>48</ele>
        <time>2018-09-30T05:58:15Z</time>
      </trkpt>
      <trkpt lat="44.28014" lon="4.74824">
        <ele>48</ele>
        <time>2018-09-30T05:58:18Z</time>
      </trkpt>
      <trkpt lat="44.28015" lon="4.74824">
        <ele>48</ele>
        <time>2018-09-30T05:58:20Z</time>
      </trkpt>
      <trkpt lat="44.28015" lon="4.74824">
        <ele>48</ele>
        <time>2018-09-30T05:58:23Z</time>
      </trkpt>
      <trkpt lat="44.28016" lon="4.74825">
        <ele>48</ele>
        <time>2018-09-30T05:58:25Z</time>
      </trkpt>
      <trkpt lat="44.28016" lon="4.74826">
        <ele>48</ele>
        <time>2018-09-30T05:58:28Z</time>
      </trkpt>
      <trkpt lat="44.28016" lon="4.74826">
        <ele>48</ele>
        <time>2018-09-30T05:58:30Z</time>
      </trkpt>
      <trkpt lat="44.28017" lon="4.74826">
        <ele>48</ele>
        <time>2018-09-30T05:58:33Z</time>
      </trkpt>
      <trkpt lat="44.28017" lon="4.74826">
        <ele>48</ele>
        <time>2018-09-30T05:58:36Z</time>
      </trkpt>
      <trkpt lat="44.28018" lon="4.74826">
        <ele>48</ele>
        <time>2018-09-30T05:58:38Z</time>
      </trkpt>
      <trkpt lat="44.28018" lon="4.74826">
        <ele>48</ele>
        <time>2018-09-30T05:58:41Z</time>
      </trkpt>
      <trkpt lat="44.28019" lon="4.74826">
        <ele>48</ele>
        <time>2018-09-30T05:58:44Z</time>
      </trkpt>
      <trkpt lat="44.28019" lon="4.74827">
        <ele>48</ele>
        <time>2018-09-30T05:58:47Z</time>
      </trkpt>
      <trkpt lat="44.28019" lon="4.74827">
        <ele>48</ele>
        <time>2018-09-30T05:58:50Z</time>
      </trkpt>
      <trkpt lat="44.28019" lon="4.74828">
        <ele>48</ele>
        <time>2018-09-30T05:58:52Z</time>
      </trkpt>
      <trkpt lat="44.28019" lon="4.74829">
        <ele>48</ele>
        <time>2018-09-30T05:58:54Z</time>
      </trkpt>
      <trkpt lat="44.28019" lon="4.7483">
        <ele>48</ele>
        <time>2018-09-30T05:58:57Z</time>
      </trkpt>
      <trkpt lat="44.28019" lon="4.74831">
        <ele>48</ele>
        <time>2018-09-30T05:59:00Z</time>
      </trkpt>
      <trkpt lat="44.28019" lon="4.74832">
        <ele>48</ele>
        <time>2018-09-30T05:59:03Z</time>
      </trkpt>
      <trkpt lat="44.28018" lon="4.74832">
        <ele>48</ele>
        <time>2018-09-30T05:59:06Z</time>
      </trkpt>
      <trkpt lat="44.28018" lon="4.74832">
        <ele>48</ele>
        <time>2018-09-30T05:59:09Z</time>
      </trkpt>
      <trkpt lat="44.28018" lon="4.74832">
        <ele>48</ele>
        <time>2018-09-30T05:59:12Z</time>
      </trkpt>
      <trkpt lat="44.28017" lon="4.74832">
        <ele>48</ele>
        <time>2018-09-30T05:59:14Z</time>
      </trkpt>
      <trkpt lat="44.28017" lon="4.74832">
        <ele>48</ele>
        <time>2018-09-30T05:59:17Z</time>
      </trkpt>
      <trkpt lat="44.28017" lon="4.74832">
        <ele>48</ele>
        <time>2018-09-30T05:59:20Z</time>
      </trkpt>
      <trkpt lat="44.28017" lon="4.74831">
        <ele>48</ele>
        <time>2018-09-30T05:59:23Z</time>
      </trkpt>
      <trkpt lat="44.28017" lon="4.7483">
        <ele>48</ele>
        <time>2018-09-30T05:59:26Z</time>
      </trkpt>
      <trkpt lat="44.28016" lon="4.74829">
        <ele>48</ele>
        <time>2018-09-30T05:59:29Z</time>
      </trkpt>
      <trkpt lat="44.28015" lon="4.74827">
        <ele>48</ele>
        <time>2018-09-30T05:59:32Z</time>
      </trkpt>
      <trkpt lat="44.28014" lon="4.74825">
        <ele>48</ele>
        <time>2018-09-30T05:59:34Z</time>
      </trkpt>
      <trkpt lat="44.28014" lon="4.74824">
        <ele>48</ele>
        <time>2018-09-30T05:59:37Z</time>
      </trkpt>
      <trkpt lat="44.28014" lon="4.74824">
        <ele>48</ele>
        <time>2018-09-30T05:59:39Z</time>
      </trkpt>
      <trkpt lat="44.28015" lon="4.74824">
        <ele>48</ele>
        <time>2018-09-30T05:59:42Z</time>
      </trkpt>
      <trkpt lat="44.28014" lon="4.74824">
        <ele>48</ele>
        <time>2018-09-30T05:59:44Z</time>
      </trkpt>
      <trkpt lat="44.28015" lon="4.74824">
        <ele>48</ele>
        <time>2018-09-30T05:59:47Z</time>
      </trkpt>
      <trkpt lat="44.28015" lon="4.74825">
        <ele>48</ele>
        <time>2018-09-30T05:59:50Z</time>
      </trkpt>
      <trkpt lat="44.28016" lon="4.74825">
        <ele>48</ele>
        <time>2018-09-30T05:59:53Z</time>
      </trkpt>
      <trkpt lat="44.28017" lon="4.74826">
        <ele>48</ele>
        <time>2018-09-30T05:59:55Z</time>
      </trkpt>
      <trkpt lat="44.28017" lon="4.74826">
        <ele>48</ele>
        <time>2018-09-30T05:59:58Z</time>
      </trkpt>
      <trkpt lat="44.28017" lon="4.74826">
        <ele>48</ele>
        <time>2018-09-30T06:00:00Z</time>
      </trkpt>
      <trkpt lat="44.28017" lon="4.74826">
        <ele>48</ele>
        <time>2018-09-30T06:00:04Z</time>
      </trkpt>
      <trkpt lat="44.28017" lon="4.74826">
        <ele>48</ele>
        <time>2018-09-30T06:00:08Z</time>
      </trkpt>
      <trkpt lat="44.28017" lon="4.74825">
        <ele>48</ele>
        <time>2018-09-30T06:00:11Z</time>
      </trkpt>
      <trkpt lat="44.28017" lon="4.74825">
        <ele>48</ele>
        <time>2018-09-30T06:00:13Z</time>
      </trkpt>
      <trkpt lat="44.28017" lon="4.74824">
        <ele>48</ele>
        <time>2018-09-30T06:00:17Z</time>
      </trkpt>
      <trkpt lat="44.28017" lon="4.74824">
        <ele>48</ele>
        <time>2018-09-30T06:00:20Z</time>
      </trkpt>
      <trkpt lat="44.28017" lon="4.74824">
        <ele>48</ele>
        <time>2018-09-30T06:00:22Z</time>
      </trkpt>
      <trkpt lat="44.28016" lon="4.74824">
        <ele>48</ele>
        <time>2018-09-30T06:00:25Z</time>
      </trkpt>
      <trkpt lat="44.28016" lon="4.74824">
        <ele>48</ele>
        <time>2018-09-30T06:00:27Z</time>
      </trkpt>
      <trkpt lat="44.28016" lon="4.74824">
        <ele>48</ele>
        <time>2018-09-30T06:00:33Z</time>
      </trkpt>
      <trkpt lat="44.28016" lon="4.74824">
        <ele>48</ele>
        <time>2018-09-30T06:00:35Z</time>
      </trkpt>
      <trkpt lat="44.28015" lon="4.74824">
        <ele>48</ele>
        <time>2018-09-30T06:00:38Z</time>
      </trkpt>
      <trkpt lat="44.28015" lon="4.74825">
        <ele>48</ele>
        <time>2018-09-30T06:00:41Z</time>
      </trkpt>
      <trkpt lat="44.28015" lon="4.74825">
        <ele>48</ele>
        <time>2018-09-30T06:00:44Z</time>
      </trkpt>
      <trkpt lat="44.28015" lon="4.74825">
        <ele>48</ele>
        <time>2018-09-30T06:00:47Z</time>
      </trkpt>
      <trkpt lat="44.28015" lon="4.74825">
        <ele>48</ele>
        <time>2018-09-30T06:00:49Z</time>
      </trkpt>
      <trkpt lat="44.28015" lon="4.74826">
        <ele>48</ele>
        <time>2018-09-30T06:00:52Z</time>
      </trkpt>
      <trkpt lat="44.28015" lon="4.74827">
        <ele>48</ele>
        <time>2018-09-30T06:00:54Z</time>
      </trkpt>
      <trkpt lat="44.28016" lon="4.74827">
        <ele>48</ele>
        <time>2018-09-30T06:00:57Z</time>
      </trkpt>
      <trkpt lat="44.28016" lon="4.74828">
        <ele>48</ele>
        <time>2018-09-30T06:01:00Z</time>
      </trkpt>
      <trkpt lat="44.28016" lon="4.74828">
        <ele>48</ele>
        <time>2018-09-30T06:01:03Z</time>
      </trkpt>
      <trkpt lat="44.28016" lon="4.74828">
        <ele>48</ele>
        <time>2018-09-30T06:01:06Z</time>
      </trkpt>
      <trkpt lat="44.28016" lon="4.74828">
        <ele>48</ele>
        <time>2018-09-30T06:01:10Z</time>
      </trkpt>
      <trkpt lat="44.28016" lon="4.74829">
        <ele>48</ele>
        <time>2018-09-30T06:01:13Z</time>
      </trkpt>
      <trkpt lat="44.28015" lon="4.74829">
        <ele>48</ele>
        <time>2018-09-30T06:01:16Z</time>
      </trkpt>
      <trkpt lat="44.28015" lon="4.74829">
        <ele>48</ele>
        <time>2018-09-30T06:01:18Z</time>
      </trkpt>
      <trkpt lat="44.28014" lon="4.7483">
        <ele>48</ele>
        <time>2018-09-30T06:01:21Z</time>
      </trkpt>
      <trkpt lat="44.28014" lon="4.7483">
        <ele>48</ele>
        <time>2018-09-30T06:01:23Z</time>
      </trkpt>
      <trkpt lat="44.28014" lon="4.7483">
        <ele>48</ele>
        <time>2018-09-30T06:01:25Z</time>
      </trkpt>
      <trkpt lat="44.28013" lon="4.7483">
        <ele>48</ele>
        <time>2018-09-30T06:01:28Z</time>
      </trkpt>
      <trkpt lat="44.28013" lon="4.7483">
        <ele>48</ele>
        <time>2018-09-30T06:01:30Z</time>
      </trkpt>
      <trkpt lat="44.28012" lon="4.74831">
        <ele>48</ele>
        <time>2018-09-30T06:01:33Z</time>
      </trkpt>
      <trkpt lat="44.28013" lon="4.74831">
        <ele>48</ele>
        <time>2018-09-30T06:01:36Z</time>
      </trkpt>
      <trkpt lat="44.28013" lon="4.74831">
        <ele>48</ele>
        <time>2018-09-30T06:01:42Z</time>
      </trkpt>
      <trkpt lat="44.28013" lon="4.74831">
        <ele>48</ele>
        <time>2018-09-30T06:01:45Z</time>
      </trkpt>
      <trkpt lat="44.28012" lon="4.74831">
        <ele>48</ele>
        <time>2018-09-30T06:01:49Z</time>
      </trkpt>
      <trkpt lat="44.28012" lon="4.74831">
        <ele>48</ele>
        <time>2018-09-30T06:01:52Z</time>
      </trkpt>
      <trkpt lat="44.28012" lon="4.74831">
        <ele>48</ele>
        <time>2018-09-30T06:01:54Z</time>
      </trkpt>
      <trkpt lat="44.28012" lon="4.7483">
        <ele>48</ele>
        <time>2018-09-30T06:01:57Z</time>
      </trkpt>
      <trkpt lat="44.28012" lon="4.7483">
        <ele>47</ele>
        <time>2018-09-30T06:02:00Z</time>
      </trkpt>
      <trkpt lat="44.28011" lon="4.74829">
        <ele>48</ele>
        <time>2018-09-30T06:02:03Z</time>
      </trkpt>
      <trkpt lat="44.28011" lon="4.74829">
        <ele>48</ele>
        <time>2018-09-30T06:02:05Z</time>
      </trkpt>
      <trkpt lat="44.2801" lon="4.74828">
        <ele>48</ele>
        <time>2018-09-30T06:02:08Z</time>
      </trkpt>
      <trkpt lat="44.2801" lon="4.74828">
        <ele>48</ele>
        <time>2018-09-30T06:02:11Z</time>
      </trkpt>
      <trkpt lat="44.2801" lon="4.74828">
        <ele>48</ele>
        <time>2018-09-30T06:02:14Z</time>
      </trkpt>
      <trkpt lat="44.2801" lon="4.74827">
        <ele>48</ele>
        <time>2018-09-30T06:02:16Z</time>
      </trkpt>
      <trkpt lat="44.2801" lon="4.74827">
        <ele>48</ele>
        <time>2018-09-30T06:02:20Z</time>
      </trkpt>
      <trkpt lat="44.2801" lon="4.74826">
        <ele>48</ele>
        <time>2018-09-30T06:02:22Z</time>
      </trkpt>
      <trkpt lat="44.28009" lon="4.74825">
        <ele>48</ele>
        <time>2018-09-30T06:02:25Z</time>
      </trkpt>
      <trkpt lat="44.28009" lon="4.74824">
        <ele>48</ele>
        <time>2018-09-30T06:02:27Z</time>
      </trkpt>
      <trkpt lat="44.28008" lon="4.74823">
        <ele>48</ele>
        <time>2018-09-30T06:02:29Z</time>
      </trkpt>
      <trkpt lat="44.28007" lon="4.74821">
        <ele>48</ele>
        <time>2018-09-30T06:02:32Z</time>
      </trkpt>
      <trkpt lat="44.28007" lon="4.7482">
        <ele>48</ele>
        <time>2018-09-30T06:02:35Z</time>
      </trkpt>
      <trkpt lat="44.28006" lon="4.74819">
        <ele>48</ele>
        <time>2018-09-30T06:02:38Z</time>
      </trkpt>
      <trkpt lat="44.28006" lon="4.74818">
        <ele>48</ele>
        <time>2018-09-30T06:02:41Z</time>
      </trkpt>
      <trkpt lat="44.28006" lon="4.74818">
        <ele>48</ele>
        <time>2018-09-30T06:02:44Z</time>
      </trkpt>
      <trkpt lat="44.28006" lon="4.74817">
        <ele>48</ele>
        <time>2018-09-30T06:02:46Z</time>
      </trkpt>
      <trkpt lat="44.28005" lon="4.74818">
        <ele>48</ele>
        <time>2018-09-30T06:02:49Z</time>
      </trkpt>
      <trkpt lat="44.28005" lon="4.74819">
        <ele>48</ele>
        <time>2018-09-30T06:02:51Z</time>
      </trkpt>
      <trkpt lat="44.28005" lon="4.74824">
        <ele>48</ele>
        <time>2018-09-30T06:02:54Z</time>
      </trkpt>
      <trkpt lat="44.28005" lon="4.74826">
        <ele>48</ele>
        <time>2018-09-30T06:02:56Z</time>
      </trkpt>
      <trkpt lat="44.28006" lon="4.74831">
        <ele>48</ele>
        <time>2018-09-30T06:02:59Z</time>
      </trkpt>
      <trkpt lat="44.28006" lon="4.74837">
        <ele>48</ele>
        <time>2018-09-30T06:03:01Z</time>
      </trkpt>
      <trkpt lat="44.28006" lon="4.74849">
        <ele>48</ele>
        <time>2018-09-30T06:03:04Z</time>
      </trkpt>
      <trkpt lat="44.28005" lon="4.74864">
        <ele>48</ele>
        <time>2018-09-30T06:03:07Z</time>
      </trkpt>
      <trkpt lat="44.28004" lon="4.74879">
        <ele>49</ele>
        <time>2018-09-30T06:03:10Z</time>
      </trkpt>
      <trkpt lat="44.28005" lon="4.74893">
        <ele>49</ele>
        <time>2018-09-30T06:03:13Z</time>
      </trkpt>
      <trkpt lat="44.28006" lon="4.74905">
        <ele>49</ele>
        <time>2018-09-30T06:03:15Z</time>
      </trkpt>
      <trkpt lat="44.28004" lon="4.74918">
        <ele>49</ele>
        <time>2018-09-30T06:03:17Z</time>
      </trkpt>
      <trkpt lat="44.28008" lon="4.74937">
        <ele>49</ele>
        <time>2018-09-30T06:03:20Z</time>
      </trkpt>
      <trkpt lat="44.28014" lon="4.74939">
        <ele>49</ele>
        <time>2018-09-30T06:03:22Z</time>
      </trkpt>
      <trkpt lat="44.28028" lon="4.74935">
        <ele>48</ele>
        <time>2018-09-30T06:03:25Z</time>
      </trkpt>
      <trkpt lat="44.28038" lon="4.74933">
        <ele>48</ele>
        <time>2018-09-30T06:03:28Z</time>
      </trkpt>
      <trkpt lat="44.28046" lon="4.74932">
        <ele>48</ele>
        <time>2018-09-30T06:03:31Z</time>
      </trkpt>
      <trkpt lat="44.2805" lon="4.7493">
        <ele>48</ele>
        <time>2018-09-30T06:03:34Z</time>
      </trkpt>
      <trkpt lat="44.28052" lon="4.74927">
        <ele>48</ele>
        <time>2018-09-30T06:03:36Z</time>
      </trkpt>
      <trkpt lat="44.28053" lon="4.74924">
        <ele>48</ele>
        <time>2018-09-30T06:03:38Z</time>
      </trkpt>
      <trkpt lat="44.28054" lon="4.74918">
        <ele>48</ele>
        <time>2018-09-30T06:03:41Z</time>
      </trkpt>
      <trkpt lat="44.28056" lon="4.74911">
        <ele>48</ele>
        <time>2018-09-30T06:03:44Z</time>
      </trkpt>
      <trkpt lat="44.28058" lon="4.74904">
        <ele>48</ele>
        <time>2018-09-30T06:03:46Z</time>
      </trkpt>
      <trkpt lat="44.28059" lon="4.74892">
        <ele>48</ele>
        <time>2018-09-30T06:03:49Z</time>
      </trkpt>
      <trkpt lat="44.28053" lon="4.74883">
        <ele>48</ele>
        <time>2018-09-30T06:03:52Z</time>
      </trkpt>
      <trkpt lat="44.28046" lon="4.74883">
        <ele>48</ele>
        <time>2018-09-30T06:03:54Z</time>
      </trkpt>
      <trkpt lat="44.28039" lon="4.74884">
        <ele>48</ele>
        <time>2018-09-30T06:03:56Z</time>
      </trkpt>
      <trkpt lat="44.28033" lon="4.74878">
        <ele>49</ele>
        <time>2018-09-30T06:03:59Z</time>
      </trkpt>
      <trkpt lat="44.28026" lon="4.74872">
        <ele>48</ele>
        <time>2018-09-30T06:04:02Z</time>
      </trkpt>
      <trkpt lat="44.28025" lon="4.74863">
        <ele>48</ele>
        <time>2018-09-30T06:04:04Z</time>
      </trkpt>
      <trkpt lat="44.28023" lon="4.74846">
        <ele>48</ele>
        <time>2018-09-30T06:04:07Z</time>
      </trkpt>
      <trkpt lat="44.28022" lon="4.74833">
        <ele>49</ele>
        <time>2018-09-30T06:04:09Z</time>
      </trkpt>
      <trkpt lat="44.28022" lon="4.7482">
        <ele>49</ele>
        <time>2018-09-30T06:04:11Z</time>
      </trkpt>
      <trkpt lat="44.28023" lon="4.74803">
        <ele>49</ele>
        <time>2018-09-30T06:04:14Z</time>
      </trkpt>
      <trkpt lat="44.28022" lon="4.74794">
        <ele>48</ele>
        <time>2018-09-30T06:04:17Z</time>
      </trkpt>
      <trkpt lat="44.28015" lon="4.74793">
        <ele>48</ele>
        <time>2018-09-30T06:04:20Z</time>
      </trkpt>
      <trkpt lat="44.28011" lon="4.74795">
        <ele>47</ele>
        <time>2018-09-30T06:04:22Z</time>
      </trkpt>
      <trkpt lat="44.28004" lon="4.74797">
        <ele>48</ele>
        <time>2018-09-30T06:04:24Z</time>
      </trkpt>
      <trkpt lat="44.27998" lon="4.74801">
        <ele>48</ele>
        <time>2018-09-30T06:04:26Z</time>
      </trkpt>
      <trkpt lat="44.27991" lon="4.74804">
        <ele>49</ele>
        <time>2018-09-30T06:04:28Z</time>
      </trkpt>
      <trkpt lat="44.27981" lon="4.74808">
        <ele>50</ele>
        <time>2018-09-30T06:04:31Z</time>
      </trkpt>
      <trkpt lat="44.27973" lon="4.74809">
        <ele>50</ele>
        <time>2018-09-30T06:04:34Z</time>
      </trkpt>
      <trkpt lat="44.27971" lon="4.74802">
        <ele>50</ele>
        <time>2018-09-30T06:04:36Z</time>
      </trkpt>
      <trkpt lat="44.27966" lon="4.74788">
        <ele>51</ele>
        <time>2018-09-30T06:04:39Z</time>
      </trkpt>
      <trkpt lat="44.27962" lon="4.74778">
        <ele>51</ele>
        <time>2018-09-30T06:04:41Z</time>
      </trkpt>
      <trkpt lat="44.27956" lon="4.74761">
        <ele>52</ele>
        <time>2018-09-30T06:04:44Z</time>
      </trkpt>
      <trkpt lat="44.27951" lon="4.74751">
        <ele>51</ele>
        <time>2018-09-30T06:04:46Z</time>
      </trkpt>
      <trkpt lat="44.27946" lon="4.74741">
        <ele>51</ele>
        <time>2018-09-30T06:04:48Z</time>
      </trkpt>
      <trkpt lat="44.27942" lon="4.74724">
        <ele>51</ele>
        <time>2018-09-30T06:04:51Z</time>
      </trkpt>
      <trkpt lat="44.27941" lon="4.74712">
        <ele>51</ele>
        <time>2018-09-30T06:04:53Z</time>
      </trkpt>
      <trkpt lat="44.27939" lon="4.747">
        <ele>51</ele>
        <time>2018-09-30T06:04:55Z</time>
      </trkpt>
      <trkpt lat="44.27932" lon="4.74684">
        <ele>51</ele>
        <time>2018-09-30T06:04:58Z</time>
      </trkpt>
      <trkpt lat="44.27926" lon="4.74673">
        <ele>51</ele>
        <time>2018-09-30T06:05:00Z</time>
      </trkpt>
      <trkpt lat="44.27921" lon="4.74662">
        <ele>51</ele>
        <time>2018-09-30T06:05:02Z</time>
      </trkpt>
      <trkpt lat="44.27913" lon="4.74644">
        <ele>51</ele>
        <time>2018-09-30T06:05:05Z</time>
      </trkpt>
      <trkpt lat="44.27914" lon="4.74632">
        <ele>52</ele>
        <time>2018-09-30T06:05:07Z</time>
      </trkpt>
      <trkpt lat="44.27908" lon="4.74611">
        <ele>52</ele>
        <time>2018-09-30T06:05:10Z</time>
      </trkpt>
      <trkpt lat="44.27892" lon="4.74609">
        <ele>52</ele>
        <time>2018-09-30T06:05:13Z</time>
      </trkpt>
      <trkpt lat="44.27882" lon="4.74611">
        <ele>52</ele>
        <time>2018-09-30T06:05:15Z</time>
      </trkpt>
      <trkpt lat="44.27873" lon="4.74611">
        <ele>52</ele>
        <time>2018-09-30T06:05:17Z</time>
      </trkpt>
      <trkpt lat="44.27861" lon="4.74602">
        <ele>53</ele>
        <time>2018-09-30T06:05:20Z</time>
      </trkpt>
      <trkpt lat="44.27853" lon="4.74595">
        <ele>53</ele>
        <time>2018-09-30T06:05:22Z</time>
      </trkpt>
      <trkpt lat="44.27838" lon="4.74584">
        <ele>54</ele>
        <time>2018-09-30T06:05:25Z</time>
      </trkpt>
      <trkpt lat="44.27828" lon="4.74576">
        <ele>54</ele>
        <time>2018-09-30T06:05:27Z</time>
      </trkpt>
      <trkpt lat="44.27818" lon="4.74569">
        <ele>55</ele>
        <time>2018-09-30T06:05:29Z</time>
      </trkpt>
      <trkpt lat="44.27808" lon="4.74562">
        <ele>55</ele>
        <time>2018-09-30T06:05:31Z</time>
      </trkpt>
      <trkpt lat="44.27793" lon="4.74551">
        <ele>55</ele>
        <time>2018-09-30T06:05:34Z</time>
      </trkpt>
      <trkpt lat="44.27783" lon="4.74544">
        <ele>55</ele>
        <time>2018-09-30T06:05:36Z</time>
      </trkpt>
      <trkpt lat="44.27774" lon="4.74536">
        <ele>54</ele>
        <time>2018-09-30T06:05:38Z</time>
      </trkpt>
      <trkpt lat="44.27758" lon="4.74525">
        <ele>54</ele>
        <time>2018-09-30T06:05:41Z</time>
      </trkpt>
      <trkpt lat="44.27747" lon="4.74518">
        <ele>54</ele>
        <time>2018-09-30T06:05:43Z</time>
      </trkpt>
      <trkpt lat="44.27736" lon="4.7451">
        <ele>54</ele>
        <time>2018-09-30T06:05:45Z</time>
      </trkpt>
      <trkpt lat="44.27718" lon="4.74499">
        <ele>54</ele>
        <time>2018-09-30T06:05:48Z</time>
      </trkpt>
      <trkpt lat="44.27707" lon="4.7449">
        <ele>54</ele>
        <time>2018-09-30T06:05:50Z</time>
      </trkpt>
      <trkpt lat="44.27695" lon="4.74482">
        <ele>53</ele>
        <time>2018-09-30T06:05:52Z</time>
      </trkpt>
      <trkpt lat="44.27682" lon="4.74475">
        <ele>53</ele>
        <time>2018-09-30T06:05:54Z</time>
      </trkpt>
      <trkpt lat="44.27663" lon="4.74467">
        <ele>53</ele>
        <time>2018-09-30T06:05:57Z</time>
      </trkpt>
      <trkpt lat="44.2765" lon="4.74463">
        <ele>54</ele>
        <time>2018-09-30T06:05:59Z</time>
      </trkpt>
      <trkpt lat="44.2763" lon="4.74458">
        <ele>54</ele>
        <time>2018-09-30T06:06:02Z</time>
      </trkpt>
      <trkpt lat="44.27617" lon="4.74455">
        <ele>54</ele>
        <time>2018-09-30T06:06:04Z</time>
      </trkpt>
      <trkpt lat="44.27603" lon="4.74452">
        <ele>53</ele>
        <time>2018-09-30T06:06:06Z</time>
      </trkpt>
      <trkpt lat="44.27583" lon="4.74447">
        <ele>53</ele>
        <time>2018-09-30T06:06:09Z</time>
      </trkpt>
      <trkpt lat="44.27568" lon="4.74443">
        <ele>53</ele>
        <time>2018-09-30T06:06:11Z</time>
      </trkpt>
      <trkpt lat="44.27547" lon="4.74438">
        <ele>53</ele>
        <time>2018-09-30T06:06:14Z</time>
      </trkpt>
      <trkpt lat="44.27533" lon="4.74434">
        <ele>52</ele>
        <time>2018-09-30T06:06:16Z</time>
      </trkpt>
      <trkpt lat="44.27518" lon="4.7443">
        <ele>52</ele>
        <time>2018-09-30T06:06:18Z</time>
      </trkpt>
      <trkpt lat="44.27504" lon="4.74427">
        <ele>52</ele>
        <time>2018-09-30T06:06:20Z</time>
      </trkpt>
      <trkpt lat="44.27489" lon="4.74423">
        <ele>50</ele>
        <time>2018-09-30T06:06:22Z</time>
      </trkpt>
      <trkpt lat="44.27475" lon="4.74419">
        <ele>50</ele>
        <time>2018-09-30T06:06:24Z</time>
      </trkpt>
      <trkpt lat="44.27454" lon="4.74414">
        <ele>51</ele>
        <time>2018-09-30T06:06:27Z</time>
      </trkpt>
      <trkpt lat="44.27441" lon="4.7441">
        <ele>51</ele>
        <time>2018-09-30T06:06:29Z</time>
      </trkpt>
      <trkpt lat="44.27427" lon="4.74406">
        <ele>52</ele>
        <time>2018-09-30T06:06:31Z</time>
      </trkpt>
      <trkpt lat="44.27414" lon="4.74403">
        <ele>52</ele>
        <time>2018-09-30T06:06:33Z</time>
      </trkpt>
      <trkpt lat="44.274" lon="4.744">
        <ele>52</ele>
        <time>2018-09-30T06:06:35Z</time>
      </trkpt>
      <trkpt lat="44.27387" lon="4.74396">
        <ele>52</ele>
        <time>2018-09-30T06:06:37Z</time>
      </trkpt>
      <trkpt lat="44.27367" lon="4.74389">
        <ele>52</ele>
        <time>2018-09-30T06:06:40Z</time>
      </trkpt>
      <trkpt lat="44.27347" lon="4.74381">
        <ele>52</ele>
        <time>2018-09-30T06:06:43Z</time>
      </trkpt>
      <trkpt lat="44.27327" lon="4.74373">
        <ele>51</ele>
        <time>2018-09-30T06:06:46Z</time>
      </trkpt>
      <trkpt lat="44.27315" lon="4.74368">
        <ele>51</ele>
        <time>2018-09-30T06:06:48Z</time>
      </trkpt>
      <trkpt lat="44.27296" lon="4.7436">
        <ele>52</ele>
        <time>2018-09-30T06:06:51Z</time>
      </trkpt>
      <trkpt lat="44.27284" lon="4.74355">
        <ele>52</ele>
        <time>2018-09-30T06:06:53Z</time>
      </trkpt>
      <trkpt lat="44.27265" lon="4.74347">
        <ele>52</ele>
        <time>2018-09-30T06:06:56Z</time>
      </trkpt>
      <trkpt lat="44.27253" lon="4.74342">
        <ele>52</ele>
        <time>2018-09-30T06:06:58Z</time>
      </trkpt>
      <trkpt lat="44.27235" lon="4.74336">
        <ele>52</ele>
        <time>2018-09-30T06:07:01Z</time>
      </trkpt>
      <trkpt lat="44.27222" lon="4.74332">
        <ele>52</ele>
        <time>2018-09-30T06:07:03Z</time>
      </trkpt>
      <trkpt lat="44.2721" lon="4.74328">
        <ele>52</ele>
        <time>2018-09-30T06:07:05Z</time>
      </trkpt>
      <trkpt lat="44.27191" lon="4.74323">
        <ele>52</ele>
        <time>2018-09-30T06:07:08Z</time>
      </trkpt>
      <trkpt lat="44.27179" lon="4.7432">
        <ele>52</ele>
        <time>2018-09-30T06:07:10Z</time>
      </trkpt>
      <trkpt lat="44.27167" lon="4.74317">
        <ele>52</ele>
        <time>2018-09-30T06:07:12Z</time>
      </trkpt>
      <trkpt lat="44.27147" lon="4.74312">
        <ele>52</ele>
        <time>2018-09-30T06:07:15Z</time>
      </trkpt>
      <trkpt lat="44.27134" lon="4.74308">
        <ele>52</ele>
        <time>2018-09-30T06:07:17Z</time>
      </trkpt>
      <trkpt lat="44.2712" lon="4.74305">
        <ele>52</ele>
        <time>2018-09-30T06:07:19Z</time>
      </trkpt>
      <trkpt lat="44.271" lon="4.743">
        <ele>52</ele>
        <time>2018-09-30T06:07:22Z</time>
      </trkpt>
      <trkpt lat="44.27087" lon="4.74297">
        <ele>51</ele>
        <time>2018-09-30T06:07:24Z</time>
      </trkpt>
      <trkpt lat="44.27073" lon="4.74294">
        <ele>51</ele>
        <time>2018-09-30T06:07:26Z</time>
      </trkpt>
      <trkpt lat="44.27052" lon="4.74289">
        <ele>51</ele>
        <time>2018-09-30T06:07:29Z</time>
      </trkpt>
      <trkpt lat="44.27038" lon="4.74285">
        <ele>51</ele>
        <time>2018-09-30T06:07:31Z</time>
      </trkpt>
      <trkpt lat="44.27023" lon="4.74281">
        <ele>51</ele>
        <time>2018-09-30T06:07:33Z</time>
      </trkpt>
      <trkpt lat="44.27001" lon="4.74275">
        <ele>50</ele>
        <time>2018-09-30T06:07:36Z</time>
      </trkpt>
      <trkpt lat="44.26987" lon="4.74271">
        <ele>50</ele>
        <time>2018-09-30T06:07:38Z</time>
      </trkpt>
      <trkpt lat="44.26974" lon="4.74266">
        <ele>50</ele>
        <time>2018-09-30T06:07:40Z</time>
      </trkpt>
      <trkpt lat="44.26953" lon="4.74256">
        <ele>50</ele>
        <time>2018-09-30T06:07:43Z</time>
      </trkpt>
      <trkpt lat="44.26939" lon="4.74249">
        <ele>50</ele>
        <time>2018-09-30T06:07:45Z</time>
      </trkpt>
      <trkpt lat="44.26916" lon="4.74237">
        <ele>50</ele>
        <time>2018-09-30T06:07:48Z</time>
      </trkpt>
      <trkpt lat="44.269" lon="4.74229">
        <ele>49</ele>
        <time>2018-09-30T06:07:50Z</time>
      </trkpt>
      <trkpt lat="44.26877" lon="4.74218">
        <ele>49</ele>
        <time>2018-09-30T06:07:53Z</time>
      </trkpt>
      <trkpt lat="44.26862" lon="4.74209">
        <ele>48</ele>
        <time>2018-09-30T06:07:55Z</time>
      </trkpt>
      <trkpt lat="44.26839" lon="4.74196">
        <ele>48</ele>
        <time>2018-09-30T06:07:58Z</time>
      </trkpt>
      <trkpt lat="44.26823" lon="4.74188">
        <ele>48</ele>
        <time>2018-09-30T06:08:00Z</time>
      </trkpt>
      <trkpt lat="44.26808" lon="4.7418">
        <ele>47</ele>
        <time>2018-09-30T06:08:02Z</time>
      </trkpt>
      <trkpt lat="44.26791" lon="4.74172">
        <ele>48</ele>
        <time>2018-09-30T06:08:04Z</time>
      </trkpt>
      <trkpt lat="44.26767" lon="4.74161">
        <ele>47</ele>
        <time>2018-09-30T06:08:07Z</time>
      </trkpt>
      <trkpt lat="44.26751" lon="4.74154">
        <ele>47</ele>
        <time>2018-09-30T06:08:09Z</time>
      </trkpt>
      <trkpt lat="44.26726" lon="4.74144">
        <ele>47</ele>
        <time>2018-09-30T06:08:12Z</time>
      </trkpt>
      <trkpt lat="44.2671" lon="4.74138">
        <ele>46</ele>
        <time>2018-09-30T06:08:14Z</time>
      </trkpt>
      <trkpt lat="44.26686" lon="4.7413">
        <ele>46</ele>
        <time>2018-09-30T06:08:17Z</time>
      </trkpt>
      <trkpt lat="44.26662" lon="4.74125">
        <ele>45</ele>
        <time>2018-09-30T06:08:20Z</time>
      </trkpt>
      <trkpt lat="44.26638" lon="4.7412">
        <ele>45</ele>
        <time>2018-09-30T06:08:23Z</time>
      </trkpt>
      <trkpt lat="44.26623" lon="4.74117">
        <ele>45</ele>
        <time>2018-09-30T06:08:25Z</time>
      </trkpt>
      <trkpt lat="44.26608" lon="4.74114">
        <ele>45</ele>
        <time>2018-09-30T06:08:27Z</time>
      </trkpt>
      <trkpt lat="44.26585" lon="4.74111">
        <ele>44</ele>
        <time>2018-09-30T06:08:30Z</time>
      </trkpt>
      <trkpt lat="44.26562" lon="4.74108">
        <ele>44</ele>
        <time>2018-09-30T06:08:33Z</time>
      </trkpt>
      <trkpt lat="44.26547" lon="4.74106">
        <ele>44</ele>
        <time>2018-09-30T06:08:35Z</time>
      </trkpt>
      <trkpt lat="44.26524" lon="4.74104">
        <ele>45</ele>
        <time>2018-09-30T06:08:38Z</time>
      </trkpt>
      <trkpt lat="44.26509" lon="4.74104">
        <ele>45</ele>
        <time>2018-09-30T06:08:40Z</time>
      </trkpt>
      <trkpt lat="44.26494" lon="4.74104">
        <ele>45</ele>
        <time>2018-09-30T06:08:42Z</time>
      </trkpt>
      <trkpt lat="44.26471" lon="4.74104">
        <ele>45</ele>
        <time>2018-09-30T06:08:45Z</time>
      </trkpt>
      <trkpt lat="44.2645" lon="4.74105">
        <ele>46</ele>
        <time>2018-09-30T06:08:48Z</time>
      </trkpt>
      <trkpt lat="44.26429" lon="4.74107">
        <ele>46</ele>
        <time>2018-09-30T06:08:51Z</time>
      </trkpt>
      <trkpt lat="44.26415" lon="4.7411">
        <ele>46</ele>
        <time>2018-09-30T06:08:53Z</time>
      </trkpt>
      <trkpt lat="44.26395" lon="4.74113">
        <ele>46</ele>
        <time>2018-09-30T06:08:56Z</time>
      </trkpt>
      <trkpt lat="44.26381" lon="4.74116">
        <ele>47</ele>
        <time>2018-09-30T06:08:58Z</time>
      </trkpt>
      <trkpt lat="44.26368" lon="4.74119">
        <ele>47</ele>
        <time>2018-09-30T06:09:00Z</time>
      </trkpt>
      <trkpt lat="44.26355" lon="4.74122">
        <ele>47</ele>
        <time>2018-09-30T06:09:02Z</time>
      </trkpt>
      <trkpt lat="44.26342" lon="4.74124">
        <ele>47</ele>
        <time>2018-09-30T06:09:04Z</time>
      </trkpt>
      <trkpt lat="44.26323" lon="4.74127">
        <ele>47</ele>
        <time>2018-09-30T06:09:07Z</time>
      </trkpt>
      <trkpt lat="44.2631" lon="4.74127">
        <ele>47</ele>
        <time>2018-09-30T06:09:09Z</time>
      </trkpt>
      <trkpt lat="44.26291" lon="4.74119">
        <ele>48</ele>
        <time>2018-09-30T06:09:12Z</time>
      </trkpt>
      <trkpt lat="44.26272" lon="4.74122">
        <ele>48</ele>
        <time>2018-09-30T06:09:15Z</time>
      </trkpt>
      <trkpt lat="44.26257" lon="4.74139">
        <ele>48</ele>
        <time>2018-09-30T06:09:18Z</time>
      </trkpt>
      <trkpt lat="44.26244" lon="4.74143">
        <ele>48</ele>
        <time>2018-09-30T06:09:20Z</time>
      </trkpt>
      <trkpt lat="44.26223" lon="4.74145">
        <ele>48</ele>
        <time>2018-09-30T06:09:23Z</time>
      </trkpt>
      <trkpt lat="44.26201" lon="4.74144">
        <ele>48</ele>
        <time>2018-09-30T06:09:26Z</time>
      </trkpt>
      <trkpt lat="44.26179" lon="4.74141">
        <ele>48</ele>
        <time>2018-09-30T06:09:29Z</time>
      </trkpt>
      <trkpt lat="44.26157" lon="4.74135">
        <ele>48</ele>
        <time>2018-09-30T06:09:32Z</time>
      </trkpt>
      <trkpt lat="44.26143" lon="4.74131">
        <ele>48</ele>
        <time>2018-09-30T06:09:34Z</time>
      </trkpt>
      <trkpt lat="44.26121" lon="4.74123">
        <ele>48</ele>
        <time>2018-09-30T06:09:37Z</time>
      </trkpt>
      <trkpt lat="44.26106" lon="4.74116">
        <ele>48</ele>
        <time>2018-09-30T06:09:39Z</time>
      </trkpt>
      <trkpt lat="44.26084" lon="4.74104">
        <ele>47</ele>
        <time>2018-09-30T06:09:42Z</time>
      </trkpt>
      <trkpt lat="44.26062" lon="4.7409">
        <ele>47</ele>
        <time>2018-09-30T06:09:45Z</time>
      </trkpt>
      <trkpt lat="44.26042" lon="4.74075">
        <ele>47</ele>
        <time>2018-09-30T06:09:48Z</time>
      </trkpt>
      <trkpt lat="44.26022" lon="4.74061">
        <ele>47</ele>
        <time>2018-09-30T06:09:51Z</time>
      </trkpt>
      <trkpt lat="44.26001" lon="4.74047">
        <ele>46</ele>
        <time>2018-09-30T06:09:54Z</time>
      </trkpt>
      <trkpt lat="44.25981" lon="4.74032">
        <ele>47</ele>
        <time>2018-09-30T06:09:57Z</time>
      </trkpt>
      <trkpt lat="44.25961" lon="4.74018">
        <ele>47</ele>
        <time>2018-09-30T06:10:00Z</time>
      </trkpt>
      <trkpt lat="44.25942" lon="4.74003">
        <ele>48</ele>
        <time>2018-09-30T06:10:03Z</time>
      </trkpt>
      <trkpt lat="44.25929" lon="4.73994">
        <ele>48</ele>
        <time>2018-09-30T06:10:05Z</time>
      </trkpt>
      <trkpt lat="44.25909" lon="4.7398">
        <ele>48</ele>
        <time>2018-09-30T06:10:08Z</time>
      </trkpt>
      <trkpt lat="44.25896" lon="4.7397">
        <ele>47</ele>
        <time>2018-09-30T06:10:10Z</time>
      </trkpt>
      <trkpt lat="44.25875" lon="4.73955">
        <ele>48</ele>
        <time>2018-09-30T06:10:13Z</time>
      </trkpt>
      <trkpt lat="44.25861" lon="4.73945">
        <ele>48</ele>
        <time>2018-09-30T06:10:15Z</time>
      </trkpt>
      <trkpt lat="44.2584" lon="4.73928">
        <ele>48</ele>
        <time>2018-09-30T06:10:18Z</time>
      </trkpt>
      <trkpt lat="44.25827" lon="4.73916">
        <ele>47</ele>
        <time>2018-09-30T06:10:20Z</time>
      </trkpt>
      <trkpt lat="44.25806" lon="4.73897">
        <ele>47</ele>
        <time>2018-09-30T06:10:23Z</time>
      </trkpt>
      <trkpt lat="44.25792" lon="4.73884">
        <ele>47</ele>
        <time>2018-09-30T06:10:25Z</time>
      </trkpt>
      <trkpt lat="44.25778" lon="4.73871">
        <ele>46</ele>
        <time>2018-09-30T06:10:27Z</time>
      </trkpt>
      <trkpt lat="44.25758" lon="4.73852">
        <ele>45</ele>
        <time>2018-09-30T06:10:30Z</time>
      </trkpt>
      <trkpt lat="44.25745" lon="4.73839">
        <ele>44</ele>
        <time>2018-09-30T06:10:32Z</time>
      </trkpt>
      <trkpt lat="44.25731" lon="4.73826">
        <ele>44</ele>
        <time>2018-09-30T06:10:34Z</time>
      </trkpt>
      <trkpt lat="44.25718" lon="4.73813">
        <ele>44</ele>
        <time>2018-09-30T06:10:36Z</time>
      </trkpt>
      <trkpt lat="44.25698" lon="4.73793">
        <ele>44</ele>
        <time>2018-09-30T06:10:39Z</time>
      </trkpt>
      <trkpt lat="44.25685" lon="4.7378">
        <ele>44</ele>
        <time>2018-09-30T06:10:41Z</time>
      </trkpt>
      <trkpt lat="44.25668" lon="4.73763">
        <ele>44</ele>
        <time>2018-09-30T06:10:44Z</time>
      </trkpt>
      <trkpt lat="44.25655" lon="4.73751">
        <ele>44</ele>
        <time>2018-09-30T06:10:46Z</time>
      </trkpt>
      <trkpt lat="44.25643" lon="4.73738">
        <ele>44</ele>
        <time>2018-09-30T06:10:48Z</time>
      </trkpt>
      <trkpt lat="44.25631" lon="4.73726">
        <ele>44</ele>
        <time>2018-09-30T06:10:50Z</time>
      </trkpt>
      <trkpt lat="44.25619" lon="4.73711">
        <ele>43</ele>
        <time>2018-09-30T06:10:52Z</time>
      </trkpt>
      <trkpt lat="44.25608" lon="4.73697">
        <ele>43</ele>
        <time>2018-09-30T06:10:54Z</time>
      </trkpt>
      <trkpt lat="44.25593" lon="4.73673">
        <ele>43</ele>
        <time>2018-09-30T06:10:57Z</time>
      </trkpt>
      <trkpt lat="44.25583" lon="4.73656">
        <ele>43</ele>
        <time>2018-09-30T06:10:59Z</time>
      </trkpt>
      <trkpt lat="44.25574" lon="4.73639">
        <ele>43</ele>
        <time>2018-09-30T06:11:01Z</time>
      </trkpt>
      <trkpt lat="44.25562" lon="4.73614">
        <ele>42</ele>
        <time>2018-09-30T06:11:04Z</time>
      </trkpt>
      <trkpt lat="44.25554" lon="4.73595">
        <ele>42</ele>
        <time>2018-09-30T06:11:06Z</time>
      </trkpt>
      <trkpt lat="44.25542" lon="4.73567">
        <ele>42</ele>
        <time>2018-09-30T06:11:09Z</time>
      </trkpt>
      <trkpt lat="44.25531" lon="4.73538">
        <ele>42</ele>
        <time>2018-09-30T06:11:12Z</time>
      </trkpt>
      <trkpt lat="44.25523" lon="4.7352">
        <ele>42</ele>
        <time>2018-09-30T06:11:14Z</time>
      </trkpt>
      <trkpt lat="44.25512" lon="4.73492">
        <ele>42</ele>
        <time>2018-09-30T06:11:17Z</time>
      </trkpt>
      <trkpt lat="44.25503" lon="4.73475">
        <ele>42</ele>
        <time>2018-09-30T06:11:19Z</time>
      </trkpt>
      <trkpt lat="44.25488" lon="4.7345">
        <ele>42</ele>
        <time>2018-09-30T06:11:22Z</time>
      </trkpt>
      <trkpt lat="44.25478" lon="4.73434">
        <ele>42</ele>
        <time>2018-09-30T06:11:24Z</time>
      </trkpt>
      <trkpt lat="44.25462" lon="4.73412">
        <ele>42</ele>
        <time>2018-09-30T06:11:27Z</time>
      </trkpt>
      <trkpt lat="44.25451" lon="4.73399">
        <ele>42</ele>
        <time>2018-09-30T06:11:29Z</time>
      </trkpt>
      <trkpt lat="44.25434" lon="4.73378">
        <ele>42</ele>
        <time>2018-09-30T06:11:32Z</time>
      </trkpt>
      <trkpt lat="44.25418" lon="4.73358">
        <ele>41</ele>
        <time>2018-09-30T06:11:35Z</time>
      </trkpt>
      <trkpt lat="44.25407" lon="4.73345">
        <ele>41</ele>
        <time>2018-09-30T06:11:37Z</time>
      </trkpt>
      <trkpt lat="44.25396" lon="4.73331">
        <ele>42</ele>
        <time>2018-09-30T06:11:39Z</time>
      </trkpt>
      <trkpt lat="44.25386" lon="4.73318">
        <ele>41</ele>
        <time>2018-09-30T06:11:41Z</time>
      </trkpt>
      <trkpt lat="44.2537" lon="4.733">
        <ele>41</ele>
        <time>2018-09-30T06:11:44Z</time>
      </trkpt>
      <trkpt lat="44.25359" lon="4.73287">
        <ele>41</ele>
        <time>2018-09-30T06:11:46Z</time>
      </trkpt>
      <trkpt lat="44.25348" lon="4.73275">
        <ele>42</ele>
        <time>2018-09-30T06:11:48Z</time>
      </trkpt>
      <trkpt lat="44.25328" lon="4.7326">
        <ele>42</ele>
        <time>2018-09-30T06:11:51Z</time>
      </trkpt>
      <trkpt lat="44.25315" lon="4.73251">
        <ele>42</ele>
        <time>2018-09-30T06:11:53Z</time>
      </trkpt>
      <trkpt lat="44.25296" lon="4.7324">
        <ele>42</ele>
        <time>2018-09-30T06:11:56Z</time>
      </trkpt>
      <trkpt lat="44.25282" lon="4.73232">
        <ele>42</ele>
        <time>2018-09-30T06:11:58Z</time>
      </trkpt>
      <trkpt lat="44.25269" lon="4.73224">
        <ele>42</ele>
        <time>2018-09-30T06:12:00Z</time>
      </trkpt>
      <trkpt lat="44.25248" lon="4.73212">
        <ele>42</ele>
        <time>2018-09-30T06:12:03Z</time>
      </trkpt>
      <trkpt lat="44.25234" lon="4.73205">
        <ele>42</ele>
        <time>2018-09-30T06:12:05Z</time>
      </trkpt>
      <trkpt lat="44.2522" lon="4.73197">
        <ele>42</ele>
        <time>2018-09-30T06:12:07Z</time>
      </trkpt>
      <trkpt lat="44.25201" lon="4.73186">
        <ele>42</ele>
        <time>2018-09-30T06:12:10Z</time>
      </trkpt>
      <trkpt lat="44.2519" lon="4.73179">
        <ele>41</ele>
        <time>2018-09-30T06:12:12Z</time>
      </trkpt>
      <trkpt lat="44.25178" lon="4.73172">
        <ele>42</ele>
        <time>2018-09-30T06:12:14Z</time>
      </trkpt>
      <trkpt lat="44.25166" lon="4.73166">
        <ele>42</ele>
        <time>2018-09-30T06:12:16Z</time>
      </trkpt>
      <trkpt lat="44.25148" lon="4.73159">
        <ele>43</ele>
        <time>2018-09-30T06:12:19Z</time>
      </trkpt>
      <trkpt lat="44.25135" lon="4.73155">
        <ele>43</ele>
        <time>2018-09-30T06:12:21Z</time>
      </trkpt>
      <trkpt lat="44.25116" lon="4.73151">
        <ele>44</ele>
        <time>2018-09-30T06:12:24Z</time>
      </trkpt>
      <trkpt lat="44.25097" lon="4.73148">
        <ele>44</ele>
        <time>2018-09-30T06:12:27Z</time>
      </trkpt>
      <trkpt lat="44.25084" lon="4.73146">
        <ele>44</ele>
        <time>2018-09-30T06:12:29Z</time>
      </trkpt>
      <trkpt lat="44.2507" lon="4.73144">
        <ele>45</ele>
        <time>2018-09-30T06:12:31Z</time>
      </trkpt>
      <trkpt lat="44.2505" lon="4.73141">
        <ele>46</ele>
        <time>2018-09-30T06:12:34Z</time>
      </trkpt>
      <trkpt lat="44.25036" lon="4.7314">
        <ele>46</ele>
        <time>2018-09-30T06:12:36Z</time>
      </trkpt>
      <trkpt lat="44.25023" lon="4.73139">
        <ele>45</ele>
        <time>2018-09-30T06:12:38Z</time>
      </trkpt>
      <trkpt lat="44.25002" lon="4.73137">
        <ele>45</ele>
        <time>2018-09-30T06:12:41Z</time>
      </trkpt>
      <trkpt lat="44.24987" lon="4.73135">
        <ele>45</ele>
        <time>2018-09-30T06:12:43Z</time>
      </trkpt>
      <trkpt lat="44.24973" lon="4.73134">
        <ele>45</ele>
        <time>2018-09-30T06:12:45Z</time>
      </trkpt>
      <trkpt lat="44.24959" lon="4.73132">
        <ele>45</ele>
        <time>2018-09-30T06:12:47Z</time>
      </trkpt>
      <trkpt lat="44.24944" lon="4.7313">
        <ele>45</ele>
        <time>2018-09-30T06:12:49Z</time>
      </trkpt>
      <trkpt lat="44.24921" lon="4.73126">
        <ele>44</ele>
        <time>2018-09-30T06:12:52Z</time>
      </trkpt>
      <trkpt lat="44.24905" lon="4.73122">
        <ele>44</ele>
        <time>2018-09-30T06:12:54Z</time>
      </trkpt>
      <trkpt lat="44.24881" lon="4.73116">
        <ele>43</ele>
        <time>2018-09-30T06:12:57Z</time>
      </trkpt>
      <trkpt lat="44.24856" lon="4.73107">
        <ele>42</ele>
        <time>2018-09-30T06:13:00Z</time>
      </trkpt>
      <trkpt lat="44.2484" lon="4.731">
        <ele>42</ele>
        <time>2018-09-30T06:13:02Z</time>
      </trkpt>
      <trkpt lat="44.24824" lon="4.73093">
        <ele>42</ele>
        <time>2018-09-30T06:13:04Z</time>
      </trkpt>
      <trkpt lat="44.24802" lon="4.73081">
        <ele>42</ele>
        <time>2018-09-30T06:13:07Z</time>
      </trkpt>
      <trkpt lat="44.24788" lon="4.73072">
        <ele>42</ele>
        <time>2018-09-30T06:13:09Z</time>
      </trkpt>
      <trkpt lat="44.24767" lon="4.73057">
        <ele>42</ele>
        <time>2018-09-30T06:13:12Z</time>
      </trkpt>
      <trkpt lat="44.24754" lon="4.73046">
        <ele>42</ele>
        <time>2018-09-30T06:13:14Z</time>
      </trkpt>
      <trkpt lat="44.24735" lon="4.7303">
        <ele>42</ele>
        <time>2018-09-30T06:13:17Z</time>
      </trkpt>
      <trkpt lat="44.24722" lon="4.73018">
        <ele>42</ele>
        <time>2018-09-30T06:13:19Z</time>
      </trkpt>
      <trkpt lat="44.24704" lon="4.72999">
        <ele>42</ele>
        <time>2018-09-30T06:13:22Z</time>
      </trkpt>
      <trkpt lat="44.24692" lon="4.72985">
        <ele>41</ele>
        <time>2018-09-30T06:13:24Z</time>
      </trkpt>
      <trkpt lat="44.2468" lon="4.72971">
        <ele>41</ele>
        <time>2018-09-30T06:13:26Z</time>
      </trkpt>
      <trkpt lat="44.24663" lon="4.72949">
        <ele>41</ele>
        <time>2018-09-30T06:13:29Z</time>
      </trkpt>
      <trkpt lat="44.24652" lon="4.72933">
        <ele>41</ele>
        <time>2018-09-30T06:13:31Z</time>
      </trkpt>
      <trkpt lat="44.24637" lon="4.72909">
        <ele>40</ele>
        <time>2018-09-30T06:13:34Z</time>
      </trkpt>
      <trkpt lat="44.24627" lon="4.72892">
        <ele>40</ele>
        <time>2018-09-30T06:13:36Z</time>
      </trkpt>
      <trkpt lat="44.24617" lon="4.72876">
        <ele>40</ele>
        <time>2018-09-30T06:13:38Z</time>
      </trkpt>
      <trkpt lat="44.24608" lon="4.72861">
        <ele>40</ele>
        <time>2018-09-30T06:13:40Z</time>
      </trkpt>
      <trkpt lat="44.24594" lon="4.72838">
        <ele>40</ele>
        <time>2018-09-30T06:13:43Z</time>
      </trkpt>
      <trkpt lat="44.2458" lon="4.72816">
        <ele>40</ele>
        <time>2018-09-30T06:13:46Z</time>
      </trkpt>
      <trkpt lat="44.24572" lon="4.72801">
        <ele>40</ele>
        <time>2018-09-30T06:13:48Z</time>
      </trkpt>
      <trkpt lat="44.24559" lon="4.7278">
        <ele>40</ele>
        <time>2018-09-30T06:13:51Z</time>
      </trkpt>
      <trkpt lat="44.24547" lon="4.72759">
        <ele>41</ele>
        <time>2018-09-30T06:13:54Z</time>
      </trkpt>
      <trkpt lat="44.24539" lon="4.72746">
        <ele>41</ele>
        <time>2018-09-30T06:13:56Z</time>
      </trkpt>
      <trkpt lat="44.24527" lon="4.72725">
        <ele>42</ele>
        <time>2018-09-30T06:13:59Z</time>
      </trkpt>
      <trkpt lat="44.24519" lon="4.72712">
        <ele>42</ele>
        <time>2018-09-30T06:14:01Z</time>
      </trkpt>
      <trkpt lat="44.24511" lon="4.72697">
        <ele>42</ele>
        <time>2018-09-30T06:14:03Z</time>
      </trkpt>
      <trkpt lat="44.24499" lon="4.72675">
        <ele>43</ele>
        <time>2018-09-30T06:14:06Z</time>
      </trkpt>
      <trkpt lat="44.24492" lon="4.7266">
        <ele>43</ele>
        <time>2018-09-30T06:14:08Z</time>
      </trkpt>
      <trkpt lat="44.24484" lon="4.72644">
        <ele>42</ele>
        <time>2018-09-30T06:14:10Z</time>
      </trkpt>
      <trkpt lat="44.24477" lon="4.72628">
        <ele>42</ele>
        <time>2018-09-30T06:14:12Z</time>
      </trkpt>
      <trkpt lat="44.24467" lon="4.72603">
        <ele>43</ele>
        <time>2018-09-30T06:14:15Z</time>
      </trkpt>
      <trkpt lat="44.24459" lon="4.72585">
        <ele>42</ele>
        <time>2018-09-30T06:14:17Z</time>
      </trkpt>
      <trkpt lat="44.24453" lon="4.72567">
        <ele>43</ele>
        <time>2018-09-30T06:14:19Z</time>
      </trkpt>
      <trkpt lat="44.24447" lon="4.72548">
        <ele>43</ele>
        <time>2018-09-30T06:14:21Z</time>
      </trkpt>
      <trkpt lat="44.24438" lon="4.72521">
        <ele>43</ele>
        <time>2018-09-30T06:14:24Z</time>
      </trkpt>
      <trkpt lat="44.24434" lon="4.72503">
        <ele>43</ele>
        <time>2018-09-30T06:14:26Z</time>
      </trkpt>
      <trkpt lat="44.24426" lon="4.72474">
        <ele>43</ele>
        <time>2018-09-30T06:14:29Z</time>
      </trkpt>
      <trkpt lat="44.2442" lon="4.72444">
        <ele>42</ele>
        <time>2018-09-30T06:14:32Z</time>
      </trkpt>
      <trkpt lat="44.24414" lon="4.72413">
        <ele>42</ele>
        <time>2018-09-30T06:14:35Z</time>
      </trkpt>
      <trkpt lat="44.24408" lon="4.7238">
        <ele>42</ele>
        <time>2018-09-30T06:14:38Z</time>
      </trkpt>
      <trkpt lat="44.24405" lon="4.72358">
        <ele>42</ele>
        <time>2018-09-30T06:14:40Z</time>
      </trkpt>
      <trkpt lat="44.24399" lon="4.72325">
        <ele>41</ele>
        <time>2018-09-30T06:14:43Z</time>
      </trkpt>
      <trkpt lat="44.24396" lon="4.72304">
        <ele>41</ele>
        <time>2018-09-30T06:14:45Z</time>
      </trkpt>
      <trkpt lat="44.24392" lon="4.72274">
        <ele>41</ele>
        <time>2018-09-30T06:14:48Z</time>
      </trkpt>
      <trkpt lat="44.24389" lon="4.72254">
        <ele>41</ele>
        <time>2018-09-30T06:14:50Z</time>
      </trkpt>
      <trkpt lat="44.24387" lon="4.72234">
        <ele>41</ele>
        <time>2018-09-30T06:14:52Z</time>
      </trkpt>
      <trkpt lat="44.24382" lon="4.72205">
        <ele>41</ele>
        <time>2018-09-30T06:14:55Z</time>
      </trkpt>
      <trkpt lat="44.24379" lon="4.72186">
        <ele>40</ele>
        <time>2018-09-30T06:14:57Z</time>
      </trkpt>
      <trkpt lat="44.24374" lon="4.72155">
        <ele>40</ele>
        <time>2018-09-30T06:15:00Z</time>
      </trkpt>
      <trkpt lat="44.24371" lon="4.72134">
        <ele>40</ele>
        <time>2018-09-30T06:15:02Z</time>
      </trkpt>
      <trkpt lat="44.24368" lon="4.72113">
        <ele>40</ele>
        <time>2018-09-30T06:15:04Z</time>
      </trkpt>
      <trkpt lat="44.24364" lon="4.72091">
        <ele>40</ele>
        <time>2018-09-30T06:15:06Z</time>
      </trkpt>
      <trkpt lat="44.24361" lon="4.72069">
        <ele>40</ele>
        <time>2018-09-30T06:15:08Z</time>
      </trkpt>
      <trkpt lat="44.24358" lon="4.72047">
        <ele>40</ele>
        <time>2018-09-30T06:15:10Z</time>
      </trkpt>
      <trkpt lat="44.24353" lon="4.72016">
        <ele>40</ele>
        <time>2018-09-30T06:15:13Z</time>
      </trkpt>
      <trkpt lat="44.2435" lon="4.71996">
        <ele>41</ele>
        <time>2018-09-30T06:15:15Z</time>
      </trkpt>
      <trkpt lat="44.24347" lon="4.71976">
        <ele>40</ele>
        <time>2018-09-30T06:15:17Z</time>
      </trkpt>
      <trkpt lat="44.24344" lon="4.71956">
        <ele>40</ele>
        <time>2018-09-30T06:15:19Z</time>
      </trkpt>
      <trkpt lat="44.2434" lon="4.71926">
        <ele>40</ele>
        <time>2018-09-30T06:15:22Z</time>
      </trkpt>
      <trkpt lat="44.24337" lon="4.71906">
        <ele>40</ele>
        <time>2018-09-30T06:15:24Z</time>
      </trkpt>
      <trkpt lat="44.24331" lon="4.71877">
        <ele>40</ele>
        <time>2018-09-30T06:15:27Z</time>
      </trkpt>
      <trkpt lat="44.24324" lon="4.71848">
        <ele>40</ele>
        <time>2018-09-30T06:15:30Z</time>
      </trkpt>
      <trkpt lat="44.24315" lon="4.71818">
        <ele>40</ele>
        <time>2018-09-30T06:15:33Z</time>
      </trkpt>
      <trkpt lat="44.24305" lon="4.71789">
        <ele>39</ele>
        <time>2018-09-30T06:15:36Z</time>
      </trkpt>
      <trkpt lat="44.24298" lon="4.7177">
        <ele>39</ele>
        <time>2018-09-30T06:15:38Z</time>
      </trkpt>
      <trkpt lat="44.2429" lon="4.71751">
        <ele>39</ele>
        <time>2018-09-30T06:15:40Z</time>
      </trkpt>
      <trkpt lat="44.24278" lon="4.71724">
        <ele>38</ele>
        <time>2018-09-30T06:15:43Z</time>
      </trkpt>
      <trkpt lat="44.24269" lon="4.71707">
        <ele>38</ele>
        <time>2018-09-30T06:15:45Z</time>
      </trkpt>
      <trkpt lat="44.24257" lon="4.71684">
        <ele>37</ele>
        <time>2018-09-30T06:15:48Z</time>
      </trkpt>
      <trkpt lat="44.24251" lon="4.71662">
        <ele>37</ele>
        <time>2018-09-30T06:15:51Z</time>
      </trkpt>
      <trkpt lat="44.24251" lon="4.71645">
        <ele>37</ele>
        <time>2018-09-30T06:15:53Z</time>
      </trkpt>
      <trkpt lat="44.24245" lon="4.7163">
        <ele>37</ele>
        <time>2018-09-30T06:15:55Z</time>
      </trkpt>
      <trkpt lat="44.24227" lon="4.71618">
        <ele>37</ele>
        <time>2018-09-30T06:15:58Z</time>
      </trkpt>
      <trkpt lat="44.24208" lon="4.71602">
        <ele>38</ele>
        <time>2018-09-30T06:16:01Z</time>
      </trkpt>
      <trkpt lat="44.24189" lon="4.71583">
        <ele>38</ele>
        <time>2018-09-30T06:16:04Z</time>
      </trkpt>
      <trkpt lat="44.24177" lon="4.71569">
        <ele>38</ele>
        <time>2018-09-30T06:16:06Z</time>
      </trkpt>
      <trkpt lat="44.2416" lon="4.71549">
        <ele>38</ele>
        <time>2018-09-30T06:16:09Z</time>
      </trkpt>
      <trkpt lat="44.24144" lon="4.71531">
        <ele>38</ele>
        <time>2018-09-30T06:16:12Z</time>
      </trkpt>
      <trkpt lat="44.24127" lon="4.71516">
        <ele>37</ele>
        <time>2018-09-30T06:16:15Z</time>
      </trkpt>
      <trkpt lat="44.24115" lon="4.71507">
        <ele>37</ele>
        <time>2018-09-30T06:16:17Z</time>
      </trkpt>
      <trkpt lat="44.24099" lon="4.71491">
        <ele>38</ele>
        <time>2018-09-30T06:16:20Z</time>
      </trkpt>
      <trkpt lat="44.24082" lon="4.71474">
        <ele>38</ele>
        <time>2018-09-30T06:16:23Z</time>
      </trkpt>
      <trkpt lat="44.24072" lon="4.71462">
        <ele>38</ele>
        <time>2018-09-30T06:16:25Z</time>
      </trkpt>
      <trkpt lat="44.24057" lon="4.71445">
        <ele>38</ele>
        <time>2018-09-30T06:16:28Z</time>
      </trkpt>
      <trkpt lat="44.24049" lon="4.71434">
        <ele>38</ele>
        <time>2018-09-30T06:16:30Z</time>
      </trkpt>
      <trkpt lat="44.24035" lon="4.71416">
        <ele>38</ele>
        <time>2018-09-30T06:16:33Z</time>
      </trkpt>
      <trkpt lat="44.24022" lon="4.71399">
        <ele>38</ele>
        <time>2018-09-30T06:16:36Z</time>
      </trkpt>
      <trkpt lat="44.24011" lon="4.71387">
        <ele>37</ele>
        <time>2018-09-30T06:16:38Z</time>
      </trkpt>
      <trkpt lat="44.23999" lon="4.71375">
        <ele>38</ele>
        <time>2018-09-30T06:16:40Z</time>
      </trkpt>
      <trkpt lat="44.23982" lon="4.71357">
        <ele>38</ele>
        <time>2018-09-30T06:16:43Z</time>
      </trkpt>
      <trkpt lat="44.2397" lon="4.71345">
        <ele>37</ele>
        <time>2018-09-30T06:16:45Z</time>
      </trkpt>
      <trkpt lat="44.23951" lon="4.71328">
        <ele>37</ele>
        <time>2018-09-30T06:16:48Z</time>
      </trkpt>
      <trkpt lat="44.23938" lon="4.71317">
        <ele>37</ele>
        <time>2018-09-30T06:16:50Z</time>
      </trkpt>
      <trkpt lat="44.23924" lon="4.71307">
        <ele>37</ele>
        <time>2018-09-30T06:16:52Z</time>
      </trkpt>
      <trkpt lat="44.23903" lon="4.71293">
        <ele>37</ele>
        <time>2018-09-30T06:16:55Z</time>
      </trkpt>
      <trkpt lat="44.23882" lon="4.71282">
        <ele>37</ele>
        <time>2018-09-30T06:16:58Z</time>
      </trkpt>
      <trkpt lat="44.23868" lon="4.71276">
        <ele>36</ele>
        <time>2018-09-30T06:17:00Z</time>
      </trkpt>
      <trkpt lat="44.23847" lon="4.71271">
        <ele>36</ele>
        <time>2018-09-30T06:17:03Z</time>
      </trkpt>
      <trkpt lat="44.23834" lon="4.7127">
        <ele>36</ele>
        <time>2018-09-30T06:17:05Z</time>
      </trkpt>
      <trkpt lat="44.23814" lon="4.71271">
        <ele>36</ele>
        <time>2018-09-30T06:17:08Z</time>
      </trkpt>
      <trkpt lat="44.23798" lon="4.71271">
        <ele>36</ele>
        <time>2018-09-30T06:17:10Z</time>
      </trkpt>
      <trkpt lat="44.23783" lon="4.71271">
        <ele>37</ele>
        <time>2018-09-30T06:17:12Z</time>
      </trkpt>
      <trkpt lat="44.23761" lon="4.71272">
        <ele>36</ele>
        <time>2018-09-30T06:17:15Z</time>
      </trkpt>
      <trkpt lat="44.23748" lon="4.71272">
        <ele>36</ele>
        <time>2018-09-30T06:17:17Z</time>
      </trkpt>
      <trkpt lat="44.23736" lon="4.71273">
        <ele>36</ele>
        <time>2018-09-30T06:17:19Z</time>
      </trkpt>
      <trkpt lat="44.23725" lon="4.71273">
        <ele>35</ele>
        <time>2018-09-30T06:17:21Z</time>
      </trkpt>
      <trkpt lat="44.23712" lon="4.71271">
        <ele>35</ele>
        <time>2018-09-30T06:17:24Z</time>
      </trkpt>
      <trkpt lat="44.23706" lon="4.71263">
        <ele>36</ele>
        <time>2018-09-30T06:17:27Z</time>
      </trkpt>
      <trkpt lat="44.23706" lon="4.71243">
        <ele>35</ele>
        <time>2018-09-30T06:17:30Z</time>
      </trkpt>
      <trkpt lat="44.23706" lon="4.71227">
        <ele>35</ele>
        <time>2018-09-30T06:17:32Z</time>
      </trkpt>
      <trkpt lat="44.23706" lon="4.71202">
        <ele>35</ele>
        <time>2018-09-30T06:17:35Z</time>
      </trkpt>
      <trkpt lat="44.23703" lon="4.71175">
        <ele>35</ele>
        <time>2018-09-30T06:17:38Z</time>
      </trkpt>
      <trkpt lat="44.237" lon="4.71148">
        <ele>35</ele>
        <time>2018-09-30T06:17:41Z</time>
      </trkpt>
      <trkpt lat="44.23697" lon="4.71122">
        <ele>35</ele>
        <time>2018-09-30T06:17:44Z</time>
      </trkpt>
      <trkpt lat="44.23695" lon="4.71103">
        <ele>34</ele>
        <time>2018-09-30T06:17:46Z</time>
      </trkpt>
      <trkpt lat="44.23694" lon="4.71075">
        <ele>34</ele>
        <time>2018-09-30T06:17:49Z</time>
      </trkpt>
      <trkpt lat="44.23693" lon="4.71048">
        <ele>34</ele>
        <time>2018-09-30T06:17:52Z</time>
      </trkpt>
      <trkpt lat="44.23692" lon="4.71023">
        <ele>35</ele>
        <time>2018-09-30T06:17:55Z</time>
      </trkpt>
      <trkpt lat="44.23692" lon="4.71008">
        <ele>35</ele>
        <time>2018-09-30T06:17:57Z</time>
      </trkpt>
      <trkpt lat="44.23686" lon="4.70993">
        <ele>35</ele>
        <time>2018-09-30T06:18:00Z</time>
      </trkpt>
      <trkpt lat="44.2367" lon="4.70989">
        <ele>35</ele>
        <time>2018-09-30T06:18:03Z</time>
      </trkpt>
      <trkpt lat="44.23654" lon="4.70987">
        <ele>36</ele>
        <time>2018-09-30T06:18:06Z</time>
      </trkpt>
      <trkpt lat="44.23635" lon="4.70986">
        <ele>35</ele>
        <time>2018-09-30T06:18:09Z</time>
      </trkpt>
      <trkpt lat="44.23614" lon="4.70986">
        <ele>35</ele>
        <time>2018-09-30T06:18:12Z</time>
      </trkpt>
      <trkpt lat="44.23593" lon="4.70987">
        <ele>35</ele>
        <time>2018-09-30T06:18:15Z</time>
      </trkpt>
      <trkpt lat="44.23572" lon="4.70988">
        <ele>35</ele>
        <time>2018-09-30T06:18:18Z</time>
      </trkpt>
      <trkpt lat="44.23558" lon="4.70989">
        <ele>36</ele>
        <time>2018-09-30T06:18:20Z</time>
      </trkpt>
      <trkpt lat="44.23544" lon="4.70989">
        <ele>36</ele>
        <time>2018-09-30T06:18:22Z</time>
      </trkpt>
      <trkpt lat="44.23522" lon="4.70988">
        <ele>35</ele>
        <time>2018-09-30T06:18:25Z</time>
      </trkpt>
      <trkpt lat="44.23507" lon="4.70986">
        <ele>35</ele>
        <time>2018-09-30T06:18:27Z</time>
      </trkpt>
      <trkpt lat="44.23483" lon="4.70984">
        <ele>35</ele>
        <time>2018-09-30T06:18:30Z</time>
      </trkpt>
      <trkpt lat="44.23459" lon="4.70981">
        <ele>35</ele>
        <time>2018-09-30T06:18:33Z</time>
      </trkpt>
      <trkpt lat="44.23443" lon="4.70978">
        <ele>35</ele>
        <time>2018-09-30T06:18:35Z</time>
      </trkpt>
      <trkpt lat="44.23419" lon="4.7097">
        <ele>36</ele>
        <time>2018-09-30T06:18:38Z</time>
      </trkpt>
      <trkpt lat="44.23396" lon="4.70959">
        <ele>35</ele>
        <time>2018-09-30T06:18:41Z</time>
      </trkpt>
      <trkpt lat="44.2338" lon="4.70951">
        <ele>35</ele>
        <time>2018-09-30T06:18:43Z</time>
      </trkpt>
      <trkpt lat="44.23365" lon="4.70942">
        <ele>35</ele>
        <time>2018-09-30T06:18:45Z</time>
      </trkpt>
      <trkpt lat="44.23351" lon="4.70933">
        <ele>35</ele>
        <time>2018-09-30T06:18:47Z</time>
      </trkpt>
      <trkpt lat="44.23331" lon="4.70921">
        <ele>35</ele>
        <time>2018-09-30T06:18:50Z</time>
      </trkpt>
      <trkpt lat="44.23318" lon="4.70913">
        <ele>35</ele>
        <time>2018-09-30T06:18:52Z</time>
      </trkpt>
      <trkpt lat="44.23298" lon="4.70901">
        <ele>35</ele>
        <time>2018-09-30T06:18:55Z</time>
      </trkpt>
      <trkpt lat="44.23285" lon="4.70893">
        <ele>35</ele>
        <time>2018-09-30T06:18:57Z</time>
      </trkpt>
      <trkpt lat="44.23269" lon="4.70877">
        <ele>34</ele>
        <time>2018-09-30T06:19:00Z</time>
      </trkpt>
      <trkpt lat="44.23263" lon="4.70859">
        <ele>34</ele>
        <time>2018-09-30T06:19:02Z</time>
      </trkpt>
      <trkpt lat="44.23256" lon="4.70832">
        <ele>34</ele>
        <time>2018-09-30T06:19:05Z</time>
      </trkpt>
      <trkpt lat="44.23244" lon="4.70798">
        <ele>33</ele>
        <time>2018-09-30T06:19:10Z</time>
      </trkpt>
      <trkpt lat="44.23235" lon="4.70788">
        <ele>33</ele>
        <time>2018-09-30T06:19:13Z</time>
      </trkpt>
      <trkpt lat="44.23225" lon="4.70788">
        <ele>33</ele>
        <time>2018-09-30T06:19:15Z</time>
      </trkpt>
      <trkpt lat="44.23207" lon="4.70796">
        <ele>33</ele>
        <time>2018-09-30T06:19:18Z</time>
      </trkpt>
      <trkpt lat="44.2319" lon="4.70805">
        <ele>32</ele>
        <time>2018-09-30T06:19:21Z</time>
      </trkpt>
      <trkpt lat="44.23172" lon="4.70813">
        <ele>32</ele>
        <time>2018-09-30T06:19:24Z</time>
      </trkpt>
      <trkpt lat="44.2316" lon="4.70814">
        <ele>32</ele>
        <time>2018-09-30T06:19:26Z</time>
      </trkpt>
      <trkpt lat="44.23142" lon="4.70804">
        <ele>33</ele>
        <time>2018-09-30T06:19:29Z</time>
      </trkpt>
      <trkpt lat="44.23125" lon="4.70793">
        <ele>33</ele>
        <time>2018-09-30T06:19:32Z</time>
      </trkpt>
      <trkpt lat="44.23114" lon="4.70798">
        <ele>34</ele>
        <time>2018-09-30T06:19:34Z</time>
      </trkpt>
      <trkpt lat="44.23101" lon="4.70815">
        <ele>35</ele>
        <time>2018-09-30T06:19:37Z</time>
      </trkpt>
      <trkpt lat="44.2309" lon="4.70822">
        <ele>35</ele>
        <time>2018-09-30T06:19:39Z</time>
      </trkpt>
      <trkpt lat="44.23072" lon="4.70828">
        <ele>35</ele>
        <time>2018-09-30T06:19:42Z</time>
      </trkpt>
      <trkpt lat="44.2306" lon="4.70835">
        <ele>34</ele>
        <time>2018-09-30T06:19:44Z</time>
      </trkpt>
      <trkpt lat="44.23052" lon="4.70859">
        <ele>33</ele>
        <time>2018-09-30T06:19:47Z</time>
      </trkpt>
      <trkpt lat="44.23044" lon="4.70875">
        <ele>33</ele>
        <time>2018-09-30T06:19:49Z</time>
      </trkpt>
      <trkpt lat="44.23024" lon="4.70888">
        <ele>33</ele>
        <time>2018-09-30T06:19:52Z</time>
      </trkpt>
      <trkpt lat="44.23002" lon="4.70899">
        <ele>33</ele>
        <time>2018-09-30T06:19:55Z</time>
      </trkpt>
      <trkpt lat="44.2298" lon="4.70911">
        <ele>32</ele>
        <time>2018-09-30T06:19:58Z</time>
      </trkpt>
      <trkpt lat="44.22958" lon="4.70923">
        <ele>32</ele>
        <time>2018-09-30T06:20:01Z</time>
      </trkpt>
      <trkpt lat="44.22943" lon="4.70931">
        <ele>32</ele>
        <time>2018-09-30T06:20:03Z</time>
      </trkpt>
      <trkpt lat="44.2292" lon="4.70943">
        <ele>32</ele>
        <time>2018-09-30T06:20:06Z</time>
      </trkpt>
      <trkpt lat="44.22905" lon="4.70951">
        <ele>32</ele>
        <time>2018-09-30T06:20:08Z</time>
      </trkpt>
      <trkpt lat="44.22889" lon="4.7096">
        <ele>32</ele>
        <time>2018-09-30T06:20:10Z</time>
      </trkpt>
      <trkpt lat="44.22866" lon="4.70973">
        <ele>33</ele>
        <time>2018-09-30T06:20:13Z</time>
      </trkpt>
      <trkpt lat="44.22851" lon="4.70981">
        <ele>33</ele>
        <time>2018-09-30T06:20:15Z</time>
      </trkpt>
      <trkpt lat="44.22836" lon="4.70989">
        <ele>33</ele>
        <time>2018-09-30T06:20:17Z</time>
      </trkpt>
      <trkpt lat="44.22814" lon="4.71001">
        <ele>32</ele>
        <time>2018-09-30T06:20:20Z</time>
      </trkpt>
      <trkpt lat="44.22799" lon="4.71008">
        <ele>32</ele>
        <time>2018-09-30T06:20:22Z</time>
      </trkpt>
      <trkpt lat="44.22775" lon="4.71007">
        <ele>32</ele>
        <time>2018-09-30T06:20:25Z</time>
      </trkpt>
      <trkpt lat="44.2275" lon="4.71004">
        <ele>33</ele>
        <time>2018-09-30T06:20:28Z</time>
      </trkpt>
      <trkpt lat="44.22724" lon="4.71">
        <ele>33</ele>
        <time>2018-09-30T06:20:31Z</time>
      </trkpt>
      <trkpt lat="44.22707" lon="4.70998">
        <ele>33</ele>
        <time>2018-09-30T06:20:33Z</time>
      </trkpt>
      <trkpt lat="44.22682" lon="4.70994">
        <ele>33</ele>
        <time>2018-09-30T06:20:36Z</time>
      </trkpt>
      <trkpt lat="44.22656" lon="4.70991">
        <ele>33</ele>
        <time>2018-09-30T06:20:39Z</time>
      </trkpt>
      <trkpt lat="44.22639" lon="4.70989">
        <ele>32</ele>
        <time>2018-09-30T06:20:41Z</time>
      </trkpt>
      <trkpt lat="44.22614" lon="4.70986">
        <ele>33</ele>
        <time>2018-09-30T06:20:44Z</time>
      </trkpt>
      <trkpt lat="44.22597" lon="4.70984">
        <ele>33</ele>
        <time>2018-09-30T06:20:46Z</time>
      </trkpt>
      <trkpt lat="44.22581" lon="4.70982">
        <ele>32</ele>
        <time>2018-09-30T06:20:48Z</time>
      </trkpt>
      <trkpt lat="44.22566" lon="4.7098">
        <ele>32</ele>
        <time>2018-09-30T06:20:50Z</time>
      </trkpt>
      <trkpt lat="44.22544" lon="4.70977">
        <ele>32</ele>
        <time>2018-09-30T06:20:53Z</time>
      </trkpt>
      <trkpt lat="44.22531" lon="4.70978">
        <ele>32</ele>
        <time>2018-09-30T06:20:55Z</time>
      </trkpt>
      <trkpt lat="44.22521" lon="4.70999">
        <ele>32</ele>
        <time>2018-09-30T06:20:58Z</time>
      </trkpt>
      <trkpt lat="44.22512" lon="4.7103">
        <ele>32</ele>
        <time>2018-09-30T06:21:01Z</time>
      </trkpt>
      <trkpt lat="44.22507" lon="4.71051">
        <ele>32</ele>
        <time>2018-09-30T06:21:03Z</time>
      </trkpt>
      <trkpt lat="44.22501" lon="4.71071">
        <ele>32</ele>
        <time>2018-09-30T06:21:05Z</time>
      </trkpt>
      <trkpt lat="44.22496" lon="4.71091">
        <ele>32</ele>
        <time>2018-09-30T06:21:07Z</time>
      </trkpt>
      <trkpt lat="44.2249" lon="4.71111">
        <ele>32</ele>
        <time>2018-09-30T06:21:09Z</time>
      </trkpt>
      <trkpt lat="44.22482" lon="4.71142">
        <ele>32</ele>
        <time>2018-09-30T06:21:12Z</time>
      </trkpt>
      <trkpt lat="44.22477" lon="4.71162">
        <ele>32</ele>
        <time>2018-09-30T06:21:14Z</time>
      </trkpt>
      <trkpt lat="44.22468" lon="4.71192">
        <ele>32</ele>
        <time>2018-09-30T06:21:17Z</time>
      </trkpt>
      <trkpt lat="44.2246" lon="4.71221">
        <ele>32</ele>
        <time>2018-09-30T06:21:20Z</time>
      </trkpt>
      <trkpt lat="44.22452" lon="4.71239">
        <ele>31</ele>
        <time>2018-09-30T06:21:22Z</time>
      </trkpt>
      <trkpt lat="44.22434" lon="4.71259">
        <ele>31</ele>
        <time>2018-09-30T06:21:25Z</time>
      </trkpt>
      <trkpt lat="44.22413" lon="4.71277">
        <ele>31</ele>
        <time>2018-09-30T06:21:28Z</time>
      </trkpt>
      <trkpt lat="44.22393" lon="4.71295">
        <ele>31</ele>
        <time>2018-09-30T06:21:31Z</time>
      </trkpt>
      <trkpt lat="44.22373" lon="4.71313">
        <ele>31</ele>
        <time>2018-09-30T06:21:34Z</time>
      </trkpt>
      <trkpt lat="44.2236" lon="4.71326">
        <ele>31</ele>
        <time>2018-09-30T06:21:36Z</time>
      </trkpt>
      <trkpt lat="44.22347" lon="4.71338">
        <ele>31</ele>
        <time>2018-09-30T06:21:38Z</time>
      </trkpt>
      <trkpt lat="44.22328" lon="4.71356">
        <ele>31</ele>
        <time>2018-09-30T06:21:41Z</time>
      </trkpt>
      <trkpt lat="44.22315" lon="4.71368">
        <ele>31</ele>
        <time>2018-09-30T06:21:43Z</time>
      </trkpt>
      <trkpt lat="44.22297" lon="4.71386">
        <ele>31</ele>
        <time>2018-09-30T06:21:46Z</time>
      </trkpt>
      <trkpt lat="44.22285" lon="4.71398">
        <ele>31</ele>
        <time>2018-09-30T06:21:48Z</time>
      </trkpt>
      <trkpt lat="44.22272" lon="4.71411">
        <ele>31</ele>
        <time>2018-09-30T06:21:50Z</time>
      </trkpt>
      <trkpt lat="44.2226" lon="4.71423">
        <ele>32</ele>
        <time>2018-09-30T06:21:52Z</time>
      </trkpt>
      <trkpt lat="44.22242" lon="4.71442">
        <ele>32</ele>
        <time>2018-09-30T06:21:55Z</time>
      </trkpt>
      <trkpt lat="44.2223" lon="4.71454">
        <ele>32</ele>
        <time>2018-09-30T06:21:57Z</time>
      </trkpt>
      <trkpt lat="44.22218" lon="4.71467">
        <ele>32</ele>
        <time>2018-09-30T06:21:59Z</time>
      </trkpt>
      <trkpt lat="44.22206" lon="4.7148">
        <ele>32</ele>
        <time>2018-09-30T06:22:01Z</time>
      </trkpt>
      <trkpt lat="44.22194" lon="4.71493">
        <ele>32</ele>
        <time>2018-09-30T06:22:03Z</time>
      </trkpt>
      <trkpt lat="44.22176" lon="4.71514">
        <ele>31</ele>
        <time>2018-09-30T06:22:06Z</time>
      </trkpt>
      <trkpt lat="44.22159" lon="4.71533">
        <ele>31</ele>
        <time>2018-09-30T06:22:09Z</time>
      </trkpt>
      <trkpt lat="44.22141" lon="4.71552">
        <ele>31</ele>
        <time>2018-09-30T06:22:12Z</time>
      </trkpt>
      <trkpt lat="44.2213" lon="4.71565">
        <ele>32</ele>
        <time>2018-09-30T06:22:14Z</time>
      </trkpt>
      <trkpt lat="44.22113" lon="4.71585">
        <ele>31</ele>
        <time>2018-09-30T06:22:17Z</time>
      </trkpt>
      <trkpt lat="44.22101" lon="4.71597">
        <ele>31</ele>
        <time>2018-09-30T06:22:19Z</time>
      </trkpt>
      <trkpt lat="44.22084" lon="4.71617">
        <ele>31</ele>
        <time>2018-09-30T06:22:22Z</time>
      </trkpt>
      <trkpt lat="44.22073" lon="4.71629">
        <ele>32</ele>
        <time>2018-09-30T06:22:24Z</time>
      </trkpt>
      <trkpt lat="44.22057" lon="4.71649">
        <ele>32</ele>
        <time>2018-09-30T06:22:27Z</time>
      </trkpt>
      <trkpt lat="44.22041" lon="4.71667">
        <ele>32</ele>
        <time>2018-09-30T06:22:30Z</time>
      </trkpt>
      <trkpt lat="44.2203" lon="4.71679">
        <ele>32</ele>
        <time>2018-09-30T06:22:32Z</time>
      </trkpt>
      <trkpt lat="44.22019" lon="4.71691">
        <ele>33</ele>
        <time>2018-09-30T06:22:34Z</time>
      </trkpt>
      <trkpt lat="44.22002" lon="4.71709">
        <ele>33</ele>
        <time>2018-09-30T06:22:37Z</time>
      </trkpt>
      <trkpt lat="44.21991" lon="4.71721">
        <ele>34</ele>
        <time>2018-09-30T06:22:39Z</time>
      </trkpt>
      <trkpt lat="44.21974" lon="4.71734">
        <ele>35</ele>
        <time>2018-09-30T06:22:42Z</time>
      </trkpt>
      <trkpt lat="44.21962" lon="4.71742">
        <ele>35</ele>
        <time>2018-09-30T06:22:44Z</time>
      </trkpt>
      <trkpt lat="44.21949" lon="4.71749">
        <ele>36</ele>
        <time>2018-09-30T06:22:46Z</time>
      </trkpt>
      <trkpt lat="44.2193" lon="4.71759">
        <ele>37</ele>
        <time>2018-09-30T06:22:49Z</time>
      </trkpt>
      <trkpt lat="44.21914" lon="4.71773">
        <ele>38</ele>
        <time>2018-09-30T06:22:52Z</time>
      </trkpt>
      <trkpt lat="44.21898" lon="4.7179">
        <ele>39</ele>
        <time>2018-09-30T06:22:55Z</time>
      </trkpt>
      <trkpt lat="44.21885" lon="4.71813">
        <ele>39</ele>
        <time>2018-09-30T06:22:58Z</time>
      </trkpt>
      <trkpt lat="44.21876" lon="4.71831">
        <ele>39</ele>
        <time>2018-09-30T06:23:00Z</time>
      </trkpt>
      <trkpt lat="44.21867" lon="4.71849">
        <ele>39</ele>
        <time>2018-09-30T06:23:02Z</time>
      </trkpt>
      <trkpt lat="44.21857" lon="4.71867">
        <ele>38</ele>
        <time>2018-09-30T06:23:04Z</time>
      </trkpt>
      <trkpt lat="44.21839" lon="4.71892">
        <ele>37</ele>
        <time>2018-09-30T06:23:07Z</time>
      </trkpt>
      <trkpt lat="44.21826" lon="4.71908">
        <ele>36</ele>
        <time>2018-09-30T06:23:09Z</time>
      </trkpt>
      <trkpt lat="44.21804" lon="4.71931">
        <ele>35</ele>
        <time>2018-09-30T06:23:12Z</time>
      </trkpt>
      <trkpt lat="44.21789" lon="4.71947">
        <ele>34</ele>
        <time>2018-09-30T06:23:14Z</time>
      </trkpt>
      <trkpt lat="44.21773" lon="4.71962">
        <ele>33</ele>
        <time>2018-09-30T06:23:16Z</time>
      </trkpt>
      <trkpt lat="44.21749" lon="4.71984">
        <ele>32</ele>
        <time>2018-09-30T06:23:19Z</time>
      </trkpt>
      <trkpt lat="44.21733" lon="4.71999">
        <ele>32</ele>
        <time>2018-09-30T06:23:21Z</time>
      </trkpt>
      <trkpt lat="44.21711" lon="4.72019">
        <ele>31</ele>
        <time>2018-09-30T06:23:24Z</time>
      </trkpt>
      <trkpt lat="44.21697" lon="4.72032">
        <ele>30</ele>
        <time>2018-09-30T06:23:26Z</time>
      </trkpt>
      <trkpt lat="44.21676" lon="4.72051">
        <ele>30</ele>
        <time>2018-09-30T06:23:29Z</time>
      </trkpt>
      <trkpt lat="44.21656" lon="4.72069">
        <ele>31</ele>
        <time>2018-09-30T06:23:32Z</time>
      </trkpt>
      <trkpt lat="44.21643" lon="4.7208">
        <ele>31</ele>
        <time>2018-09-30T06:23:34Z</time>
      </trkpt>
      <trkpt lat="44.21622" lon="4.72097">
        <ele>31</ele>
        <time>2018-09-30T06:23:37Z</time>
      </trkpt>
      <trkpt lat="44.21602" lon="4.72114">
        <ele>31</ele>
        <time>2018-09-30T06:23:40Z</time>
      </trkpt>
      <trkpt lat="44.21581" lon="4.72131">
        <ele>30</ele>
        <time>2018-09-30T06:23:43Z</time>
      </trkpt>
      <trkpt lat="44.21561" lon="4.72147">
        <ele>31</ele>
        <time>2018-09-30T06:23:46Z</time>
      </trkpt>
      <trkpt lat="44.21547" lon="4.72157">
        <ele>31</ele>
        <time>2018-09-30T06:23:48Z</time>
      </trkpt>
      <trkpt lat="44.21526" lon="4.72172">
        <ele>31</ele>
        <time>2018-09-30T06:23:51Z</time>
      </trkpt>
      <trkpt lat="44.21505" lon="4.72187">
        <ele>31</ele>
        <time>2018-09-30T06:23:54Z</time>
      </trkpt>
      <trkpt lat="44.21492" lon="4.72196">
        <ele>31</ele>
        <time>2018-09-30T06:23:56Z</time>
      </trkpt>
      <trkpt lat="44.21478" lon="4.72206">
        <ele>31</ele>
        <time>2018-09-30T06:23:58Z</time>
      </trkpt>
      <trkpt lat="44.21457" lon="4.7222">
        <ele>31</ele>
        <time>2018-09-30T06:24:01Z</time>
      </trkpt>
      <trkpt lat="44.21436" lon="4.72233">
        <ele>31</ele>
        <time>2018-09-30T06:24:04Z</time>
      </trkpt>
      <trkpt lat="44.21422" lon="4.72241">
        <ele>31</ele>
        <time>2018-09-30T06:24:06Z</time>
      </trkpt>
      <trkpt lat="44.21407" lon="4.7225">
        <ele>31</ele>
        <time>2018-09-30T06:24:08Z</time>
      </trkpt>
      <trkpt lat="44.21384" lon="4.72263">
        <ele>31</ele>
        <time>2018-09-30T06:24:11Z</time>
      </trkpt>
      <trkpt lat="44.21361" lon="4.72275">
        <ele>31</ele>
        <time>2018-09-30T06:24:14Z</time>
      </trkpt>
      <trkpt lat="44.21345" lon="4.72283">
        <ele>31</ele>
        <time>2018-09-30T06:24:16Z</time>
      </trkpt>
      <trkpt lat="44.21329" lon="4.72291">
        <ele>31</ele>
        <time>2018-09-30T06:24:18Z</time>
      </trkpt>
      <trkpt lat="44.21306" lon="4.72301">
        <ele>31</ele>
        <time>2018-09-30T06:24:21Z</time>
      </trkpt>
      <trkpt lat="44.21283" lon="4.72311">
        <ele>31</ele>
        <time>2018-09-30T06:24:24Z</time>
      </trkpt>
      <trkpt lat="44.2126" lon="4.7232">
        <ele>31</ele>
        <time>2018-09-30T06:24:27Z</time>
      </trkpt>
      <trkpt lat="44.21238" lon="4.72328">
        <ele>31</ele>
        <time>2018-09-30T06:24:30Z</time>
      </trkpt>
      <trkpt lat="44.21224" lon="4.72334">
        <ele>31</ele>
        <time>2018-09-30T06:24:32Z</time>
      </trkpt>
      <trkpt lat="44.21204" lon="4.72341">
        <ele>32</ele>
        <time>2018-09-30T06:24:35Z</time>
      </trkpt>
      <trkpt lat="44.21191" lon="4.72344">
        <ele>32</ele>
        <time>2018-09-30T06:24:37Z</time>
      </trkpt>
      <trkpt lat="44.21172" lon="4.72346">
        <ele>33</ele>
        <time>2018-09-30T06:24:40Z</time>
      </trkpt>
      <trkpt lat="44.21153" lon="4.72346">
        <ele>34</ele>
        <time>2018-09-30T06:24:43Z</time>
      </trkpt>
      <trkpt lat="44.21135" lon="4.72342">
        <ele>35</ele>
        <time>2018-09-30T06:24:46Z</time>
      </trkpt>
      <trkpt lat="44.21123" lon="4.7234">
        <ele>35</ele>
        <time>2018-09-30T06:24:48Z</time>
      </trkpt>
      <trkpt lat="44.21106" lon="4.72338">
        <ele>37</ele>
        <time>2018-09-30T06:24:51Z</time>
      </trkpt>
      <trkpt lat="44.21088" lon="4.72338">
        <ele>38</ele>
        <time>2018-09-30T06:24:54Z</time>
      </trkpt>
      <trkpt lat="44.21069" lon="4.72343">
        <ele>39</ele>
        <time>2018-09-30T06:24:57Z</time>
      </trkpt>
      <trkpt lat="44.21055" lon="4.72349">
        <ele>38</ele>
        <time>2018-09-30T06:24:59Z</time>
      </trkpt>
      <trkpt lat="44.21032" lon="4.7236">
        <ele>38</ele>
        <time>2018-09-30T06:25:02Z</time>
      </trkpt>
      <trkpt lat="44.21016" lon="4.72368">
        <ele>37</ele>
        <time>2018-09-30T06:25:04Z</time>
      </trkpt>
      <trkpt lat="44.2099" lon="4.72377">
        <ele>35</ele>
        <time>2018-09-30T06:25:07Z</time>
      </trkpt>
      <trkpt lat="44.20961" lon="4.72379">
        <ele>34</ele>
        <time>2018-09-30T06:25:10Z</time>
      </trkpt>
      <trkpt lat="44.20942" lon="4.72378">
        <ele>33</ele>
        <time>2018-09-30T06:25:12Z</time>
      </trkpt>
      <trkpt lat="44.20921" lon="4.72377">
        <ele>32</ele>
        <time>2018-09-30T06:25:14Z</time>
      </trkpt>
      <trkpt lat="44.20892" lon="4.72376">
        <ele>31</ele>
        <time>2018-09-30T06:25:17Z</time>
      </trkpt>
      <trkpt lat="44.20872" lon="4.72376">
        <ele>30</ele>
        <time>2018-09-30T06:25:19Z</time>
      </trkpt>
      <trkpt lat="44.20855" lon="4.72376">
        <ele>30</ele>
        <time>2018-09-30T06:25:21Z</time>
      </trkpt>
      <trkpt lat="44.20837" lon="4.72375">
        <ele>30</ele>
        <time>2018-09-30T06:25:23Z</time>
      </trkpt>
      <trkpt lat="44.20813" lon="4.72374">
        <ele>30</ele>
        <time>2018-09-30T06:25:26Z</time>
      </trkpt>
      <trkpt lat="44.20796" lon="4.72374">
        <ele>30</ele>
        <time>2018-09-30T06:25:28Z</time>
      </trkpt>
      <trkpt lat="44.20772" lon="4.72373">
        <ele>30</ele>
        <time>2018-09-30T06:25:31Z</time>
      </trkpt>
      <trkpt lat="44.20756" lon="4.72373">
        <ele>30</ele>
        <time>2018-09-30T06:25:33Z</time>
      </trkpt>
      <trkpt lat="44.2074" lon="4.72372">
        <ele>30</ele>
        <time>2018-09-30T06:25:35Z</time>
      </trkpt>
      <trkpt lat="44.20716" lon="4.72372">
        <ele>30</ele>
        <time>2018-09-30T06:25:38Z</time>
      </trkpt>
      <trkpt lat="44.207" lon="4.72372">
        <ele>30</ele>
        <time>2018-09-30T06:25:40Z</time>
      </trkpt>
      <trkpt lat="44.20684" lon="4.72371">
        <ele>30</ele>
        <time>2018-09-30T06:25:42Z</time>
      </trkpt>
      <trkpt lat="44.20667" lon="4.7237">
        <ele>30</ele>
        <time>2018-09-30T06:25:44Z</time>
      </trkpt>
      <trkpt lat="44.2065" lon="4.7237">
        <ele>30</ele>
        <time>2018-09-30T06:25:46Z</time>
      </trkpt>
      <trkpt lat="44.20634" lon="4.7237">
        <ele>30</ele>
        <time>2018-09-30T06:25:48Z</time>
      </trkpt>
      <trkpt lat="44.20609" lon="4.7237">
        <ele>30</ele>
        <time>2018-09-30T06:25:51Z</time>
      </trkpt>
      <trkpt lat="44.20585" lon="4.72371">
        <ele>30</ele>
        <time>2018-09-30T06:25:54Z</time>
      </trkpt>
      <trkpt lat="44.2056" lon="4.72372">
        <ele>29</ele>
        <time>2018-09-30T06:25:57Z</time>
      </trkpt>
      <trkpt lat="44.20535" lon="4.72375">
        <ele>30</ele>
        <time>2018-09-30T06:26:00Z</time>
      </trkpt>
      <trkpt lat="44.20519" lon="4.72378">
        <ele>30</ele>
        <time>2018-09-30T06:26:02Z</time>
      </trkpt>
      <trkpt lat="44.20494" lon="4.72383">
        <ele>31</ele>
        <time>2018-09-30T06:26:05Z</time>
      </trkpt>
      <trkpt lat="44.20477" lon="4.72386">
        <ele>31</ele>
        <time>2018-09-30T06:26:07Z</time>
      </trkpt>
      <trkpt lat="44.20461" lon="4.7239">
        <ele>31</ele>
        <time>2018-09-30T06:26:09Z</time>
      </trkpt>
      <trkpt lat="44.20436" lon="4.72397">
        <ele>31</ele>
        <time>2018-09-30T06:26:12Z</time>
      </trkpt>
      <trkpt lat="44.20412" lon="4.72404">
        <ele>31</ele>
        <time>2018-09-30T06:26:15Z</time>
      </trkpt>
      <trkpt lat="44.20395" lon="4.72409">
        <ele>31</ele>
        <time>2018-09-30T06:26:17Z</time>
      </trkpt>
      <trkpt lat="44.2037" lon="4.72418">
        <ele>30</ele>
        <time>2018-09-30T06:26:20Z</time>
      </trkpt>
      <trkpt lat="44.20354" lon="4.72424">
        <ele>30</ele>
        <time>2018-09-30T06:26:22Z</time>
      </trkpt>
      <trkpt lat="44.20338" lon="4.7243">
        <ele>30</ele>
        <time>2018-09-30T06:26:24Z</time>
      </trkpt>
      <trkpt lat="44.20323" lon="4.72437">
        <ele>30</ele>
        <time>2018-09-30T06:26:26Z</time>
      </trkpt>
      <trkpt lat="44.203" lon="4.72447">
        <ele>30</ele>
        <time>2018-09-30T06:26:29Z</time>
      </trkpt>
      <trkpt lat="44.20277" lon="4.72456">
        <ele>30</ele>
        <time>2018-09-30T06:26:32Z</time>
      </trkpt>
      <trkpt lat="44.20261" lon="4.72458">
        <ele>30</ele>
        <time>2018-09-30T06:26:34Z</time>
      </trkpt>
      <trkpt lat="44.20236" lon="4.72453">
        <ele>29</ele>
        <time>2018-09-30T06:26:37Z</time>
      </trkpt>
      <trkpt lat="44.20212" lon="4.72443">
        <ele>30</ele>
        <time>2018-09-30T06:26:40Z</time>
      </trkpt>
      <trkpt lat="44.20197" lon="4.72436">
        <ele>30</ele>
        <time>2018-09-30T06:26:42Z</time>
      </trkpt>
      <trkpt lat="44.20182" lon="4.72429">
        <ele>30</ele>
        <time>2018-09-30T06:26:44Z</time>
      </trkpt>
      <trkpt lat="44.20166" lon="4.72422">
        <ele>31</ele>
        <time>2018-09-30T06:26:46Z</time>
      </trkpt>
      <trkpt lat="44.20151" lon="4.72415">
        <ele>31</ele>
        <time>2018-09-30T06:26:48Z</time>
      </trkpt>
      <trkpt lat="44.20129" lon="4.72406">
        <ele>31</ele>
        <time>2018-09-30T06:26:51Z</time>
      </trkpt>
      <trkpt lat="44.20115" lon="4.72399">
        <ele>31</ele>
        <time>2018-09-30T06:26:53Z</time>
      </trkpt>
      <trkpt lat="44.201" lon="4.72393">
        <ele>31</ele>
        <time>2018-09-30T06:26:55Z</time>
      </trkpt>
      <trkpt lat="44.20079" lon="4.72383">
        <ele>30</ele>
        <time>2018-09-30T06:26:58Z</time>
      </trkpt>
      <trkpt lat="44.20066" lon="4.72377">
        <ele>30</ele>
        <time>2018-09-30T06:27:00Z</time>
      </trkpt>
      <trkpt lat="44.20054" lon="4.72374">
        <ele>29</ele>
        <time>2018-09-30T06:27:02Z</time>
      </trkpt>
      <trkpt lat="44.20041" lon="4.72387">
        <ele>28</ele>
        <time>2018-09-30T06:27:05Z</time>
      </trkpt>
      <trkpt lat="44.2004" lon="4.72412">
        <ele>28</ele>
        <time>2018-09-30T06:27:08Z</time>
      </trkpt>
      <trkpt lat="44.20043" lon="4.72431">
        <ele>29</ele>
        <time>2018-09-30T06:27:10Z</time>
      </trkpt>
      <trkpt lat="44.20047" lon="4.72462">
        <ele>29</ele>
        <time>2018-09-30T06:27:13Z</time>
      </trkpt>
      <trkpt lat="44.2005" lon="4.72482">
        <ele>29</ele>
        <time>2018-09-30T06:27:15Z</time>
      </trkpt>
      <trkpt lat="44.20054" lon="4.72509">
        <ele>31</ele>
        <time>2018-09-30T06:27:18Z</time>
      </trkpt>
      <trkpt lat="44.20056" lon="4.72534">
        <ele>32</ele>
        <time>2018-09-30T06:27:21Z</time>
      </trkpt>
      <trkpt lat="44.20057" lon="4.7255">
        <ele>32</ele>
        <time>2018-09-30T06:27:23Z</time>
      </trkpt>
      <trkpt lat="44.20055" lon="4.72575">
        <ele>32</ele>
        <time>2018-09-30T06:27:26Z</time>
      </trkpt>
      <trkpt lat="44.20049" lon="4.726">
        <ele>33</ele>
        <time>2018-09-30T06:27:29Z</time>
      </trkpt>
      <trkpt lat="44.20043" lon="4.72617">
        <ele>33</ele>
        <time>2018-09-30T06:27:31Z</time>
      </trkpt>
      <trkpt lat="44.20031" lon="4.72641">
        <ele>33</ele>
        <time>2018-09-30T06:27:34Z</time>
      </trkpt>
      <trkpt lat="44.2002" lon="4.72658">
        <ele>31</ele>
        <time>2018-09-30T06:27:37Z</time>
      </trkpt>
      <trkpt lat="44.20003" lon="4.72673">
        <ele>29</ele>
        <time>2018-09-30T06:27:40Z</time>
      </trkpt>
      <trkpt lat="44.19982" lon="4.72689">
        <ele>30</ele>
        <time>2018-09-30T06:27:43Z</time>
      </trkpt>
      <trkpt lat="44.19968" lon="4.727">
        <ele>30</ele>
        <time>2018-09-30T06:27:45Z</time>
      </trkpt>
      <trkpt lat="44.19945" lon="4.72711">
        <ele>29</ele>
        <time>2018-09-30T06:27:48Z</time>
      </trkpt>
      <trkpt lat="44.1992" lon="4.72708">
        <ele>29</ele>
        <time>2018-09-30T06:27:51Z</time>
      </trkpt>
      <trkpt lat="44.19904" lon="4.72705">
        <ele>28</ele>
        <time>2018-09-30T06:27:53Z</time>
      </trkpt>
      <trkpt lat="44.19879" lon="4.727">
        <ele>29</ele>
        <time>2018-09-30T06:27:56Z</time>
      </trkpt>
      <trkpt lat="44.19856" lon="4.72696">
        <ele>28</ele>
        <time>2018-09-30T06:27:59Z</time>
      </trkpt>
      <trkpt lat="44.19841" lon="4.72694">
        <ele>28</ele>
        <time>2018-09-30T06:28:01Z</time>
      </trkpt>
      <trkpt lat="44.19826" lon="4.72693">
        <ele>28</ele>
        <time>2018-09-30T06:28:03Z</time>
      </trkpt>
      <trkpt lat="44.19806" lon="4.72697">
        <ele>28</ele>
        <time>2018-09-30T06:28:06Z</time>
      </trkpt>
      <trkpt lat="44.19792" lon="4.72703">
        <ele>28</ele>
        <time>2018-09-30T06:28:08Z</time>
      </trkpt>
      <trkpt lat="44.19774" lon="4.72715">
        <ele>29</ele>
        <time>2018-09-30T06:28:11Z</time>
      </trkpt>
      <trkpt lat="44.19759" lon="4.72726">
        <ele>29</ele>
        <time>2018-09-30T06:28:14Z</time>
      </trkpt>
      <trkpt lat="44.19751" lon="4.72733">
        <ele>29</ele>
        <time>2018-09-30T06:28:16Z</time>
      </trkpt>
      <trkpt lat="44.19741" lon="4.72738">
        <ele>29</ele>
        <time>2018-09-30T06:28:18Z</time>
      </trkpt>
      <trkpt lat="44.19723" lon="4.72742">
        <ele>29</ele>
        <time>2018-09-30T06:28:21Z</time>
      </trkpt>
      <trkpt lat="44.19702" lon="4.72744">
        <ele>29</ele>
        <time>2018-09-30T06:28:24Z</time>
      </trkpt>
      <trkpt lat="44.1968" lon="4.72749">
        <ele>30</ele>
        <time>2018-09-30T06:28:27Z</time>
      </trkpt>
      <trkpt lat="44.19657" lon="4.72754">
        <ele>30</ele>
        <time>2018-09-30T06:28:30Z</time>
      </trkpt>
      <trkpt lat="44.19641" lon="4.72756">
        <ele>30</ele>
        <time>2018-09-30T06:28:32Z</time>
      </trkpt>
      <trkpt lat="44.19625" lon="4.72758">
        <ele>29</ele>
        <time>2018-09-30T06:28:34Z</time>
      </trkpt>
      <trkpt lat="44.19602" lon="4.72759">
        <ele>29</ele>
        <time>2018-09-30T06:28:37Z</time>
      </trkpt>
      <trkpt lat="44.1958" lon="4.7276">
        <ele>29</ele>
        <time>2018-09-30T06:28:40Z</time>
      </trkpt>
      <trkpt lat="44.19557" lon="4.72761">
        <ele>29</ele>
        <time>2018-09-30T06:28:43Z</time>
      </trkpt>
      <trkpt lat="44.19533" lon="4.7276">
        <ele>30</ele>
        <time>2018-09-30T06:28:46Z</time>
      </trkpt>
      <trkpt lat="44.19517" lon="4.72759">
        <ele>30</ele>
        <time>2018-09-30T06:28:48Z</time>
      </trkpt>
      <trkpt lat="44.19492" lon="4.72756">
        <ele>30</ele>
        <time>2018-09-30T06:28:51Z</time>
      </trkpt>
      <trkpt lat="44.19469" lon="4.72754">
        <ele>30</ele>
        <time>2018-09-30T06:28:54Z</time>
      </trkpt>
      <trkpt lat="44.19445" lon="4.72751">
        <ele>30</ele>
        <time>2018-09-30T06:28:57Z</time>
      </trkpt>
      <trkpt lat="44.19421" lon="4.72748">
        <ele>29</ele>
        <time>2018-09-30T06:29:00Z</time>
      </trkpt>
      <trkpt lat="44.19405" lon="4.72746">
        <ele>29</ele>
        <time>2018-09-30T06:29:02Z</time>
      </trkpt>
      <trkpt lat="44.1939" lon="4.72744">
        <ele>29</ele>
        <time>2018-09-30T06:29:04Z</time>
      </trkpt>
      <trkpt lat="44.19367" lon="4.72742">
        <ele>29</ele>
        <time>2018-09-30T06:29:07Z</time>
      </trkpt>
      <trkpt lat="44.19344" lon="4.72739">
        <ele>28</ele>
        <time>2018-09-30T06:29:10Z</time>
      </trkpt>
      <trkpt lat="44.19324" lon="4.72737">
        <ele>28</ele>
        <time>2018-09-30T06:29:13Z</time>
      </trkpt>
      <trkpt lat="44.19309" lon="4.72747">
        <ele>28</ele>
        <time>2018-09-30T06:29:16Z</time>
      </trkpt>
      <trkpt lat="44.19299" lon="4.72772">
        <ele>28</ele>
        <time>2018-09-30T06:29:19Z</time>
      </trkpt>
      <trkpt lat="44.19284" lon="4.728">
        <ele>28</ele>
        <time>2018-09-30T06:29:22Z</time>
      </trkpt>
      <trkpt lat="44.19269" lon="4.72826">
        <ele>28</ele>
        <time>2018-09-30T06:29:25Z</time>
      </trkpt>
      <trkpt lat="44.19258" lon="4.72844">
        <ele>27</ele>
        <time>2018-09-30T06:29:27Z</time>
      </trkpt>
      <trkpt lat="44.19248" lon="4.72862">
        <ele>28</ele>
        <time>2018-09-30T06:29:29Z</time>
      </trkpt>
      <trkpt lat="44.19233" lon="4.72888">
        <ele>28</ele>
        <time>2018-09-30T06:29:32Z</time>
      </trkpt>
      <trkpt lat="44.19223" lon="4.72904">
        <ele>28</ele>
        <time>2018-09-30T06:29:34Z</time>
      </trkpt>
      <trkpt lat="44.19209" lon="4.72929">
        <ele>28</ele>
        <time>2018-09-30T06:29:37Z</time>
      </trkpt>
      <trkpt lat="44.19199" lon="4.72945">
        <ele>28</ele>
        <time>2018-09-30T06:29:39Z</time>
      </trkpt>
      <trkpt lat="44.19184" lon="4.72968">
        <ele>28</ele>
        <time>2018-09-30T06:29:42Z</time>
      </trkpt>
      <trkpt lat="44.19169" lon="4.72993">
        <ele>28</ele>
        <time>2018-09-30T06:29:45Z</time>
      </trkpt>
      <trkpt lat="44.19155" lon="4.73019">
        <ele>28</ele>
        <time>2018-09-30T06:29:48Z</time>
      </trkpt>
      <trkpt lat="44.19146" lon="4.73037">
        <ele>28</ele>
        <time>2018-09-30T06:29:50Z</time>
      </trkpt>
      <trkpt lat="44.1913" lon="4.73062">
        <ele>28</ele>
        <time>2018-09-30T06:29:53Z</time>
      </trkpt>
      <trkpt lat="44.19112" lon="4.73083">
        <ele>28</ele>
        <time>2018-09-30T06:29:56Z</time>
      </trkpt>
      <trkpt lat="44.19099" lon="4.73095">
        <ele>28</ele>
        <time>2018-09-30T06:29:58Z</time>
      </trkpt>
      <trkpt lat="44.19078" lon="4.73111">
        <ele>28</ele>
        <time>2018-09-30T06:30:01Z</time>
      </trkpt>
      <trkpt lat="44.19063" lon="4.7312">
        <ele>28</ele>
        <time>2018-09-30T06:30:03Z</time>
      </trkpt>
      <trkpt lat="44.19048" lon="4.73127">
        <ele>27</ele>
        <time>2018-09-30T06:30:05Z</time>
      </trkpt>
      <trkpt lat="44.19024" lon="4.73135">
        <ele>27</ele>
        <time>2018-09-30T06:30:08Z</time>
      </trkpt>
      <trkpt lat="44.19009" lon="4.73142">
        <ele>28</ele>
        <time>2018-09-30T06:30:10Z</time>
      </trkpt>
      <trkpt lat="44.18993" lon="4.7315">
        <ele>28</ele>
        <time>2018-09-30T06:30:12Z</time>
      </trkpt>
      <trkpt lat="44.1897" lon="4.73166">
        <ele>28</ele>
        <time>2018-09-30T06:30:15Z</time>
      </trkpt>
      <trkpt lat="44.18951" lon="4.73188">
        <ele>28</ele>
        <time>2018-09-30T06:30:18Z</time>
      </trkpt>
      <trkpt lat="44.18939" lon="4.73204">
        <ele>28</ele>
        <time>2018-09-30T06:30:20Z</time>
      </trkpt>
      <trkpt lat="44.18928" lon="4.73221">
        <ele>29</ele>
        <time>2018-09-30T06:30:22Z</time>
      </trkpt>
      <trkpt lat="44.18908" lon="4.73243">
        <ele>28</ele>
        <time>2018-09-30T06:30:25Z</time>
      </trkpt>
      <trkpt lat="44.18887" lon="4.73261">
        <ele>27</ele>
        <time>2018-09-30T06:30:28Z</time>
      </trkpt>
      <trkpt lat="44.18871" lon="4.73272">
        <ele>28</ele>
        <time>2018-09-30T06:30:30Z</time>
      </trkpt>
      <trkpt lat="44.1885" lon="4.73287">
        <ele>28</ele>
        <time>2018-09-30T06:30:33Z</time>
      </trkpt>
      <trkpt lat="44.18829" lon="4.73299">
        <ele>28</ele>
        <time>2018-09-30T06:30:36Z</time>
      </trkpt>
      <trkpt lat="44.18811" lon="4.73309">
        <ele>28</ele>
        <time>2018-09-30T06:30:39Z</time>
      </trkpt>
      <trkpt lat="44.188" lon="4.73315">
        <ele>27</ele>
        <time>2018-09-30T06:30:42Z</time>
      </trkpt>
      <trkpt lat="44.18788" lon="4.73319">
        <ele>27</ele>
        <time>2018-09-30T06:30:45Z</time>
      </trkpt>
      <trkpt lat="44.18777" lon="4.73322">
        <ele>28</ele>
        <time>2018-09-30T06:30:47Z</time>
      </trkpt>
      <trkpt lat="44.18763" lon="4.73327">
        <ele>28</ele>
        <time>2018-09-30T06:30:50Z</time>
      </trkpt>
      <trkpt lat="44.18753" lon="4.73331">
        <ele>28</ele>
        <time>2018-09-30T06:30:53Z</time>
      </trkpt>
      <trkpt lat="44.18746" lon="4.73334">
        <ele>27</ele>
        <time>2018-09-30T06:30:55Z</time>
      </trkpt>
      <trkpt lat="44.18735" lon="4.73338">
        <ele>27</ele>
        <time>2018-09-30T06:30:58Z</time>
      </trkpt>
      <trkpt lat="44.18726" lon="4.73341">
        <ele>27</ele>
        <time>2018-09-30T06:31:00Z</time>
      </trkpt>
      <trkpt lat="44.18718" lon="4.73344">
        <ele>27</ele>
        <time>2018-09-30T06:31:02Z</time>
      </trkpt>
      <trkpt lat="44.18703" lon="4.73349">
        <ele>27</ele>
        <time>2018-09-30T06:31:05Z</time>
      </trkpt>
      <trkpt lat="44.18695" lon="4.73351">
        <ele>28</ele>
        <time>2018-09-30T06:31:07Z</time>
      </trkpt>
      <trkpt lat="44.18683" lon="4.73354">
        <ele>27</ele>
        <time>2018-09-30T06:31:10Z</time>
      </trkpt>
      <trkpt lat="44.18669" lon="4.73358">
        <ele>27</ele>
        <time>2018-09-30T06:31:13Z</time>
      </trkpt>
      <trkpt lat="44.18658" lon="4.73361">
        <ele>27</ele>
        <time>2018-09-30T06:31:15Z</time>
      </trkpt>
      <trkpt lat="44.18642" lon="4.73365">
        <ele>28</ele>
        <time>2018-09-30T06:31:18Z</time>
      </trkpt>
      <trkpt lat="44.18626" lon="4.7337">
        <ele>28</ele>
        <time>2018-09-30T06:31:21Z</time>
      </trkpt>
      <trkpt lat="44.18615" lon="4.73372">
        <ele>28</ele>
        <time>2018-09-30T06:31:23Z</time>
      </trkpt>
      <trkpt lat="44.18599" lon="4.73377">
        <ele>28</ele>
        <time>2018-09-30T06:31:26Z</time>
      </trkpt>
      <trkpt lat="44.18581" lon="4.7338">
        <ele>28</ele>
        <time>2018-09-30T06:31:29Z</time>
      </trkpt>
      <trkpt lat="44.1857" lon="4.73382">
        <ele>28</ele>
        <time>2018-09-30T06:31:31Z</time>
      </trkpt>
      <trkpt lat="44.18551" lon="4.73384">
        <ele>28</ele>
        <time>2018-09-30T06:31:34Z</time>
      </trkpt>
      <trkpt lat="44.1854" lon="4.73385">
        <ele>28</ele>
        <time>2018-09-30T06:31:36Z</time>
      </trkpt>
      <trkpt lat="44.18529" lon="4.73387">
        <ele>28</ele>
        <time>2018-09-30T06:31:38Z</time>
      </trkpt>
      <trkpt lat="44.1851" lon="4.7339">
        <ele>28</ele>
        <time>2018-09-30T06:31:41Z</time>
      </trkpt>
      <trkpt lat="44.18496" lon="4.73392">
        <ele>27</ele>
        <time>2018-09-30T06:31:43Z</time>
      </trkpt>
      <trkpt lat="44.18476" lon="4.73395">
        <ele>27</ele>
        <time>2018-09-30T06:31:46Z</time>
      </trkpt>
      <trkpt lat="44.18455" lon="4.73398">
        <ele>27</ele>
        <time>2018-09-30T06:31:49Z</time>
      </trkpt>
      <trkpt lat="44.18441" lon="4.73401">
        <ele>27</ele>
        <time>2018-09-30T06:31:51Z</time>
      </trkpt>
      <trkpt lat="44.1842" lon="4.73404">
        <ele>27</ele>
        <time>2018-09-30T06:31:54Z</time>
      </trkpt>
      <trkpt lat="44.18399" lon="4.73408">
        <ele>28</ele>
        <time>2018-09-30T06:31:57Z</time>
      </trkpt>
      <trkpt lat="44.18385" lon="4.73409">
        <ele>28</ele>
        <time>2018-09-30T06:31:59Z</time>
      </trkpt>
      <trkpt lat="44.18364" lon="4.73412">
        <ele>28</ele>
        <time>2018-09-30T06:32:02Z</time>
      </trkpt>
      <trkpt lat="44.18343" lon="4.73414">
        <ele>28</ele>
        <time>2018-09-30T06:32:05Z</time>
      </trkpt>
      <trkpt lat="44.18329" lon="4.73416">
        <ele>27</ele>
        <time>2018-09-30T06:32:07Z</time>
      </trkpt>
      <trkpt lat="44.18307" lon="4.7342">
        <ele>27</ele>
        <time>2018-09-30T06:32:10Z</time>
      </trkpt>
      <trkpt lat="44.18294" lon="4.73423">
        <ele>28</ele>
        <time>2018-09-30T06:32:12Z</time>
      </trkpt>
      <trkpt lat="44.18273" lon="4.7343">
        <ele>28</ele>
        <time>2018-09-30T06:32:15Z</time>
      </trkpt>
      <trkpt lat="44.18259" lon="4.73435">
        <ele>28</ele>
        <time>2018-09-30T06:32:17Z</time>
      </trkpt>
      <trkpt lat="44.18239" lon="4.73445">
        <ele>27</ele>
        <time>2018-09-30T06:32:20Z</time>
      </trkpt>
      <trkpt lat="44.18225" lon="4.73452">
        <ele>27</ele>
        <time>2018-09-30T06:32:22Z</time>
      </trkpt>
      <trkpt lat="44.18206" lon="4.73463">
        <ele>27</ele>
        <time>2018-09-30T06:32:25Z</time>
      </trkpt>
      <trkpt lat="44.18186" lon="4.73475">
        <ele>27</ele>
        <time>2018-09-30T06:32:28Z</time>
      </trkpt>
      <trkpt lat="44.18166" lon="4.73486">
        <ele>27</ele>
        <time>2018-09-30T06:32:31Z</time>
      </trkpt>
      <trkpt lat="44.18153" lon="4.73494">
        <ele>27</ele>
        <time>2018-09-30T06:32:33Z</time>
      </trkpt>
      <trkpt lat="44.18132" lon="4.73505">
        <ele>27</ele>
        <time>2018-09-30T06:32:36Z</time>
      </trkpt>
      <trkpt lat="44.18112" lon="4.73517">
        <ele>27</ele>
        <time>2018-09-30T06:32:39Z</time>
      </trkpt>
      <trkpt lat="44.18091" lon="4.73526">
        <ele>27</ele>
        <time>2018-09-30T06:32:42Z</time>
      </trkpt>
      <trkpt lat="44.18076" lon="4.73531">
        <ele>27</ele>
        <time>2018-09-30T06:32:44Z</time>
      </trkpt>
      <trkpt lat="44.18055" lon="4.73536">
        <ele>28</ele>
        <time>2018-09-30T06:32:47Z</time>
      </trkpt>
      <trkpt lat="44.18041" lon="4.73539">
        <ele>28</ele>
        <time>2018-09-30T06:32:49Z</time>
      </trkpt>
      <trkpt lat="44.18026" lon="4.73541">
        <ele>28</ele>
        <time>2018-09-30T06:32:51Z</time>
      </trkpt>
      <trkpt lat="44.18005" lon="4.73541">
        <ele>28</ele>
        <time>2018-09-30T06:32:54Z</time>
      </trkpt>
      <trkpt lat="44.1799" lon="4.73541">
        <ele>28</ele>
        <time>2018-09-30T06:32:56Z</time>
      </trkpt>
      <trkpt lat="44.1797" lon="4.7354">
        <ele>28</ele>
        <time>2018-09-30T06:32:59Z</time>
      </trkpt>
      <trkpt lat="44.17956" lon="4.73539">
        <ele>28</ele>
        <time>2018-09-30T06:33:01Z</time>
      </trkpt>
      <trkpt lat="44.17942" lon="4.73536">
        <ele>28</ele>
        <time>2018-09-30T06:33:03Z</time>
      </trkpt>
      <trkpt lat="44.17928" lon="4.73534">
        <ele>28</ele>
        <time>2018-09-30T06:33:05Z</time>
      </trkpt>
      <trkpt lat="44.17913" lon="4.73531">
        <ele>28</ele>
        <time>2018-09-30T06:33:07Z</time>
      </trkpt>
      <trkpt lat="44.17892" lon="4.73527">
        <ele>28</ele>
        <time>2018-09-30T06:33:10Z</time>
      </trkpt>
      <trkpt lat="44.17879" lon="4.73523">
        <ele>28</ele>
        <time>2018-09-30T06:33:12Z</time>
      </trkpt>
      <trkpt lat="44.17865" lon="4.7352">
        <ele>28</ele>
        <time>2018-09-30T06:33:14Z</time>
      </trkpt>
      <trkpt lat="44.17852" lon="4.73517">
        <ele>28</ele>
        <time>2018-09-30T06:33:16Z</time>
      </trkpt>
      <trkpt lat="44.17832" lon="4.73511">
        <ele>28</ele>
        <time>2018-09-30T06:33:19Z</time>
      </trkpt>
      <trkpt lat="44.17812" lon="4.73506">
        <ele>28</ele>
        <time>2018-09-30T06:33:22Z</time>
      </trkpt>
      <trkpt lat="44.17799" lon="4.73503">
        <ele>27</ele>
        <time>2018-09-30T06:33:24Z</time>
      </trkpt>
      <trkpt lat="44.17785" lon="4.735">
        <ele>27</ele>
        <time>2018-09-30T06:33:26Z</time>
      </trkpt>
      <trkpt lat="44.17765" lon="4.73496">
        <ele>27</ele>
        <time>2018-09-30T06:33:29Z</time>
      </trkpt>
      <trkpt lat="44.17745" lon="4.73498">
        <ele>27</ele>
        <time>2018-09-30T06:33:32Z</time>
      </trkpt>
      <trkpt lat="44.17724" lon="4.73505">
        <ele>27</ele>
        <time>2018-09-30T06:33:35Z</time>
      </trkpt>
      <trkpt lat="44.17703" lon="4.73514">
        <ele>26</ele>
        <time>2018-09-30T06:33:38Z</time>
      </trkpt>
      <trkpt lat="44.17684" lon="4.73522">
        <ele>26</ele>
        <time>2018-09-30T06:33:41Z</time>
      </trkpt>
      <trkpt lat="44.17671" lon="4.73528">
        <ele>26</ele>
        <time>2018-09-30T06:33:43Z</time>
      </trkpt>
      <trkpt lat="44.17657" lon="4.73534">
        <ele>27</ele>
        <time>2018-09-30T06:33:45Z</time>
      </trkpt>
      <trkpt lat="44.17637" lon="4.73544">
        <ele>27</ele>
        <time>2018-09-30T06:33:48Z</time>
      </trkpt>
      <trkpt lat="44.17622" lon="4.7355">
        <ele>27</ele>
        <time>2018-09-30T06:33:50Z</time>
      </trkpt>
      <trkpt lat="44.17607" lon="4.73557">
        <ele>27</ele>
        <time>2018-09-30T06:33:52Z</time>
      </trkpt>
      <trkpt lat="44.17593" lon="4.73563">
        <ele>27</ele>
        <time>2018-09-30T06:33:54Z</time>
      </trkpt>
      <trkpt lat="44.17577" lon="4.73569">
        <ele>27</ele>
        <time>2018-09-30T06:33:56Z</time>
      </trkpt>
      <trkpt lat="44.17562" lon="4.73574">
        <ele>27</ele>
        <time>2018-09-30T06:33:58Z</time>
      </trkpt>
      <trkpt lat="44.1754" lon="4.73582">
        <ele>27</ele>
        <time>2018-09-30T06:34:01Z</time>
      </trkpt>
      <trkpt lat="44.17525" lon="4.73589">
        <ele>27</ele>
        <time>2018-09-30T06:34:03Z</time>
      </trkpt>
      <trkpt lat="44.17509" lon="4.73595">
        <ele>27</ele>
        <time>2018-09-30T06:34:05Z</time>
      </trkpt>
      <trkpt lat="44.17494" lon="4.73601">
        <ele>27</ele>
        <time>2018-09-30T06:34:07Z</time>
      </trkpt>
      <trkpt lat="44.17471" lon="4.73609">
        <ele>27</ele>
        <time>2018-09-30T06:34:10Z</time>
      </trkpt>
      <trkpt lat="44.17456" lon="4.73613">
        <ele>27</ele>
        <time>2018-09-30T06:34:12Z</time>
      </trkpt>
      <trkpt lat="44.17432" lon="4.73618">
        <ele>28</ele>
        <time>2018-09-30T06:34:15Z</time>
      </trkpt>
      <trkpt lat="44.17408" lon="4.7362">
        <ele>28</ele>
        <time>2018-09-30T06:34:18Z</time>
      </trkpt>
      <trkpt lat="44.17392" lon="4.7362">
        <ele>28</ele>
        <time>2018-09-30T06:34:20Z</time>
      </trkpt>
      <trkpt lat="44.17368" lon="4.73619">
        <ele>28</ele>
        <time>2018-09-30T06:34:23Z</time>
      </trkpt>
      <trkpt lat="44.17353" lon="4.73619">
        <ele>29</ele>
        <time>2018-09-30T06:34:25Z</time>
      </trkpt>
      <trkpt lat="44.17338" lon="4.7362">
        <ele>28</ele>
        <time>2018-09-30T06:34:27Z</time>
      </trkpt>
      <trkpt lat="44.17317" lon="4.73617">
        <ele>28</ele>
        <time>2018-09-30T06:34:30Z</time>
      </trkpt>
      <trkpt lat="44.17294" lon="4.73613">
        <ele>27</ele>
        <time>2018-09-30T06:34:33Z</time>
      </trkpt>
      <trkpt lat="44.17278" lon="4.7361">
        <ele>27</ele>
        <time>2018-09-30T06:34:35Z</time>
      </trkpt>
      <trkpt lat="44.17263" lon="4.73609">
        <ele>27</ele>
        <time>2018-09-30T06:34:37Z</time>
      </trkpt>
      <trkpt lat="44.17247" lon="4.73608">
        <ele>27</ele>
        <time>2018-09-30T06:34:39Z</time>
      </trkpt>
      <trkpt lat="44.17231" lon="4.73609">
        <ele>27</ele>
        <time>2018-09-30T06:34:41Z</time>
      </trkpt>
      <trkpt lat="44.17215" lon="4.73609">
        <ele>28</ele>
        <time>2018-09-30T06:34:43Z</time>
      </trkpt>
      <trkpt lat="44.17199" lon="4.73611">
        <ele>28</ele>
        <time>2018-09-30T06:34:45Z</time>
      </trkpt>
      <trkpt lat="44.17177" lon="4.73614">
        <ele>28</ele>
        <time>2018-09-30T06:34:48Z</time>
      </trkpt>
      <trkpt lat="44.17162" lon="4.73617">
        <ele>28</ele>
        <time>2018-09-30T06:34:50Z</time>
      </trkpt>
      <trkpt lat="44.17148" lon="4.73621">
        <ele>28</ele>
        <time>2018-09-30T06:34:52Z</time>
      </trkpt>
      <trkpt lat="44.17133" lon="4.73624">
        <ele>27</ele>
        <time>2018-09-30T06:34:54Z</time>
      </trkpt>
      <trkpt lat="44.17119" lon="4.73629">
        <ele>27</ele>
        <time>2018-09-30T06:34:56Z</time>
      </trkpt>
      <trkpt lat="44.17105" lon="4.73632">
        <ele>27</ele>
        <time>2018-09-30T06:34:58Z</time>
      </trkpt>
      <trkpt lat="44.17091" lon="4.73637">
        <ele>27</ele>
        <time>2018-09-30T06:35:00Z</time>
      </trkpt>
      <trkpt lat="44.17069" lon="4.73644">
        <ele>27</ele>
        <time>2018-09-30T06:35:03Z</time>
      </trkpt>
      <trkpt lat="44.17053" lon="4.73648">
        <ele>27</ele>
        <time>2018-09-30T06:35:05Z</time>
      </trkpt>
      <trkpt lat="44.17038" lon="4.73653">
        <ele>27</ele>
        <time>2018-09-30T06:35:07Z</time>
      </trkpt>
      <trkpt lat="44.17014" lon="4.73661">
        <ele>27</ele>
        <time>2018-09-30T06:35:10Z</time>
      </trkpt>
      <trkpt lat="44.16998" lon="4.73666">
        <ele>28</ele>
        <time>2018-09-30T06:35:12Z</time>
      </trkpt>
      <trkpt lat="44.16973" lon="4.73675">
        <ele>28</ele>
        <time>2018-09-30T06:35:15Z</time>
      </trkpt>
      <trkpt lat="44.16948" lon="4.73683">
        <ele>27</ele>
        <time>2018-09-30T06:35:18Z</time>
      </trkpt>
      <trkpt lat="44.16931" lon="4.73689">
        <ele>27</ele>
        <time>2018-09-30T06:35:20Z</time>
      </trkpt>
      <trkpt lat="44.16906" lon="4.73695">
        <ele>27</ele>
        <time>2018-09-30T06:35:23Z</time>
      </trkpt>
      <trkpt lat="44.16889" lon="4.73697">
        <ele>28</ele>
        <time>2018-09-30T06:35:25Z</time>
      </trkpt>
      <trkpt lat="44.16872" lon="4.73698">
        <ele>28</ele>
        <time>2018-09-30T06:35:27Z</time>
      </trkpt>
      <trkpt lat="44.16848" lon="4.73697">
        <ele>28</ele>
        <time>2018-09-30T06:35:30Z</time>
      </trkpt>
      <trkpt lat="44.16823" lon="4.73696">
        <ele>27</ele>
        <time>2018-09-30T06:35:33Z</time>
      </trkpt>
      <trkpt lat="44.16807" lon="4.73695">
        <ele>27</ele>
        <time>2018-09-30T06:35:35Z</time>
      </trkpt>
      <trkpt lat="44.1679" lon="4.73693">
        <ele>26</ele>
        <time>2018-09-30T06:35:37Z</time>
      </trkpt>
      <trkpt lat="44.16773" lon="4.73691">
        <ele>27</ele>
        <time>2018-09-30T06:35:39Z</time>
      </trkpt>
      <trkpt lat="44.16748" lon="4.73687">
        <ele>27</ele>
        <time>2018-09-30T06:35:42Z</time>
      </trkpt>
      <trkpt lat="44.16722" lon="4.73687">
        <ele>28</ele>
        <time>2018-09-30T06:35:45Z</time>
      </trkpt>
      <trkpt lat="44.16705" lon="4.7369">
        <ele>28</ele>
        <time>2018-09-30T06:35:47Z</time>
      </trkpt>
      <trkpt lat="44.16681" lon="4.73702">
        <ele>27</ele>
        <time>2018-09-30T06:35:50Z</time>
      </trkpt>
      <trkpt lat="44.16667" lon="4.73715">
        <ele>27</ele>
        <time>2018-09-30T06:35:52Z</time>
      </trkpt>
      <trkpt lat="44.16647" lon="4.73731">
        <ele>27</ele>
        <time>2018-09-30T06:35:55Z</time>
      </trkpt>
      <trkpt lat="44.16625" lon="4.73734">
        <ele>28</ele>
        <time>2018-09-30T06:35:58Z</time>
      </trkpt>
      <trkpt lat="44.16601" lon="4.73735">
        <ele>28</ele>
        <time>2018-09-30T06:36:01Z</time>
      </trkpt>
      <trkpt lat="44.16586" lon="4.73737">
        <ele>28</ele>
        <time>2018-09-30T06:36:03Z</time>
      </trkpt>
      <trkpt lat="44.16566" lon="4.73741">
        <ele>28</ele>
        <time>2018-09-30T06:36:06Z</time>
      </trkpt>
      <trkpt lat="44.16551" lon="4.73744">
        <ele>27</ele>
        <time>2018-09-30T06:36:09Z</time>
      </trkpt>
      <trkpt lat="44.1654" lon="4.73736">
        <ele>27</ele>
        <time>2018-09-30T06:36:12Z</time>
      </trkpt>
      <trkpt lat="44.16536" lon="4.73714">
        <ele>28</ele>
        <time>2018-09-30T06:36:15Z</time>
      </trkpt>
      <trkpt lat="44.16532" lon="4.73688">
        <ele>28</ele>
        <time>2018-09-30T06:36:18Z</time>
      </trkpt>
      <trkpt lat="44.16529" lon="4.73661">
        <ele>28</ele>
        <time>2018-09-30T06:36:21Z</time>
      </trkpt>
      <trkpt lat="44.16528" lon="4.73642">
        <ele>28</ele>
        <time>2018-09-30T06:36:23Z</time>
      </trkpt>
      <trkpt lat="44.16527" lon="4.73622">
        <ele>28</ele>
        <time>2018-09-30T06:36:25Z</time>
      </trkpt>
      <trkpt lat="44.16523" lon="4.7359">
        <ele>27</ele>
        <time>2018-09-30T06:36:28Z</time>
      </trkpt>
      <trkpt lat="44.1652" lon="4.73568">
        <ele>27</ele>
        <time>2018-09-30T06:36:30Z</time>
      </trkpt>
      <trkpt lat="44.16517" lon="4.73548">
        <ele>27</ele>
        <time>2018-09-30T06:36:32Z</time>
      </trkpt>
      <trkpt lat="44.16514" lon="4.73526">
        <ele>27</ele>
        <time>2018-09-30T06:36:34Z</time>
      </trkpt>
      <trkpt lat="44.1651" lon="4.73494">
        <ele>28</ele>
        <time>2018-09-30T06:36:37Z</time>
      </trkpt>
      <trkpt lat="44.16507" lon="4.73472">
        <ele>28</ele>
        <time>2018-09-30T06:36:39Z</time>
      </trkpt>
      <trkpt lat="44.16504" lon="4.7345">
        <ele>28</ele>
        <time>2018-09-30T06:36:41Z</time>
      </trkpt>
      <trkpt lat="44.16501" lon="4.73427">
        <ele>28</ele>
        <time>2018-09-30T06:36:43Z</time>
      </trkpt>
      <trkpt lat="44.16497" lon="4.73404">
        <ele>27</ele>
        <time>2018-09-30T06:36:45Z</time>
      </trkpt>
      <trkpt lat="44.16491" lon="4.7337">
        <ele>28</ele>
        <time>2018-09-30T06:36:48Z</time>
      </trkpt>
      <trkpt lat="44.16488" lon="4.73346">
        <ele>28</ele>
        <time>2018-09-30T06:36:50Z</time>
      </trkpt>
      <trkpt lat="44.16484" lon="4.73313">
        <ele>28</ele>
        <time>2018-09-30T06:36:53Z</time>
      </trkpt>
      <trkpt lat="44.16479" lon="4.7329">
        <ele>29</ele>
        <time>2018-09-30T06:36:55Z</time>
      </trkpt>
      <trkpt lat="44.16473" lon="4.73259">
        <ele>28</ele>
        <time>2018-09-30T06:36:58Z</time>
      </trkpt>
      <trkpt lat="44.1647" lon="4.73238">
        <ele>28</ele>
        <time>2018-09-30T06:37:00Z</time>
      </trkpt>
      <trkpt lat="44.16466" lon="4.73219">
        <ele>28</ele>
        <time>2018-09-30T06:37:02Z</time>
      </trkpt>
      <trkpt lat="44.16457" lon="4.7319">
        <ele>28</ele>
        <time>2018-09-30T06:37:05Z</time>
      </trkpt>
      <trkpt lat="44.16448" lon="4.7316">
        <ele>29</ele>
        <time>2018-09-30T06:37:08Z</time>
      </trkpt>
      <trkpt lat="44.16437" lon="4.73129">
        <ele>29</ele>
        <time>2018-09-30T06:37:11Z</time>
      </trkpt>
      <trkpt lat="44.16431" lon="4.73107">
        <ele>29</ele>
        <time>2018-09-30T06:37:13Z</time>
      </trkpt>
      <trkpt lat="44.16424" lon="4.73086">
        <ele>29</ele>
        <time>2018-09-30T06:37:15Z</time>
      </trkpt>
      <trkpt lat="44.16417" lon="4.73066">
        <ele>29</ele>
        <time>2018-09-30T06:37:17Z</time>
      </trkpt>
      <trkpt lat="44.16407" lon="4.73034">
        <ele>29</ele>
        <time>2018-09-30T06:37:20Z</time>
      </trkpt>
      <trkpt lat="44.16397" lon="4.73004">
        <ele>28</ele>
        <time>2018-09-30T06:37:23Z</time>
      </trkpt>
      <trkpt lat="44.16388" lon="4.72977">
        <ele>27</ele>
        <time>2018-09-30T06:37:26Z</time>
      </trkpt>
      <trkpt lat="44.16381" lon="4.72961">
        <ele>27</ele>
        <time>2018-09-30T06:37:28Z</time>
      </trkpt>
      <trkpt lat="44.16373" lon="4.72945">
        <ele>27</ele>
        <time>2018-09-30T06:37:30Z</time>
      </trkpt>
      <trkpt lat="44.16366" lon="4.72927">
        <ele>28</ele>
        <time>2018-09-30T06:37:32Z</time>
      </trkpt>
      <trkpt lat="44.16359" lon="4.72907">
        <ele>29</ele>
        <time>2018-09-30T06:37:34Z</time>
      </trkpt>
      <trkpt lat="44.16349" lon="4.72876">
        <ele>29</ele>
        <time>2018-09-30T06:37:37Z</time>
      </trkpt>
      <trkpt lat="44.16342" lon="4.72855">
        <ele>30</ele>
        <time>2018-09-30T06:37:39Z</time>
      </trkpt>
      <trkpt lat="44.16335" lon="4.72834">
        <ele>30</ele>
        <time>2018-09-30T06:37:41Z</time>
      </trkpt>
      <trkpt lat="44.16328" lon="4.72814">
        <ele>30</ele>
        <time>2018-09-30T06:37:43Z</time>
      </trkpt>
      <trkpt lat="44.16321" lon="4.72794">
        <ele>30</ele>
        <time>2018-09-30T06:37:45Z</time>
      </trkpt>
      <trkpt lat="44.16314" lon="4.72774">
        <ele>30</ele>
        <time>2018-09-30T06:37:47Z</time>
      </trkpt>
      <trkpt lat="44.16308" lon="4.72753">
        <ele>30</ele>
        <time>2018-09-30T06:37:49Z</time>
      </trkpt>
      <trkpt lat="44.16297" lon="4.72722">
        <ele>30</ele>
        <time>2018-09-30T06:37:52Z</time>
      </trkpt>
      <trkpt lat="44.1629" lon="4.72702">
        <ele>30</ele>
        <time>2018-09-30T06:37:54Z</time>
      </trkpt>
      <trkpt lat="44.16284" lon="4.72682">
        <ele>30</ele>
        <time>2018-09-30T06:37:56Z</time>
      </trkpt>
      <trkpt lat="44.16278" lon="4.72662">
        <ele>30</ele>
        <time>2018-09-30T06:37:58Z</time>
      </trkpt>
      <trkpt lat="44.16269" lon="4.72633">
        <ele>29</ele>
        <time>2018-09-30T06:38:01Z</time>
      </trkpt>
      <trkpt lat="44.16265" lon="4.72612">
        <ele>29</ele>
        <time>2018-09-30T06:38:03Z</time>
      </trkpt>
      <trkpt lat="44.16264" lon="4.72586">
        <ele>28</ele>
        <time>2018-09-30T06:38:06Z</time>
      </trkpt>
      <trkpt lat="44.16265" lon="4.72565">
        <ele>27</ele>
        <time>2018-09-30T06:38:09Z</time>
      </trkpt>
      <trkpt lat="44.16269" lon="4.72551">
        <ele>27</ele>
        <time>2018-09-30T06:38:11Z</time>
      </trkpt>
      <trkpt lat="44.16274" lon="4.72525">
        <ele>27</ele>
        <time>2018-09-30T06:38:14Z</time>
      </trkpt>
      <trkpt lat="44.16277" lon="4.72507">
        <ele>28</ele>
        <time>2018-09-30T06:38:16Z</time>
      </trkpt>
      <trkpt lat="44.1628" lon="4.7249">
        <ele>28</ele>
        <time>2018-09-30T06:38:18Z</time>
      </trkpt>
      <trkpt lat="44.16287" lon="4.72462">
        <ele>29</ele>
        <time>2018-09-30T06:38:21Z</time>
      </trkpt>
      <trkpt lat="44.16295" lon="4.72445">
        <ele>29</ele>
        <time>2018-09-30T06:38:23Z</time>
      </trkpt>
      <trkpt lat="44.16311" lon="4.72423">
        <ele>28</ele>
        <time>2018-09-30T06:38:26Z</time>
      </trkpt>
      <trkpt lat="44.16321" lon="4.72395">
        <ele>28</ele>
        <time>2018-09-30T06:38:29Z</time>
      </trkpt>
      <trkpt lat="44.16331" lon="4.72381">
        <ele>28</ele>
        <time>2018-09-30T06:38:31Z</time>
      </trkpt>
      <trkpt lat="44.16338" lon="4.72355">
        <ele>28</ele>
        <time>2018-09-30T06:38:34Z</time>
      </trkpt>
      <trkpt lat="44.16328" lon="4.7233">
        <ele>28</ele>
        <time>2018-09-30T06:38:37Z</time>
      </trkpt>
      <trkpt lat="44.16315" lon="4.72322">
        <ele>29</ele>
        <time>2018-09-30T06:38:39Z</time>
      </trkpt>
      <trkpt lat="44.16293" lon="4.72323">
        <ele>29</ele>
        <time>2018-09-30T06:38:42Z</time>
      </trkpt>
      <trkpt lat="44.1627" lon="4.72325">
        <ele>29</ele>
        <time>2018-09-30T06:38:45Z</time>
      </trkpt>
      <trkpt lat="44.16254" lon="4.72327">
        <ele>29</ele>
        <time>2018-09-30T06:38:47Z</time>
      </trkpt>
      <trkpt lat="44.16239" lon="4.72329">
        <ele>29</ele>
        <time>2018-09-30T06:38:49Z</time>
      </trkpt>
      <trkpt lat="44.16224" lon="4.7233">
        <ele>29</ele>
        <time>2018-09-30T06:38:51Z</time>
      </trkpt>
      <trkpt lat="44.16202" lon="4.72331">
        <ele>30</ele>
        <time>2018-09-30T06:38:54Z</time>
      </trkpt>
      <trkpt lat="44.16188" lon="4.72324">
        <ele>30</ele>
        <time>2018-09-30T06:38:56Z</time>
      </trkpt>
      <trkpt lat="44.16171" lon="4.72303">
        <ele>29</ele>
        <time>2018-09-30T06:38:59Z</time>
      </trkpt>
      <trkpt lat="44.16153" lon="4.72281">
        <ele>29</ele>
        <time>2018-09-30T06:39:02Z</time>
      </trkpt>
      <trkpt lat="44.16141" lon="4.72266">
        <ele>29</ele>
        <time>2018-09-30T06:39:04Z</time>
      </trkpt>
      <trkpt lat="44.16129" lon="4.72251">
        <ele>30</ele>
        <time>2018-09-30T06:39:06Z</time>
      </trkpt>
      <trkpt lat="44.16112" lon="4.72229">
        <ele>30</ele>
        <time>2018-09-30T06:39:09Z</time>
      </trkpt>
      <trkpt lat="44.161" lon="4.72214">
        <ele>30</ele>
        <time>2018-09-30T06:39:11Z</time>
      </trkpt>
      <trkpt lat="44.16089" lon="4.722">
        <ele>30</ele>
        <time>2018-09-30T06:39:13Z</time>
      </trkpt>
      <trkpt lat="44.16072" lon="4.72179">
        <ele>29</ele>
        <time>2018-09-30T06:39:16Z</time>
      </trkpt>
      <trkpt lat="44.16062" lon="4.72165">
        <ele>29</ele>
        <time>2018-09-30T06:39:18Z</time>
      </trkpt>
      <trkpt lat="44.16053" lon="4.72141">
        <ele>29</ele>
        <time>2018-09-30T06:39:21Z</time>
      </trkpt>
      <trkpt lat="44.16049" lon="4.72126">
        <ele>29</ele>
        <time>2018-09-30T06:39:23Z</time>
      </trkpt>
      <trkpt lat="44.16044" lon="4.72107">
        <ele>29</ele>
        <time>2018-09-30T06:39:26Z</time>
      </trkpt>
      <trkpt lat="44.1604" lon="4.72092">
        <ele>28</ele>
        <time>2018-09-30T06:39:29Z</time>
      </trkpt>
      <trkpt lat="44.16039" lon="4.72079">
        <ele>27</ele>
        <time>2018-09-30T06:39:32Z</time>
      </trkpt>
      <trkpt lat="44.16036" lon="4.7207">
        <ele>27</ele>
        <time>2018-09-30T06:39:35Z</time>
      </trkpt>
      <trkpt lat="44.16029" lon="4.72069">
        <ele>27</ele>
        <time>2018-09-30T06:39:37Z</time>
      </trkpt>
      <trkpt lat="44.1602" lon="4.72069">
        <ele>27</ele>
        <time>2018-09-30T06:39:39Z</time>
      </trkpt>
      <trkpt lat="44.16003" lon="4.72069">
        <ele>27</ele>
        <time>2018-09-30T06:39:42Z</time>
      </trkpt>
      <trkpt lat="44.1599" lon="4.72069">
        <ele>28</ele>
        <time>2018-09-30T06:39:44Z</time>
      </trkpt>
      <trkpt lat="44.15976" lon="4.72069">
        <ele>28</ele>
        <time>2018-09-30T06:39:46Z</time>
      </trkpt>
      <trkpt lat="44.15953" lon="4.7207">
        <ele>29</ele>
        <time>2018-09-30T06:39:49Z</time>
      </trkpt>
      <trkpt lat="44.15937" lon="4.72071">
        <ele>29</ele>
        <time>2018-09-30T06:39:51Z</time>
      </trkpt>
      <trkpt lat="44.15913" lon="4.72074">
        <ele>29</ele>
        <time>2018-09-30T06:39:54Z</time>
      </trkpt>
      <trkpt lat="44.15897" lon="4.72076">
        <ele>29</ele>
        <time>2018-09-30T06:39:56Z</time>
      </trkpt>
      <trkpt lat="44.15872" lon="4.7208">
        <ele>29</ele>
        <time>2018-09-30T06:39:59Z</time>
      </trkpt>
      <trkpt lat="44.15848" lon="4.72084">
        <ele>29</ele>
        <time>2018-09-30T06:40:02Z</time>
      </trkpt>
      <trkpt lat="44.15824" lon="4.72087">
        <ele>29</ele>
        <time>2018-09-30T06:40:05Z</time>
      </trkpt>
      <trkpt lat="44.15807" lon="4.72089">
        <ele>29</ele>
        <time>2018-09-30T06:40:07Z</time>
      </trkpt>
      <trkpt lat="44.1579" lon="4.72091">
        <ele>28</ele>
        <time>2018-09-30T06:40:09Z</time>
      </trkpt>
      <trkpt lat="44.15773" lon="4.72094">
        <ele>28</ele>
        <time>2018-09-30T06:40:11Z</time>
      </trkpt>
      <trkpt lat="44.15756" lon="4.72096">
        <ele>28</ele>
        <time>2018-09-30T06:40:13Z</time>
      </trkpt>
      <trkpt lat="44.15732" lon="4.721">
        <ele>28</ele>
        <time>2018-09-30T06:40:16Z</time>
      </trkpt>
      <trkpt lat="44.15717" lon="4.72102">
        <ele>28</ele>
        <time>2018-09-30T06:40:18Z</time>
      </trkpt>
      <trkpt lat="44.15701" lon="4.72097">
        <ele>28</ele>
        <time>2018-09-30T06:40:21Z</time>
      </trkpt>
      <trkpt lat="44.15696" lon="4.72085">
        <ele>28</ele>
        <time>2018-09-30T06:40:23Z</time>
      </trkpt>
      <trkpt lat="44.15694" lon="4.72066">
        <ele>28</ele>
        <time>2018-09-30T06:40:26Z</time>
      </trkpt>
      <trkpt lat="44.15698" lon="4.72049">
        <ele>29</ele>
        <time>2018-09-30T06:40:29Z</time>
      </trkpt>
      <trkpt lat="44.15709" lon="4.72035">
        <ele>29</ele>
        <time>2018-09-30T06:40:32Z</time>
      </trkpt>
      <trkpt lat="44.15722" lon="4.72025">
        <ele>30</ele>
        <time>2018-09-30T06:40:35Z</time>
      </trkpt>
      <trkpt lat="44.15729" lon="4.72016">
        <ele>30</ele>
        <time>2018-09-30T06:40:37Z</time>
      </trkpt>
      <trkpt lat="44.15725" lon="4.72004">
        <ele>31</ele>
        <time>2018-09-30T06:40:40Z</time>
      </trkpt>
      <trkpt lat="44.1571" lon="4.72006">
        <ele>32</ele>
        <time>2018-09-30T06:40:43Z</time>
      </trkpt>
      <trkpt lat="44.15693" lon="4.72009">
        <ele>32</ele>
        <time>2018-09-30T06:40:46Z</time>
      </trkpt>
      <trkpt lat="44.15673" lon="4.72013">
        <ele>32</ele>
        <time>2018-09-30T06:40:49Z</time>
      </trkpt>
      <trkpt lat="44.15652" lon="4.72017">
        <ele>32</ele>
        <time>2018-09-30T06:40:52Z</time>
      </trkpt>
      <trkpt lat="44.15637" lon="4.72021">
        <ele>32</ele>
        <time>2018-09-30T06:40:54Z</time>
      </trkpt>
      <trkpt lat="44.15616" lon="4.72024">
        <ele>32</ele>
        <time>2018-09-30T06:40:57Z</time>
      </trkpt>
      <trkpt lat="44.15605" lon="4.72031">
        <ele>32</ele>
        <time>2018-09-30T06:40:59Z</time>
      </trkpt>
      <trkpt lat="44.15588" lon="4.72039">
        <ele>32</ele>
        <time>2018-09-30T06:41:02Z</time>
      </trkpt>
      <trkpt lat="44.15575" lon="4.72042">
        <ele>32</ele>
        <time>2018-09-30T06:41:04Z</time>
      </trkpt>
      <trkpt lat="44.15553" lon="4.72049">
        <ele>32</ele>
        <time>2018-09-30T06:41:07Z</time>
      </trkpt>
      <trkpt lat="44.15529" lon="4.72056">
        <ele>33</ele>
        <time>2018-09-30T06:41:10Z</time>
      </trkpt>
      <trkpt lat="44.15512" lon="4.72061">
        <ele>33</ele>
        <time>2018-09-30T06:41:12Z</time>
      </trkpt>
      <trkpt lat="44.15487" lon="4.72069">
        <ele>33</ele>
        <time>2018-09-30T06:41:15Z</time>
      </trkpt>
      <trkpt lat="44.15461" lon="4.72077">
        <ele>33</ele>
        <time>2018-09-30T06:41:18Z</time>
      </trkpt>
      <trkpt lat="44.15436" lon="4.72084">
        <ele>32</ele>
        <time>2018-09-30T06:41:21Z</time>
      </trkpt>
      <trkpt lat="44.15411" lon="4.72092">
        <ele>32</ele>
        <time>2018-09-30T06:41:24Z</time>
      </trkpt>
      <trkpt lat="44.15386" lon="4.721">
        <ele>31</ele>
        <time>2018-09-30T06:41:27Z</time>
      </trkpt>
      <trkpt lat="44.1537" lon="4.72105">
        <ele>31</ele>
        <time>2018-09-30T06:41:29Z</time>
      </trkpt>
      <trkpt lat="44.15344" lon="4.72112">
        <ele>32</ele>
        <time>2018-09-30T06:41:32Z</time>
      </trkpt>
      <trkpt lat="44.15327" lon="4.72118">
        <ele>32</ele>
        <time>2018-09-30T06:41:34Z</time>
      </trkpt>
      <trkpt lat="44.1531" lon="4.72122">
        <ele>32</ele>
        <time>2018-09-30T06:41:36Z</time>
      </trkpt>
      <trkpt lat="44.15285" lon="4.7213">
        <ele>32</ele>
        <time>2018-09-30T06:41:39Z</time>
      </trkpt>
      <trkpt lat="44.15269" lon="4.72135">
        <ele>31</ele>
        <time>2018-09-30T06:41:41Z</time>
      </trkpt>
      <trkpt lat="44.15252" lon="4.7214">
        <ele>31</ele>
        <time>2018-09-30T06:41:43Z</time>
      </trkpt>
      <trkpt lat="44.15227" lon="4.72148">
        <ele>31</ele>
        <time>2018-09-30T06:41:46Z</time>
      </trkpt>
      <trkpt lat="44.15202" lon="4.72156">
        <ele>31</ele>
        <time>2018-09-30T06:41:49Z</time>
      </trkpt>
      <trkpt lat="44.15185" lon="4.72161">
        <ele>31</ele>
        <time>2018-09-30T06:41:51Z</time>
      </trkpt>
      <trkpt lat="44.1516" lon="4.72168">
        <ele>31</ele>
        <time>2018-09-30T06:41:54Z</time>
      </trkpt>
      <trkpt lat="44.15144" lon="4.72172">
        <ele>31</ele>
        <time>2018-09-30T06:41:56Z</time>
      </trkpt>
      <trkpt lat="44.15127" lon="4.72178">
        <ele>31</ele>
        <time>2018-09-30T06:41:58Z</time>
      </trkpt>
      <trkpt lat="44.15111" lon="4.72183">
        <ele>32</ele>
        <time>2018-09-30T06:42:00Z</time>
      </trkpt>
      <trkpt lat="44.15086" lon="4.72191">
        <ele>31</ele>
        <time>2018-09-30T06:42:03Z</time>
      </trkpt>
      <trkpt lat="44.1507" lon="4.72197">
        <ele>32</ele>
        <time>2018-09-30T06:42:05Z</time>
      </trkpt>
      <trkpt lat="44.15047" lon="4.72204">
        <ele>32</ele>
        <time>2018-09-30T06:42:08Z</time>
      </trkpt>
      <trkpt lat="44.15032" lon="4.72203">
        <ele>32</ele>
        <time>2018-09-30T06:42:10Z</time>
      </trkpt>
      <trkpt lat="44.15012" lon="4.72205">
        <ele>33</ele>
        <time>2018-09-30T06:42:13Z</time>
      </trkpt>
      <trkpt lat="44.14999" lon="4.72209">
        <ele>33</ele>
        <time>2018-09-30T06:42:15Z</time>
      </trkpt>
      <trkpt lat="44.14983" lon="4.72213">
        <ele>33</ele>
        <time>2018-09-30T06:42:17Z</time>
      </trkpt>
      <trkpt lat="44.14966" lon="4.72219">
        <ele>33</ele>
        <time>2018-09-30T06:42:19Z</time>
      </trkpt>
      <trkpt lat="44.14941" lon="4.72232">
        <ele>33</ele>
        <time>2018-09-30T06:42:22Z</time>
      </trkpt>
      <trkpt lat="44.14923" lon="4.72238">
        <ele>33</ele>
        <time>2018-09-30T06:42:24Z</time>
      </trkpt>
      <trkpt lat="44.14896" lon="4.72246">
        <ele>33</ele>
        <time>2018-09-30T06:42:27Z</time>
      </trkpt>
      <trkpt lat="44.14877" lon="4.72251">
        <ele>33</ele>
        <time>2018-09-30T06:42:29Z</time>
      </trkpt>
      <trkpt lat="44.14859" lon="4.72256">
        <ele>32</ele>
        <time>2018-09-30T06:42:31Z</time>
      </trkpt>
      <trkpt lat="44.14841" lon="4.72261">
        <ele>32</ele>
        <time>2018-09-30T06:42:33Z</time>
      </trkpt>
      <trkpt lat="44.14823" lon="4.72266">
        <ele>32</ele>
        <time>2018-09-30T06:42:35Z</time>
      </trkpt>
      <trkpt lat="44.14804" lon="4.72271">
        <ele>32</ele>
        <time>2018-09-30T06:42:37Z</time>
      </trkpt>
      <trkpt lat="44.14775" lon="4.72278">
        <ele>33</ele>
        <time>2018-09-30T06:42:40Z</time>
      </trkpt>
      <trkpt lat="44.14745" lon="4.72283">
        <ele>34</ele>
        <time>2018-09-30T06:42:43Z</time>
      </trkpt>
      <trkpt lat="44.14716" lon="4.72287">
        <ele>34</ele>
        <time>2018-09-30T06:42:46Z</time>
      </trkpt>
      <trkpt lat="44.14695" lon="4.7229">
        <ele>34</ele>
        <time>2018-09-30T06:42:48Z</time>
      </trkpt>
      <trkpt lat="44.14666" lon="4.72293">
        <ele>34</ele>
        <time>2018-09-30T06:42:51Z</time>
      </trkpt>
      <trkpt lat="44.14635" lon="4.72296">
        <ele>34</ele>
        <time>2018-09-30T06:42:54Z</time>
      </trkpt>
      <trkpt lat="44.14616" lon="4.72298">
        <ele>33</ele>
        <time>2018-09-30T06:42:56Z</time>
      </trkpt>
      <trkpt lat="44.14596" lon="4.72299">
        <ele>33</ele>
        <time>2018-09-30T06:42:58Z</time>
      </trkpt>
      <trkpt lat="44.14576" lon="4.72302">
        <ele>33</ele>
        <time>2018-09-30T06:43:00Z</time>
      </trkpt>
      <trkpt lat="44.14545" lon="4.72304">
        <ele>33</ele>
        <time>2018-09-30T06:43:03Z</time>
      </trkpt>
      <trkpt lat="44.14516" lon="4.72307">
        <ele>33</ele>
        <time>2018-09-30T06:43:06Z</time>
      </trkpt>
      <trkpt lat="44.14496" lon="4.72307">
        <ele>32</ele>
        <time>2018-09-30T06:43:08Z</time>
      </trkpt>
      <trkpt lat="44.14467" lon="4.72309">
        <ele>32</ele>
        <time>2018-09-30T06:43:11Z</time>
      </trkpt>
      <trkpt lat="44.14439" lon="4.72309">
        <ele>32</ele>
        <time>2018-09-30T06:43:14Z</time>
      </trkpt>
      <trkpt lat="44.1442" lon="4.7231">
        <ele>32</ele>
        <time>2018-09-30T06:43:16Z</time>
      </trkpt>
      <trkpt lat="44.14392" lon="4.72309">
        <ele>32</ele>
        <time>2018-09-30T06:43:19Z</time>
      </trkpt>
      <trkpt lat="44.14364" lon="4.72309">
        <ele>32</ele>
        <time>2018-09-30T06:43:22Z</time>
      </trkpt>
      <trkpt lat="44.14345" lon="4.72308">
        <ele>32</ele>
        <time>2018-09-30T06:43:24Z</time>
      </trkpt>
      <trkpt lat="44.14317" lon="4.72307">
        <ele>32</ele>
        <time>2018-09-30T06:43:27Z</time>
      </trkpt>
      <trkpt lat="44.14297" lon="4.72305">
        <ele>32</ele>
        <time>2018-09-30T06:43:29Z</time>
      </trkpt>
      <trkpt lat="44.14278" lon="4.72303">
        <ele>32</ele>
        <time>2018-09-30T06:43:31Z</time>
      </trkpt>
      <trkpt lat="44.14248" lon="4.72299">
        <ele>32</ele>
        <time>2018-09-30T06:43:34Z</time>
      </trkpt>
      <trkpt lat="44.14228" lon="4.72297">
        <ele>32</ele>
        <time>2018-09-30T06:43:36Z</time>
      </trkpt>
      <trkpt lat="44.14208" lon="4.72293">
        <ele>32</ele>
        <time>2018-09-30T06:43:38Z</time>
      </trkpt>
      <trkpt lat="44.14187" lon="4.7229">
        <ele>32</ele>
        <time>2018-09-30T06:43:40Z</time>
      </trkpt>
      <trkpt lat="44.14167" lon="4.72285">
        <ele>32</ele>
        <time>2018-09-30T06:43:42Z</time>
      </trkpt>
      <trkpt lat="44.14147" lon="4.72281">
        <ele>32</ele>
        <time>2018-09-30T06:43:44Z</time>
      </trkpt>
      <trkpt lat="44.14126" lon="4.72276">
        <ele>32</ele>
        <time>2018-09-30T06:43:46Z</time>
      </trkpt>
      <trkpt lat="44.14106" lon="4.72271">
        <ele>32</ele>
        <time>2018-09-30T06:43:48Z</time>
      </trkpt>
      <trkpt lat="44.14085" lon="4.72266">
        <ele>32</ele>
        <time>2018-09-30T06:43:50Z</time>
      </trkpt>
      <trkpt lat="44.14055" lon="4.72257">
        <ele>32</ele>
        <time>2018-09-30T06:43:53Z</time>
      </trkpt>
      <trkpt lat="44.14035" lon="4.72251">
        <ele>32</ele>
        <time>2018-09-30T06:43:55Z</time>
      </trkpt>
      <trkpt lat="44.14006" lon="4.72241">
        <ele>31</ele>
        <time>2018-09-30T06:43:58Z</time>
      </trkpt>
      <trkpt lat="44.13987" lon="4.72235">
        <ele>31</ele>
        <time>2018-09-30T06:44:00Z</time>
      </trkpt>
      <trkpt lat="44.13959" lon="4.72224">
        <ele>31</ele>
        <time>2018-09-30T06:44:03Z</time>
      </trkpt>
      <trkpt lat="44.13931" lon="4.72213">
        <ele>31</ele>
        <time>2018-09-30T06:44:06Z</time>
      </trkpt>
      <trkpt lat="44.13904" lon="4.72201">
        <ele>31</ele>
        <time>2018-09-30T06:44:09Z</time>
      </trkpt>
      <trkpt lat="44.13885" lon="4.72193">
        <ele>30</ele>
        <time>2018-09-30T06:44:11Z</time>
      </trkpt>
      <trkpt lat="44.13866" lon="4.72184">
        <ele>30</ele>
        <time>2018-09-30T06:44:13Z</time>
      </trkpt>
      <trkpt lat="44.13837" lon="4.7217">
        <ele>31</ele>
        <time>2018-09-30T06:44:16Z</time>
      </trkpt>
      <trkpt lat="44.1381" lon="4.72156">
        <ele>30</ele>
        <time>2018-09-30T06:44:19Z</time>
      </trkpt>
      <trkpt lat="44.13782" lon="4.72142">
        <ele>30</ele>
        <time>2018-09-30T06:44:22Z</time>
      </trkpt>
      <trkpt lat="44.13763" lon="4.72131">
        <ele>30</ele>
        <time>2018-09-30T06:44:24Z</time>
      </trkpt>
      <trkpt lat="44.13745" lon="4.72121">
        <ele>30</ele>
        <time>2018-09-30T06:44:26Z</time>
      </trkpt>
      <trkpt lat="44.13717" lon="4.72106">
        <ele>30</ele>
        <time>2018-09-30T06:44:29Z</time>
      </trkpt>
      <trkpt lat="44.13698" lon="4.72096">
        <ele>30</ele>
        <time>2018-09-30T06:44:31Z</time>
      </trkpt>
      <trkpt lat="44.1368" lon="4.72086">
        <ele>30</ele>
        <time>2018-09-30T06:44:33Z</time>
      </trkpt>
      <trkpt lat="44.13662" lon="4.72075">
        <ele>31</ele>
        <time>2018-09-30T06:44:35Z</time>
      </trkpt>
      <trkpt lat="44.13635" lon="4.7206">
        <ele>32</ele>
        <time>2018-09-30T06:44:38Z</time>
      </trkpt>
      <trkpt lat="44.13618" lon="4.7205">
        <ele>32</ele>
        <time>2018-09-30T06:44:40Z</time>
      </trkpt>
      <trkpt lat="44.136" lon="4.7204">
        <ele>31</ele>
        <time>2018-09-30T06:44:42Z</time>
      </trkpt>
      <trkpt lat="44.13573" lon="4.72024">
        <ele>30</ele>
        <time>2018-09-30T06:44:45Z</time>
      </trkpt>
      <trkpt lat="44.13547" lon="4.72009">
        <ele>30</ele>
        <time>2018-09-30T06:44:48Z</time>
      </trkpt>
      <trkpt lat="44.13521" lon="4.71994">
        <ele>30</ele>
        <time>2018-09-30T06:44:51Z</time>
      </trkpt>
      <trkpt lat="44.13495" lon="4.7198">
        <ele>30</ele>
        <time>2018-09-30T06:44:54Z</time>
      </trkpt>
      <trkpt lat="44.13477" lon="4.7197">
        <ele>30</ele>
        <time>2018-09-30T06:44:56Z</time>
      </trkpt>
      <trkpt lat="44.13452" lon="4.71955">
        <ele>30</ele>
        <time>2018-09-30T06:44:59Z</time>
      </trkpt>
      <trkpt lat="44.13435" lon="4.71945">
        <ele>30</ele>
        <time>2018-09-30T06:45:01Z</time>
      </trkpt>
      <trkpt lat="44.13409" lon="4.7193">
        <ele>30</ele>
        <time>2018-09-30T06:45:04Z</time>
      </trkpt>
      <trkpt lat="44.13383" lon="4.71915">
        <ele>29</ele>
        <time>2018-09-30T06:45:07Z</time>
      </trkpt>
      <trkpt lat="44.13365" lon="4.71905">
        <ele>29</ele>
        <time>2018-09-30T06:45:09Z</time>
      </trkpt>
      <trkpt lat="44.1334" lon="4.7189">
        <ele>29</ele>
        <time>2018-09-30T06:45:12Z</time>
      </trkpt>
      <trkpt lat="44.13322" lon="4.71881">
        <ele>29</ele>
        <time>2018-09-30T06:45:14Z</time>
      </trkpt>
      <trkpt lat="44.13297" lon="4.71866">
        <ele>29</ele>
        <time>2018-09-30T06:45:17Z</time>
      </trkpt>
      <trkpt lat="44.1328" lon="4.71856">
        <ele>29</ele>
        <time>2018-09-30T06:45:19Z</time>
      </trkpt>
      <trkpt lat="44.13254" lon="4.71841">
        <ele>29</ele>
        <time>2018-09-30T06:45:22Z</time>
      </trkpt>
      <trkpt lat="44.13229" lon="4.71826">
        <ele>29</ele>
        <time>2018-09-30T06:45:25Z</time>
      </trkpt>
      <trkpt lat="44.13213" lon="4.71816">
        <ele>29</ele>
        <time>2018-09-30T06:45:27Z</time>
      </trkpt>
      <trkpt lat="44.13188" lon="4.71802">
        <ele>29</ele>
        <time>2018-09-30T06:45:30Z</time>
      </trkpt>
      <trkpt lat="44.13171" lon="4.71792">
        <ele>30</ele>
        <time>2018-09-30T06:45:32Z</time>
      </trkpt>
      <trkpt lat="44.13147" lon="4.71777">
        <ele>30</ele>
        <time>2018-09-30T06:45:35Z</time>
      </trkpt>
      <trkpt lat="44.13131" lon="4.71767">
        <ele>30</ele>
        <time>2018-09-30T06:45:37Z</time>
      </trkpt>
      <trkpt lat="44.13107" lon="4.71753">
        <ele>30</ele>
        <time>2018-09-30T06:45:40Z</time>
      </trkpt>
      <trkpt lat="44.13091" lon="4.71743">
        <ele>30</ele>
        <time>2018-09-30T06:45:42Z</time>
      </trkpt>
      <trkpt lat="44.13065" lon="4.71728">
        <ele>30</ele>
        <time>2018-09-30T06:45:45Z</time>
      </trkpt>
      <trkpt lat="44.13048" lon="4.71718">
        <ele>29</ele>
        <time>2018-09-30T06:45:47Z</time>
      </trkpt>
      <trkpt lat="44.13021" lon="4.71702">
        <ele>29</ele>
        <time>2018-09-30T06:45:50Z</time>
      </trkpt>
      <trkpt lat="44.13003" lon="4.71693">
        <ele>29</ele>
        <time>2018-09-30T06:45:52Z</time>
      </trkpt>
      <trkpt lat="44.12984" lon="4.71685">
        <ele>30</ele>
        <time>2018-09-30T06:45:54Z</time>
      </trkpt>
      <trkpt lat="44.12955" lon="4.71673">
        <ele>30</ele>
        <time>2018-09-30T06:45:57Z</time>
      </trkpt>
      <trkpt lat="44.12927" lon="4.71664">
        <ele>29</ele>
        <time>2018-09-30T06:46:00Z</time>
      </trkpt>
      <trkpt lat="44.12908" lon="4.71658">
        <ele>29</ele>
        <time>2018-09-30T06:46:02Z</time>
      </trkpt>
      <trkpt lat="44.1288" lon="4.71649">
        <ele>29</ele>
        <time>2018-09-30T06:46:05Z</time>
      </trkpt>
      <trkpt lat="44.12854" lon="4.71641">
        <ele>29</ele>
        <time>2018-09-30T06:46:08Z</time>
      </trkpt>
      <trkpt lat="44.12839" lon="4.71632">
        <ele>29</ele>
        <time>2018-09-30T06:46:10Z</time>
      </trkpt>
      <trkpt lat="44.1283" lon="4.71615">
        <ele>30</ele>
        <time>2018-09-30T06:46:12Z</time>
      </trkpt>
      <trkpt lat="44.12828" lon="4.71594">
        <ele>30</ele>
        <time>2018-09-30T06:46:14Z</time>
      </trkpt>
      <trkpt lat="44.12821" lon="4.71568">
        <ele>30</ele>
        <time>2018-09-30T06:46:17Z</time>
      </trkpt>
      <trkpt lat="44.12807" lon="4.71561">
        <ele>30</ele>
        <time>2018-09-30T06:46:19Z</time>
      </trkpt>
      <trkpt lat="44.12791" lon="4.71575">
        <ele>30</ele>
        <time>2018-09-30T06:46:22Z</time>
      </trkpt>
      <trkpt lat="44.12786" lon="4.71602">
        <ele>30</ele>
        <time>2018-09-30T06:46:25Z</time>
      </trkpt>
      <trkpt lat="44.12781" lon="4.7162">
        <ele>30</ele>
        <time>2018-09-30T06:46:27Z</time>
      </trkpt>
      <trkpt lat="44.12764" lon="4.71625">
        <ele>31</ele>
        <time>2018-09-30T06:46:30Z</time>
      </trkpt>
      <trkpt lat="44.12751" lon="4.71624">
        <ele>30</ele>
        <time>2018-09-30T06:46:32Z</time>
      </trkpt>
      <trkpt lat="44.12727" lon="4.71624">
        <ele>31</ele>
        <time>2018-09-30T06:46:35Z</time>
      </trkpt>
      <trkpt lat="44.1271" lon="4.71624">
        <ele>31</ele>
        <time>2018-09-30T06:46:37Z</time>
      </trkpt>
      <trkpt lat="44.12692" lon="4.71625">
        <ele>31</ele>
        <time>2018-09-30T06:46:39Z</time>
      </trkpt>
      <trkpt lat="44.12664" lon="4.71627">
        <ele>32</ele>
        <time>2018-09-30T06:46:42Z</time>
      </trkpt>
      <trkpt lat="44.12645" lon="4.71628">
        <ele>32</ele>
        <time>2018-09-30T06:46:44Z</time>
      </trkpt>
      <trkpt lat="44.12616" lon="4.71628">
        <ele>32</ele>
        <time>2018-09-30T06:46:47Z</time>
      </trkpt>
      <trkpt lat="44.12597" lon="4.71629">
        <ele>32</ele>
        <time>2018-09-30T06:46:49Z</time>
      </trkpt>
      <trkpt lat="44.12578" lon="4.71629">
        <ele>33</ele>
        <time>2018-09-30T06:46:51Z</time>
      </trkpt>
      <trkpt lat="44.12548" lon="4.71629">
        <ele>32</ele>
        <time>2018-09-30T06:46:54Z</time>
      </trkpt>
      <trkpt lat="44.12528" lon="4.71629">
        <ele>31</ele>
        <time>2018-09-30T06:46:56Z</time>
      </trkpt>
      <trkpt lat="44.12508" lon="4.71629">
        <ele>31</ele>
        <time>2018-09-30T06:46:58Z</time>
      </trkpt>
      <trkpt lat="44.12487" lon="4.71629">
        <ele>31</ele>
        <time>2018-09-30T06:47:00Z</time>
      </trkpt>
      <trkpt lat="44.12457" lon="4.7163">
        <ele>31</ele>
        <time>2018-09-30T06:47:03Z</time>
      </trkpt>
      <trkpt lat="44.12438" lon="4.7163">
        <ele>31</ele>
        <time>2018-09-30T06:47:05Z</time>
      </trkpt>
      <trkpt lat="44.12418" lon="4.71631">
        <ele>31</ele>
        <time>2018-09-30T06:47:07Z</time>
      </trkpt>
      <trkpt lat="44.12399" lon="4.71631">
        <ele>30</ele>
        <time>2018-09-30T06:47:09Z</time>
      </trkpt>
      <trkpt lat="44.1238" lon="4.71632">
        <ele>30</ele>
        <time>2018-09-30T06:47:11Z</time>
      </trkpt>
      <trkpt lat="44.1236" lon="4.71633">
        <ele>30</ele>
        <time>2018-09-30T06:47:13Z</time>
      </trkpt>
      <trkpt lat="44.12332" lon="4.71635">
        <ele>31</ele>
        <time>2018-09-30T06:47:16Z</time>
      </trkpt>
      <trkpt lat="44.12303" lon="4.7164">
        <ele>31</ele>
        <time>2018-09-30T06:47:19Z</time>
      </trkpt>
      <trkpt lat="44.12284" lon="4.71644">
        <ele>31</ele>
        <time>2018-09-30T06:47:21Z</time>
      </trkpt>
      <trkpt lat="44.12255" lon="4.71651">
        <ele>31</ele>
        <time>2018-09-30T06:47:24Z</time>
      </trkpt>
      <trkpt lat="44.12235" lon="4.71657">
        <ele>30</ele>
        <time>2018-09-30T06:47:26Z</time>
      </trkpt>
      <trkpt lat="44.12206" lon="4.71667">
        <ele>30</ele>
        <time>2018-09-30T06:47:29Z</time>
      </trkpt>
      <trkpt lat="44.12179" lon="4.71678">
        <ele>31</ele>
        <time>2018-09-30T06:47:32Z</time>
      </trkpt>
      <trkpt lat="44.12151" lon="4.71689">
        <ele>30</ele>
        <time>2018-09-30T06:47:35Z</time>
      </trkpt>
      <trkpt lat="44.12132" lon="4.71696">
        <ele>31</ele>
        <time>2018-09-30T06:47:37Z</time>
      </trkpt>
      <trkpt lat="44.12105" lon="4.71707">
        <ele>31</ele>
        <time>2018-09-30T06:47:40Z</time>
      </trkpt>
      <trkpt lat="44.12078" lon="4.71716">
        <ele>32</ele>
        <time>2018-09-30T06:47:43Z</time>
      </trkpt>
      <trkpt lat="44.1206" lon="4.71723">
        <ele>32</ele>
        <time>2018-09-30T06:47:45Z</time>
      </trkpt>
      <trkpt lat="44.12035" lon="4.71734">
        <ele>32</ele>
        <time>2018-09-30T06:47:48Z</time>
      </trkpt>
      <trkpt lat="44.12009" lon="4.71743">
        <ele>32</ele>
        <time>2018-09-30T06:47:51Z</time>
      </trkpt>
      <trkpt lat="44.11983" lon="4.71753">
        <ele>32</ele>
        <time>2018-09-30T06:47:54Z</time>
      </trkpt>
      <trkpt lat="44.11957" lon="4.71764">
        <ele>31</ele>
        <time>2018-09-30T06:47:57Z</time>
      </trkpt>
      <trkpt lat="44.1193" lon="4.71772">
        <ele>31</ele>
        <time>2018-09-30T06:48:00Z</time>
      </trkpt>
      <trkpt lat="44.11902" lon="4.71776">
        <ele>31</ele>
        <time>2018-09-30T06:48:03Z</time>
      </trkpt>
      <trkpt lat="44.11885" lon="4.71781">
        <ele>32</ele>
        <time>2018-09-30T06:48:05Z</time>
      </trkpt>
      <trkpt lat="44.11867" lon="4.71787">
        <ele>32</ele>
        <time>2018-09-30T06:48:07Z</time>
      </trkpt>
      <trkpt lat="44.1185" lon="4.71794">
        <ele>32</ele>
        <time>2018-09-30T06:48:09Z</time>
      </trkpt>
      <trkpt lat="44.11823" lon="4.71803">
        <ele>33</ele>
        <time>2018-09-30T06:48:12Z</time>
      </trkpt>
      <trkpt lat="44.11797" lon="4.71813">
        <ele>33</ele>
        <time>2018-09-30T06:48:15Z</time>
      </trkpt>
      <trkpt lat="44.11771" lon="4.71823">
        <ele>33</ele>
        <time>2018-09-30T06:48:18Z</time>
      </trkpt>
      <trkpt lat="44.11753" lon="4.71829">
        <ele>33</ele>
        <time>2018-09-30T06:48:20Z</time>
      </trkpt>
      <trkpt lat="44.11726" lon="4.71839">
        <ele>33</ele>
        <time>2018-09-30T06:48:23Z</time>
      </trkpt>
      <trkpt lat="44.117" lon="4.71849">
        <ele>33</ele>
        <time>2018-09-30T06:48:26Z</time>
      </trkpt>
      <trkpt lat="44.11674" lon="4.7186">
        <ele>34</ele>
        <time>2018-09-30T06:48:29Z</time>
      </trkpt>
      <trkpt lat="44.11648" lon="4.71869">
        <ele>34</ele>
        <time>2018-09-30T06:48:32Z</time>
      </trkpt>
      <trkpt lat="44.11623" lon="4.71879">
        <ele>33</ele>
        <time>2018-09-30T06:48:35Z</time>
      </trkpt>
      <trkpt lat="44.11608" lon="4.71886">
        <ele>33</ele>
        <time>2018-09-30T06:48:37Z</time>
      </trkpt>
      <trkpt lat="44.11586" lon="4.71893">
        <ele>32</ele>
        <time>2018-09-30T06:48:40Z</time>
      </trkpt>
      <trkpt lat="44.11565" lon="4.71901">
        <ele>33</ele>
        <time>2018-09-30T06:48:43Z</time>
      </trkpt>
      <trkpt lat="44.11545" lon="4.71908">
        <ele>33</ele>
        <time>2018-09-30T06:48:46Z</time>
      </trkpt>
      <trkpt lat="44.11525" lon="4.71913">
        <ele>33</ele>
        <time>2018-09-30T06:48:49Z</time>
      </trkpt>
      <trkpt lat="44.11512" lon="4.71918">
        <ele>33</ele>
        <time>2018-09-30T06:48:51Z</time>
      </trkpt>
      <trkpt lat="44.11494" lon="4.71924">
        <ele>33</ele>
        <time>2018-09-30T06:48:54Z</time>
      </trkpt>
      <trkpt lat="44.11483" lon="4.71928">
        <ele>33</ele>
        <time>2018-09-30T06:48:56Z</time>
      </trkpt>
      <trkpt lat="44.11465" lon="4.71933">
        <ele>33</ele>
        <time>2018-09-30T06:48:59Z</time>
      </trkpt>
      <trkpt lat="44.11449" lon="4.71939">
        <ele>33</ele>
        <time>2018-09-30T06:49:02Z</time>
      </trkpt>
      <trkpt lat="44.11432" lon="4.71945">
        <ele>33</ele>
        <time>2018-09-30T06:49:05Z</time>
      </trkpt>
      <trkpt lat="44.11421" lon="4.71949">
        <ele>32</ele>
        <time>2018-09-30T06:49:07Z</time>
      </trkpt>
      <trkpt lat="44.11404" lon="4.71956">
        <ele>32</ele>
        <time>2018-09-30T06:49:10Z</time>
      </trkpt>
      <trkpt lat="44.11393" lon="4.7196">
        <ele>33</ele>
        <time>2018-09-30T06:49:12Z</time>
      </trkpt>
      <trkpt lat="44.11376" lon="4.71967">
        <ele>33</ele>
        <time>2018-09-30T06:49:15Z</time>
      </trkpt>
      <trkpt lat="44.11359" lon="4.71975">
        <ele>33</ele>
        <time>2018-09-30T06:49:18Z</time>
      </trkpt>
      <trkpt lat="44.11342" lon="4.71982">
        <ele>32</ele>
        <time>2018-09-30T06:49:21Z</time>
      </trkpt>
      <trkpt lat="44.1133" lon="4.71987">
        <ele>32</ele>
        <time>2018-09-30T06:49:23Z</time>
      </trkpt>
      <trkpt lat="44.11317" lon="4.71992">
        <ele>32</ele>
        <time>2018-09-30T06:49:25Z</time>
      </trkpt>
      <trkpt lat="44.11295" lon="4.72001">
        <ele>32</ele>
        <time>2018-09-30T06:49:28Z</time>
      </trkpt>
      <trkpt lat="44.11271" lon="4.72011">
        <ele>31</ele>
        <time>2018-09-30T06:49:31Z</time>
      </trkpt>
      <trkpt lat="44.11246" lon="4.7202">
        <ele>30</ele>
        <time>2018-09-30T06:49:34Z</time>
      </trkpt>
      <trkpt lat="44.11223" lon="4.72027">
        <ele>29</ele>
        <time>2018-09-30T06:49:37Z</time>
      </trkpt>
      <trkpt lat="44.11213" lon="4.72035">
        <ele>29</ele>
        <time>2018-09-30T06:49:39Z</time>
      </trkpt>
      <trkpt lat="44.11207" lon="4.72054">
        <ele>28</ele>
        <time>2018-09-30T06:49:42Z</time>
      </trkpt>
      <trkpt lat="44.11192" lon="4.72058">
        <ele>28</ele>
        <time>2018-09-30T06:49:45Z</time>
      </trkpt>
      <trkpt lat="44.11175" lon="4.72061">
        <ele>28</ele>
        <time>2018-09-30T06:49:48Z</time>
      </trkpt>
      <trkpt lat="44.11163" lon="4.72063">
        <ele>28</ele>
        <time>2018-09-30T06:49:50Z</time>
      </trkpt>
      <trkpt lat="44.1115" lon="4.72066">
        <ele>28</ele>
        <time>2018-09-30T06:49:52Z</time>
      </trkpt>
      <trkpt lat="44.1113" lon="4.72073">
        <ele>28</ele>
        <time>2018-09-30T06:49:55Z</time>
      </trkpt>
      <trkpt lat="44.11117" lon="4.72081">
        <ele>27</ele>
        <time>2018-09-30T06:49:57Z</time>
      </trkpt>
      <trkpt lat="44.11096" lon="4.72091">
        <ele>27</ele>
        <time>2018-09-30T06:50:00Z</time>
      </trkpt>
      <trkpt lat="44.11083" lon="4.72098">
        <ele>27</ele>
        <time>2018-09-30T06:50:02Z</time>
      </trkpt>
      <trkpt lat="44.11063" lon="4.72109">
        <ele>28</ele>
        <time>2018-09-30T06:50:05Z</time>
      </trkpt>
      <trkpt lat="44.11049" lon="4.72115">
        <ele>28</ele>
        <time>2018-09-30T06:50:07Z</time>
      </trkpt>
      <trkpt lat="44.11036" lon="4.72122">
        <ele>28</ele>
        <time>2018-09-30T06:50:09Z</time>
      </trkpt>
      <trkpt lat="44.11022" lon="4.72129">
        <ele>27</ele>
        <time>2018-09-30T06:50:11Z</time>
      </trkpt>
      <trkpt lat="44.11003" lon="4.72142">
        <ele>27</ele>
        <time>2018-09-30T06:50:14Z</time>
      </trkpt>
      <trkpt lat="44.10991" lon="4.72152">
        <ele>27</ele>
        <time>2018-09-30T06:50:16Z</time>
      </trkpt>
      <trkpt lat="44.10978" lon="4.72162">
        <ele>28</ele>
        <time>2018-09-30T06:50:18Z</time>
      </trkpt>
      <trkpt lat="44.10961" lon="4.72179">
        <ele>28</ele>
        <time>2018-09-30T06:50:21Z</time>
      </trkpt>
      <trkpt lat="44.10945" lon="4.72197">
        <ele>28</ele>
        <time>2018-09-30T06:50:24Z</time>
      </trkpt>
      <trkpt lat="44.10929" lon="4.72217">
        <ele>28</ele>
        <time>2018-09-30T06:50:27Z</time>
      </trkpt>
      <trkpt lat="44.10913" lon="4.72238">
        <ele>28</ele>
        <time>2018-09-30T06:50:30Z</time>
      </trkpt>
      <trkpt lat="44.10902" lon="4.72252">
        <ele>27</ele>
        <time>2018-09-30T06:50:32Z</time>
      </trkpt>
      <trkpt lat="44.10887" lon="4.72273">
        <ele>27</ele>
        <time>2018-09-30T06:50:35Z</time>
      </trkpt>
      <trkpt lat="44.10877" lon="4.72287">
        <ele>28</ele>
        <time>2018-09-30T06:50:37Z</time>
      </trkpt>
      <trkpt lat="44.10861" lon="4.72308">
        <ele>28</ele>
        <time>2018-09-30T06:50:40Z</time>
      </trkpt>
      <trkpt lat="44.10846" lon="4.72328">
        <ele>28</ele>
        <time>2018-09-30T06:50:43Z</time>
      </trkpt>
      <trkpt lat="44.1083" lon="4.72349">
        <ele>28</ele>
        <time>2018-09-30T06:50:46Z</time>
      </trkpt>
      <trkpt lat="44.10814" lon="4.72369">
        <ele>27</ele>
        <time>2018-09-30T06:50:49Z</time>
      </trkpt>
      <trkpt lat="44.10804" lon="4.72383">
        <ele>27</ele>
        <time>2018-09-30T06:50:51Z</time>
      </trkpt>
      <trkpt lat="44.10788" lon="4.72405">
        <ele>28</ele>
        <time>2018-09-30T06:50:54Z</time>
      </trkpt>
      <trkpt lat="44.10772" lon="4.72428">
        <ele>28</ele>
        <time>2018-09-30T06:50:57Z</time>
      </trkpt>
      <trkpt lat="44.10761" lon="4.72443">
        <ele>28</ele>
        <time>2018-09-30T06:50:59Z</time>
      </trkpt>
      <trkpt lat="44.10744" lon="4.72465">
        <ele>27</ele>
        <time>2018-09-30T06:51:02Z</time>
      </trkpt>
      <trkpt lat="44.10733" lon="4.7248">
        <ele>27</ele>
        <time>2018-09-30T06:51:04Z</time>
      </trkpt>
      <trkpt lat="44.10716" lon="4.72504">
        <ele>27</ele>
        <time>2018-09-30T06:51:07Z</time>
      </trkpt>
      <trkpt lat="44.10699" lon="4.72526">
        <ele>28</ele>
        <time>2018-09-30T06:51:10Z</time>
      </trkpt>
      <trkpt lat="44.10682" lon="4.72548">
        <ele>28</ele>
        <time>2018-09-30T06:51:13Z</time>
      </trkpt>
      <trkpt lat="44.10671" lon="4.72562">
        <ele>28</ele>
        <time>2018-09-30T06:51:15Z</time>
      </trkpt>
      <trkpt lat="44.10655" lon="4.72582">
        <ele>28</ele>
        <time>2018-09-30T06:51:18Z</time>
      </trkpt>
      <trkpt lat="44.10638" lon="4.72603">
        <ele>27</ele>
        <time>2018-09-30T06:51:21Z</time>
      </trkpt>
      <trkpt lat="44.10626" lon="4.72617">
        <ele>27</ele>
        <time>2018-09-30T06:51:23Z</time>
      </trkpt>
      <trkpt lat="44.10608" lon="4.72637">
        <ele>28</ele>
        <time>2018-09-30T06:51:26Z</time>
      </trkpt>
      <trkpt lat="44.1059" lon="4.72657">
        <ele>27</ele>
        <time>2018-09-30T06:51:29Z</time>
      </trkpt>
      <trkpt lat="44.10579" lon="4.7267">
        <ele>28</ele>
        <time>2018-09-30T06:51:31Z</time>
      </trkpt>
      <trkpt lat="44.1056" lon="4.72688">
        <ele>28</ele>
        <time>2018-09-30T06:51:34Z</time>
      </trkpt>
      <trkpt lat="44.10547" lon="4.72699">
        <ele>28</ele>
        <time>2018-09-30T06:51:36Z</time>
      </trkpt>
      <trkpt lat="44.10528" lon="4.72714">
        <ele>28</ele>
        <time>2018-09-30T06:51:39Z</time>
      </trkpt>
      <trkpt lat="44.10508" lon="4.72728">
        <ele>27</ele>
        <time>2018-09-30T06:51:42Z</time>
      </trkpt>
      <trkpt lat="44.10487" lon="4.72741">
        <ele>27</ele>
        <time>2018-09-30T06:51:45Z</time>
      </trkpt>
      <trkpt lat="44.10466" lon="4.72752">
        <ele>27</ele>
        <time>2018-09-30T06:51:48Z</time>
      </trkpt>
      <trkpt lat="44.10445" lon="4.72761">
        <ele>27</ele>
        <time>2018-09-30T06:51:51Z</time>
      </trkpt>
      <trkpt lat="44.10431" lon="4.72767">
        <ele>27</ele>
        <time>2018-09-30T06:51:53Z</time>
      </trkpt>
      <trkpt lat="44.10416" lon="4.72771">
        <ele>27</ele>
        <time>2018-09-30T06:51:55Z</time>
      </trkpt>
      <trkpt lat="44.10393" lon="4.72776">
        <ele>27</ele>
        <time>2018-09-30T06:51:58Z</time>
      </trkpt>
      <trkpt lat="44.10371" lon="4.72778">
        <ele>27</ele>
        <time>2018-09-30T06:52:01Z</time>
      </trkpt>
      <trkpt lat="44.10349" lon="4.72778">
        <ele>27</ele>
        <time>2018-09-30T06:52:04Z</time>
      </trkpt>
      <trkpt lat="44.10334" lon="4.72779">
        <ele>27</ele>
        <time>2018-09-30T06:52:06Z</time>
      </trkpt>
      <trkpt lat="44.10313" lon="4.72776">
        <ele>28</ele>
        <time>2018-09-30T06:52:09Z</time>
      </trkpt>
      <trkpt lat="44.1029" lon="4.72772">
        <ele>28</ele>
        <time>2018-09-30T06:52:12Z</time>
      </trkpt>
      <trkpt lat="44.10268" lon="4.72765">
        <ele>28</ele>
        <time>2018-09-30T06:52:15Z</time>
      </trkpt>
      <trkpt lat="44.10254" lon="4.72759">
        <ele>28</ele>
        <time>2018-09-30T06:52:17Z</time>
      </trkpt>
      <trkpt lat="44.10239" lon="4.72753">
        <ele>27</ele>
        <time>2018-09-30T06:52:19Z</time>
      </trkpt>
      <trkpt lat="44.10218" lon="4.72743">
        <ele>27</ele>
        <time>2018-09-30T06:52:22Z</time>
      </trkpt>
      <trkpt lat="44.10197" lon="4.72733">
        <ele>27</ele>
        <time>2018-09-30T06:52:25Z</time>
      </trkpt>
      <trkpt lat="44.10177" lon="4.72721">
        <ele>27</ele>
        <time>2018-09-30T06:52:28Z</time>
      </trkpt>
      <trkpt lat="44.10156" lon="4.72709">
        <ele>27</ele>
        <time>2018-09-30T06:52:31Z</time>
      </trkpt>
      <trkpt lat="44.10136" lon="4.72696">
        <ele>27</ele>
        <time>2018-09-30T06:52:34Z</time>
      </trkpt>
      <trkpt lat="44.10116" lon="4.72684">
        <ele>27</ele>
        <time>2018-09-30T06:52:37Z</time>
      </trkpt>
      <trkpt lat="44.10095" lon="4.72671">
        <ele>27</ele>
        <time>2018-09-30T06:52:40Z</time>
      </trkpt>
      <trkpt lat="44.10075" lon="4.72658">
        <ele>28</ele>
        <time>2018-09-30T06:52:43Z</time>
      </trkpt>
      <trkpt lat="44.10061" lon="4.72651">
        <ele>27</ele>
        <time>2018-09-30T06:52:45Z</time>
      </trkpt>
      <trkpt lat="44.1004" lon="4.7264">
        <ele>28</ele>
        <time>2018-09-30T06:52:48Z</time>
      </trkpt>
      <trkpt lat="44.10019" lon="4.72632">
        <ele>27</ele>
        <time>2018-09-30T06:52:51Z</time>
      </trkpt>
      <trkpt lat="44.10005" lon="4.72627">
        <ele>28</ele>
        <time>2018-09-30T06:52:53Z</time>
      </trkpt>
      <trkpt lat="44.09985" lon="4.72631">
        <ele>28</ele>
        <time>2018-09-30T06:52:56Z</time>
      </trkpt>
      <trkpt lat="44.09971" lon="4.72635">
        <ele>28</ele>
        <time>2018-09-30T06:52:58Z</time>
      </trkpt>
      <trkpt lat="44.0995" lon="4.72626">
        <ele>28</ele>
        <time>2018-09-30T06:53:01Z</time>
      </trkpt>
      <trkpt lat="44.09929" lon="4.7262">
        <ele>29</ele>
        <time>2018-09-30T06:53:04Z</time>
      </trkpt>
      <trkpt lat="44.09909" lon="4.72614">
        <ele>28</ele>
        <time>2018-09-30T06:53:07Z</time>
      </trkpt>
      <trkpt lat="44.09895" lon="4.72612">
        <ele>28</ele>
        <time>2018-09-30T06:53:09Z</time>
      </trkpt>
      <trkpt lat="44.09874" lon="4.72609">
        <ele>28</ele>
        <time>2018-09-30T06:53:12Z</time>
      </trkpt>
      <trkpt lat="44.09861" lon="4.72608">
        <ele>28</ele>
        <time>2018-09-30T06:53:14Z</time>
      </trkpt>
      <trkpt lat="44.09849" lon="4.72606">
        <ele>28</ele>
        <time>2018-09-30T06:53:16Z</time>
      </trkpt>
      <trkpt lat="44.09832" lon="4.72606">
        <ele>28</ele>
        <time>2018-09-30T06:53:19Z</time>
      </trkpt>
      <trkpt lat="44.09821" lon="4.72605">
        <ele>27</ele>
        <time>2018-09-30T06:53:21Z</time>
      </trkpt>
      <trkpt lat="44.09806" lon="4.72605">
        <ele>27</ele>
        <time>2018-09-30T06:53:24Z</time>
      </trkpt>
      <trkpt lat="44.0979" lon="4.72605">
        <ele>27</ele>
        <time>2018-09-30T06:53:27Z</time>
      </trkpt>
      <trkpt lat="44.09778" lon="4.72606">
        <ele>27</ele>
        <time>2018-09-30T06:53:29Z</time>
      </trkpt>
      <trkpt lat="44.0976" lon="4.72607">
        <ele>28</ele>
        <time>2018-09-30T06:53:32Z</time>
      </trkpt>
      <trkpt lat="44.09742" lon="4.72608">
        <ele>28</ele>
        <time>2018-09-30T06:53:35Z</time>
      </trkpt>
      <trkpt lat="44.0973" lon="4.72607">
        <ele>28</ele>
        <time>2018-09-30T06:53:37Z</time>
      </trkpt>
      <trkpt lat="44.09713" lon="4.72609">
        <ele>27</ele>
        <time>2018-09-30T06:53:40Z</time>
      </trkpt>
      <trkpt lat="44.09704" lon="4.72609">
        <ele>27</ele>
        <time>2018-09-30T06:53:42Z</time>
      </trkpt>
      <trkpt lat="44.09699" lon="4.72609">
        <ele>26</ele>
        <time>2018-09-30T06:53:45Z</time>
      </trkpt>
      <trkpt lat="44.09697" lon="4.72609">
        <ele>26</ele>
        <time>2018-09-30T06:53:48Z</time>
      </trkpt>
      <trkpt lat="44.09695" lon="4.72609">
        <ele>26</ele>
        <time>2018-09-30T06:53:50Z</time>
      </trkpt>
      <trkpt lat="44.09693" lon="4.72609">
        <ele>26</ele>
        <time>2018-09-30T06:53:52Z</time>
      </trkpt>
      <trkpt lat="44.09691" lon="4.72608">
        <ele>27</ele>
        <time>2018-09-30T06:53:55Z</time>
      </trkpt>
      <trkpt lat="44.0969" lon="4.72608">
        <ele>27</ele>
        <time>2018-09-30T06:53:58Z</time>
      </trkpt>
      <trkpt lat="44.0969" lon="4.72608">
        <ele>27</ele>
        <time>2018-09-30T06:54:03Z</time>
      </trkpt>
      <trkpt lat="44.0969" lon="4.72608">
        <ele>26</ele>
        <time>2018-09-30T06:54:05Z</time>
      </trkpt>
      <trkpt lat="44.09689" lon="4.72608">
        <ele>26</ele>
        <time>2018-09-30T06:54:08Z</time>
      </trkpt>
      <trkpt lat="44.09689" lon="4.72607">
        <ele>26</ele>
        <time>2018-09-30T06:54:10Z</time>
      </trkpt>
      <trkpt lat="44.09687" lon="4.72608">
        <ele>26</ele>
        <time>2018-09-30T06:54:13Z</time>
      </trkpt>
      <trkpt lat="44.09685" lon="4.72606">
        <ele>26</ele>
        <time>2018-09-30T06:54:16Z</time>
      </trkpt>
      <trkpt lat="44.09685" lon="4.72606">
        <ele>26</ele>
        <time>2018-09-30T06:54:18Z</time>
      </trkpt>
      <trkpt lat="44.09684" lon="4.72605">
        <ele>26</ele>
        <time>2018-09-30T06:54:21Z</time>
      </trkpt>
      <trkpt lat="44.09683" lon="4.72605">
        <ele>26</ele>
        <time>2018-09-30T06:54:23Z</time>
      </trkpt>
      <trkpt lat="44.09681" lon="4.72606">
        <ele>26</ele>
        <time>2018-09-30T06:54:25Z</time>
      </trkpt>
      <trkpt lat="44.09677" lon="4.72608">
        <ele>26</ele>
        <time>2018-09-30T06:54:28Z</time>
      </trkpt>
      <trkpt lat="44.09676" lon="4.72612">
        <ele>26</ele>
        <time>2018-09-30T06:54:30Z</time>
      </trkpt>
      <trkpt lat="44.09676" lon="4.7262">
        <ele>26</ele>
        <time>2018-09-30T06:54:33Z</time>
      </trkpt>
      <trkpt lat="44.09678" lon="4.72633">
        <ele>27</ele>
        <time>2018-09-30T06:54:36Z</time>
      </trkpt>
      <trkpt lat="44.09678" lon="4.72646">
        <ele>26</ele>
        <time>2018-09-30T06:54:38Z</time>
      </trkpt>
      <trkpt lat="44.09679" lon="4.72669">
        <ele>26</ele>
        <time>2018-09-30T06:54:41Z</time>
      </trkpt>
      <trkpt lat="44.09679" lon="4.72685">
        <ele>27</ele>
        <time>2018-09-30T06:54:43Z</time>
      </trkpt>
      <trkpt lat="44.0968" lon="4.72713">
        <ele>27</ele>
        <time>2018-09-30T06:54:46Z</time>
      </trkpt>
      <trkpt lat="44.09681" lon="4.72732">
        <ele>28</ele>
        <time>2018-09-30T06:54:48Z</time>
      </trkpt>
      <trkpt lat="44.09681" lon="4.72752">
        <ele>28</ele>
        <time>2018-09-30T06:54:50Z</time>
      </trkpt>
      <trkpt lat="44.09682" lon="4.72771">
        <ele>28</ele>
        <time>2018-09-30T06:54:52Z</time>
      </trkpt>
      <trkpt lat="44.09684" lon="4.728">
        <ele>28</ele>
        <time>2018-09-30T06:54:55Z</time>
      </trkpt>
      <trkpt lat="44.09684" lon="4.7282">
        <ele>28</ele>
        <time>2018-09-30T06:54:57Z</time>
      </trkpt>
      <trkpt lat="44.09685" lon="4.7284">
        <ele>28</ele>
        <time>2018-09-30T06:54:59Z</time>
      </trkpt>
      <trkpt lat="44.09687" lon="4.72868">
        <ele>28</ele>
        <time>2018-09-30T06:55:02Z</time>
      </trkpt>
      <trkpt lat="44.09687" lon="4.72887">
        <ele>28</ele>
        <time>2018-09-30T06:55:04Z</time>
      </trkpt>
      <trkpt lat="44.09689" lon="4.72911">
        <ele>28</ele>
        <time>2018-09-30T06:55:07Z</time>
      </trkpt>
      <trkpt lat="44.09691" lon="4.72932">
        <ele>27</ele>
        <time>2018-09-30T06:55:10Z</time>
      </trkpt>
      <trkpt lat="44.09691" lon="4.72946">
        <ele>27</ele>
        <time>2018-09-30T06:55:12Z</time>
      </trkpt>
      <trkpt lat="44.09691" lon="4.72958">
        <ele>26</ele>
        <time>2018-09-30T06:55:14Z</time>
      </trkpt>
      <trkpt lat="44.09692" lon="4.72972">
        <ele>26</ele>
        <time>2018-09-30T06:55:17Z</time>
      </trkpt>
      <trkpt lat="44.09692" lon="4.7298">
        <ele>26</ele>
        <time>2018-09-30T06:55:19Z</time>
      </trkpt>
      <trkpt lat="44.09692" lon="4.72988">
        <ele>26</ele>
        <time>2018-09-30T06:55:21Z</time>
      </trkpt>
      <trkpt lat="44.09693" lon="4.73003">
        <ele>26</ele>
        <time>2018-09-30T06:55:24Z</time>
      </trkpt>
      <trkpt lat="44.09693" lon="4.73014">
        <ele>26</ele>
        <time>2018-09-30T06:55:26Z</time>
      </trkpt>
      <trkpt lat="44.09692" lon="4.73026">
        <ele>26</ele>
        <time>2018-09-30T06:55:28Z</time>
      </trkpt>
      <trkpt lat="44.09691" lon="4.73036">
        <ele>27</ele>
        <time>2018-09-30T06:55:30Z</time>
      </trkpt>
      <trkpt lat="44.0969" lon="4.73043">
        <ele>27</ele>
        <time>2018-09-30T06:55:32Z</time>
      </trkpt>
      <trkpt lat="44.09689" lon="4.73052">
        <ele>26</ele>
        <time>2018-09-30T06:55:35Z</time>
      </trkpt>
      <trkpt lat="44.0969" lon="4.73058">
        <ele>26</ele>
        <time>2018-09-30T06:55:37Z</time>
      </trkpt>
      <trkpt lat="44.09693" lon="4.73069">
        <ele>26</ele>
        <time>2018-09-30T06:55:40Z</time>
      </trkpt>
      <trkpt lat="44.09697" lon="4.73078">
        <ele>26</ele>
        <time>2018-09-30T06:55:43Z</time>
      </trkpt>
      <trkpt lat="44.097" lon="4.73088">
        <ele>26</ele>
        <time>2018-09-30T06:55:46Z</time>
      </trkpt>
      <trkpt lat="44.09702" lon="4.73098">
        <ele>26</ele>
        <time>2018-09-30T06:55:49Z</time>
      </trkpt>
      <trkpt lat="44.09695" lon="4.73108">
        <ele>26</ele>
        <time>2018-09-30T06:55:52Z</time>
      </trkpt>
      <trkpt lat="44.09682" lon="4.73115">
        <ele>25</ele>
        <time>2018-09-30T06:55:55Z</time>
      </trkpt>
      <trkpt lat="44.09668" lon="4.73114">
        <ele>25</ele>
        <time>2018-09-30T06:55:58Z</time>
      </trkpt>
      <trkpt lat="44.09654" lon="4.73115">
        <ele>25</ele>
        <time>2018-09-30T06:56:01Z</time>
      </trkpt>
      <trkpt lat="44.09645" lon="4.73116">
        <ele>25</ele>
        <time>2018-09-30T06:56:03Z</time>
      </trkpt>
      <trkpt lat="44.0963" lon="4.73116">
        <ele>25</ele>
        <time>2018-09-30T06:56:06Z</time>
      </trkpt>
      <trkpt lat="44.09612" lon="4.73114">
        <ele>26</ele>
        <time>2018-09-30T06:56:09Z</time>
      </trkpt>
      <trkpt lat="44.09591" lon="4.73112">
        <ele>27</ele>
        <time>2018-09-30T06:56:12Z</time>
      </trkpt>
      <trkpt lat="44.09568" lon="4.73104">
        <ele>27</ele>
        <time>2018-09-30T06:56:15Z</time>
      </trkpt>
      <trkpt lat="44.09545" lon="4.73094">
        <ele>27</ele>
        <time>2018-09-30T06:56:18Z</time>
      </trkpt>
      <trkpt lat="44.09532" lon="4.73085">
        <ele>27</ele>
        <time>2018-09-30T06:56:20Z</time>
      </trkpt>
      <trkpt lat="44.09518" lon="4.73077">
        <ele>27</ele>
        <time>2018-09-30T06:56:22Z</time>
      </trkpt>
      <trkpt lat="44.09502" lon="4.73071">
        <ele>27</ele>
        <time>2018-09-30T06:56:24Z</time>
      </trkpt>
      <trkpt lat="44.09479" lon="4.73066">
        <ele>27</ele>
        <time>2018-09-30T06:56:27Z</time>
      </trkpt>
      <trkpt lat="44.09463" lon="4.73064">
        <ele>27</ele>
        <time>2018-09-30T06:56:29Z</time>
      </trkpt>
      <trkpt lat="44.0944" lon="4.73064">
        <ele>27</ele>
        <time>2018-09-30T06:56:32Z</time>
      </trkpt>
      <trkpt lat="44.09424" lon="4.73065">
        <ele>27</ele>
        <time>2018-09-30T06:56:34Z</time>
      </trkpt>
      <trkpt lat="44.09401" lon="4.73079">
        <ele>26</ele>
        <time>2018-09-30T06:56:37Z</time>
      </trkpt>
      <trkpt lat="44.09376" lon="4.7309">
        <ele>25</ele>
        <time>2018-09-30T06:56:40Z</time>
      </trkpt>
      <trkpt lat="44.09363" lon="4.73104">
        <ele>25</ele>
        <time>2018-09-30T06:56:42Z</time>
      </trkpt>
      <trkpt lat="44.09348" lon="4.73133">
        <ele>24</ele>
        <time>2018-09-30T06:56:45Z</time>
      </trkpt>
      <trkpt lat="44.09332" lon="4.7316">
        <ele>24</ele>
        <time>2018-09-30T06:56:48Z</time>
      </trkpt>
      <trkpt lat="44.09316" lon="4.7319">
        <ele>24</ele>
        <time>2018-09-30T06:56:51Z</time>
      </trkpt>
      <trkpt lat="44.09305" lon="4.73209">
        <ele>23</ele>
        <time>2018-09-30T06:56:53Z</time>
      </trkpt>
      <trkpt lat="44.0929" lon="4.73236">
        <ele>23</ele>
        <time>2018-09-30T06:56:56Z</time>
      </trkpt>
      <trkpt lat="44.09274" lon="4.73263">
        <ele>23</ele>
        <time>2018-09-30T06:56:59Z</time>
      </trkpt>
      <trkpt lat="44.09259" lon="4.7329">
        <ele>23</ele>
        <time>2018-09-30T06:57:02Z</time>
      </trkpt>
      <trkpt lat="44.09244" lon="4.7332">
        <ele>23</ele>
        <time>2018-09-30T06:57:05Z</time>
      </trkpt>
      <trkpt lat="44.09236" lon="4.73355">
        <ele>23</ele>
        <time>2018-09-30T06:57:08Z</time>
      </trkpt>
      <trkpt lat="44.09233" lon="4.7339">
        <ele>23</ele>
        <time>2018-09-30T06:57:11Z</time>
      </trkpt>
      <trkpt lat="44.09232" lon="4.73412">
        <ele>23</ele>
        <time>2018-09-30T06:57:13Z</time>
      </trkpt>
      <trkpt lat="44.09231" lon="4.73444">
        <ele>23</ele>
        <time>2018-09-30T06:57:16Z</time>
      </trkpt>
      <trkpt lat="44.0923" lon="4.73465">
        <ele>23</ele>
        <time>2018-09-30T06:57:18Z</time>
      </trkpt>
      <trkpt lat="44.09228" lon="4.73497">
        <ele>23</ele>
        <time>2018-09-30T06:57:21Z</time>
      </trkpt>
      <trkpt lat="44.09227" lon="4.73531">
        <ele>23</ele>
        <time>2018-09-30T06:57:24Z</time>
      </trkpt>
      <trkpt lat="44.09227" lon="4.73554">
        <ele>24</ele>
        <time>2018-09-30T06:57:26Z</time>
      </trkpt>
      <trkpt lat="44.0923" lon="4.73588">
        <ele>23</ele>
        <time>2018-09-30T06:57:29Z</time>
      </trkpt>
      <trkpt lat="44.09234" lon="4.73622">
        <ele>23</ele>
        <time>2018-09-30T06:57:32Z</time>
      </trkpt>
      <trkpt lat="44.09237" lon="4.73654">
        <ele>23</ele>
        <time>2018-09-30T06:57:35Z</time>
      </trkpt>
      <trkpt lat="44.09241" lon="4.73688">
        <ele>22</ele>
        <time>2018-09-30T06:57:38Z</time>
      </trkpt>
      <trkpt lat="44.09244" lon="4.73722">
        <ele>23</ele>
        <time>2018-09-30T06:57:41Z</time>
      </trkpt>
      <trkpt lat="44.09248" lon="4.73756">
        <ele>23</ele>
        <time>2018-09-30T06:57:44Z</time>
      </trkpt>
      <trkpt lat="44.09251" lon="4.73791">
        <ele>23</ele>
        <time>2018-09-30T06:57:47Z</time>
      </trkpt>
      <trkpt lat="44.09253" lon="4.73815">
        <ele>23</ele>
        <time>2018-09-30T06:57:49Z</time>
      </trkpt>
      <trkpt lat="44.09256" lon="4.73838">
        <ele>23</ele>
        <time>2018-09-30T06:57:51Z</time>
      </trkpt>
      <trkpt lat="44.09259" lon="4.73872">
        <ele>22</ele>
        <time>2018-09-30T06:57:54Z</time>
      </trkpt>
      <trkpt lat="44.09262" lon="4.73906">
        <ele>22</ele>
        <time>2018-09-30T06:57:57Z</time>
      </trkpt>
      <trkpt lat="44.09264" lon="4.73929">
        <ele>22</ele>
        <time>2018-09-30T06:57:59Z</time>
      </trkpt>
      <trkpt lat="44.09266" lon="4.73952">
        <ele>22</ele>
        <time>2018-09-30T06:58:01Z</time>
      </trkpt>
      <trkpt lat="44.0927" lon="4.73987">
        <ele>22</ele>
        <time>2018-09-30T06:58:04Z</time>
      </trkpt>
      <trkpt lat="44.09272" lon="4.74011">
        <ele>22</ele>
        <time>2018-09-30T06:58:06Z</time>
      </trkpt>
      <trkpt lat="44.09279" lon="4.74046">
        <ele>22</ele>
        <time>2018-09-30T06:58:09Z</time>
      </trkpt>
      <trkpt lat="44.09286" lon="4.74067">
        <ele>22</ele>
        <time>2018-09-30T06:58:11Z</time>
      </trkpt>
      <trkpt lat="44.09294" lon="4.74087">
        <ele>22</ele>
        <time>2018-09-30T06:58:13Z</time>
      </trkpt>
      <trkpt lat="44.09306" lon="4.74116">
        <ele>22</ele>
        <time>2018-09-30T06:58:16Z</time>
      </trkpt>
      <trkpt lat="44.09317" lon="4.74134">
        <ele>22</ele>
        <time>2018-09-30T06:58:18Z</time>
      </trkpt>
      <trkpt lat="44.09332" lon="4.74161">
        <ele>22</ele>
        <time>2018-09-30T06:58:21Z</time>
      </trkpt>
      <trkpt lat="44.09343" lon="4.74179">
        <ele>22</ele>
        <time>2018-09-30T06:58:23Z</time>
      </trkpt>
      <trkpt lat="44.09353" lon="4.74196">
        <ele>22</ele>
        <time>2018-09-30T06:58:25Z</time>
      </trkpt>
      <trkpt lat="44.09363" lon="4.74214">
        <ele>22</ele>
        <time>2018-09-30T06:58:27Z</time>
      </trkpt>
      <trkpt lat="44.09373" lon="4.74232">
        <ele>22</ele>
        <time>2018-09-30T06:58:29Z</time>
      </trkpt>
      <trkpt lat="44.09383" lon="4.7425">
        <ele>22</ele>
        <time>2018-09-30T06:58:31Z</time>
      </trkpt>
      <trkpt lat="44.094" lon="4.74277">
        <ele>22</ele>
        <time>2018-09-30T06:58:34Z</time>
      </trkpt>
      <trkpt lat="44.09416" lon="4.74302">
        <ele>22</ele>
        <time>2018-09-30T06:58:37Z</time>
      </trkpt>
      <trkpt lat="44.09428" lon="4.74319">
        <ele>22</ele>
        <time>2018-09-30T06:58:39Z</time>
      </trkpt>
      <trkpt lat="44.09445" lon="4.74343">
        <ele>22</ele>
        <time>2018-09-30T06:58:42Z</time>
      </trkpt>
      <trkpt lat="44.09464" lon="4.74365">
        <ele>22</ele>
        <time>2018-09-30T06:58:45Z</time>
      </trkpt>
      <trkpt lat="44.09483" lon="4.74385">
        <ele>22</ele>
        <time>2018-09-30T06:58:48Z</time>
      </trkpt>
      <trkpt lat="44.09502" lon="4.74405">
        <ele>22</ele>
        <time>2018-09-30T06:58:51Z</time>
      </trkpt>
      <trkpt lat="44.09515" lon="4.74419">
        <ele>22</ele>
        <time>2018-09-30T06:58:53Z</time>
      </trkpt>
      <trkpt lat="44.09535" lon="4.74441">
        <ele>22</ele>
        <time>2018-09-30T06:58:56Z</time>
      </trkpt>
      <trkpt lat="44.09556" lon="4.74464">
        <ele>22</ele>
        <time>2018-09-30T06:58:59Z</time>
      </trkpt>
      <trkpt lat="44.09578" lon="4.74487">
        <ele>22</ele>
        <time>2018-09-30T06:59:02Z</time>
      </trkpt>
      <trkpt lat="44.09599" lon="4.74511">
        <ele>22</ele>
        <time>2018-09-30T06:59:05Z</time>
      </trkpt>
      <trkpt lat="44.09621" lon="4.74535">
        <ele>22</ele>
        <time>2018-09-30T06:59:08Z</time>
      </trkpt>
      <trkpt lat="44.09642" lon="4.74559">
        <ele>22</ele>
        <time>2018-09-30T06:59:11Z</time>
      </trkpt>
      <trkpt lat="44.09664" lon="4.74582">
        <ele>22</ele>
        <time>2018-09-30T06:59:14Z</time>
      </trkpt>
      <trkpt lat="44.09685" lon="4.74605">
        <ele>22</ele>
        <time>2018-09-30T06:59:17Z</time>
      </trkpt>
      <trkpt lat="44.09697" lon="4.74619">
        <ele>22</ele>
        <time>2018-09-30T06:59:19Z</time>
      </trkpt>
      <trkpt lat="44.09711" lon="4.74633">
        <ele>22</ele>
        <time>2018-09-30T06:59:21Z</time>
      </trkpt>
      <trkpt lat="44.09731" lon="4.74654">
        <ele>22</ele>
        <time>2018-09-30T06:59:24Z</time>
      </trkpt>
      <trkpt lat="44.0975" lon="4.74676">
        <ele>22</ele>
        <time>2018-09-30T06:59:27Z</time>
      </trkpt>
      <trkpt lat="44.09765" lon="4.74704">
        <ele>22</ele>
        <time>2018-09-30T06:59:30Z</time>
      </trkpt>
      <trkpt lat="44.09779" lon="4.74731">
        <ele>22</ele>
        <time>2018-09-30T06:59:33Z</time>
      </trkpt>
      <trkpt lat="44.09792" lon="4.74758">
        <ele>21</ele>
        <time>2018-09-30T06:59:36Z</time>
      </trkpt>
      <trkpt lat="44.09806" lon="4.74785">
        <ele>21</ele>
        <time>2018-09-30T06:59:39Z</time>
      </trkpt>
      <trkpt lat="44.09817" lon="4.74806">
        <ele>22</ele>
        <time>2018-09-30T06:59:42Z</time>
      </trkpt>
      <trkpt lat="44.09824" lon="4.74818">
        <ele>21</ele>
        <time>2018-09-30T06:59:44Z</time>
      </trkpt>
      <trkpt lat="44.0984" lon="4.74832">
        <ele>21</ele>
        <time>2018-09-30T06:59:47Z</time>
      </trkpt>
      <trkpt lat="44.09853" lon="4.74843">
        <ele>21</ele>
        <time>2018-09-30T06:59:49Z</time>
      </trkpt>
      <trkpt lat="44.09872" lon="4.74862">
        <ele>22</ele>
        <time>2018-09-30T06:59:52Z</time>
      </trkpt>
      <trkpt lat="44.09892" lon="4.74882">
        <ele>22</ele>
        <time>2018-09-30T06:59:55Z</time>
      </trkpt>
      <trkpt lat="44.09905" lon="4.74898">
        <ele>22</ele>
        <time>2018-09-30T06:59:57Z</time>
      </trkpt>
      <trkpt lat="44.09926" lon="4.7492">
        <ele>22</ele>
        <time>2018-09-30T07:00:00Z</time>
      </trkpt>
      <trkpt lat="44.09946" lon="4.74943">
        <ele>22</ele>
        <time>2018-09-30T07:00:03Z</time>
      </trkpt>
      <trkpt lat="44.09966" lon="4.74965">
        <ele>22</ele>
        <time>2018-09-30T07:00:06Z</time>
      </trkpt>
      <trkpt lat="44.0998" lon="4.74979">
        <ele>21</ele>
        <time>2018-09-30T07:00:08Z</time>
      </trkpt>
      <trkpt lat="44.09998" lon="4.75003">
        <ele>21</ele>
        <time>2018-09-30T07:00:11Z</time>
      </trkpt>
      <trkpt lat="44.10008" lon="4.75021">
        <ele>22</ele>
        <time>2018-09-30T07:00:13Z</time>
      </trkpt>
      <trkpt lat="44.10024" lon="4.75046">
        <ele>22</ele>
        <time>2018-09-30T07:00:16Z</time>
      </trkpt>
      <trkpt lat="44.10041" lon="4.75071">
        <ele>21</ele>
        <time>2018-09-30T07:00:19Z</time>
      </trkpt>
      <trkpt lat="44.10047" lon="4.75092">
        <ele>21</ele>
        <time>2018-09-30T07:00:21Z</time>
      </trkpt>
      <trkpt lat="44.10049" lon="4.75123">
        <ele>21</ele>
        <time>2018-09-30T07:00:24Z</time>
      </trkpt>
      <trkpt lat="44.10043" lon="4.75153">
        <ele>22</ele>
        <time>2018-09-30T07:00:27Z</time>
      </trkpt>
      <trkpt lat="44.10036" lon="4.75173">
        <ele>22</ele>
        <time>2018-09-30T07:00:29Z</time>
      </trkpt>
      <trkpt lat="44.10028" lon="4.75207">
        <ele>22</ele>
        <time>2018-09-30T07:00:32Z</time>
      </trkpt>
      <trkpt lat="44.10025" lon="4.75231">
        <ele>22</ele>
        <time>2018-09-30T07:00:34Z</time>
      </trkpt>
      <trkpt lat="44.1002" lon="4.75267">
        <ele>22</ele>
        <time>2018-09-30T07:00:37Z</time>
      </trkpt>
      <trkpt lat="44.10018" lon="4.75291">
        <ele>22</ele>
        <time>2018-09-30T07:00:39Z</time>
      </trkpt>
      <trkpt lat="44.10014" lon="4.75326">
        <ele>22</ele>
        <time>2018-09-30T07:00:42Z</time>
      </trkpt>
      <trkpt lat="44.10011" lon="4.75349">
        <ele>21</ele>
        <time>2018-09-30T07:00:44Z</time>
      </trkpt>
      <trkpt lat="44.10008" lon="4.7537">
        <ele>21</ele>
        <time>2018-09-30T07:00:46Z</time>
      </trkpt>
      <trkpt lat="44.10005" lon="4.75399">
        <ele>21</ele>
        <time>2018-09-30T07:00:49Z</time>
      </trkpt>
      <trkpt lat="44.10002" lon="4.75416">
        <ele>21</ele>
        <time>2018-09-30T07:00:51Z</time>
      </trkpt>
      <trkpt lat="44.1" lon="4.75434">
        <ele>22</ele>
        <time>2018-09-30T07:00:54Z</time>
      </trkpt>
      <trkpt lat="44.1" lon="4.75443">
        <ele>22</ele>
        <time>2018-09-30T07:00:56Z</time>
      </trkpt>
      <trkpt lat="44.09998" lon="4.75456">
        <ele>22</ele>
        <time>2018-09-30T07:00:59Z</time>
      </trkpt>
      <trkpt lat="44.09987" lon="4.75466">
        <ele>21</ele>
        <time>2018-09-30T07:01:02Z</time>
      </trkpt>
      <trkpt lat="44.09974" lon="4.75486">
        <ele>21</ele>
        <time>2018-09-30T07:01:05Z</time>
      </trkpt>
      <trkpt lat="44.09965" lon="4.75503">
        <ele>21</ele>
        <time>2018-09-30T07:01:07Z</time>
      </trkpt>
      <trkpt lat="44.09957" lon="4.75522">
        <ele>21</ele>
        <time>2018-09-30T07:01:09Z</time>
      </trkpt>
      <trkpt lat="44.09944" lon="4.7555">
        <ele>21</ele>
        <time>2018-09-30T07:01:12Z</time>
      </trkpt>
      <trkpt lat="44.09936" lon="4.75569">
        <ele>21</ele>
        <time>2018-09-30T07:01:14Z</time>
      </trkpt>
      <trkpt lat="44.09925" lon="4.75596">
        <ele>21</ele>
        <time>2018-09-30T07:01:17Z</time>
      </trkpt>
      <trkpt lat="44.09914" lon="4.75623">
        <ele>22</ele>
        <time>2018-09-30T07:01:20Z</time>
      </trkpt>
      <trkpt lat="44.09903" lon="4.75648">
        <ele>22</ele>
        <time>2018-09-30T07:01:23Z</time>
      </trkpt>
      <trkpt lat="44.09892" lon="4.75675">
        <ele>21</ele>
        <time>2018-09-30T07:01:26Z</time>
      </trkpt>
      <trkpt lat="44.09883" lon="4.75702">
        <ele>21</ele>
        <time>2018-09-30T07:01:29Z</time>
      </trkpt>
      <trkpt lat="44.09877" lon="4.75729">
        <ele>21</ele>
        <time>2018-09-30T07:01:32Z</time>
      </trkpt>
      <trkpt lat="44.09874" lon="4.75748">
        <ele>21</ele>
        <time>2018-09-30T07:01:34Z</time>
      </trkpt>
      <trkpt lat="44.09868" lon="4.75777">
        <ele>22</ele>
        <time>2018-09-30T07:01:37Z</time>
      </trkpt>
      <trkpt lat="44.09863" lon="4.75796">
        <ele>22</ele>
        <time>2018-09-30T07:01:39Z</time>
      </trkpt>
      <trkpt lat="44.09856" lon="4.75814">
        <ele>21</ele>
        <time>2018-09-30T07:01:41Z</time>
      </trkpt>
      <trkpt lat="44.09844" lon="4.75841">
        <ele>21</ele>
        <time>2018-09-30T07:01:44Z</time>
      </trkpt>
      <trkpt lat="44.09832" lon="4.75867">
        <ele>21</ele>
        <time>2018-09-30T07:01:47Z</time>
      </trkpt>
      <trkpt lat="44.0982" lon="4.75893">
        <ele>22</ele>
        <time>2018-09-30T07:01:50Z</time>
      </trkpt>
      <trkpt lat="44.09806" lon="4.75919">
        <ele>23</ele>
        <time>2018-09-30T07:01:53Z</time>
      </trkpt>
      <trkpt lat="44.09792" lon="4.75946">
        <ele>23</ele>
        <time>2018-09-30T07:01:56Z</time>
      </trkpt>
      <trkpt lat="44.09782" lon="4.75963">
        <ele>23</ele>
        <time>2018-09-30T07:01:58Z</time>
      </trkpt>
      <trkpt lat="44.09767" lon="4.75988">
        <ele>23</ele>
        <time>2018-09-30T07:02:01Z</time>
      </trkpt>
      <trkpt lat="44.09752" lon="4.76012">
        <ele>23</ele>
        <time>2018-09-30T07:02:04Z</time>
      </trkpt>
      <trkpt lat="44.09736" lon="4.76034">
        <ele>23</ele>
        <time>2018-09-30T07:02:07Z</time>
      </trkpt>
      <trkpt lat="44.09725" lon="4.7605">
        <ele>24</ele>
        <time>2018-09-30T07:02:09Z</time>
      </trkpt>
      <trkpt lat="44.09714" lon="4.76065">
        <ele>23</ele>
        <time>2018-09-30T07:02:11Z</time>
      </trkpt>
      <trkpt lat="44.09702" lon="4.76078">
        <ele>23</ele>
        <time>2018-09-30T07:02:13Z</time>
      </trkpt>
      <trkpt lat="44.09689" lon="4.7609">
        <ele>23</ele>
        <time>2018-09-30T07:02:15Z</time>
      </trkpt>
      <trkpt lat="44.09668" lon="4.76107">
        <ele>23</ele>
        <time>2018-09-30T07:02:18Z</time>
      </trkpt>
      <trkpt lat="44.09655" lon="4.76117">
        <ele>23</ele>
        <time>2018-09-30T07:02:20Z</time>
      </trkpt>
      <trkpt lat="44.09635" lon="4.7613">
        <ele>23</ele>
        <time>2018-09-30T07:02:23Z</time>
      </trkpt>
      <trkpt lat="44.09621" lon="4.76138">
        <ele>22</ele>
        <time>2018-09-30T07:02:25Z</time>
      </trkpt>
      <trkpt lat="44.09602" lon="4.7615">
        <ele>22</ele>
        <time>2018-09-30T07:02:28Z</time>
      </trkpt>
      <trkpt lat="44.09583" lon="4.76162">
        <ele>22</ele>
        <time>2018-09-30T07:02:31Z</time>
      </trkpt>
      <trkpt lat="44.09565" lon="4.76175">
        <ele>22</ele>
        <time>2018-09-30T07:02:34Z</time>
      </trkpt>
      <trkpt lat="44.0955" lon="4.76195">
        <ele>21</ele>
        <time>2018-09-30T07:02:37Z</time>
      </trkpt>
      <trkpt lat="44.09536" lon="4.76219">
        <ele>21</ele>
        <time>2018-09-30T07:02:40Z</time>
      </trkpt>
      <trkpt lat="44.09527" lon="4.76235">
        <ele>20</ele>
        <time>2018-09-30T07:02:42Z</time>
      </trkpt>
      <trkpt lat="44.09513" lon="4.76262">
        <ele>20</ele>
        <time>2018-09-30T07:02:45Z</time>
      </trkpt>
      <trkpt lat="44.09497" lon="4.76289">
        <ele>20</ele>
        <time>2018-09-30T07:02:48Z</time>
      </trkpt>
      <trkpt lat="44.09481" lon="4.76318">
        <ele>20</ele>
        <time>2018-09-30T07:02:51Z</time>
      </trkpt>
      <trkpt lat="44.09465" lon="4.76347">
        <ele>20</ele>
        <time>2018-09-30T07:02:54Z</time>
      </trkpt>
      <trkpt lat="44.09448" lon="4.76375">
        <ele>20</ele>
        <time>2018-09-30T07:02:57Z</time>
      </trkpt>
      <trkpt lat="44.09432" lon="4.76403">
        <ele>20</ele>
        <time>2018-09-30T07:03:00Z</time>
      </trkpt>
      <trkpt lat="44.09417" lon="4.76429">
        <ele>19</ele>
        <time>2018-09-30T07:03:03Z</time>
      </trkpt>
      <trkpt lat="44.09407" lon="4.76446">
        <ele>19</ele>
        <time>2018-09-30T07:03:05Z</time>
      </trkpt>
      <trkpt lat="44.09391" lon="4.7647">
        <ele>19</ele>
        <time>2018-09-30T07:03:08Z</time>
      </trkpt>
      <trkpt lat="44.09382" lon="4.76486">
        <ele>19</ele>
        <time>2018-09-30T07:03:10Z</time>
      </trkpt>
      <trkpt lat="44.09367" lon="4.7651">
        <ele>19</ele>
        <time>2018-09-30T07:03:13Z</time>
      </trkpt>
      <trkpt lat="44.09352" lon="4.76533">
        <ele>19</ele>
        <time>2018-09-30T07:03:16Z</time>
      </trkpt>
      <trkpt lat="44.09338" lon="4.76558">
        <ele>19</ele>
        <time>2018-09-30T07:03:19Z</time>
      </trkpt>
      <trkpt lat="44.09323" lon="4.76583">
        <ele>19</ele>
        <time>2018-09-30T07:03:22Z</time>
      </trkpt>
      <trkpt lat="44.09308" lon="4.76607">
        <ele>19</ele>
        <time>2018-09-30T07:03:25Z</time>
      </trkpt>
      <trkpt lat="44.09293" lon="4.76631">
        <ele>19</ele>
        <time>2018-09-30T07:03:28Z</time>
      </trkpt>
      <trkpt lat="44.09283" lon="4.76647">
        <ele>18</ele>
        <time>2018-09-30T07:03:30Z</time>
      </trkpt>
      <trkpt lat="44.09274" lon="4.76663">
        <ele>18</ele>
        <time>2018-09-30T07:03:32Z</time>
      </trkpt>
      <trkpt lat="44.0926" lon="4.76685">
        <ele>18</ele>
        <time>2018-09-30T07:03:35Z</time>
      </trkpt>
      <trkpt lat="44.09248" lon="4.76708">
        <ele>18</ele>
        <time>2018-09-30T07:03:38Z</time>
      </trkpt>
      <trkpt lat="44.09241" lon="4.76726">
        <ele>19</ele>
        <time>2018-09-30T07:03:40Z</time>
      </trkpt>
      <trkpt lat="44.09236" lon="4.76755">
        <ele>19</ele>
        <time>2018-09-30T07:03:43Z</time>
      </trkpt>
      <trkpt lat="44.09228" lon="4.76784">
        <ele>19</ele>
        <time>2018-09-30T07:03:46Z</time>
      </trkpt>
      <trkpt lat="44.09215" lon="4.76811">
        <ele>18</ele>
        <time>2018-09-30T07:03:49Z</time>
      </trkpt>
      <trkpt lat="44.09207" lon="4.76828">
        <ele>18</ele>
        <time>2018-09-30T07:03:51Z</time>
      </trkpt>
      <trkpt lat="44.09199" lon="4.76848">
        <ele>18</ele>
        <time>2018-09-30T07:03:53Z</time>
      </trkpt>
      <trkpt lat="44.09192" lon="4.76868">
        <ele>18</ele>
        <time>2018-09-30T07:03:55Z</time>
      </trkpt>
      <trkpt lat="44.09184" lon="4.76899">
        <ele>19</ele>
        <time>2018-09-30T07:03:58Z</time>
      </trkpt>
      <trkpt lat="44.09177" lon="4.76931">
        <ele>18</ele>
        <time>2018-09-30T07:04:01Z</time>
      </trkpt>
      <trkpt lat="44.09172" lon="4.7696">
        <ele>18</ele>
        <time>2018-09-30T07:04:04Z</time>
      </trkpt>
      <trkpt lat="44.09167" lon="4.76987">
        <ele>18</ele>
        <time>2018-09-30T07:04:07Z</time>
      </trkpt>
      <trkpt lat="44.09164" lon="4.77005">
        <ele>18</ele>
        <time>2018-09-30T07:04:09Z</time>
      </trkpt>
      <trkpt lat="44.09158" lon="4.77032">
        <ele>18</ele>
        <time>2018-09-30T07:04:12Z</time>
      </trkpt>
      <trkpt lat="44.09151" lon="4.77059">
        <ele>18</ele>
        <time>2018-09-30T07:04:15Z</time>
      </trkpt>
      <trkpt lat="44.09145" lon="4.77087">
        <ele>18</ele>
        <time>2018-09-30T07:04:18Z</time>
      </trkpt>
      <trkpt lat="44.09138" lon="4.77113">
        <ele>18</ele>
        <time>2018-09-30T07:04:21Z</time>
      </trkpt>
      <trkpt lat="44.09135" lon="4.77131">
        <ele>18</ele>
        <time>2018-09-30T07:04:23Z</time>
      </trkpt>
      <trkpt lat="44.09132" lon="4.77158">
        <ele>18</ele>
        <time>2018-09-30T07:04:26Z</time>
      </trkpt>
      <trkpt lat="44.09131" lon="4.77176">
        <ele>18</ele>
        <time>2018-09-30T07:04:28Z</time>
      </trkpt>
      <trkpt lat="44.0913" lon="4.77204">
        <ele>19</ele>
        <time>2018-09-30T07:04:31Z</time>
      </trkpt>
      <trkpt lat="44.09136" lon="4.77232">
        <ele>18</ele>
        <time>2018-09-30T07:04:34Z</time>
      </trkpt>
      <trkpt lat="44.09144" lon="4.77248">
        <ele>18</ele>
        <time>2018-09-30T07:04:36Z</time>
      </trkpt>
      <trkpt lat="44.09156" lon="4.77268">
        <ele>18</ele>
        <time>2018-09-30T07:04:39Z</time>
      </trkpt>
      <trkpt lat="44.09164" lon="4.77281">
        <ele>18</ele>
        <time>2018-09-30T07:04:42Z</time>
      </trkpt>
      <trkpt lat="44.09167" lon="4.77286">
        <ele>18</ele>
        <time>2018-09-30T07:04:44Z</time>
      </trkpt>
      <trkpt lat="44.09171" lon="4.77292">
        <ele>18</ele>
        <time>2018-09-30T07:04:46Z</time>
      </trkpt>
      <trkpt lat="44.09177" lon="4.77307">
        <ele>18</ele>
        <time>2018-09-30T07:04:49Z</time>
      </trkpt>
      <trkpt lat="44.09174" lon="4.77327">
        <ele>18</ele>
        <time>2018-09-30T07:04:52Z</time>
      </trkpt>
      <trkpt lat="44.09169" lon="4.77352">
        <ele>17</ele>
        <time>2018-09-30T07:04:55Z</time>
      </trkpt>
      <trkpt lat="44.09164" lon="4.77382">
        <ele>18</ele>
        <time>2018-09-30T07:04:58Z</time>
      </trkpt>
      <trkpt lat="44.09156" lon="4.77412">
        <ele>18</ele>
        <time>2018-09-30T07:05:01Z</time>
      </trkpt>
      <trkpt lat="44.09147" lon="4.77443">
        <ele>18</ele>
        <time>2018-09-30T07:05:04Z</time>
      </trkpt>
      <trkpt lat="44.09138" lon="4.77476">
        <ele>19</ele>
        <time>2018-09-30T07:05:07Z</time>
      </trkpt>
      <trkpt lat="44.09129" lon="4.77507">
        <ele>19</ele>
        <time>2018-09-30T07:05:10Z</time>
      </trkpt>
      <trkpt lat="44.09123" lon="4.77527">
        <ele>19</ele>
        <time>2018-09-30T07:05:12Z</time>
      </trkpt>
      <trkpt lat="44.09117" lon="4.77547">
        <ele>19</ele>
        <time>2018-09-30T07:05:14Z</time>
      </trkpt>
      <trkpt lat="44.09107" lon="4.77575">
        <ele>18</ele>
        <time>2018-09-30T07:05:17Z</time>
      </trkpt>
      <trkpt lat="44.09096" lon="4.77601">
        <ele>18</ele>
        <time>2018-09-30T07:05:20Z</time>
      </trkpt>
      <trkpt lat="44.09085" lon="4.77626">
        <ele>18</ele>
        <time>2018-09-30T07:05:23Z</time>
      </trkpt>
      <trkpt lat="44.0908" lon="4.77642">
        <ele>18</ele>
        <time>2018-09-30T07:05:25Z</time>
      </trkpt>
      <trkpt lat="44.09075" lon="4.77665">
        <ele>18</ele>
        <time>2018-09-30T07:05:28Z</time>
      </trkpt>
      <trkpt lat="44.09073" lon="4.77689">
        <ele>17</ele>
        <time>2018-09-30T07:05:31Z</time>
      </trkpt>
      <trkpt lat="44.09071" lon="4.77708">
        <ele>18</ele>
        <time>2018-09-30T07:05:33Z</time>
      </trkpt>
      <trkpt lat="44.09069" lon="4.77735">
        <ele>18</ele>
        <time>2018-09-30T07:05:36Z</time>
      </trkpt>
      <trkpt lat="44.09068" lon="4.77753">
        <ele>18</ele>
        <time>2018-09-30T07:05:38Z</time>
      </trkpt>
      <trkpt lat="44.09067" lon="4.77772">
        <ele>18</ele>
        <time>2018-09-30T07:05:40Z</time>
      </trkpt>
      <trkpt lat="44.09064" lon="4.77801">
        <ele>18</ele>
        <time>2018-09-30T07:05:43Z</time>
      </trkpt>
      <trkpt lat="44.09061" lon="4.7782">
        <ele>18</ele>
        <time>2018-09-30T07:05:45Z</time>
      </trkpt>
      <trkpt lat="44.09055" lon="4.77839">
        <ele>18</ele>
        <time>2018-09-30T07:05:47Z</time>
      </trkpt>
      <trkpt lat="44.09045" lon="4.77855">
        <ele>18</ele>
        <time>2018-09-30T07:05:49Z</time>
      </trkpt>
      <trkpt lat="44.0903" lon="4.77879">
        <ele>18</ele>
        <time>2018-09-30T07:05:52Z</time>
      </trkpt>
      <trkpt lat="44.09021" lon="4.77894">
        <ele>18</ele>
        <time>2018-09-30T07:05:54Z</time>
      </trkpt>
      <trkpt lat="44.09008" lon="4.77916">
        <ele>18</ele>
        <time>2018-09-30T07:05:57Z</time>
      </trkpt>
      <trkpt lat="44.08996" lon="4.77936">
        <ele>19</ele>
        <time>2018-09-30T07:06:00Z</time>
      </trkpt>
      <trkpt lat="44.08988" lon="4.77949">
        <ele>18</ele>
        <time>2018-09-30T07:06:02Z</time>
      </trkpt>
      <trkpt lat="44.08976" lon="4.77969">
        <ele>18</ele>
        <time>2018-09-30T07:06:05Z</time>
      </trkpt>
      <trkpt lat="44.08963" lon="4.77988">
        <ele>19</ele>
        <time>2018-09-30T07:06:08Z</time>
      </trkpt>
      <trkpt lat="44.0895" lon="4.78009">
        <ele>18</ele>
        <time>2018-09-30T07:06:11Z</time>
      </trkpt>
      <trkpt lat="44.08937" lon="4.78029">
        <ele>18</ele>
        <time>2018-09-30T07:06:14Z</time>
      </trkpt>
      <trkpt lat="44.08929" lon="4.78043">
        <ele>18</ele>
        <time>2018-09-30T07:06:16Z</time>
      </trkpt>
      <trkpt lat="44.08917" lon="4.78062">
        <ele>19</ele>
        <time>2018-09-30T07:06:19Z</time>
      </trkpt>
      <trkpt lat="44.08905" lon="4.78081">
        <ele>19</ele>
        <time>2018-09-30T07:06:22Z</time>
      </trkpt>
      <trkpt lat="44.08892" lon="4.78101">
        <ele>18</ele>
        <time>2018-09-30T07:06:25Z</time>
      </trkpt>
      <trkpt lat="44.08883" lon="4.78116">
        <ele>18</ele>
        <time>2018-09-30T07:06:27Z</time>
      </trkpt>
      <trkpt lat="44.08874" lon="4.78129">
        <ele>18</ele>
        <time>2018-09-30T07:06:29Z</time>
      </trkpt>
      <trkpt lat="44.08862" lon="4.78147">
        <ele>18</ele>
        <time>2018-09-30T07:06:32Z</time>
      </trkpt>
      <trkpt lat="44.08853" lon="4.78166">
        <ele>18</ele>
        <time>2018-09-30T07:06:35Z</time>
      </trkpt>
      <trkpt lat="44.08846" lon="4.78178">
        <ele>19</ele>
        <time>2018-09-30T07:06:37Z</time>
      </trkpt>
      <trkpt lat="44.08834" lon="4.78195">
        <ele>19</ele>
        <time>2018-09-30T07:06:40Z</time>
      </trkpt>
      <trkpt lat="44.08828" lon="4.78205">
        <ele>20</ele>
        <time>2018-09-30T07:06:43Z</time>
      </trkpt>
      <trkpt lat="44.08822" lon="4.78211">
        <ele>20</ele>
        <time>2018-09-30T07:06:46Z</time>
      </trkpt>
      <trkpt lat="44.08818" lon="4.78216">
        <ele>20</ele>
        <time>2018-09-30T07:06:49Z</time>
      </trkpt>
      <trkpt lat="44.08817" lon="4.78217">
        <ele>20</ele>
        <time>2018-09-30T07:06:51Z</time>
      </trkpt>
      <trkpt lat="44.08817" lon="4.78217">
        <ele>20</ele>
        <time>2018-09-30T07:06:54Z</time>
      </trkpt>
      <trkpt lat="44.08816" lon="4.78217">
        <ele>20</ele>
        <time>2018-09-30T07:06:57Z</time>
      </trkpt>
      <trkpt lat="44.08816" lon="4.78217">
        <ele>20</ele>
        <time>2018-09-30T07:06:59Z</time>
      </trkpt>
      <trkpt lat="44.08816" lon="4.78217">
        <ele>20</ele>
        <time>2018-09-30T07:07:02Z</time>
      </trkpt>
      <trkpt lat="44.08815" lon="4.78218">
        <ele>20</ele>
        <time>2018-09-30T07:07:04Z</time>
      </trkpt>
      <trkpt lat="44.08813" lon="4.78219">
        <ele>20</ele>
        <time>2018-09-30T07:07:06Z</time>
      </trkpt>
      <trkpt lat="44.08811" lon="4.78221">
        <ele>20</ele>
        <time>2018-09-30T07:07:08Z</time>
      </trkpt>
      <trkpt lat="44.08811" lon="4.78226">
        <ele>20</ele>
        <time>2018-09-30T07:07:10Z</time>
      </trkpt>
      <trkpt lat="44.08813" lon="4.78232">
        <ele>20</ele>
        <time>2018-09-30T07:07:12Z</time>
      </trkpt>
      <trkpt lat="44.08815" lon="4.78241">
        <ele>20</ele>
        <time>2018-09-30T07:07:14Z</time>
      </trkpt>
      <trkpt lat="44.08819" lon="4.78259">
        <ele>20</ele>
        <time>2018-09-30T07:07:17Z</time>
      </trkpt>
      <trkpt lat="44.08824" lon="4.78273">
        <ele>20</ele>
        <time>2018-09-30T07:07:19Z</time>
      </trkpt>
      <trkpt lat="44.08829" lon="4.78299">
        <ele>21</ele>
        <time>2018-09-30T07:07:22Z</time>
      </trkpt>
      <trkpt lat="44.08835" lon="4.78327">
        <ele>21</ele>
        <time>2018-09-30T07:07:25Z</time>
      </trkpt>
      <trkpt lat="44.08841" lon="4.78356">
        <ele>21</ele>
        <time>2018-09-30T07:07:28Z</time>
      </trkpt>
      <trkpt lat="44.08846" lon="4.78385">
        <ele>21</ele>
        <time>2018-09-30T07:07:31Z</time>
      </trkpt>
      <trkpt lat="44.08849" lon="4.78406">
        <ele>21</ele>
        <time>2018-09-30T07:07:33Z</time>
      </trkpt>
      <trkpt lat="44.08854" lon="4.78438">
        <ele>21</ele>
        <time>2018-09-30T07:07:36Z</time>
      </trkpt>
      <trkpt lat="44.0886" lon="4.7847">
        <ele>21</ele>
        <time>2018-09-30T07:07:39Z</time>
      </trkpt>
      <trkpt lat="44.08865" lon="4.7849">
        <ele>21</ele>
        <time>2018-09-30T07:07:41Z</time>
      </trkpt>
      <trkpt lat="44.08875" lon="4.7852">
        <ele>21</ele>
        <time>2018-09-30T07:07:44Z</time>
      </trkpt>
      <trkpt lat="44.08881" lon="4.7854">
        <ele>21</ele>
        <time>2018-09-30T07:07:46Z</time>
      </trkpt>
      <trkpt lat="44.08891" lon="4.78569">
        <ele>21</ele>
        <time>2018-09-30T07:07:49Z</time>
      </trkpt>
      <trkpt lat="44.08898" lon="4.78587">
        <ele>20</ele>
        <time>2018-09-30T07:07:51Z</time>
      </trkpt>
      <trkpt lat="44.08909" lon="4.78613">
        <ele>21</ele>
        <time>2018-09-30T07:07:54Z</time>
      </trkpt>
      <trkpt lat="44.08922" lon="4.78638">
        <ele>20</ele>
        <time>2018-09-30T07:07:57Z</time>
      </trkpt>
      <trkpt lat="44.08936" lon="4.78661">
        <ele>21</ele>
        <time>2018-09-30T07:08:00Z</time>
      </trkpt>
      <trkpt lat="44.08949" lon="4.78683">
        <ele>21</ele>
        <time>2018-09-30T07:08:03Z</time>
      </trkpt>
      <trkpt lat="44.08957" lon="4.78697">
        <ele>21</ele>
        <time>2018-09-30T07:08:05Z</time>
      </trkpt>
      <trkpt lat="44.08965" lon="4.78711">
        <ele>21</ele>
        <time>2018-09-30T07:08:07Z</time>
      </trkpt>
      <trkpt lat="44.08971" lon="4.78735">
        <ele>21</ele>
        <time>2018-09-30T07:08:10Z</time>
      </trkpt>
      <trkpt lat="44.08975" lon="4.78759">
        <ele>21</ele>
        <time>2018-09-30T07:08:13Z</time>
      </trkpt>
      <trkpt lat="44.08983" lon="4.78773">
        <ele>20</ele>
        <time>2018-09-30T07:08:15Z</time>
      </trkpt>
      <trkpt lat="44.09001" lon="4.78792">
        <ele>21</ele>
        <time>2018-09-30T07:08:18Z</time>
      </trkpt>
      <trkpt lat="44.09018" lon="4.78817">
        <ele>20</ele>
        <time>2018-09-30T07:08:21Z</time>
      </trkpt>
      <trkpt lat="44.09028" lon="4.78837">
        <ele>20</ele>
        <time>2018-09-30T07:08:23Z</time>
      </trkpt>
      <trkpt lat="44.09041" lon="4.7887">
        <ele>20</ele>
        <time>2018-09-30T07:08:26Z</time>
      </trkpt>
      <trkpt lat="44.09053" lon="4.78903">
        <ele>20</ele>
        <time>2018-09-30T07:08:29Z</time>
      </trkpt>
      <trkpt lat="44.09061" lon="4.78924">
        <ele>20</ele>
        <time>2018-09-30T07:08:31Z</time>
      </trkpt>
      <trkpt lat="44.09074" lon="4.78953">
        <ele>21</ele>
        <time>2018-09-30T07:08:34Z</time>
      </trkpt>
      <trkpt lat="44.09082" lon="4.78971">
        <ele>21</ele>
        <time>2018-09-30T07:08:36Z</time>
      </trkpt>
      <trkpt lat="44.09091" lon="4.78989">
        <ele>20</ele>
        <time>2018-09-30T07:08:38Z</time>
      </trkpt>
      <trkpt lat="44.09103" lon="4.79015">
        <ele>20</ele>
        <time>2018-09-30T07:08:41Z</time>
      </trkpt>
      <trkpt lat="44.09112" lon="4.79033">
        <ele>21</ele>
        <time>2018-09-30T07:08:43Z</time>
      </trkpt>
      <trkpt lat="44.09124" lon="4.79059">
        <ele>21</ele>
        <time>2018-09-30T07:08:46Z</time>
      </trkpt>
      <trkpt lat="44.09132" lon="4.79075">
        <ele>21</ele>
        <time>2018-09-30T07:08:48Z</time>
      </trkpt>
      <trkpt lat="44.09144" lon="4.791">
        <ele>22</ele>
        <time>2018-09-30T07:08:51Z</time>
      </trkpt>
      <trkpt lat="44.09152" lon="4.79117">
        <ele>22</ele>
        <time>2018-09-30T07:08:53Z</time>
      </trkpt>
      <trkpt lat="44.09164" lon="4.79142">
        <ele>22</ele>
        <time>2018-09-30T07:08:56Z</time>
      </trkpt>
      <trkpt lat="44.09172" lon="4.79159">
        <ele>22</ele>
        <time>2018-09-30T07:08:58Z</time>
      </trkpt>
      <trkpt lat="44.09184" lon="4.79184">
        <ele>22</ele>
        <time>2018-09-30T07:09:01Z</time>
      </trkpt>
      <trkpt lat="44.09193" lon="4.79202">
        <ele>22</ele>
        <time>2018-09-30T07:09:03Z</time>
      </trkpt>
      <trkpt lat="44.09201" lon="4.79219">
        <ele>22</ele>
        <time>2018-09-30T07:09:05Z</time>
      </trkpt>
      <trkpt lat="44.09213" lon="4.79245">
        <ele>23</ele>
        <time>2018-09-30T07:09:08Z</time>
      </trkpt>
      <trkpt lat="44.09222" lon="4.79262">
        <ele>23</ele>
        <time>2018-09-30T07:09:10Z</time>
      </trkpt>
      <trkpt lat="44.09236" lon="4.79288">
        <ele>24</ele>
        <time>2018-09-30T07:09:13Z</time>
      </trkpt>
      <trkpt lat="44.09251" lon="4.79312">
        <ele>23</ele>
        <time>2018-09-30T07:09:16Z</time>
      </trkpt>
      <trkpt lat="44.09268" lon="4.79334">
        <ele>23</ele>
        <time>2018-09-30T07:09:19Z</time>
      </trkpt>
      <trkpt lat="44.0928" lon="4.79347">
        <ele>24</ele>
        <time>2018-09-30T07:09:21Z</time>
      </trkpt>
      <trkpt lat="44.09292" lon="4.7936">
        <ele>23</ele>
        <time>2018-09-30T07:09:23Z</time>
      </trkpt>
      <trkpt lat="44.09309" lon="4.79381">
        <ele>23</ele>
        <time>2018-09-30T07:09:26Z</time>
      </trkpt>
      <trkpt lat="44.09325" lon="4.79402">
        <ele>24</ele>
        <time>2018-09-30T07:09:29Z</time>
      </trkpt>
      <trkpt lat="44.09338" lon="4.79425">
        <ele>24</ele>
        <time>2018-09-30T07:09:32Z</time>
      </trkpt>
      <trkpt lat="44.09347" lon="4.79442">
        <ele>24</ele>
        <time>2018-09-30T07:09:34Z</time>
      </trkpt>
      <trkpt lat="44.09355" lon="4.79459">
        <ele>24</ele>
        <time>2018-09-30T07:09:36Z</time>
      </trkpt>
      <trkpt lat="44.09365" lon="4.79488">
        <ele>25</ele>
        <time>2018-09-30T07:09:39Z</time>
      </trkpt>
      <trkpt lat="44.09373" lon="4.79517">
        <ele>25</ele>
        <time>2018-09-30T07:09:42Z</time>
      </trkpt>
      <trkpt lat="44.0938" lon="4.79547">
        <ele>25</ele>
        <time>2018-09-30T07:09:45Z</time>
      </trkpt>
      <trkpt lat="44.09383" lon="4.79565">
        <ele>25</ele>
        <time>2018-09-30T07:09:47Z</time>
      </trkpt>
      <trkpt lat="44.09387" lon="4.7959">
        <ele>25</ele>
        <time>2018-09-30T07:09:50Z</time>
      </trkpt>
      <trkpt lat="44.09386" lon="4.79606">
        <ele>25</ele>
        <time>2018-09-30T07:09:52Z</time>
      </trkpt>
      <trkpt lat="44.0939" lon="4.79629">
        <ele>26</ele>
        <time>2018-09-30T07:09:55Z</time>
      </trkpt>
      <trkpt lat="44.09402" lon="4.7964">
        <ele>26</ele>
        <time>2018-09-30T07:09:57Z</time>
      </trkpt>
      <trkpt lat="44.0942" lon="4.79662">
        <ele>26</ele>
        <time>2018-09-30T07:10:00Z</time>
      </trkpt>
      <trkpt lat="44.09435" lon="4.7969">
        <ele>25</ele>
        <time>2018-09-30T07:10:03Z</time>
      </trkpt>
      <trkpt lat="44.09451" lon="4.79719">
        <ele>25</ele>
        <time>2018-09-30T07:10:06Z</time>
      </trkpt>
      <trkpt lat="44.09467" lon="4.79749">
        <ele>25</ele>
        <time>2018-09-30T07:10:09Z</time>
      </trkpt>
      <trkpt lat="44.09476" lon="4.7977">
        <ele>25</ele>
        <time>2018-09-30T07:10:11Z</time>
      </trkpt>
      <trkpt lat="44.09489" lon="4.79802">
        <ele>24</ele>
        <time>2018-09-30T07:10:14Z</time>
      </trkpt>
      <trkpt lat="44.09499" lon="4.79822">
        <ele>24</ele>
        <time>2018-09-30T07:10:16Z</time>
      </trkpt>
      <trkpt lat="44.0951" lon="4.79841">
        <ele>24</ele>
        <time>2018-09-30T07:10:18Z</time>
      </trkpt>
      <trkpt lat="44.09522" lon="4.79859">
        <ele>23</ele>
        <time>2018-09-30T07:10:20Z</time>
      </trkpt>
      <trkpt lat="44.09539" lon="4.79885">
        <ele>24</ele>
        <time>2018-09-30T07:10:23Z</time>
      </trkpt>
      <trkpt lat="44.09555" lon="4.7991">
        <ele>24</ele>
        <time>2018-09-30T07:10:26Z</time>
      </trkpt>
      <trkpt lat="44.0957" lon="4.79936">
        <ele>23</ele>
        <time>2018-09-30T07:10:29Z</time>
      </trkpt>
      <trkpt lat="44.09586" lon="4.79963">
        <ele>23</ele>
        <time>2018-09-30T07:10:32Z</time>
      </trkpt>
      <trkpt lat="44.09595" lon="4.79982">
        <ele>23</ele>
        <time>2018-09-30T07:10:34Z</time>
      </trkpt>
      <trkpt lat="44.0961" lon="4.80008">
        <ele>23</ele>
        <time>2018-09-30T07:10:37Z</time>
      </trkpt>
      <trkpt lat="44.09625" lon="4.80034">
        <ele>23</ele>
        <time>2018-09-30T07:10:40Z</time>
      </trkpt>
      <trkpt lat="44.09639" lon="4.80062">
        <ele>23</ele>
        <time>2018-09-30T07:10:43Z</time>
      </trkpt>
      <trkpt lat="44.09649" lon="4.8008">
        <ele>23</ele>
        <time>2018-09-30T07:10:45Z</time>
      </trkpt>
      <trkpt lat="44.09661" lon="4.80108">
        <ele>23</ele>
        <time>2018-09-30T07:10:48Z</time>
      </trkpt>
      <trkpt lat="44.09668" lon="4.80126">
        <ele>23</ele>
        <time>2018-09-30T07:10:50Z</time>
      </trkpt>
      <trkpt lat="44.09677" lon="4.80154">
        <ele>23</ele>
        <time>2018-09-30T07:10:53Z</time>
      </trkpt>
      <trkpt lat="44.09686" lon="4.80182">
        <ele>23</ele>
        <time>2018-09-30T07:10:56Z</time>
      </trkpt>
      <trkpt lat="44.09694" lon="4.80212">
        <ele>24</ele>
        <time>2018-09-30T07:10:59Z</time>
      </trkpt>
      <trkpt lat="44.09699" lon="4.80243">
        <ele>24</ele>
        <time>2018-09-30T07:11:02Z</time>
      </trkpt>
      <trkpt lat="44.09697" lon="4.80275">
        <ele>25</ele>
        <time>2018-09-30T07:11:05Z</time>
      </trkpt>
      <trkpt lat="44.09695" lon="4.80296">
        <ele>25</ele>
        <time>2018-09-30T07:11:07Z</time>
      </trkpt>
      <trkpt lat="44.09692" lon="4.80325">
        <ele>25</ele>
        <time>2018-09-30T07:11:10Z</time>
      </trkpt>
      <trkpt lat="44.09689" lon="4.80345">
        <ele>26</ele>
        <time>2018-09-30T07:11:12Z</time>
      </trkpt>
      <trkpt lat="44.09686" lon="4.80375">
        <ele>25</ele>
        <time>2018-09-30T07:11:15Z</time>
      </trkpt>
      <trkpt lat="44.09684" lon="4.80396">
        <ele>26</ele>
        <time>2018-09-30T07:11:17Z</time>
      </trkpt>
      <trkpt lat="44.09682" lon="4.80417">
        <ele>26</ele>
        <time>2018-09-30T07:11:19Z</time>
      </trkpt>
      <trkpt lat="44.09678" lon="4.80446">
        <ele>27</ele>
        <time>2018-09-30T07:11:22Z</time>
      </trkpt>
      <trkpt lat="44.09676" lon="4.80462">
        <ele>27</ele>
        <time>2018-09-30T07:11:24Z</time>
      </trkpt>
      <trkpt lat="44.09673" lon="4.8048">
        <ele>28</ele>
        <time>2018-09-30T07:11:27Z</time>
      </trkpt>
      <trkpt lat="44.0967" lon="4.8049">
        <ele>28</ele>
        <time>2018-09-30T07:11:29Z</time>
      </trkpt>
      <trkpt lat="44.09667" lon="4.80499">
        <ele>28</ele>
        <time>2018-09-30T07:11:31Z</time>
      </trkpt>
      <trkpt lat="44.09663" lon="4.80509">
        <ele>28</ele>
        <time>2018-09-30T07:11:34Z</time>
      </trkpt>
      <trkpt lat="44.09658" lon="4.80515">
        <ele>28</ele>
        <time>2018-09-30T07:11:36Z</time>
      </trkpt>
      <trkpt lat="44.09651" lon="4.80517">
        <ele>28</ele>
        <time>2018-09-30T07:11:38Z</time>
      </trkpt>
      <trkpt lat="44.09639" lon="4.80518">
        <ele>29</ele>
        <time>2018-09-30T07:11:41Z</time>
      </trkpt>
      <trkpt lat="44.09632" lon="4.8052">
        <ele>29</ele>
        <time>2018-09-30T07:11:43Z</time>
      </trkpt>
      <trkpt lat="44.09617" lon="4.8052">
        <ele>30</ele>
        <time>2018-09-30T07:11:46Z</time>
      </trkpt>
      <trkpt lat="44.09603" lon="4.80521">
        <ele>31</ele>
        <time>2018-09-30T07:11:49Z</time>
      </trkpt>
      <trkpt lat="44.09593" lon="4.80523">
        <ele>32</ele>
        <time>2018-09-30T07:11:51Z</time>
      </trkpt>
      <trkpt lat="44.09579" lon="4.80527">
        <ele>32</ele>
        <time>2018-09-30T07:11:54Z</time>
      </trkpt>
      <trkpt lat="44.0957" lon="4.8053">
        <ele>33</ele>
        <time>2018-09-30T07:11:56Z</time>
      </trkpt>
      <trkpt lat="44.09557" lon="4.80535">
        <ele>33</ele>
        <time>2018-09-30T07:11:59Z</time>
      </trkpt>
      <trkpt lat="44.09544" lon="4.80538">
        <ele>34</ele>
        <time>2018-09-30T07:12:02Z</time>
      </trkpt>
      <trkpt lat="44.09529" lon="4.80542">
        <ele>35</ele>
        <time>2018-09-30T07:12:05Z</time>
      </trkpt>
      <trkpt lat="44.0952" lon="4.80544">
        <ele>36</ele>
        <time>2018-09-30T07:12:07Z</time>
      </trkpt>
      <trkpt lat="44.0951" lon="4.80545">
        <ele>36</ele>
        <time>2018-09-30T07:12:09Z</time>
      </trkpt>
      <trkpt lat="44.09495" lon="4.80548">
        <ele>37</ele>
        <time>2018-09-30T07:12:12Z</time>
      </trkpt>
      <trkpt lat="44.09485" lon="4.80548">
        <ele>38</ele>
        <time>2018-09-30T07:12:14Z</time>
      </trkpt>
      <trkpt lat="44.09476" lon="4.8055">
        <ele>38</ele>
        <time>2018-09-30T07:12:16Z</time>
      </trkpt>
      <trkpt lat="44.09466" lon="4.8055">
        <ele>38</ele>
        <time>2018-09-30T07:12:18Z</time>
      </trkpt>
      <trkpt lat="44.09453" lon="4.80551">
        <ele>38</ele>
        <time>2018-09-30T07:12:21Z</time>
      </trkpt>
      <trkpt lat="44.0944" lon="4.80552">
        <ele>39</ele>
        <time>2018-09-30T07:12:24Z</time>
      </trkpt>
      <trkpt lat="44.09431" lon="4.80553">
        <ele>39</ele>
        <time>2018-09-30T07:12:26Z</time>
      </trkpt>
      <trkpt lat="44.09417" lon="4.80554">
        <ele>40</ele>
        <time>2018-09-30T07:12:29Z</time>
      </trkpt>
      <trkpt lat="44.09403" lon="4.80554">
        <ele>41</ele>
        <time>2018-09-30T07:12:32Z</time>
      </trkpt>
      <trkpt lat="44.09388" lon="4.80553">
        <ele>43</ele>
        <time>2018-09-30T07:12:35Z</time>
      </trkpt>
      <trkpt lat="44.09378" lon="4.80552">
        <ele>43</ele>
        <time>2018-09-30T07:12:37Z</time>
      </trkpt>
      <trkpt lat="44.09362" lon="4.8055">
        <ele>44</ele>
        <time>2018-09-30T07:12:40Z</time>
      </trkpt>
      <trkpt lat="44.09347" lon="4.80548">
        <ele>45</ele>
        <time>2018-09-30T07:12:43Z</time>
      </trkpt>
      <trkpt lat="44.09332" lon="4.80545">
        <ele>46</ele>
        <time>2018-09-30T07:12:46Z</time>
      </trkpt>
      <trkpt lat="44.09317" lon="4.80542">
        <ele>46</ele>
        <time>2018-09-30T07:12:49Z</time>
      </trkpt>
      <trkpt lat="44.09302" lon="4.80541">
        <ele>46</ele>
        <time>2018-09-30T07:12:52Z</time>
      </trkpt>
      <trkpt lat="44.09287" lon="4.8054">
        <ele>47</ele>
        <time>2018-09-30T07:12:55Z</time>
      </trkpt>
      <trkpt lat="44.09278" lon="4.8054">
        <ele>47</ele>
        <time>2018-09-30T07:12:57Z</time>
      </trkpt>
      <trkpt lat="44.09269" lon="4.8054">
        <ele>48</ele>
        <time>2018-09-30T07:12:59Z</time>
      </trkpt>
      <trkpt lat="44.0926" lon="4.8054">
        <ele>48</ele>
        <time>2018-09-30T07:13:01Z</time>
      </trkpt>
      <trkpt lat="44.09247" lon="4.80541">
        <ele>48</ele>
        <time>2018-09-30T07:13:04Z</time>
      </trkpt>
      <trkpt lat="44.09239" lon="4.80541">
        <ele>49</ele>
        <time>2018-09-30T07:13:06Z</time>
      </trkpt>
      <trkpt lat="44.09231" lon="4.80541">
        <ele>49</ele>
        <time>2018-09-30T07:13:08Z</time>
      </trkpt>
      <trkpt lat="44.09223" lon="4.80541">
        <ele>50</ele>
        <time>2018-09-30T07:13:10Z</time>
      </trkpt>
      <trkpt lat="44.0921" lon="4.80541">
        <ele>50</ele>
        <time>2018-09-30T07:13:13Z</time>
      </trkpt>
      <trkpt lat="44.09202" lon="4.80538">
        <ele>51</ele>
        <time>2018-09-30T07:13:15Z</time>
      </trkpt>
      <trkpt lat="44.0919" lon="4.80531">
        <ele>51</ele>
        <time>2018-09-30T07:13:18Z</time>
      </trkpt>
      <trkpt lat="44.09177" lon="4.80526">
        <ele>53</ele>
        <time>2018-09-30T07:13:21Z</time>
      </trkpt>
      <trkpt lat="44.09162" lon="4.80522">
        <ele>54</ele>
        <time>2018-09-30T07:13:24Z</time>
      </trkpt>
      <trkpt lat="44.09147" lon="4.80518">
        <ele>55</ele>
        <time>2018-09-30T07:13:27Z</time>
      </trkpt>
      <trkpt lat="44.09137" lon="4.80515">
        <ele>55</ele>
        <time>2018-09-30T07:13:29Z</time>
      </trkpt>
      <trkpt lat="44.09127" lon="4.80513">
        <ele>55</ele>
        <time>2018-09-30T07:13:31Z</time>
      </trkpt>
      <trkpt lat="44.09111" lon="4.80509">
        <ele>55</ele>
        <time>2018-09-30T07:13:34Z</time>
      </trkpt>
      <trkpt lat="44.09095" lon="4.80504">
        <ele>54</ele>
        <time>2018-09-30T07:13:37Z</time>
      </trkpt>
      <trkpt lat="44.09077" lon="4.80499">
        <ele>54</ele>
        <time>2018-09-30T07:13:40Z</time>
      </trkpt>
      <trkpt lat="44.09061" lon="4.80494">
        <ele>54</ele>
        <time>2018-09-30T07:13:43Z</time>
      </trkpt>
      <trkpt lat="44.0905" lon="4.80491">
        <ele>53</ele>
        <time>2018-09-30T07:13:45Z</time>
      </trkpt>
      <trkpt lat="44.09034" lon="4.80486">
        <ele>54</ele>
        <time>2018-09-30T07:13:48Z</time>
      </trkpt>
      <trkpt lat="44.09023" lon="4.80483">
        <ele>54</ele>
        <time>2018-09-30T07:13:50Z</time>
      </trkpt>
      <trkpt lat="44.09012" lon="4.8048">
        <ele>54</ele>
        <time>2018-09-30T07:13:52Z</time>
      </trkpt>
      <trkpt lat="44.08997" lon="4.80475">
        <ele>54</ele>
        <time>2018-09-30T07:13:55Z</time>
      </trkpt>
      <trkpt lat="44.08981" lon="4.80472">
        <ele>55</ele>
        <time>2018-09-30T07:13:58Z</time>
      </trkpt>
      <trkpt lat="44.08972" lon="4.8047">
        <ele>55</ele>
        <time>2018-09-30T07:14:00Z</time>
      </trkpt>
      <trkpt lat="44.08963" lon="4.80468">
        <ele>56</ele>
        <time>2018-09-30T07:14:02Z</time>
      </trkpt>
      <trkpt lat="44.08949" lon="4.80465">
        <ele>56</ele>
        <time>2018-09-30T07:14:05Z</time>
      </trkpt>
      <trkpt lat="44.08933" lon="4.80462">
        <ele>57</ele>
        <time>2018-09-30T07:14:08Z</time>
      </trkpt>
      <trkpt lat="44.08923" lon="4.8046">
        <ele>58</ele>
        <time>2018-09-30T07:14:10Z</time>
      </trkpt>
      <trkpt lat="44.08907" lon="4.80457">
        <ele>58</ele>
        <time>2018-09-30T07:14:13Z</time>
      </trkpt>
      <trkpt lat="44.08892" lon="4.80453">
        <ele>59</ele>
        <time>2018-09-30T07:14:16Z</time>
      </trkpt>
      <trkpt lat="44.08878" lon="4.80449">
        <ele>59</ele>
        <time>2018-09-30T07:14:19Z</time>
      </trkpt>
      <trkpt lat="44.08868" lon="4.80447">
        <ele>60</ele>
        <time>2018-09-30T07:14:21Z</time>
      </trkpt>
      <trkpt lat="44.08852" lon="4.80444">
        <ele>60</ele>
        <time>2018-09-30T07:14:24Z</time>
      </trkpt>
      <trkpt lat="44.08842" lon="4.80443">
        <ele>60</ele>
        <time>2018-09-30T07:14:26Z</time>
      </trkpt>
      <trkpt lat="44.08828" lon="4.80441">
        <ele>60</ele>
        <time>2018-09-30T07:14:29Z</time>
      </trkpt>
      <trkpt lat="44.08818" lon="4.80439">
        <ele>61</ele>
        <time>2018-09-30T07:14:31Z</time>
      </trkpt>
      <trkpt lat="44.08804" lon="4.80438">
        <ele>61</ele>
        <time>2018-09-30T07:14:34Z</time>
      </trkpt>
      <trkpt lat="44.08795" lon="4.80436">
        <ele>62</ele>
        <time>2018-09-30T07:14:36Z</time>
      </trkpt>
      <trkpt lat="44.08787" lon="4.80435">
        <ele>63</ele>
        <time>2018-09-30T07:14:38Z</time>
      </trkpt>
      <trkpt lat="44.08775" lon="4.80435">
        <ele>63</ele>
        <time>2018-09-30T07:14:41Z</time>
      </trkpt>
      <trkpt lat="44.08763" lon="4.80438">
        <ele>65</ele>
        <time>2018-09-30T07:14:44Z</time>
      </trkpt>
      <trkpt lat="44.08756" lon="4.80441">
        <ele>66</ele>
        <time>2018-09-30T07:14:46Z</time>
      </trkpt>
      <trkpt lat="44.08749" lon="4.80444">
        <ele>67</ele>
        <time>2018-09-30T07:14:48Z</time>
      </trkpt>
      <trkpt lat="44.08738" lon="4.80447">
        <ele>68</ele>
        <time>2018-09-30T07:14:51Z</time>
      </trkpt>
      <trkpt lat="44.08728" lon="4.80452">
        <ele>70</ele>
        <time>2018-09-30T07:14:54Z</time>
      </trkpt>
      <trkpt lat="44.08718" lon="4.80458">
        <ele>71</ele>
        <time>2018-09-30T07:14:57Z</time>
      </trkpt>
      <trkpt lat="44.08708" lon="4.80463">
        <ele>73</ele>
        <time>2018-09-30T07:15:00Z</time>
      </trkpt>
      <trkpt lat="44.08702" lon="4.80467">
        <ele>73</ele>
        <time>2018-09-30T07:15:02Z</time>
      </trkpt>
      <trkpt lat="44.08692" lon="4.80473">
        <ele>74</ele>
        <time>2018-09-30T07:15:05Z</time>
      </trkpt>
      <trkpt lat="44.08681" lon="4.80479">
        <ele>76</ele>
        <time>2018-09-30T07:15:08Z</time>
      </trkpt>
      <trkpt lat="44.08673" lon="4.80483">
        <ele>76</ele>
        <time>2018-09-30T07:15:10Z</time>
      </trkpt>
      <trkpt lat="44.08664" lon="4.80486">
        <ele>77</ele>
        <time>2018-09-30T07:15:12Z</time>
      </trkpt>
      <trkpt lat="44.08655" lon="4.8049">
        <ele>77</ele>
        <time>2018-09-30T07:15:14Z</time>
      </trkpt>
      <trkpt lat="44.0864" lon="4.80496">
        <ele>77</ele>
        <time>2018-09-30T07:15:17Z</time>
      </trkpt>
      <trkpt lat="44.08625" lon="4.80504">
        <ele>77</ele>
        <time>2018-09-30T07:15:20Z</time>
      </trkpt>
      <trkpt lat="44.08611" lon="4.80513">
        <ele>78</ele>
        <time>2018-09-30T07:15:23Z</time>
      </trkpt>
      <trkpt lat="44.08596" lon="4.80523">
        <ele>78</ele>
        <time>2018-09-30T07:15:26Z</time>
      </trkpt>
      <trkpt lat="44.08586" lon="4.80531">
        <ele>77</ele>
        <time>2018-09-30T07:15:28Z</time>
      </trkpt>
      <trkpt lat="44.08573" lon="4.80544">
        <ele>77</ele>
        <time>2018-09-30T07:15:31Z</time>
      </trkpt>
      <trkpt lat="44.08559" lon="4.80557">
        <ele>77</ele>
        <time>2018-09-30T07:15:34Z</time>
      </trkpt>
      <trkpt lat="44.08549" lon="4.80566">
        <ele>77</ele>
        <time>2018-09-30T07:15:36Z</time>
      </trkpt>
      <trkpt lat="44.08534" lon="4.80577">
        <ele>78</ele>
        <time>2018-09-30T07:15:39Z</time>
      </trkpt>
      <trkpt lat="44.0852" lon="4.80588">
        <ele>77</ele>
        <time>2018-09-30T07:15:42Z</time>
      </trkpt>
      <trkpt lat="44.08507" lon="4.80598">
        <ele>78</ele>
        <time>2018-09-30T07:15:45Z</time>
      </trkpt>
      <trkpt lat="44.085" lon="4.80605">
        <ele>78</ele>
        <time>2018-09-30T07:15:47Z</time>
      </trkpt>
      <trkpt lat="44.08489" lon="4.80615">
        <ele>79</ele>
        <time>2018-09-30T07:15:50Z</time>
      </trkpt>
      <trkpt lat="44.0848" lon="4.80625">
        <ele>79</ele>
        <time>2018-09-30T07:15:53Z</time>
      </trkpt>
      <trkpt lat="44.08472" lon="4.80639">
        <ele>80</ele>
        <time>2018-09-30T07:15:56Z</time>
      </trkpt>
      <trkpt lat="44.08468" lon="4.80648">
        <ele>81</ele>
        <time>2018-09-30T07:15:58Z</time>
      </trkpt>
      <trkpt lat="44.08464" lon="4.80658">
        <ele>82</ele>
        <time>2018-09-30T07:16:00Z</time>
      </trkpt>
      <trkpt lat="44.08461" lon="4.80671">
        <ele>82</ele>
        <time>2018-09-30T07:16:02Z</time>
      </trkpt>
      <trkpt lat="44.08458" lon="4.80688">
        <ele>83</ele>
        <time>2018-09-30T07:16:05Z</time>
      </trkpt>
      <trkpt lat="44.08456" lon="4.80706">
        <ele>84</ele>
        <time>2018-09-30T07:16:08Z</time>
      </trkpt>
      <trkpt lat="44.08454" lon="4.80724">
        <ele>85</ele>
        <time>2018-09-30T07:16:11Z</time>
      </trkpt>
      <trkpt lat="44.08452" lon="4.8074">
        <ele>86</ele>
        <time>2018-09-30T07:16:14Z</time>
      </trkpt>
      <trkpt lat="44.0845" lon="4.80757">
        <ele>87</ele>
        <time>2018-09-30T07:16:17Z</time>
      </trkpt>
      <trkpt lat="44.08446" lon="4.80773">
        <ele>88</ele>
        <time>2018-09-30T07:16:20Z</time>
      </trkpt>
      <trkpt lat="44.08439" lon="4.80787">
        <ele>89</ele>
        <time>2018-09-30T07:16:23Z</time>
      </trkpt>
      <trkpt lat="44.08429" lon="4.80799">
        <ele>89</ele>
        <time>2018-09-30T07:16:26Z</time>
      </trkpt>
      <trkpt lat="44.08421" lon="4.80804">
        <ele>90</ele>
        <time>2018-09-30T07:16:28Z</time>
      </trkpt>
      <trkpt lat="44.08412" lon="4.80809">
        <ele>91</ele>
        <time>2018-09-30T07:16:30Z</time>
      </trkpt>
      <trkpt lat="44.08399" lon="4.80818">
        <ele>91</ele>
        <time>2018-09-30T07:16:33Z</time>
      </trkpt>
      <trkpt lat="44.08386" lon="4.80828">
        <ele>93</ele>
        <time>2018-09-30T07:16:36Z</time>
      </trkpt>
      <trkpt lat="44.08374" lon="4.80839">
        <ele>94</ele>
        <time>2018-09-30T07:16:39Z</time>
      </trkpt>
      <trkpt lat="44.08362" lon="4.80849">
        <ele>94</ele>
        <time>2018-09-30T07:16:42Z</time>
      </trkpt>
      <trkpt lat="44.0835" lon="4.80857">
        <ele>95</ele>
        <time>2018-09-30T07:16:45Z</time>
      </trkpt>
      <trkpt lat="44.08335" lon="4.80862">
        <ele>95</ele>
        <time>2018-09-30T07:16:48Z</time>
      </trkpt>
      <trkpt lat="44.08323" lon="4.80861">
        <ele>95</ele>
        <time>2018-09-30T07:16:50Z</time>
      </trkpt>
      <trkpt lat="44.08303" lon="4.80867">
        <ele>95</ele>
        <time>2018-09-30T07:16:53Z</time>
      </trkpt>
      <trkpt lat="44.08296" lon="4.80883">
        <ele>95</ele>
        <time>2018-09-30T07:16:55Z</time>
      </trkpt>
      <trkpt lat="44.08292" lon="4.80915">
        <ele>95</ele>
        <time>2018-09-30T07:16:58Z</time>
      </trkpt>
      <trkpt lat="44.0829" lon="4.80936">
        <ele>95</ele>
        <time>2018-09-30T07:17:00Z</time>
      </trkpt>
      <trkpt lat="44.08287" lon="4.80968">
        <ele>94</ele>
        <time>2018-09-30T07:17:03Z</time>
      </trkpt>
      <trkpt lat="44.08286" lon="4.80988">
        <ele>94</ele>
        <time>2018-09-30T07:17:05Z</time>
      </trkpt>
      <trkpt lat="44.08282" lon="4.81018">
        <ele>93</ele>
        <time>2018-09-30T07:17:08Z</time>
      </trkpt>
      <trkpt lat="44.08281" lon="4.81037">
        <ele>93</ele>
        <time>2018-09-30T07:17:10Z</time>
      </trkpt>
      <trkpt lat="44.08279" lon="4.81054">
        <ele>94</ele>
        <time>2018-09-30T07:17:12Z</time>
      </trkpt>
      <trkpt lat="44.08277" lon="4.8107">
        <ele>94</ele>
        <time>2018-09-30T07:17:14Z</time>
      </trkpt>
      <trkpt lat="44.08273" lon="4.81091">
        <ele>94</ele>
        <time>2018-09-30T07:17:17Z</time>
      </trkpt>
      <trkpt lat="44.08264" lon="4.81102">
        <ele>95</ele>
        <time>2018-09-30T07:17:20Z</time>
      </trkpt>
      <trkpt lat="44.08256" lon="4.81107">
        <ele>96</ele>
        <time>2018-09-30T07:17:22Z</time>
      </trkpt>
      <trkpt lat="44.08249" lon="4.81114">
        <ele>97</ele>
        <time>2018-09-30T07:17:24Z</time>
      </trkpt>
      <trkpt lat="44.08241" lon="4.81128">
        <ele>98</ele>
        <time>2018-09-30T07:17:27Z</time>
      </trkpt>
      <trkpt lat="44.08229" lon="4.81138">
        <ele>99</ele>
        <time>2018-09-30T07:17:30Z</time>
      </trkpt>
      <trkpt lat="44.08217" lon="4.81147">
        <ele>100</ele>
        <time>2018-09-30T07:17:33Z</time>
      </trkpt>
      <trkpt lat="44.08209" lon="4.81153">
        <ele>101</ele>
        <time>2018-09-30T07:17:35Z</time>
      </trkpt>
      <trkpt lat="44.08199" lon="4.81162">
        <ele>102</ele>
        <time>2018-09-30T07:17:38Z</time>
      </trkpt>
      <trkpt lat="44.08188" lon="4.81171">
        <ele>103</ele>
        <time>2018-09-30T07:17:41Z</time>
      </trkpt>
      <trkpt lat="44.08179" lon="4.81181">
        <ele>104</ele>
        <time>2018-09-30T07:17:44Z</time>
      </trkpt>
      <trkpt lat="44.08172" lon="4.81194">
        <ele>105</ele>
        <time>2018-09-30T07:17:47Z</time>
      </trkpt>
      <trkpt lat="44.08168" lon="4.81203">
        <ele>105</ele>
        <time>2018-09-30T07:17:49Z</time>
      </trkpt>
      <trkpt lat="44.08163" lon="4.81218">
        <ele>106</ele>
        <time>2018-09-30T07:17:52Z</time>
      </trkpt>
      <trkpt lat="44.0816" lon="4.81234">
        <ele>107</ele>
        <time>2018-09-30T07:17:55Z</time>
      </trkpt>
      <trkpt lat="44.0816" lon="4.8125">
        <ele>108</ele>
        <time>2018-09-30T07:17:58Z</time>
      </trkpt>
      <trkpt lat="44.08161" lon="4.81266">
        <ele>109</ele>
        <time>2018-09-30T07:18:01Z</time>
      </trkpt>
      <trkpt lat="44.08163" lon="4.81283">
        <ele>110</ele>
        <time>2018-09-30T07:18:04Z</time>
      </trkpt>
      <trkpt lat="44.08167" lon="4.813">
        <ele>111</ele>
        <time>2018-09-30T07:18:07Z</time>
      </trkpt>
      <trkpt lat="44.08171" lon="4.81318">
        <ele>111</ele>
        <time>2018-09-30T07:18:10Z</time>
      </trkpt>
      <trkpt lat="44.08174" lon="4.81336">
        <ele>111</ele>
        <time>2018-09-30T07:18:13Z</time>
      </trkpt>
      <trkpt lat="44.08177" lon="4.81349">
        <ele>111</ele>
        <time>2018-09-30T07:18:15Z</time>
      </trkpt>
      <trkpt lat="44.08181" lon="4.81367">
        <ele>111</ele>
        <time>2018-09-30T07:18:18Z</time>
      </trkpt>
      <trkpt lat="44.08186" lon="4.81386">
        <ele>111</ele>
        <time>2018-09-30T07:18:21Z</time>
      </trkpt>
      <trkpt lat="44.0819" lon="4.81406">
        <ele>111</ele>
        <time>2018-09-30T07:18:24Z</time>
      </trkpt>
      <trkpt lat="44.08195" lon="4.81425">
        <ele>111</ele>
        <time>2018-09-30T07:18:27Z</time>
      </trkpt>
      <trkpt lat="44.08199" lon="4.81444">
        <ele>111</ele>
        <time>2018-09-30T07:18:30Z</time>
      </trkpt>
      <trkpt lat="44.08203" lon="4.81461">
        <ele>111</ele>
        <time>2018-09-30T07:18:33Z</time>
      </trkpt>
      <trkpt lat="44.08207" lon="4.81478">
        <ele>111</ele>
        <time>2018-09-30T07:18:36Z</time>
      </trkpt>
      <trkpt lat="44.0821" lon="4.81494">
        <ele>111</ele>
        <time>2018-09-30T07:18:39Z</time>
      </trkpt>
      <trkpt lat="44.08213" lon="4.81505">
        <ele>111</ele>
        <time>2018-09-30T07:18:41Z</time>
      </trkpt>
      <trkpt lat="44.08215" lon="4.81517">
        <ele>111</ele>
        <time>2018-09-30T07:18:43Z</time>
      </trkpt>
      <trkpt lat="44.08219" lon="4.81534">
        <ele>111</ele>
        <time>2018-09-30T07:18:46Z</time>
      </trkpt>
      <trkpt lat="44.08223" lon="4.81552">
        <ele>111</ele>
        <time>2018-09-30T07:18:49Z</time>
      </trkpt>
      <trkpt lat="44.08228" lon="4.8157">
        <ele>111</ele>
        <time>2018-09-30T07:18:52Z</time>
      </trkpt>
      <trkpt lat="44.08232" lon="4.81589">
        <ele>111</ele>
        <time>2018-09-30T07:18:55Z</time>
      </trkpt>
      <trkpt lat="44.08235" lon="4.81601">
        <ele>111</ele>
        <time>2018-09-30T07:18:57Z</time>
      </trkpt>
      <trkpt lat="44.08239" lon="4.8162">
        <ele>111</ele>
        <time>2018-09-30T07:19:00Z</time>
      </trkpt>
      <trkpt lat="44.08244" lon="4.81638">
        <ele>110</ele>
        <time>2018-09-30T07:19:03Z</time>
      </trkpt>
      <trkpt lat="44.08247" lon="4.81658">
        <ele>110</ele>
        <time>2018-09-30T07:19:06Z</time>
      </trkpt>
      <trkpt lat="44.08252" lon="4.81677">
        <ele>110</ele>
        <time>2018-09-30T07:19:09Z</time>
      </trkpt>
      <trkpt lat="44.08256" lon="4.81698">
        <ele>110</ele>
        <time>2018-09-30T07:19:12Z</time>
      </trkpt>
      <trkpt lat="44.0826" lon="4.81717">
        <ele>111</ele>
        <time>2018-09-30T07:19:15Z</time>
      </trkpt>
      <trkpt lat="44.08265" lon="4.81737">
        <ele>111</ele>
        <time>2018-09-30T07:19:18Z</time>
      </trkpt>
      <trkpt lat="44.08269" lon="4.81754">
        <ele>111</ele>
        <time>2018-09-30T07:19:21Z</time>
      </trkpt>
      <trkpt lat="44.08273" lon="4.81771">
        <ele>111</ele>
        <time>2018-09-30T07:19:24Z</time>
      </trkpt>
      <trkpt lat="44.08275" lon="4.81784">
        <ele>111</ele>
        <time>2018-09-30T07:19:27Z</time>
      </trkpt>
      <trkpt lat="44.08275" lon="4.81786">
        <ele>111</ele>
        <time>2018-09-30T07:19:29Z</time>
      </trkpt>
      <trkpt lat="44.08275" lon="4.81787">
        <ele>111</ele>
        <time>2018-09-30T07:19:32Z</time>
      </trkpt>
      <trkpt lat="44.08274" lon="4.81787">
        <ele>111</ele>
        <time>2018-09-30T07:19:34Z</time>
      </trkpt>
      <trkpt lat="44.08274" lon="4.81787">
        <ele>111</ele>
        <time>2018-09-30T07:19:36Z</time>
      </trkpt>
      <trkpt lat="44.08274" lon="4.81787">
        <ele>110</ele>
        <time>2018-09-30T07:19:39Z</time>
      </trkpt>
      <trkpt lat="44.08274" lon="4.81788">
        <ele>110</ele>
        <time>2018-09-30T07:19:44Z</time>
      </trkpt>
      <trkpt lat="44.08273" lon="4.81788">
        <ele>110</ele>
        <time>2018-09-30T07:19:47Z</time>
      </trkpt>
      <trkpt lat="44.08273" lon="4.81788">
        <ele>110</ele>
        <time>2018-09-30T07:19:50Z</time>
      </trkpt>
      <trkpt lat="44.08273" lon="4.81788">
        <ele>110</ele>
        <time>2018-09-30T07:19:53Z</time>
      </trkpt>
      <trkpt lat="44.08273" lon="4.81788">
        <ele>111</ele>
        <time>2018-09-30T07:19:57Z</time>
      </trkpt>
      <trkpt lat="44.08273" lon="4.81788">
        <ele>111</ele>
        <time>2018-09-30T07:20:02Z</time>
      </trkpt>
      <trkpt lat="44.08273" lon="4.81788">
        <ele>110</ele>
        <time>2018-09-30T07:20:07Z</time>
      </trkpt>
      <trkpt lat="44.08273" lon="4.81788">
        <ele>110</ele>
        <time>2018-09-30T07:20:12Z</time>
      </trkpt>
      <trkpt lat="44.08272" lon="4.81788">
        <ele>110</ele>
        <time>2018-09-30T07:20:16Z</time>
      </trkpt>
      <trkpt lat="44.08272" lon="4.81788">
        <ele>110</ele>
        <time>2018-09-30T07:20:20Z</time>
      </trkpt>
      <trkpt lat="44.08272" lon="4.81788">
        <ele>110</ele>
        <time>2018-09-30T07:20:26Z</time>
      </trkpt>
      <trkpt lat="44.08272" lon="4.81788">
        <ele>110</ele>
        <time>2018-09-30T07:20:29Z</time>
      </trkpt>
      <trkpt lat="44.08273" lon="4.81788">
        <ele>110</ele>
        <time>2018-09-30T07:20:31Z</time>
      </trkpt>
      <trkpt lat="44.08274" lon="4.81789">
        <ele>110</ele>
        <time>2018-09-30T07:20:33Z</time>
      </trkpt>
      <trkpt lat="44.08274" lon="4.8179">
        <ele>111</ele>
        <time>2018-09-30T07:20:35Z</time>
      </trkpt>
      <trkpt lat="44.08274" lon="4.8179">
        <ele>111</ele>
        <time>2018-09-30T07:20:37Z</time>
      </trkpt>
      <trkpt lat="44.08277" lon="4.81794">
        <ele>111</ele>
        <time>2018-09-30T07:20:40Z</time>
      </trkpt>
      <trkpt lat="44.08279" lon="4.818">
        <ele>111</ele>
        <time>2018-09-30T07:20:42Z</time>
      </trkpt>
      <trkpt lat="44.08281" lon="4.81813">
        <ele>110</ele>
        <time>2018-09-30T07:20:45Z</time>
      </trkpt>
      <trkpt lat="44.08284" lon="4.81825">
        <ele>110</ele>
        <time>2018-09-30T07:20:47Z</time>
      </trkpt>
      <trkpt lat="44.08288" lon="4.81846">
        <ele>111</ele>
        <time>2018-09-30T07:20:50Z</time>
      </trkpt>
      <trkpt lat="44.08294" lon="4.8187">
        <ele>112</ele>
        <time>2018-09-30T07:20:53Z</time>
      </trkpt>
      <trkpt lat="44.08299" lon="4.81895">
        <ele>112</ele>
        <time>2018-09-30T07:20:56Z</time>
      </trkpt>
      <trkpt lat="44.08305" lon="4.81921">
        <ele>113</ele>
        <time>2018-09-30T07:20:59Z</time>
      </trkpt>
      <trkpt lat="44.08312" lon="4.81948">
        <ele>113</ele>
        <time>2018-09-30T07:21:02Z</time>
      </trkpt>
      <trkpt lat="44.08316" lon="4.81967">
        <ele>113</ele>
        <time>2018-09-30T07:21:04Z</time>
      </trkpt>
      <trkpt lat="44.08321" lon="4.81986">
        <ele>113</ele>
        <time>2018-09-30T07:21:06Z</time>
      </trkpt>
      <trkpt lat="44.08327" lon="4.82017">
        <ele>113</ele>
        <time>2018-09-30T07:21:09Z</time>
      </trkpt>
      <trkpt lat="44.08333" lon="4.82049">
        <ele>113</ele>
        <time>2018-09-30T07:21:12Z</time>
      </trkpt>
      <trkpt lat="44.08337" lon="4.82081">
        <ele>113</ele>
        <time>2018-09-30T07:21:15Z</time>
      </trkpt>
      <trkpt lat="44.08338" lon="4.82103">
        <ele>113</ele>
        <time>2018-09-30T07:21:17Z</time>
      </trkpt>
      <trkpt lat="44.08339" lon="4.82136">
        <ele>114</ele>
        <time>2018-09-30T07:21:20Z</time>
      </trkpt>
      <trkpt lat="44.08337" lon="4.82158">
        <ele>113</ele>
        <time>2018-09-30T07:21:22Z</time>
      </trkpt>
      <trkpt lat="44.08334" lon="4.82191">
        <ele>113</ele>
        <time>2018-09-30T07:21:25Z</time>
      </trkpt>
      <trkpt lat="44.08329" lon="4.82225">
        <ele>114</ele>
        <time>2018-09-30T07:21:28Z</time>
      </trkpt>
      <trkpt lat="44.08328" lon="4.82249">
        <ele>114</ele>
        <time>2018-09-30T07:21:30Z</time>
      </trkpt>
      <trkpt lat="44.08329" lon="4.82283">
        <ele>115</ele>
        <time>2018-09-30T07:21:33Z</time>
      </trkpt>
      <trkpt lat="44.0833" lon="4.82306">
        <ele>115</ele>
        <time>2018-09-30T07:21:35Z</time>
      </trkpt>
      <trkpt lat="44.0833" lon="4.82329">
        <ele>115</ele>
        <time>2018-09-30T07:21:37Z</time>
      </trkpt>
      <trkpt lat="44.08331" lon="4.82352">
        <ele>115</ele>
        <time>2018-09-30T07:21:39Z</time>
      </trkpt>
      <trkpt lat="44.0833" lon="4.82386">
        <ele>115</ele>
        <time>2018-09-30T07:21:42Z</time>
      </trkpt>
      <trkpt lat="44.08331" lon="4.8242">
        <ele>115</ele>
        <time>2018-09-30T07:21:45Z</time>
      </trkpt>
      <trkpt lat="44.08332" lon="4.82443">
        <ele>115</ele>
        <time>2018-09-30T07:21:47Z</time>
      </trkpt>
      <trkpt lat="44.08335" lon="4.82477">
        <ele>115</ele>
        <time>2018-09-30T07:21:50Z</time>
      </trkpt>
      <trkpt lat="44.08337" lon="4.82511">
        <ele>115</ele>
        <time>2018-09-30T07:21:53Z</time>
      </trkpt>
      <trkpt lat="44.08341" lon="4.82544">
        <ele>115</ele>
        <time>2018-09-30T07:21:56Z</time>
      </trkpt>
      <trkpt lat="44.08344" lon="4.82577">
        <ele>115</ele>
        <time>2018-09-30T07:21:59Z</time>
      </trkpt>
      <trkpt lat="44.08347" lon="4.82612">
        <ele>115</ele>
        <time>2018-09-30T07:22:02Z</time>
      </trkpt>
      <trkpt lat="44.08348" lon="4.82647">
        <ele>114</ele>
        <time>2018-09-30T07:22:05Z</time>
      </trkpt>
      <trkpt lat="44.0835" lon="4.82671">
        <ele>114</ele>
        <time>2018-09-30T07:22:07Z</time>
      </trkpt>
      <trkpt lat="44.08352" lon="4.82706">
        <ele>115</ele>
        <time>2018-09-30T07:22:10Z</time>
      </trkpt>
      <trkpt lat="44.08343" lon="4.82725">
        <ele>115</ele>
        <time>2018-09-30T07:22:12Z</time>
      </trkpt>
      <trkpt lat="44.08319" lon="4.82732">
        <ele>116</ele>
        <time>2018-09-30T07:22:15Z</time>
      </trkpt>
      <trkpt lat="44.08303" lon="4.82733">
        <ele>115</ele>
        <time>2018-09-30T07:22:17Z</time>
      </trkpt>
      <trkpt lat="44.08278" lon="4.82737">
        <ele>115</ele>
        <time>2018-09-30T07:22:20Z</time>
      </trkpt>
      <trkpt lat="44.08253" lon="4.82741">
        <ele>115</ele>
        <time>2018-09-30T07:22:23Z</time>
      </trkpt>
      <trkpt lat="44.08237" lon="4.82743">
        <ele>115</ele>
        <time>2018-09-30T07:22:25Z</time>
      </trkpt>
      <trkpt lat="44.08213" lon="4.82747">
        <ele>115</ele>
        <time>2018-09-30T07:22:28Z</time>
      </trkpt>
      <trkpt lat="44.08197" lon="4.8275">
        <ele>115</ele>
        <time>2018-09-30T07:22:30Z</time>
      </trkpt>
      <trkpt lat="44.08174" lon="4.82759">
        <ele>115</ele>
        <time>2018-09-30T07:22:33Z</time>
      </trkpt>
      <trkpt lat="44.08164" lon="4.82788">
        <ele>114</ele>
        <time>2018-09-30T07:22:36Z</time>
      </trkpt>
      <trkpt lat="44.08162" lon="4.8281">
        <ele>114</ele>
        <time>2018-09-30T07:22:38Z</time>
      </trkpt>
      <trkpt lat="44.08158" lon="4.82845">
        <ele>113</ele>
        <time>2018-09-30T07:22:41Z</time>
      </trkpt>
      <trkpt lat="44.08155" lon="4.8288">
        <ele>113</ele>
        <time>2018-09-30T07:22:44Z</time>
      </trkpt>
      <trkpt lat="44.08158" lon="4.82903">
        <ele>113</ele>
        <time>2018-09-30T07:22:46Z</time>
      </trkpt>
      <trkpt lat="44.0817" lon="4.82936">
        <ele>112</ele>
        <time>2018-09-30T07:22:49Z</time>
      </trkpt>
      <trkpt lat="44.08188" lon="4.8297">
        <ele>111</ele>
        <time>2018-09-30T07:22:52Z</time>
      </trkpt>
      <trkpt lat="44.08201" lon="4.82993">
        <ele>110</ele>
        <time>2018-09-30T07:22:54Z</time>
      </trkpt>
      <trkpt lat="44.08212" lon="4.83017">
        <ele>108</ele>
        <time>2018-09-30T07:22:56Z</time>
      </trkpt>
      <trkpt lat="44.08216" lon="4.83041">
        <ele>107</ele>
        <time>2018-09-30T07:22:58Z</time>
      </trkpt>
      <trkpt lat="44.08214" lon="4.83064">
        <ele>105</ele>
        <time>2018-09-30T07:23:00Z</time>
      </trkpt>
      <trkpt lat="44.0821" lon="4.83088">
        <ele>103</ele>
        <time>2018-09-30T07:23:03Z</time>
      </trkpt>
      <trkpt lat="44.08208" lon="4.83099">
        <ele>102</ele>
        <time>2018-09-30T07:23:05Z</time>
      </trkpt>
      <trkpt lat="44.08207" lon="4.83107">
        <ele>101</ele>
        <time>2018-09-30T07:23:08Z</time>
      </trkpt>
      <trkpt lat="44.08207" lon="4.83108">
        <ele>101</ele>
        <time>2018-09-30T07:23:11Z</time>
      </trkpt>
      <trkpt lat="44.08207" lon="4.83108">
        <ele>100</ele>
        <time>2018-09-30T07:23:13Z</time>
      </trkpt>
      <trkpt lat="44.08207" lon="4.83109">
        <ele>100</ele>
        <time>2018-09-30T07:23:15Z</time>
      </trkpt>
      <trkpt lat="44.08207" lon="4.83109">
        <ele>100</ele>
        <time>2018-09-30T07:23:18Z</time>
      </trkpt>
      <trkpt lat="44.08207" lon="4.83109">
        <ele>100</ele>
        <time>2018-09-30T07:23:21Z</time>
      </trkpt>
      <trkpt lat="44.08207" lon="4.83109">
        <ele>100</ele>
        <time>2018-09-30T07:23:24Z</time>
      </trkpt>
      <trkpt lat="44.08207" lon="4.83109">
        <ele>100</ele>
        <time>2018-09-30T07:23:32Z</time>
      </trkpt>
      <trkpt lat="44.08207" lon="4.83109">
        <ele>100</ele>
        <time>2018-09-30T07:23:36Z</time>
      </trkpt>
      <trkpt lat="44.08207" lon="4.83109">
        <ele>100</ele>
        <time>2018-09-30T07:23:39Z</time>
      </trkpt>
      <trkpt lat="44.08207" lon="4.83109">
        <ele>100</ele>
        <time>2018-09-30T07:23:41Z</time>
      </trkpt>
      <trkpt lat="44.08208" lon="4.8311">
        <ele>100</ele>
        <time>2018-09-30T07:23:43Z</time>
      </trkpt>
      <trkpt lat="44.08208" lon="4.83114">
        <ele>100</ele>
        <time>2018-09-30T07:23:46Z</time>
      </trkpt>
      <trkpt lat="44.08208" lon="4.8312">
        <ele>100</ele>
        <time>2018-09-30T07:23:48Z</time>
      </trkpt>
      <trkpt lat="44.08205" lon="4.83125">
        <ele>100</ele>
        <time>2018-09-30T07:23:50Z</time>
      </trkpt>
      <trkpt lat="44.08201" lon="4.83126">
        <ele>100</ele>
        <time>2018-09-30T07:23:52Z</time>
      </trkpt>
      <trkpt lat="44.08193" lon="4.83123">
        <ele>100</ele>
        <time>2018-09-30T07:23:55Z</time>
      </trkpt>
      <trkpt lat="44.08187" lon="4.83122">
        <ele>100</ele>
        <time>2018-09-30T07:23:57Z</time>
      </trkpt>
      <trkpt lat="44.08176" lon="4.83118">
        <ele>101</ele>
        <time>2018-09-30T07:24:00Z</time>
      </trkpt>
      <trkpt lat="44.08161" lon="4.83115">
        <ele>102</ele>
        <time>2018-09-30T07:24:03Z</time>
      </trkpt>
      <trkpt lat="44.0815" lon="4.83113">
        <ele>103</ele>
        <time>2018-09-30T07:24:05Z</time>
      </trkpt>
      <trkpt lat="44.08134" lon="4.83109">
        <ele>104</ele>
        <time>2018-09-30T07:24:08Z</time>
      </trkpt>
      <trkpt lat="44.08123" lon="4.83108">
        <ele>104</ele>
        <time>2018-09-30T07:24:10Z</time>
      </trkpt>
      <trkpt lat="44.08105" lon="4.83107">
        <ele>105</ele>
        <time>2018-09-30T07:24:13Z</time>
      </trkpt>
      <trkpt lat="44.08094" lon="4.83109">
        <ele>105</ele>
        <time>2018-09-30T07:24:15Z</time>
      </trkpt>
      <trkpt lat="44.08076" lon="4.83112">
        <ele>105</ele>
        <time>2018-09-30T07:24:18Z</time>
      </trkpt>
      <trkpt lat="44.08065" lon="4.83116">
        <ele>105</ele>
        <time>2018-09-30T07:24:20Z</time>
      </trkpt>
      <trkpt lat="44.08046" lon="4.83126">
        <ele>105</ele>
        <time>2018-09-30T07:24:23Z</time>
      </trkpt>
      <trkpt lat="44.08028" lon="4.83136">
        <ele>105</ele>
        <time>2018-09-30T07:24:26Z</time>
      </trkpt>
      <trkpt lat="44.08008" lon="4.83145">
        <ele>105</ele>
        <time>2018-09-30T07:24:29Z</time>
      </trkpt>
      <trkpt lat="44.07987" lon="4.83153">
        <ele>105</ele>
        <time>2018-09-30T07:24:32Z</time>
      </trkpt>
      <trkpt lat="44.07967" lon="4.83163">
        <ele>104</ele>
        <time>2018-09-30T07:24:35Z</time>
      </trkpt>
      <trkpt lat="44.07946" lon="4.83172">
        <ele>104</ele>
        <time>2018-09-30T07:24:38Z</time>
      </trkpt>
      <trkpt lat="44.07925" lon="4.83181">
        <ele>104</ele>
        <time>2018-09-30T07:24:41Z</time>
      </trkpt>
      <trkpt lat="44.0791" lon="4.83185">
        <ele>103</ele>
        <time>2018-09-30T07:24:43Z</time>
      </trkpt>
      <trkpt lat="44.07895" lon="4.8319">
        <ele>103</ele>
        <time>2018-09-30T07:24:45Z</time>
      </trkpt>
      <trkpt lat="44.07872" lon="4.83197">
        <ele>102</ele>
        <time>2018-09-30T07:24:48Z</time>
      </trkpt>
      <trkpt lat="44.07856" lon="4.83202">
        <ele>101</ele>
        <time>2018-09-30T07:24:50Z</time>
      </trkpt>
      <trkpt lat="44.07832" lon="4.8321">
        <ele>101</ele>
        <time>2018-09-30T07:24:53Z</time>
      </trkpt>
      <trkpt lat="44.07815" lon="4.83215">
        <ele>101</ele>
        <time>2018-09-30T07:24:55Z</time>
      </trkpt>
      <trkpt lat="44.07798" lon="4.8322">
        <ele>101</ele>
        <time>2018-09-30T07:24:57Z</time>
      </trkpt>
      <trkpt lat="44.07772" lon="4.83229">
        <ele>101</ele>
        <time>2018-09-30T07:25:00Z</time>
      </trkpt>
      <trkpt lat="44.07748" lon="4.83238">
        <ele>100</ele>
        <time>2018-09-30T07:25:03Z</time>
      </trkpt>
      <trkpt lat="44.07731" lon="4.83244">
        <ele>100</ele>
        <time>2018-09-30T07:25:05Z</time>
      </trkpt>
      <trkpt lat="44.07707" lon="4.83253">
        <ele>100</ele>
        <time>2018-09-30T07:25:08Z</time>
      </trkpt>
      <trkpt lat="44.07683" lon="4.83261">
        <ele>100</ele>
        <time>2018-09-30T07:25:11Z</time>
      </trkpt>
      <trkpt lat="44.07668" lon="4.83266">
        <ele>100</ele>
        <time>2018-09-30T07:25:13Z</time>
      </trkpt>
      <trkpt lat="44.07652" lon="4.8327">
        <ele>99</ele>
        <time>2018-09-30T07:25:15Z</time>
      </trkpt>
      <trkpt lat="44.07637" lon="4.83272">
        <ele>99</ele>
        <time>2018-09-30T07:25:17Z</time>
      </trkpt>
      <trkpt lat="44.07614" lon="4.83275">
        <ele>99</ele>
        <time>2018-09-30T07:25:20Z</time>
      </trkpt>
      <trkpt lat="44.0759" lon="4.83278">
        <ele>99</ele>
        <time>2018-09-30T07:25:23Z</time>
      </trkpt>
      <trkpt lat="44.07566" lon="4.83281">
        <ele>99</ele>
        <time>2018-09-30T07:25:26Z</time>
      </trkpt>
      <trkpt lat="44.0755" lon="4.83283">
        <ele>99</ele>
        <time>2018-09-30T07:25:28Z</time>
      </trkpt>
      <trkpt lat="44.07527" lon="4.83285">
        <ele>99</ele>
        <time>2018-09-30T07:25:31Z</time>
      </trkpt>
      <trkpt lat="44.07504" lon="4.83286">
        <ele>98</ele>
        <time>2018-09-30T07:25:34Z</time>
      </trkpt>
      <trkpt lat="44.07481" lon="4.83288">
        <ele>98</ele>
        <time>2018-09-30T07:25:37Z</time>
      </trkpt>
      <trkpt lat="44.07466" lon="4.83289">
        <ele>98</ele>
        <time>2018-09-30T07:25:39Z</time>
      </trkpt>
      <trkpt lat="44.07443" lon="4.83291">
        <ele>99</ele>
        <time>2018-09-30T07:25:42Z</time>
      </trkpt>
      <trkpt lat="44.07428" lon="4.83292">
        <ele>99</ele>
        <time>2018-09-30T07:25:44Z</time>
      </trkpt>
      <trkpt lat="44.07407" lon="4.83295">
        <ele>98</ele>
        <time>2018-09-30T07:25:47Z</time>
      </trkpt>
      <trkpt lat="44.07387" lon="4.833">
        <ele>97</ele>
        <time>2018-09-30T07:25:50Z</time>
      </trkpt>
      <trkpt lat="44.07374" lon="4.83303">
        <ele>98</ele>
        <time>2018-09-30T07:25:52Z</time>
      </trkpt>
      <trkpt lat="44.07361" lon="4.83307">
        <ele>98</ele>
        <time>2018-09-30T07:25:54Z</time>
      </trkpt>
      <trkpt lat="44.07343" lon="4.83312">
        <ele>99</ele>
        <time>2018-09-30T07:25:57Z</time>
      </trkpt>
      <trkpt lat="44.07326" lon="4.83317">
        <ele>99</ele>
        <time>2018-09-30T07:26:00Z</time>
      </trkpt>
      <trkpt lat="44.07315" lon="4.8332">
        <ele>99</ele>
        <time>2018-09-30T07:26:02Z</time>
      </trkpt>
      <trkpt lat="44.07304" lon="4.83324">
        <ele>100</ele>
        <time>2018-09-30T07:26:04Z</time>
      </trkpt>
      <trkpt lat="44.07288" lon="4.83328">
        <ele>100</ele>
        <time>2018-09-30T07:26:07Z</time>
      </trkpt>
      <trkpt lat="44.07278" lon="4.83331">
        <ele>100</ele>
        <time>2018-09-30T07:26:09Z</time>
      </trkpt>
      <trkpt lat="44.07263" lon="4.83335">
        <ele>101</ele>
        <time>2018-09-30T07:26:12Z</time>
      </trkpt>
      <trkpt lat="44.07252" lon="4.83338">
        <ele>102</ele>
        <time>2018-09-30T07:26:14Z</time>
      </trkpt>
      <trkpt lat="44.07242" lon="4.83341">
        <ele>102</ele>
        <time>2018-09-30T07:26:16Z</time>
      </trkpt>
      <trkpt lat="44.07232" lon="4.83344">
        <ele>103</ele>
        <time>2018-09-30T07:26:18Z</time>
      </trkpt>
      <trkpt lat="44.07217" lon="4.83348">
        <ele>103</ele>
        <time>2018-09-30T07:26:21Z</time>
      </trkpt>
      <trkpt lat="44.07207" lon="4.83351">
        <ele>104</ele>
        <time>2018-09-30T07:26:23Z</time>
      </trkpt>
      <trkpt lat="44.07197" lon="4.83353">
        <ele>104</ele>
        <time>2018-09-30T07:26:25Z</time>
      </trkpt>
      <trkpt lat="44.07187" lon="4.83356">
        <ele>105</ele>
        <time>2018-09-30T07:26:27Z</time>
      </trkpt>
      <trkpt lat="44.07171" lon="4.83359">
        <ele>106</ele>
        <time>2018-09-30T07:26:30Z</time>
      </trkpt>
      <trkpt lat="44.07161" lon="4.83361">
        <ele>107</ele>
        <time>2018-09-30T07:26:32Z</time>
      </trkpt>
      <trkpt lat="44.07145" lon="4.83361">
        <ele>108</ele>
        <time>2018-09-30T07:26:35Z</time>
      </trkpt>
      <trkpt lat="44.07136" lon="4.8336">
        <ele>109</ele>
        <time>2018-09-30T07:26:37Z</time>
      </trkpt>
      <trkpt lat="44.07126" lon="4.83359">
        <ele>109</ele>
        <time>2018-09-30T07:26:39Z</time>
      </trkpt>
      <trkpt lat="44.07111" lon="4.83356">
        <ele>110</ele>
        <time>2018-09-30T07:26:42Z</time>
      </trkpt>
      <trkpt lat="44.07097" lon="4.8335">
        <ele>111</ele>
        <time>2018-09-30T07:26:45Z</time>
      </trkpt>
      <trkpt lat="44.07082" lon="4.83343">
        <ele>111</ele>
        <time>2018-09-30T07:26:48Z</time>
      </trkpt>
      <trkpt lat="44.07073" lon="4.83338">
        <ele>112</ele>
        <time>2018-09-30T07:26:50Z</time>
      </trkpt>
      <trkpt lat="44.07059" lon="4.83327">
        <ele>113</ele>
        <time>2018-09-30T07:26:53Z</time>
      </trkpt>
      <trkpt lat="44.07046" lon="4.83314">
        <ele>113</ele>
        <time>2018-09-30T07:26:56Z</time>
      </trkpt>
      <trkpt lat="44.07032" lon="4.833">
        <ele>114</ele>
        <time>2018-09-30T07:26:59Z</time>
      </trkpt>
      <trkpt lat="44.07018" lon="4.83284">
        <ele>115</ele>
        <time>2018-09-30T07:27:02Z</time>
      </trkpt>
      <trkpt lat="44.07008" lon="4.83273">
        <ele>115</ele>
        <time>2018-09-30T07:27:04Z</time>
      </trkpt>
      <trkpt lat="44.06992" lon="4.83255">
        <ele>115</ele>
        <time>2018-09-30T07:27:07Z</time>
      </trkpt>
      <trkpt lat="44.06976" lon="4.83237">
        <ele>115</ele>
        <time>2018-09-30T07:27:10Z</time>
      </trkpt>
      <trkpt lat="44.0696" lon="4.83219">
        <ele>115</ele>
        <time>2018-09-30T07:27:13Z</time>
      </trkpt>
      <trkpt lat="44.06945" lon="4.83201">
        <ele>114</ele>
        <time>2018-09-30T07:27:16Z</time>
      </trkpt>
      <trkpt lat="44.0693" lon="4.83184">
        <ele>114</ele>
        <time>2018-09-30T07:27:19Z</time>
      </trkpt>
      <trkpt lat="44.06915" lon="4.83168">
        <ele>113</ele>
        <time>2018-09-30T07:27:22Z</time>
      </trkpt>
      <trkpt lat="44.069" lon="4.8315">
        <ele>114</ele>
        <time>2018-09-30T07:27:25Z</time>
      </trkpt>
      <trkpt lat="44.06885" lon="4.83133">
        <ele>114</ele>
        <time>2018-09-30T07:27:28Z</time>
      </trkpt>
      <trkpt lat="44.06874" lon="4.83121">
        <ele>115</ele>
        <time>2018-09-30T07:27:30Z</time>
      </trkpt>
      <trkpt lat="44.06864" lon="4.83109">
        <ele>115</ele>
        <time>2018-09-30T07:27:32Z</time>
      </trkpt>
      <trkpt lat="44.0685" lon="4.8309">
        <ele>115</ele>
        <time>2018-09-30T07:27:35Z</time>
      </trkpt>
      <trkpt lat="44.0684" lon="4.83079">
        <ele>115</ele>
        <time>2018-09-30T07:27:37Z</time>
      </trkpt>
      <trkpt lat="44.06824" lon="4.83061">
        <ele>115</ele>
        <time>2018-09-30T07:27:40Z</time>
      </trkpt>
      <trkpt lat="44.06813" lon="4.8305">
        <ele>116</ele>
        <time>2018-09-30T07:27:42Z</time>
      </trkpt>
      <trkpt lat="44.06797" lon="4.83035">
        <ele>116</ele>
        <time>2018-09-30T07:27:45Z</time>
      </trkpt>
      <trkpt lat="44.06786" lon="4.83025">
        <ele>116</ele>
        <time>2018-09-30T07:27:47Z</time>
      </trkpt>
      <trkpt lat="44.06774" lon="4.83014">
        <ele>116</ele>
        <time>2018-09-30T07:27:49Z</time>
      </trkpt>
      <trkpt lat="44.06757" lon="4.82999">
        <ele>116</ele>
        <time>2018-09-30T07:27:52Z</time>
      </trkpt>
      <trkpt lat="44.06744" lon="4.82988">
        <ele>116</ele>
        <time>2018-09-30T07:27:54Z</time>
      </trkpt>
      <trkpt lat="44.06725" lon="4.82971">
        <ele>114</ele>
        <time>2018-09-30T07:27:57Z</time>
      </trkpt>
      <trkpt lat="44.06705" lon="4.82955">
        <ele>114</ele>
        <time>2018-09-30T07:28:00Z</time>
      </trkpt>
      <trkpt lat="44.06684" lon="4.82939">
        <ele>114</ele>
        <time>2018-09-30T07:28:03Z</time>
      </trkpt>
      <trkpt lat="44.06661" lon="4.82924">
        <ele>117</ele>
        <time>2018-09-30T07:28:06Z</time>
      </trkpt>
      <trkpt lat="44.06639" lon="4.82908">
        <ele>117</ele>
        <time>2018-09-30T07:28:09Z</time>
      </trkpt>
      <trkpt lat="44.06615" lon="4.82893">
        <ele>116</ele>
        <time>2018-09-30T07:28:12Z</time>
      </trkpt>
      <trkpt lat="44.0659" lon="4.82882">
        <ele>116</ele>
        <time>2018-09-30T07:28:15Z</time>
      </trkpt>
      <trkpt lat="44.06572" lon="4.82878">
        <ele>116</ele>
        <time>2018-09-30T07:28:17Z</time>
      </trkpt>
      <trkpt lat="44.06546" lon="4.82874">
        <ele>115</ele>
        <time>2018-09-30T07:28:20Z</time>
      </trkpt>
      <trkpt lat="44.06529" lon="4.82873">
        <ele>114</ele>
        <time>2018-09-30T07:28:22Z</time>
      </trkpt>
      <trkpt lat="44.06503" lon="4.82872">
        <ele>114</ele>
        <time>2018-09-30T07:28:25Z</time>
      </trkpt>
      <trkpt lat="44.06477" lon="4.8287">
        <ele>113</ele>
        <time>2018-09-30T07:28:28Z</time>
      </trkpt>
      <trkpt lat="44.06449" lon="4.82868">
        <ele>112</ele>
        <time>2018-09-30T07:28:31Z</time>
      </trkpt>
      <trkpt lat="44.0642" lon="4.82866">
        <ele>111</ele>
        <time>2018-09-30T07:28:34Z</time>
      </trkpt>
      <trkpt lat="44.06399" lon="4.82865">
        <ele>111</ele>
        <time>2018-09-30T07:28:36Z</time>
      </trkpt>
      <trkpt lat="44.06365" lon="4.82864">
        <ele>110</ele>
        <time>2018-09-30T07:28:39Z</time>
      </trkpt>
      <trkpt lat="44.0633" lon="4.82864">
        <ele>109</ele>
        <time>2018-09-30T07:28:42Z</time>
      </trkpt>
      <trkpt lat="44.06306" lon="4.82865">
        <ele>108</ele>
        <time>2018-09-30T07:28:44Z</time>
      </trkpt>
      <trkpt lat="44.06271" lon="4.82865">
        <ele>107</ele>
        <time>2018-09-30T07:28:47Z</time>
      </trkpt>
      <trkpt lat="44.06237" lon="4.82867">
        <ele>105</ele>
        <time>2018-09-30T07:28:50Z</time>
      </trkpt>
      <trkpt lat="44.06216" lon="4.8287">
        <ele>103</ele>
        <time>2018-09-30T07:28:52Z</time>
      </trkpt>
      <trkpt lat="44.06185" lon="4.82872">
        <ele>102</ele>
        <time>2018-09-30T07:28:55Z</time>
      </trkpt>
      <trkpt lat="44.06172" lon="4.82861">
        <ele>100</ele>
        <time>2018-09-30T07:28:57Z</time>
      </trkpt>
      <trkpt lat="44.06162" lon="4.82853">
        <ele>99</ele>
        <time>2018-09-30T07:28:59Z</time>
      </trkpt>
      <trkpt lat="44.06153" lon="4.82871">
        <ele>97</ele>
        <time>2018-09-30T07:29:02Z</time>
      </trkpt>
      <trkpt lat="44.06137" lon="4.82882">
        <ele>96</ele>
        <time>2018-09-30T07:29:05Z</time>
      </trkpt>
      <trkpt lat="44.06122" lon="4.82885">
        <ele>95</ele>
        <time>2018-09-30T07:29:07Z</time>
      </trkpt>
      <trkpt lat="44.06107" lon="4.82888">
        <ele>95</ele>
        <time>2018-09-30T07:29:09Z</time>
      </trkpt>
      <trkpt lat="44.06084" lon="4.82893">
        <ele>95</ele>
        <time>2018-09-30T07:29:12Z</time>
      </trkpt>
      <trkpt lat="44.0606" lon="4.829">
        <ele>95</ele>
        <time>2018-09-30T07:29:15Z</time>
      </trkpt>
      <trkpt lat="44.06037" lon="4.82913">
        <ele>96</ele>
        <time>2018-09-30T07:29:18Z</time>
      </trkpt>
      <trkpt lat="44.06014" lon="4.82926">
        <ele>95</ele>
        <time>2018-09-30T07:29:21Z</time>
      </trkpt>
      <trkpt lat="44.05991" lon="4.82939">
        <ele>94</ele>
        <time>2018-09-30T07:29:24Z</time>
      </trkpt>
      <trkpt lat="44.05975" lon="4.82948">
        <ele>93</ele>
        <time>2018-09-30T07:29:26Z</time>
      </trkpt>
      <trkpt lat="44.05953" lon="4.82961">
        <ele>91</ele>
        <time>2018-09-30T07:29:29Z</time>
      </trkpt>
      <trkpt lat="44.05939" lon="4.8297">
        <ele>91</ele>
        <time>2018-09-30T07:29:31Z</time>
      </trkpt>
      <trkpt lat="44.05926" lon="4.8298">
        <ele>90</ele>
        <time>2018-09-30T07:29:33Z</time>
      </trkpt>
      <trkpt lat="44.05907" lon="4.82994">
        <ele>89</ele>
        <time>2018-09-30T07:29:36Z</time>
      </trkpt>
      <trkpt lat="44.05894" lon="4.83005">
        <ele>87</ele>
        <time>2018-09-30T07:29:38Z</time>
      </trkpt>
      <trkpt lat="44.0588" lon="4.83014">
        <ele>86</ele>
        <time>2018-09-30T07:29:40Z</time>
      </trkpt>
      <trkpt lat="44.05857" lon="4.83027">
        <ele>85</ele>
        <time>2018-09-30T07:29:43Z</time>
      </trkpt>
      <trkpt lat="44.05844" lon="4.83035">
        <ele>84</ele>
        <time>2018-09-30T07:29:45Z</time>
      </trkpt>
      <trkpt lat="44.05827" lon="4.83048">
        <ele>83</ele>
        <time>2018-09-30T07:29:48Z</time>
      </trkpt>
      <trkpt lat="44.05813" lon="4.8307">
        <ele>81</ele>
        <time>2018-09-30T07:29:51Z</time>
      </trkpt>
      <trkpt lat="44.05797" lon="4.83092">
        <ele>81</ele>
        <time>2018-09-30T07:29:54Z</time>
      </trkpt>
      <trkpt lat="44.05787" lon="4.83106">
        <ele>80</ele>
        <time>2018-09-30T07:29:56Z</time>
      </trkpt>
      <trkpt lat="44.05786" lon="4.83127">
        <ele>79</ele>
        <time>2018-09-30T07:29:59Z</time>
      </trkpt>
      <trkpt lat="44.05793" lon="4.83138">
        <ele>79</ele>
        <time>2018-09-30T07:30:01Z</time>
      </trkpt>
      <trkpt lat="44.05803" lon="4.83147">
        <ele>78</ele>
        <time>2018-09-30T07:30:03Z</time>
      </trkpt>
      <trkpt lat="44.0582" lon="4.83162">
        <ele>77</ele>
        <time>2018-09-30T07:30:06Z</time>
      </trkpt>
      <trkpt lat="44.05838" lon="4.83182">
        <ele>75</ele>
        <time>2018-09-30T07:30:09Z</time>
      </trkpt>
      <trkpt lat="44.05846" lon="4.83196">
        <ele>74</ele>
        <time>2018-09-30T07:30:11Z</time>
      </trkpt>
      <trkpt lat="44.05846" lon="4.83216">
        <ele>71</ele>
        <time>2018-09-30T07:30:14Z</time>
      </trkpt>
      <trkpt lat="44.05838" lon="4.83227">
        <ele>69</ele>
        <time>2018-09-30T07:30:16Z</time>
      </trkpt>
      <trkpt lat="44.05828" lon="4.83235">
        <ele>69</ele>
        <time>2018-09-30T07:30:18Z</time>
      </trkpt>
      <trkpt lat="44.0581" lon="4.83248">
        <ele>68</ele>
        <time>2018-09-30T07:30:21Z</time>
      </trkpt>
      <trkpt lat="44.05798" lon="4.83249">
        <ele>67</ele>
        <time>2018-09-30T07:30:23Z</time>
      </trkpt>
      <trkpt lat="44.05784" lon="4.83246">
        <ele>67</ele>
        <time>2018-09-30T07:30:26Z</time>
      </trkpt>
      <trkpt lat="44.0577" lon="4.8324">
        <ele>66</ele>
        <time>2018-09-30T07:30:29Z</time>
      </trkpt>
      <trkpt lat="44.05756" lon="4.83234">
        <ele>66</ele>
        <time>2018-09-30T07:30:32Z</time>
      </trkpt>
      <trkpt lat="44.0574" lon="4.83228">
        <ele>67</ele>
        <time>2018-09-30T07:30:35Z</time>
      </trkpt>
      <trkpt lat="44.05731" lon="4.83225">
        <ele>67</ele>
        <time>2018-09-30T07:30:37Z</time>
      </trkpt>
      <trkpt lat="44.05716" lon="4.83221">
        <ele>66</ele>
        <time>2018-09-30T07:30:40Z</time>
      </trkpt>
      <trkpt lat="44.05706" lon="4.83218">
        <ele>67</ele>
        <time>2018-09-30T07:30:42Z</time>
      </trkpt>
      <trkpt lat="44.05691" lon="4.83219">
        <ele>66</ele>
        <time>2018-09-30T07:30:45Z</time>
      </trkpt>
      <trkpt lat="44.05679" lon="4.83219">
        <ele>66</ele>
        <time>2018-09-30T07:30:47Z</time>
      </trkpt>
      <trkpt lat="44.05665" lon="4.83215">
        <ele>65</ele>
        <time>2018-09-30T07:30:50Z</time>
      </trkpt>
      <trkpt lat="44.05652" lon="4.83207">
        <ele>64</ele>
        <time>2018-09-30T07:30:53Z</time>
      </trkpt>
      <trkpt lat="44.05638" lon="4.83204">
        <ele>64</ele>
        <time>2018-09-30T07:30:56Z</time>
      </trkpt>
      <trkpt lat="44.05623" lon="4.83201">
        <ele>65</ele>
        <time>2018-09-30T07:30:59Z</time>
      </trkpt>
      <trkpt lat="44.05613" lon="4.83196">
        <ele>65</ele>
        <time>2018-09-30T07:31:01Z</time>
      </trkpt>
      <trkpt lat="44.05599" lon="4.83188">
        <ele>66</ele>
        <time>2018-09-30T07:31:04Z</time>
      </trkpt>
      <trkpt lat="44.05592" lon="4.83181">
        <ele>65</ele>
        <time>2018-09-30T07:31:06Z</time>
      </trkpt>
      <trkpt lat="44.05584" lon="4.83175">
        <ele>64</ele>
        <time>2018-09-30T07:31:09Z</time>
      </trkpt>
      <trkpt lat="44.05583" lon="4.83175">
        <ele>64</ele>
        <time>2018-09-30T07:31:12Z</time>
      </trkpt>
      <trkpt lat="44.05583" lon="4.83174">
        <ele>63</ele>
        <time>2018-09-30T07:31:15Z</time>
      </trkpt>
      <trkpt lat="44.05583" lon="4.83174">
        <ele>64</ele>
        <time>2018-09-30T07:31:17Z</time>
      </trkpt>
      <trkpt lat="44.05583" lon="4.83174">
        <ele>64</ele>
        <time>2018-09-30T07:31:20Z</time>
      </trkpt>
      <trkpt lat="44.05583" lon="4.83174">
        <ele>64</ele>
        <time>2018-09-30T07:31:22Z</time>
      </trkpt>
      <trkpt lat="44.05583" lon="4.83173">
        <ele>64</ele>
        <time>2018-09-30T07:31:24Z</time>
      </trkpt>
      <trkpt lat="44.05583" lon="4.83173">
        <ele>63</ele>
        <time>2018-09-30T07:31:27Z</time>
      </trkpt>
      <trkpt lat="44.05583" lon="4.83174">
        <ele>63</ele>
        <time>2018-09-30T07:31:30Z</time>
      </trkpt>
      <trkpt lat="44.05583" lon="4.83174">
        <ele>63</ele>
        <time>2018-09-30T07:31:33Z</time>
      </trkpt>
      <trkpt lat="44.05584" lon="4.83174">
        <ele>64</ele>
        <time>2018-09-30T07:31:36Z</time>
      </trkpt>
      <trkpt lat="44.05584" lon="4.83174">
        <ele>63</ele>
        <time>2018-09-30T07:31:38Z</time>
      </trkpt>
      <trkpt lat="44.05584" lon="4.83174">
        <ele>63</ele>
        <time>2018-09-30T07:31:41Z</time>
      </trkpt>
      <trkpt lat="44.05585" lon="4.83174">
        <ele>63</ele>
        <time>2018-09-30T07:31:43Z</time>
      </trkpt>
      <trkpt lat="44.05585" lon="4.83174">
        <ele>63</ele>
        <time>2018-09-30T07:31:47Z</time>
      </trkpt>
      <trkpt lat="44.05585" lon="4.83174">
        <ele>63</ele>
        <time>2018-09-30T07:31:50Z</time>
      </trkpt>
      <trkpt lat="44.05585" lon="4.83174">
        <ele>64</ele>
        <time>2018-09-30T07:31:52Z</time>
      </trkpt>
      <trkpt lat="44.05585" lon="4.83174">
        <ele>64</ele>
        <time>2018-09-30T07:31:55Z</time>
      </trkpt>
      <trkpt lat="44.05585" lon="4.83174">
        <ele>63</ele>
        <time>2018-09-30T07:31:58Z</time>
      </trkpt>
      <trkpt lat="44.05585" lon="4.83174">
        <ele>63</ele>
        <time>2018-09-30T07:32:00Z</time>
      </trkpt>
      <trkpt lat="44.05585" lon="4.83174">
        <ele>63</ele>
        <time>2018-09-30T07:32:03Z</time>
      </trkpt>
      <trkpt lat="44.05585" lon="4.83174">
        <ele>63</ele>
        <time>2018-09-30T07:32:07Z</time>
      </trkpt>
      <trkpt lat="44.05585" lon="4.83174">
        <ele>63</ele>
        <time>2018-09-30T07:32:10Z</time>
      </trkpt>
      <trkpt lat="44.05585" lon="4.83174">
        <ele>64</ele>
        <time>2018-09-30T07:32:12Z</time>
      </trkpt>
      <trkpt lat="44.05585" lon="4.83174">
        <ele>64</ele>
        <time>2018-09-30T07:32:14Z</time>
      </trkpt>
      <trkpt lat="44.05585" lon="4.83174">
        <ele>64</ele>
        <time>2018-09-30T07:32:16Z</time>
      </trkpt>
      <trkpt lat="44.05585" lon="4.83174">
        <ele>63</ele>
        <time>2018-09-30T07:32:24Z</time>
      </trkpt>
      <trkpt lat="44.05586" lon="4.83174">
        <ele>63</ele>
        <time>2018-09-30T07:32:27Z</time>
      </trkpt>
      <trkpt lat="44.05586" lon="4.83174">
        <ele>63</ele>
        <time>2018-09-30T07:32:29Z</time>
      </trkpt>
      <trkpt lat="44.05586" lon="4.83174">
        <ele>63</ele>
        <time>2018-09-30T07:32:32Z</time>
      </trkpt>
      <trkpt lat="44.05587" lon="4.83174">
        <ele>63</ele>
        <time>2018-09-30T07:32:34Z</time>
      </trkpt>
      <trkpt lat="44.05589" lon="4.83176">
        <ele>63</ele>
        <time>2018-09-30T07:32:36Z</time>
      </trkpt>
      <trkpt lat="44.0559" lon="4.83178">
        <ele>64</ele>
        <time>2018-09-30T07:32:39Z</time>
      </trkpt>
      <trkpt lat="44.0559" lon="4.83178">
        <ele>64</ele>
        <time>2018-09-30T07:32:41Z</time>
      </trkpt>
      <trkpt lat="44.05591" lon="4.83178">
        <ele>63</ele>
        <time>2018-09-30T07:32:44Z</time>
      </trkpt>
      <trkpt lat="44.05593" lon="4.83181">
        <ele>63</ele>
        <time>2018-09-30T07:32:47Z</time>
      </trkpt>
      <trkpt lat="44.05595" lon="4.83183">
        <ele>64</ele>
        <time>2018-09-30T07:32:49Z</time>
      </trkpt>
      <trkpt lat="44.05597" lon="4.83187">
        <ele>64</ele>
        <time>2018-09-30T07:32:52Z</time>
      </trkpt>
      <trkpt lat="44.056" lon="4.8319">
        <ele>64</ele>
        <time>2018-09-30T07:32:54Z</time>
      </trkpt>
      <trkpt lat="44.05602" lon="4.83192">
        <ele>63</ele>
        <time>2018-09-30T07:32:56Z</time>
      </trkpt>
      <trkpt lat="44.05605" lon="4.83193">
        <ele>63</ele>
        <time>2018-09-30T07:32:59Z</time>
      </trkpt>
      <trkpt lat="44.05608" lon="4.83194">
        <ele>63</ele>
        <time>2018-09-30T07:33:01Z</time>
      </trkpt>
      <trkpt lat="44.05611" lon="4.83195">
        <ele>63</ele>
        <time>2018-09-30T07:33:03Z</time>
      </trkpt>
      <trkpt lat="44.05615" lon="4.83196">
        <ele>63</ele>
        <time>2018-09-30T07:33:06Z</time>
      </trkpt>
      <trkpt lat="44.05619" lon="4.83197">
        <ele>63</ele>
        <time>2018-09-30T07:33:08Z</time>
      </trkpt>
      <trkpt lat="44.05621" lon="4.83198">
        <ele>63</ele>
        <time>2018-09-30T07:33:10Z</time>
      </trkpt>
      <trkpt lat="44.05626" lon="4.83201">
        <ele>63</ele>
        <time>2018-09-30T07:33:13Z</time>
      </trkpt>
      <trkpt lat="44.0563" lon="4.83203">
        <ele>64</ele>
        <time>2018-09-30T07:33:15Z</time>
      </trkpt>
      <trkpt lat="44.05636" lon="4.83205">
        <ele>64</ele>
        <time>2018-09-30T07:33:18Z</time>
      </trkpt>
      <trkpt lat="44.05642" lon="4.83207">
        <ele>64</ele>
        <time>2018-09-30T07:33:21Z</time>
      </trkpt>
      <trkpt lat="44.05646" lon="4.83209">
        <ele>63</ele>
        <time>2018-09-30T07:33:23Z</time>
      </trkpt>
      <trkpt lat="44.0565" lon="4.83211">
        <ele>63</ele>
        <time>2018-09-30T07:33:25Z</time>
      </trkpt>
      <trkpt lat="44.05654" lon="4.83212">
        <ele>64</ele>
        <time>2018-09-30T07:33:27Z</time>
      </trkpt>
      <trkpt lat="44.0566" lon="4.83215">
        <ele>64</ele>
        <time>2018-09-30T07:33:30Z</time>
      </trkpt>
      <trkpt lat="44.05664" lon="4.83217">
        <ele>64</ele>
        <time>2018-09-30T07:33:32Z</time>
      </trkpt>
      <trkpt lat="44.05667" lon="4.83221">
        <ele>63</ele>
        <time>2018-09-30T07:33:35Z</time>
      </trkpt>
      <trkpt lat="44.05667" lon="4.83222">
        <ele>63</ele>
        <time>2018-09-30T07:33:38Z</time>
      </trkpt>
      <trkpt lat="44.05668" lon="4.83222">
        <ele>63</ele>
        <time>2018-09-30T07:33:41Z</time>
      </trkpt>
      <trkpt lat="44.05668" lon="4.83222">
        <ele>63</ele>
        <time>2018-09-30T07:33:43Z</time>
      </trkpt>
      <trkpt lat="44.05669" lon="4.83222">
        <ele>63</ele>
        <time>2018-09-30T07:33:45Z</time>
      </trkpt>
      <trkpt lat="44.05669" lon="4.83222">
        <ele>63</ele>
        <time>2018-09-30T07:33:49Z</time>
      </trkpt>
      <trkpt lat="44.05669" lon="4.83223">
        <ele>63</ele>
        <time>2018-09-30T07:33:52Z</time>
      </trkpt>
      <trkpt lat="44.05669" lon="4.83223">
        <ele>63</ele>
        <time>2018-09-30T07:33:54Z</time>
      </trkpt>
      <trkpt lat="44.05669" lon="4.83225">
        <ele>63</ele>
        <time>2018-09-30T07:33:57Z</time>
      </trkpt>
      <trkpt lat="44.05671" lon="4.83228">
        <ele>63</ele>
        <time>2018-09-30T07:33:59Z</time>
      </trkpt>
      <trkpt lat="44.05673" lon="4.83233">
        <ele>63</ele>
        <time>2018-09-30T07:34:01Z</time>
      </trkpt>
      <trkpt lat="44.05678" lon="4.83242">
        <ele>63</ele>
        <time>2018-09-30T07:34:03Z</time>
      </trkpt>
      <trkpt lat="44.05685" lon="4.83254">
        <ele>63</ele>
        <time>2018-09-30T07:34:05Z</time>
      </trkpt>
      <trkpt lat="44.057" lon="4.83274">
        <ele>63</ele>
        <time>2018-09-30T07:34:08Z</time>
      </trkpt>
      <trkpt lat="44.05711" lon="4.83287">
        <ele>63</ele>
        <time>2018-09-30T07:34:10Z</time>
      </trkpt>
      <trkpt lat="44.05731" lon="4.83308">
        <ele>63</ele>
        <time>2018-09-30T07:34:13Z</time>
      </trkpt>
      <trkpt lat="44.05744" lon="4.8332">
        <ele>63</ele>
        <time>2018-09-30T07:34:15Z</time>
      </trkpt>
      <trkpt lat="44.05764" lon="4.83337">
        <ele>62</ele>
        <time>2018-09-30T07:34:18Z</time>
      </trkpt>
      <trkpt lat="44.05776" lon="4.8335">
        <ele>62</ele>
        <time>2018-09-30T07:34:20Z</time>
      </trkpt>
      <trkpt lat="44.05792" lon="4.83371">
        <ele>61</ele>
        <time>2018-09-30T07:34:23Z</time>
      </trkpt>
      <trkpt lat="44.05809" lon="4.83392">
        <ele>61</ele>
        <time>2018-09-30T07:34:26Z</time>
      </trkpt>
      <trkpt lat="44.0582" lon="4.83406">
        <ele>60</ele>
        <time>2018-09-30T07:34:28Z</time>
      </trkpt>
      <trkpt lat="44.05836" lon="4.83429">
        <ele>60</ele>
        <time>2018-09-30T07:34:31Z</time>
      </trkpt>
      <trkpt lat="44.05851" lon="4.83452">
        <ele>59</ele>
        <time>2018-09-30T07:34:34Z</time>
      </trkpt>
      <trkpt lat="44.05861" lon="4.83466">
        <ele>59</ele>
        <time>2018-09-30T07:34:36Z</time>
      </trkpt>
      <trkpt lat="44.0587" lon="4.83481">
        <ele>60</ele>
        <time>2018-09-30T07:34:38Z</time>
      </trkpt>
      <trkpt lat="44.0588" lon="4.83495">
        <ele>60</ele>
        <time>2018-09-30T07:34:40Z</time>
      </trkpt>
      <trkpt lat="44.05887" lon="4.83511">
        <ele>60</ele>
        <time>2018-09-30T07:34:42Z</time>
      </trkpt>
      <trkpt lat="44.05897" lon="4.83535">
        <ele>59</ele>
        <time>2018-09-30T07:34:45Z</time>
      </trkpt>
      <trkpt lat="44.05908" lon="4.83559">
        <ele>59</ele>
        <time>2018-09-30T07:34:48Z</time>
      </trkpt>
      <trkpt lat="44.05915" lon="4.83576">
        <ele>59</ele>
        <time>2018-09-30T07:34:50Z</time>
      </trkpt>
      <trkpt lat="44.05925" lon="4.83603">
        <ele>60</ele>
        <time>2018-09-30T07:34:53Z</time>
      </trkpt>
      <trkpt lat="44.05931" lon="4.8362">
        <ele>59</ele>
        <time>2018-09-30T07:34:55Z</time>
      </trkpt>
      <trkpt lat="44.05941" lon="4.83645">
        <ele>60</ele>
        <time>2018-09-30T07:34:58Z</time>
      </trkpt>
      <trkpt lat="44.05951" lon="4.83672">
        <ele>60</ele>
        <time>2018-09-30T07:35:01Z</time>
      </trkpt>
      <trkpt lat="44.05961" lon="4.83697">
        <ele>60</ele>
        <time>2018-09-30T07:35:04Z</time>
      </trkpt>
      <trkpt lat="44.05971" lon="4.83721">
        <ele>61</ele>
        <time>2018-09-30T07:35:07Z</time>
      </trkpt>
      <trkpt lat="44.05983" lon="4.83742">
        <ele>61</ele>
        <time>2018-09-30T07:35:10Z</time>
      </trkpt>
      <trkpt lat="44.05992" lon="4.83754">
        <ele>61</ele>
        <time>2018-09-30T07:35:12Z</time>
      </trkpt>
      <trkpt lat="44.06002" lon="4.83765">
        <ele>61</ele>
        <time>2018-09-30T07:35:14Z</time>
      </trkpt>
      <trkpt lat="44.06011" lon="4.83776">
        <ele>61</ele>
        <time>2018-09-30T07:35:16Z</time>
      </trkpt>
      <trkpt lat="44.06025" lon="4.83792">
        <ele>61</ele>
        <time>2018-09-30T07:35:19Z</time>
      </trkpt>
      <trkpt lat="44.06038" lon="4.83813">
        <ele>62</ele>
        <time>2018-09-30T07:35:22Z</time>
      </trkpt>
      <trkpt lat="44.06046" lon="4.83827">
        <ele>62</ele>
        <time>2018-09-30T07:35:24Z</time>
      </trkpt>
      <trkpt lat="44.06057" lon="4.8385">
        <ele>62</ele>
        <time>2018-09-30T07:35:27Z</time>
      </trkpt>
      <trkpt lat="44.06068" lon="4.83873">
        <ele>63</ele>
        <time>2018-09-30T07:35:30Z</time>
      </trkpt>
      <trkpt lat="44.0608" lon="4.83895">
        <ele>64</ele>
        <time>2018-09-30T07:35:33Z</time>
      </trkpt>
      <trkpt lat="44.06094" lon="4.83916">
        <ele>64</ele>
        <time>2018-09-30T07:35:36Z</time>
      </trkpt>
      <trkpt lat="44.06103" lon="4.8393">
        <ele>64</ele>
        <time>2018-09-30T07:35:38Z</time>
      </trkpt>
      <trkpt lat="44.06116" lon="4.83953">
        <ele>65</ele>
        <time>2018-09-30T07:35:41Z</time>
      </trkpt>
      <trkpt lat="44.06128" lon="4.83978">
        <ele>65</ele>
        <time>2018-09-30T07:35:44Z</time>
      </trkpt>
      <trkpt lat="44.06141" lon="4.84002">
        <ele>65</ele>
        <time>2018-09-30T07:35:47Z</time>
      </trkpt>
      <trkpt lat="44.0615" lon="4.84019">
        <ele>64</ele>
        <time>2018-09-30T07:35:49Z</time>
      </trkpt>
      <trkpt lat="44.0616" lon="4.84035">
        <ele>64</ele>
        <time>2018-09-30T07:35:51Z</time>
      </trkpt>
      <trkpt lat="44.06175" lon="4.84058">
        <ele>64</ele>
        <time>2018-09-30T07:35:54Z</time>
      </trkpt>
      <trkpt lat="44.06192" lon="4.84078">
        <ele>64</ele>
        <time>2018-09-30T07:35:57Z</time>
      </trkpt>
      <trkpt lat="44.0621" lon="4.84096">
        <ele>64</ele>
        <time>2018-09-30T07:36:00Z</time>
      </trkpt>
      <trkpt lat="44.06221" lon="4.84108">
        <ele>64</ele>
        <time>2018-09-30T07:36:02Z</time>
      </trkpt>
      <trkpt lat="44.06238" lon="4.84129">
        <ele>64</ele>
        <time>2018-09-30T07:36:05Z</time>
      </trkpt>
      <trkpt lat="44.06248" lon="4.84144">
        <ele>65</ele>
        <time>2018-09-30T07:36:07Z</time>
      </trkpt>
      <trkpt lat="44.06263" lon="4.84167">
        <ele>65</ele>
        <time>2018-09-30T07:36:10Z</time>
      </trkpt>
      <trkpt lat="44.06273" lon="4.84184">
        <ele>65</ele>
        <time>2018-09-30T07:36:12Z</time>
      </trkpt>
      <trkpt lat="44.06282" lon="4.842">
        <ele>65</ele>
        <time>2018-09-30T07:36:14Z</time>
      </trkpt>
      <trkpt lat="44.06295" lon="4.84225">
        <ele>65</ele>
        <time>2018-09-30T07:36:17Z</time>
      </trkpt>
      <trkpt lat="44.06305" lon="4.84251">
        <ele>65</ele>
        <time>2018-09-30T07:36:20Z</time>
      </trkpt>
      <trkpt lat="44.06314" lon="4.84278">
        <ele>66</ele>
        <time>2018-09-30T07:36:23Z</time>
      </trkpt>
      <trkpt lat="44.06319" lon="4.84296">
        <ele>67</ele>
        <time>2018-09-30T07:36:25Z</time>
      </trkpt>
      <trkpt lat="44.06324" lon="4.84313">
        <ele>67</ele>
        <time>2018-09-30T07:36:27Z</time>
      </trkpt>
      <trkpt lat="44.06333" lon="4.84339">
        <ele>67</ele>
        <time>2018-09-30T07:36:30Z</time>
      </trkpt>
      <trkpt lat="44.06341" lon="4.84363">
        <ele>68</ele>
        <time>2018-09-30T07:36:33Z</time>
      </trkpt>
      <trkpt lat="44.0635" lon="4.84387">
        <ele>69</ele>
        <time>2018-09-30T07:36:36Z</time>
      </trkpt>
      <trkpt lat="44.0636" lon="4.84411">
        <ele>69</ele>
        <time>2018-09-30T07:36:39Z</time>
      </trkpt>
      <trkpt lat="44.06366" lon="4.84439">
        <ele>70</ele>
        <time>2018-09-30T07:36:42Z</time>
      </trkpt>
      <trkpt lat="44.06371" lon="4.84467">
        <ele>70</ele>
        <time>2018-09-30T07:36:45Z</time>
      </trkpt>
      <trkpt lat="44.06377" lon="4.84495">
        <ele>71</ele>
        <time>2018-09-30T07:36:48Z</time>
      </trkpt>
      <trkpt lat="44.06382" lon="4.84512">
        <ele>71</ele>
        <time>2018-09-30T07:36:50Z</time>
      </trkpt>
      <trkpt lat="44.06392" lon="4.84537">
        <ele>71</ele>
        <time>2018-09-30T07:36:53Z</time>
      </trkpt>
      <trkpt lat="44.06403" lon="4.84559">
        <ele>71</ele>
        <time>2018-09-30T07:36:56Z</time>
      </trkpt>
      <trkpt lat="44.06411" lon="4.84574">
        <ele>72</ele>
        <time>2018-09-30T07:36:58Z</time>
      </trkpt>
      <trkpt lat="44.06421" lon="4.84597">
        <ele>72</ele>
        <time>2018-09-30T07:37:01Z</time>
      </trkpt>
      <trkpt lat="44.0643" lon="4.84621">
        <ele>73</ele>
        <time>2018-09-30T07:37:04Z</time>
      </trkpt>
      <trkpt lat="44.06438" lon="4.84646">
        <ele>74</ele>
        <time>2018-09-30T07:37:07Z</time>
      </trkpt>
      <trkpt lat="44.06444" lon="4.84662">
        <ele>74</ele>
        <time>2018-09-30T07:37:09Z</time>
      </trkpt>
      <trkpt lat="44.0645" lon="4.84678">
        <ele>75</ele>
        <time>2018-09-30T07:37:11Z</time>
      </trkpt>
      <trkpt lat="44.06456" lon="4.84693">
        <ele>75</ele>
        <time>2018-09-30T07:37:13Z</time>
      </trkpt>
      <trkpt lat="44.06464" lon="4.84718">
        <ele>76</ele>
        <time>2018-09-30T07:37:16Z</time>
      </trkpt>
      <trkpt lat="44.06469" lon="4.84735">
        <ele>76</ele>
        <time>2018-09-30T07:37:18Z</time>
      </trkpt>
      <trkpt lat="44.06475" lon="4.8476">
        <ele>77</ele>
        <time>2018-09-30T07:37:21Z</time>
      </trkpt>
      <trkpt lat="44.06483" lon="4.84785">
        <ele>77</ele>
        <time>2018-09-30T07:37:24Z</time>
      </trkpt>
      <trkpt lat="44.0649" lon="4.8481">
        <ele>78</ele>
        <time>2018-09-30T07:37:27Z</time>
      </trkpt>
      <trkpt lat="44.06496" lon="4.84835">
        <ele>78</ele>
        <time>2018-09-30T07:37:30Z</time>
      </trkpt>
      <trkpt lat="44.06499" lon="4.84862">
        <ele>79</ele>
        <time>2018-09-30T07:37:33Z</time>
      </trkpt>
      <trkpt lat="44.06501" lon="4.84888">
        <ele>80</ele>
        <time>2018-09-30T07:37:36Z</time>
      </trkpt>
      <trkpt lat="44.06501" lon="4.84906">
        <ele>80</ele>
        <time>2018-09-30T07:37:38Z</time>
      </trkpt>
      <trkpt lat="44.06501" lon="4.84924">
        <ele>81</ele>
        <time>2018-09-30T07:37:40Z</time>
      </trkpt>
      <trkpt lat="44.06503" lon="4.84951">
        <ele>81</ele>
        <time>2018-09-30T07:37:43Z</time>
      </trkpt>
      <trkpt lat="44.06506" lon="4.84978">
        <ele>82</ele>
        <time>2018-09-30T07:37:46Z</time>
      </trkpt>
      <trkpt lat="44.06509" lon="4.85005">
        <ele>84</ele>
        <time>2018-09-30T07:37:49Z</time>
      </trkpt>
      <trkpt lat="44.06514" lon="4.85031">
        <ele>84</ele>
        <time>2018-09-30T07:37:52Z</time>
      </trkpt>
      <trkpt lat="44.06521" lon="4.85057">
        <ele>85</ele>
        <time>2018-09-30T07:37:55Z</time>
      </trkpt>
      <trkpt lat="44.06528" lon="4.85084">
        <ele>85</ele>
        <time>2018-09-30T07:37:58Z</time>
      </trkpt>
      <trkpt lat="44.06535" lon="4.8511">
        <ele>86</ele>
        <time>2018-09-30T07:38:01Z</time>
      </trkpt>
      <trkpt lat="44.06542" lon="4.85138">
        <ele>86</ele>
        <time>2018-09-30T07:38:04Z</time>
      </trkpt>
      <trkpt lat="44.06546" lon="4.85156">
        <ele>86</ele>
        <time>2018-09-30T07:38:06Z</time>
      </trkpt>
      <trkpt lat="44.06552" lon="4.85184">
        <ele>87</ele>
        <time>2018-09-30T07:38:09Z</time>
      </trkpt>
      <trkpt lat="44.06558" lon="4.85213">
        <ele>87</ele>
        <time>2018-09-30T07:38:12Z</time>
      </trkpt>
      <trkpt lat="44.06563" lon="4.85242">
        <ele>87</ele>
        <time>2018-09-30T07:38:15Z</time>
      </trkpt>
      <trkpt lat="44.06566" lon="4.85273">
        <ele>87</ele>
        <time>2018-09-30T07:38:18Z</time>
      </trkpt>
      <trkpt lat="44.06568" lon="4.85305">
        <ele>87</ele>
        <time>2018-09-30T07:38:21Z</time>
      </trkpt>
      <trkpt lat="44.06572" lon="4.85338">
        <ele>87</ele>
        <time>2018-09-30T07:38:24Z</time>
      </trkpt>
      <trkpt lat="44.06581" lon="4.85371">
        <ele>87</ele>
        <time>2018-09-30T07:38:27Z</time>
      </trkpt>
      <trkpt lat="44.06589" lon="4.85393">
        <ele>87</ele>
        <time>2018-09-30T07:38:29Z</time>
      </trkpt>
      <trkpt lat="44.06599" lon="4.85412">
        <ele>87</ele>
        <time>2018-09-30T07:38:31Z</time>
      </trkpt>
      <trkpt lat="44.06617" lon="4.85436">
        <ele>87</ele>
        <time>2018-09-30T07:38:34Z</time>
      </trkpt>
      <trkpt lat="44.06634" lon="4.85461">
        <ele>87</ele>
        <time>2018-09-30T07:38:37Z</time>
      </trkpt>
      <trkpt lat="44.06649" lon="4.85489">
        <ele>86</ele>
        <time>2018-09-30T07:38:40Z</time>
      </trkpt>
      <trkpt lat="44.06665" lon="4.85519">
        <ele>85</ele>
        <time>2018-09-30T07:38:43Z</time>
      </trkpt>
      <trkpt lat="44.06674" lon="4.85543">
        <ele>84</ele>
        <time>2018-09-30T07:38:45Z</time>
      </trkpt>
      <trkpt lat="44.06688" lon="4.85584">
        <ele>83</ele>
        <time>2018-09-30T07:38:48Z</time>
      </trkpt>
      <trkpt lat="44.06704" lon="4.85623">
        <ele>80</ele>
        <time>2018-09-30T07:38:51Z</time>
      </trkpt>
      <trkpt lat="44.06722" lon="4.85638">
        <ele>80</ele>
        <time>2018-09-30T07:38:53Z</time>
      </trkpt>
      <trkpt lat="44.06743" lon="4.85641">
        <ele>79</ele>
        <time>2018-09-30T07:38:55Z</time>
      </trkpt>
      <trkpt lat="44.06777" lon="4.85641">
        <ele>78</ele>
        <time>2018-09-30T07:38:58Z</time>
      </trkpt>
      <trkpt lat="44.0681" lon="4.8566">
        <ele>77</ele>
        <time>2018-09-30T07:39:01Z</time>
      </trkpt>
      <trkpt lat="44.06839" lon="4.85688">
        <ele>75</ele>
        <time>2018-09-30T07:39:04Z</time>
      </trkpt>
      <trkpt lat="44.06856" lon="4.85734">
        <ele>73</ele>
        <time>2018-09-30T07:39:07Z</time>
      </trkpt>
      <trkpt lat="44.06865" lon="4.85783">
        <ele>72</ele>
        <time>2018-09-30T07:39:10Z</time>
      </trkpt>
      <trkpt lat="44.0687" lon="4.85817">
        <ele>72</ele>
        <time>2018-09-30T07:39:12Z</time>
      </trkpt>
      <trkpt lat="44.0687" lon="4.85868">
        <ele>70</ele>
        <time>2018-09-30T07:39:15Z</time>
      </trkpt>
      <trkpt lat="44.06877" lon="4.85919">
        <ele>67</ele>
        <time>2018-09-30T07:39:18Z</time>
      </trkpt>
      <trkpt lat="44.06887" lon="4.8597">
        <ele>66</ele>
        <time>2018-09-30T07:39:21Z</time>
      </trkpt>
      <trkpt lat="44.069" lon="4.86019">
        <ele>64</ele>
        <time>2018-09-30T07:39:24Z</time>
      </trkpt>
      <trkpt lat="44.06915" lon="4.86066">
        <ele>61</ele>
        <time>2018-09-30T07:39:27Z</time>
      </trkpt>
      <trkpt lat="44.06929" lon="4.86107">
        <ele>57</ele>
        <time>2018-09-30T07:39:30Z</time>
      </trkpt>
      <trkpt lat="44.06954" lon="4.86132">
        <ele>55</ele>
        <time>2018-09-30T07:39:33Z</time>
      </trkpt>
      <trkpt lat="44.06974" lon="4.86135">
        <ele>55</ele>
        <time>2018-09-30T07:39:35Z</time>
      </trkpt>
      <trkpt lat="44.06995" lon="4.86136">
        <ele>54</ele>
        <time>2018-09-30T07:39:37Z</time>
      </trkpt>
      <trkpt lat="44.07016" lon="4.86137">
        <ele>53</ele>
        <time>2018-09-30T07:39:39Z</time>
      </trkpt>
      <trkpt lat="44.0705" lon="4.86143">
        <ele>52</ele>
        <time>2018-09-30T07:39:41Z</time>
      </trkpt>
      <trkpt lat="44.07071" lon="4.86159">
        <ele>51</ele>
        <time>2018-09-30T07:39:44Z</time>
      </trkpt>
      <trkpt lat="44.07093" lon="4.86174">
        <ele>51</ele>
        <time>2018-09-30T07:39:46Z</time>
      </trkpt>
      <trkpt lat="44.0713" lon="4.86189">
        <ele>49</ele>
        <time>2018-09-30T07:39:48Z</time>
      </trkpt>
      <trkpt lat="44.07155" lon="4.86194">
        <ele>48</ele>
        <time>2018-09-30T07:39:51Z</time>
      </trkpt>
      <trkpt lat="44.07192" lon="4.86194">
        <ele>47</ele>
        <time>2018-09-30T07:39:54Z</time>
      </trkpt>
      <trkpt lat="44.07215" lon="4.86193">
        <ele>46</ele>
        <time>2018-09-30T07:39:56Z</time>
      </trkpt>
      <trkpt lat="44.07249" lon="4.86193">
        <ele>44</ele>
        <time>2018-09-30T07:39:59Z</time>
      </trkpt>
      <trkpt lat="44.07279" lon="4.86212">
        <ele>43</ele>
        <time>2018-09-30T07:40:02Z</time>
      </trkpt>
      <trkpt lat="44.07295" lon="4.86235">
        <ele>43</ele>
        <time>2018-09-30T07:40:04Z</time>
      </trkpt>
      <trkpt lat="44.07321" lon="4.86265">
        <ele>44</ele>
        <time>2018-09-30T07:40:07Z</time>
      </trkpt>
      <trkpt lat="44.07338" lon="4.86285">
        <ele>44</ele>
        <time>2018-09-30T07:40:09Z</time>
      </trkpt>
      <trkpt lat="44.07362" lon="4.86315">
        <ele>44</ele>
        <time>2018-09-30T07:40:11Z</time>
      </trkpt>
      <trkpt lat="44.07378" lon="4.8633">
        <ele>44</ele>
        <time>2018-09-30T07:40:14Z</time>
      </trkpt>
      <trkpt lat="44.07402" lon="4.86349">
        <ele>45</ele>
        <time>2018-09-30T07:40:17Z</time>
      </trkpt>
      <trkpt lat="44.07417" lon="4.86362">
        <ele>45</ele>
        <time>2018-09-30T07:40:19Z</time>
      </trkpt>
      <trkpt lat="44.07436" lon="4.8638">
        <ele>46</ele>
        <time>2018-09-30T07:40:22Z</time>
      </trkpt>
      <trkpt lat="44.07454" lon="4.86403">
        <ele>46</ele>
        <time>2018-09-30T07:40:25Z</time>
      </trkpt>
      <trkpt lat="44.07469" lon="4.8643">
        <ele>47</ele>
        <time>2018-09-30T07:40:28Z</time>
      </trkpt>
      <trkpt lat="44.07483" lon="4.86459">
        <ele>48</ele>
        <time>2018-09-30T07:40:31Z</time>
      </trkpt>
      <trkpt lat="44.07495" lon="4.86489">
        <ele>49</ele>
        <time>2018-09-30T07:40:34Z</time>
      </trkpt>
      <trkpt lat="44.07509" lon="4.86519">
        <ele>49</ele>
        <time>2018-09-30T07:40:36Z</time>
      </trkpt>
      <trkpt lat="44.0752" lon="4.86539">
        <ele>49</ele>
        <time>2018-09-30T07:40:38Z</time>
      </trkpt>
      <trkpt lat="44.07532" lon="4.8656">
        <ele>48</ele>
        <time>2018-09-30T07:40:41Z</time>
      </trkpt>
      <trkpt lat="44.0755" lon="4.86594">
        <ele>47</ele>
        <time>2018-09-30T07:40:44Z</time>
      </trkpt>
      <trkpt lat="44.07557" lon="4.8662">
        <ele>46</ele>
        <time>2018-09-30T07:40:46Z</time>
      </trkpt>
      <trkpt lat="44.07561" lon="4.86646">
        <ele>45</ele>
        <time>2018-09-30T07:40:48Z</time>
      </trkpt>
      <trkpt lat="44.07568" lon="4.86686">
        <ele>44</ele>
        <time>2018-09-30T07:40:51Z</time>
      </trkpt>
      <trkpt lat="44.07574" lon="4.86728">
        <ele>42</ele>
        <time>2018-09-30T07:40:53Z</time>
      </trkpt>
      <trkpt lat="44.07579" lon="4.86757">
        <ele>41</ele>
        <time>2018-09-30T07:40:56Z</time>
      </trkpt>
      <trkpt lat="44.07588" lon="4.868">
        <ele>40</ele>
        <time>2018-09-30T07:40:59Z</time>
      </trkpt>
      <trkpt lat="44.07595" lon="4.86846">
        <ele>40</ele>
        <time>2018-09-30T07:41:02Z</time>
      </trkpt>
      <trkpt lat="44.076" lon="4.86892">
        <ele>39</ele>
        <time>2018-09-30T07:41:04Z</time>
      </trkpt>
      <trkpt lat="44.07606" lon="4.86922">
        <ele>39</ele>
        <time>2018-09-30T07:41:07Z</time>
      </trkpt>
      <trkpt lat="44.07614" lon="4.86951">
        <ele>38</ele>
        <time>2018-09-30T07:41:09Z</time>
      </trkpt>
      <trkpt lat="44.07626" lon="4.86996">
        <ele>38</ele>
        <time>2018-09-30T07:41:12Z</time>
      </trkpt>
      <trkpt lat="44.07635" lon="4.87042">
        <ele>36</ele>
        <time>2018-09-30T07:41:15Z</time>
      </trkpt>
      <trkpt lat="44.07647" lon="4.87086">
        <ele>36</ele>
        <time>2018-09-30T07:41:17Z</time>
      </trkpt>
      <trkpt lat="44.07656" lon="4.87114">
        <ele>35</ele>
        <time>2018-09-30T07:41:20Z</time>
      </trkpt>
      <trkpt lat="44.07674" lon="4.87155">
        <ele>34</ele>
        <time>2018-09-30T07:41:22Z</time>
      </trkpt>
      <trkpt lat="44.07686" lon="4.87183">
        <ele>33</ele>
        <time>2018-09-30T07:41:25Z</time>
      </trkpt>
      <trkpt lat="44.07702" lon="4.87225">
        <ele>33</ele>
        <time>2018-09-30T07:41:28Z</time>
      </trkpt>
      <trkpt lat="44.07711" lon="4.87252">
        <ele>33</ele>
        <time>2018-09-30T07:41:30Z</time>
      </trkpt>
      <trkpt lat="44.07725" lon="4.87294">
        <ele>32</ele>
        <time>2018-09-30T07:41:33Z</time>
      </trkpt>
      <trkpt lat="44.07735" lon="4.87321">
        <ele>31</ele>
        <time>2018-09-30T07:41:35Z</time>
      </trkpt>
      <trkpt lat="44.07751" lon="4.8736">
        <ele>31</ele>
        <time>2018-09-30T07:41:37Z</time>
      </trkpt>
      <trkpt lat="44.07762" lon="4.87385">
        <ele>31</ele>
        <time>2018-09-30T07:41:40Z</time>
      </trkpt>
      <trkpt lat="44.07778" lon="4.87425">
        <ele>30</ele>
        <time>2018-09-30T07:41:43Z</time>
      </trkpt>
      <trkpt lat="44.07785" lon="4.8747">
        <ele>29</ele>
        <time>2018-09-30T07:41:46Z</time>
      </trkpt>
      <trkpt lat="44.07788" lon="4.87516">
        <ele>28</ele>
        <time>2018-09-30T07:41:49Z</time>
      </trkpt>
      <trkpt lat="44.07796" lon="4.87558">
        <ele>27</ele>
        <time>2018-09-30T07:41:52Z</time>
      </trkpt>
      <trkpt lat="44.07808" lon="4.87593">
        <ele>27</ele>
        <time>2018-09-30T07:41:54Z</time>
      </trkpt>
      <trkpt lat="44.07819" lon="4.87614">
        <ele>27</ele>
        <time>2018-09-30T07:41:57Z</time>
      </trkpt>
      <trkpt lat="44.07838" lon="4.87646">
        <ele>27</ele>
        <time>2018-09-30T07:42:00Z</time>
      </trkpt>
      <trkpt lat="44.07855" lon="4.87683">
        <ele>26</ele>
        <time>2018-09-30T07:42:03Z</time>
      </trkpt>
      <trkpt lat="44.07868" lon="4.87723">
        <ele>26</ele>
        <time>2018-09-30T07:42:06Z</time>
      </trkpt>
      <trkpt lat="44.07881" lon="4.87764">
        <ele>27</ele>
        <time>2018-09-30T07:42:09Z</time>
      </trkpt>
      <trkpt lat="44.07895" lon="4.87801">
        <ele>26</ele>
        <time>2018-09-30T07:42:11Z</time>
      </trkpt>
      <trkpt lat="44.07913" lon="4.87832">
        <ele>25</ele>
        <time>2018-09-30T07:42:14Z</time>
      </trkpt>
      <trkpt lat="44.07927" lon="4.87849">
        <ele>25</ele>
        <time>2018-09-30T07:42:17Z</time>
      </trkpt>
      <trkpt lat="44.07941" lon="4.87863">
        <ele>25</ele>
        <time>2018-09-30T07:42:19Z</time>
      </trkpt>
      <trkpt lat="44.07961" lon="4.87881">
        <ele>25</ele>
        <time>2018-09-30T07:42:22Z</time>
      </trkpt>
      <trkpt lat="44.0798" lon="4.87896">
        <ele>24</ele>
        <time>2018-09-30T07:42:25Z</time>
      </trkpt>
      <trkpt lat="44.08" lon="4.87912">
        <ele>24</ele>
        <time>2018-09-30T07:42:27Z</time>
      </trkpt>
      <trkpt lat="44.0802" lon="4.87928">
        <ele>24</ele>
        <time>2018-09-30T07:42:30Z</time>
      </trkpt>
      <trkpt lat="44.0804" lon="4.87942">
        <ele>24</ele>
        <time>2018-09-30T07:42:33Z</time>
      </trkpt>
      <trkpt lat="44.08062" lon="4.8795">
        <ele>24</ele>
        <time>2018-09-30T07:42:36Z</time>
      </trkpt>
      <trkpt lat="44.08077" lon="4.87951">
        <ele>25</ele>
        <time>2018-09-30T07:42:39Z</time>
      </trkpt>
      <trkpt lat="44.081" lon="4.87948">
        <ele>25</ele>
        <time>2018-09-30T07:42:42Z</time>
      </trkpt>
      <trkpt lat="44.08114" lon="4.87943">
        <ele>25</ele>
        <time>2018-09-30T07:42:44Z</time>
      </trkpt>
      <trkpt lat="44.08136" lon="4.87936">
        <ele>25</ele>
        <time>2018-09-30T07:42:47Z</time>
      </trkpt>
      <trkpt lat="44.08159" lon="4.87928">
        <ele>26</ele>
        <time>2018-09-30T07:42:50Z</time>
      </trkpt>
      <trkpt lat="44.08183" lon="4.87921">
        <ele>26</ele>
        <time>2018-09-30T07:42:53Z</time>
      </trkpt>
      <trkpt lat="44.08206" lon="4.87913">
        <ele>26</ele>
        <time>2018-09-30T07:42:55Z</time>
      </trkpt>
      <trkpt lat="44.08231" lon="4.87905">
        <ele>26</ele>
        <time>2018-09-30T07:42:59Z</time>
      </trkpt>
      <trkpt lat="44.08257" lon="4.87896">
        <ele>25</ele>
        <time>2018-09-30T07:43:01Z</time>
      </trkpt>
      <trkpt lat="44.08274" lon="4.87891">
        <ele>25</ele>
        <time>2018-09-30T07:43:04Z</time>
      </trkpt>
      <trkpt lat="44.083" lon="4.87882">
        <ele>25</ele>
        <time>2018-09-30T07:43:06Z</time>
      </trkpt>
      <trkpt lat="44.08318" lon="4.87876">
        <ele>25</ele>
        <time>2018-09-30T07:43:09Z</time>
      </trkpt>
      <trkpt lat="44.08343" lon="4.87867">
        <ele>25</ele>
        <time>2018-09-30T07:43:11Z</time>
      </trkpt>
      <trkpt lat="44.0836" lon="4.87861">
        <ele>25</ele>
        <time>2018-09-30T07:43:14Z</time>
      </trkpt>
      <trkpt lat="44.08385" lon="4.87853">
        <ele>26</ele>
        <time>2018-09-30T07:43:16Z</time>
      </trkpt>
      <trkpt lat="44.08402" lon="4.87849">
        <ele>26</ele>
        <time>2018-09-30T07:43:18Z</time>
      </trkpt>
      <trkpt lat="44.08427" lon="4.8784">
        <ele>26</ele>
        <time>2018-09-30T07:43:21Z</time>
      </trkpt>
      <trkpt lat="44.08443" lon="4.87832">
        <ele>26</ele>
        <time>2018-09-30T07:43:24Z</time>
      </trkpt>
      <trkpt lat="44.08468" lon="4.87819">
        <ele>27</ele>
        <time>2018-09-30T07:43:27Z</time>
      </trkpt>
      <trkpt lat="44.08491" lon="4.87803">
        <ele>27</ele>
        <time>2018-09-30T07:43:29Z</time>
      </trkpt>
      <trkpt lat="44.08506" lon="4.8779">
        <ele>27</ele>
        <time>2018-09-30T07:43:32Z</time>
      </trkpt>
      <trkpt lat="44.08529" lon="4.87772">
        <ele>27</ele>
        <time>2018-09-30T07:43:34Z</time>
      </trkpt>
      <trkpt lat="44.08551" lon="4.87754">
        <ele>27</ele>
        <time>2018-09-30T07:43:38Z</time>
      </trkpt>
      <trkpt lat="44.08574" lon="4.87738">
        <ele>28</ele>
        <time>2018-09-30T07:43:41Z</time>
      </trkpt>
      <trkpt lat="44.08596" lon="4.87724">
        <ele>29</ele>
        <time>2018-09-30T07:43:43Z</time>
      </trkpt>
      <trkpt lat="44.08611" lon="4.87716">
        <ele>30</ele>
        <time>2018-09-30T07:43:46Z</time>
      </trkpt>
      <trkpt lat="44.08633" lon="4.87704">
        <ele>31</ele>
        <time>2018-09-30T07:43:48Z</time>
      </trkpt>
      <trkpt lat="44.08656" lon="4.87696">
        <ele>31</ele>
        <time>2018-09-30T07:43:51Z</time>
      </trkpt>
      <trkpt lat="44.08673" lon="4.87698">
        <ele>30</ele>
        <time>2018-09-30T07:43:54Z</time>
      </trkpt>
      <trkpt lat="44.08687" lon="4.87709">
        <ele>30</ele>
        <time>2018-09-30T07:43:56Z</time>
      </trkpt>
      <trkpt lat="44.087" lon="4.87737">
        <ele>31</ele>
        <time>2018-09-30T07:43:58Z</time>
      </trkpt>
      <trkpt lat="44.08708" lon="4.87768">
        <ele>31</ele>
        <time>2018-09-30T07:44:02Z</time>
      </trkpt>
      <trkpt lat="44.08717" lon="4.87799">
        <ele>32</ele>
        <time>2018-09-30T07:44:04Z</time>
      </trkpt>
      <trkpt lat="44.08722" lon="4.87821">
        <ele>32</ele>
        <time>2018-09-30T07:44:06Z</time>
      </trkpt>
      <trkpt lat="44.08728" lon="4.87842">
        <ele>33</ele>
        <time>2018-09-30T07:44:09Z</time>
      </trkpt>
      <trkpt lat="44.08736" lon="4.87874">
        <ele>32</ele>
        <time>2018-09-30T07:44:11Z</time>
      </trkpt>
      <trkpt lat="44.08741" lon="4.87896">
        <ele>32</ele>
        <time>2018-09-30T07:44:14Z</time>
      </trkpt>
      <trkpt lat="44.0875" lon="4.87929">
        <ele>31</ele>
        <time>2018-09-30T07:44:17Z</time>
      </trkpt>
      <trkpt lat="44.08756" lon="4.87951">
        <ele>30</ele>
        <time>2018-09-30T07:44:19Z</time>
      </trkpt>
      <trkpt lat="44.08764" lon="4.87984">
        <ele>30</ele>
        <time>2018-09-30T07:44:21Z</time>
      </trkpt>
      <trkpt lat="44.08772" lon="4.88015">
        <ele>30</ele>
        <time>2018-09-30T07:44:24Z</time>
      </trkpt>
      <trkpt lat="44.08777" lon="4.88035">
        <ele>30</ele>
        <time>2018-09-30T07:44:27Z</time>
      </trkpt>
      <trkpt lat="44.08783" lon="4.88061">
        <ele>30</ele>
        <time>2018-09-30T07:44:29Z</time>
      </trkpt>
      <trkpt lat="44.08786" lon="4.88077">
        <ele>30</ele>
        <time>2018-09-30T07:44:32Z</time>
      </trkpt>
      <trkpt lat="44.0879" lon="4.88099">
        <ele>29</ele>
        <time>2018-09-30T07:44:35Z</time>
      </trkpt>
      <trkpt lat="44.08804" lon="4.88108">
        <ele>29</ele>
        <time>2018-09-30T07:44:37Z</time>
      </trkpt>
      <trkpt lat="44.0882" lon="4.88106">
        <ele>30</ele>
        <time>2018-09-30T07:44:40Z</time>
      </trkpt>
      <trkpt lat="44.08837" lon="4.88106">
        <ele>30</ele>
        <time>2018-09-30T07:44:43Z</time>
      </trkpt>
      <trkpt lat="44.08854" lon="4.88103">
        <ele>30</ele>
        <time>2018-09-30T07:44:46Z</time>
      </trkpt>
      <trkpt lat="44.08872" lon="4.881">
        <ele>30</ele>
        <time>2018-09-30T07:44:49Z</time>
      </trkpt>
      <trkpt lat="44.08889" lon="4.88097">
        <ele>30</ele>
        <time>2018-09-30T07:44:52Z</time>
      </trkpt>
      <trkpt lat="44.08905" lon="4.88094">
        <ele>30</ele>
        <time>2018-09-30T07:44:55Z</time>
      </trkpt>
      <trkpt lat="44.08921" lon="4.88091">
        <ele>30</ele>
        <time>2018-09-30T07:44:58Z</time>
      </trkpt>
      <trkpt lat="44.08931" lon="4.88089">
        <ele>30</ele>
        <time>2018-09-30T07:45:01Z</time>
      </trkpt>
      <trkpt lat="44.08947" lon="4.88086">
        <ele>30</ele>
        <time>2018-09-30T07:45:03Z</time>
      </trkpt>
      <trkpt lat="44.08962" lon="4.88083">
        <ele>31</ele>
        <time>2018-09-30T07:45:06Z</time>
      </trkpt>
      <trkpt lat="44.08974" lon="4.88083">
        <ele>31</ele>
        <time>2018-09-30T07:45:09Z</time>
      </trkpt>
      <trkpt lat="44.08987" lon="4.88085">
        <ele>31</ele>
        <time>2018-09-30T07:45:12Z</time>
      </trkpt>
      <trkpt lat="44.09001" lon="4.88088">
        <ele>32</ele>
        <time>2018-09-30T07:45:16Z</time>
      </trkpt>
      <trkpt lat="44.09018" lon="4.88092">
        <ele>32</ele>
        <time>2018-09-30T07:45:19Z</time>
      </trkpt>
      <trkpt lat="44.09034" lon="4.88096">
        <ele>32</ele>
        <time>2018-09-30T07:45:22Z</time>
      </trkpt>
      <trkpt lat="44.0905" lon="4.881">
        <ele>33</ele>
        <time>2018-09-30T07:45:25Z</time>
      </trkpt>
      <trkpt lat="44.09062" lon="4.88103">
        <ele>33</ele>
        <time>2018-09-30T07:45:27Z</time>
      </trkpt>
      <trkpt lat="44.09079" lon="4.88108">
        <ele>34</ele>
        <time>2018-09-30T07:45:30Z</time>
      </trkpt>
      <trkpt lat="44.09096" lon="4.88113">
        <ele>34</ele>
        <time>2018-09-30T07:45:33Z</time>
      </trkpt>
      <trkpt lat="44.09113" lon="4.88119">
        <ele>35</ele>
        <time>2018-09-30T07:45:35Z</time>
      </trkpt>
      <trkpt lat="44.09125" lon="4.88122">
        <ele>36</ele>
        <time>2018-09-30T07:45:38Z</time>
      </trkpt>
      <trkpt lat="44.09143" lon="4.88127">
        <ele>36</ele>
        <time>2018-09-30T07:45:41Z</time>
      </trkpt>
      <trkpt lat="44.09161" lon="4.88129">
        <ele>37</ele>
        <time>2018-09-30T07:45:44Z</time>
      </trkpt>
      <trkpt lat="44.0918" lon="4.88128">
        <ele>37</ele>
        <time>2018-09-30T07:45:46Z</time>
      </trkpt>
      <trkpt lat="44.09193" lon="4.88127">
        <ele>37</ele>
        <time>2018-09-30T07:45:49Z</time>
      </trkpt>
      <trkpt lat="44.09205" lon="4.88125">
        <ele>38</ele>
        <time>2018-09-30T07:45:51Z</time>
      </trkpt>
      <trkpt lat="44.09223" lon="4.88121">
        <ele>38</ele>
        <time>2018-09-30T07:45:54Z</time>
      </trkpt>
      <trkpt lat="44.0924" lon="4.88117">
        <ele>39</ele>
        <time>2018-09-30T07:45:57Z</time>
      </trkpt>
      <trkpt lat="44.09255" lon="4.88114">
        <ele>40</ele>
        <time>2018-09-30T07:46:00Z</time>
      </trkpt>
      <trkpt lat="44.0927" lon="4.88112">
        <ele>41</ele>
        <time>2018-09-30T07:46:02Z</time>
      </trkpt>
      <trkpt lat="44.0928" lon="4.88111">
        <ele>41</ele>
        <time>2018-09-30T07:46:04Z</time>
      </trkpt>
      <trkpt lat="44.09291" lon="4.88109">
        <ele>42</ele>
        <time>2018-09-30T07:46:07Z</time>
      </trkpt>
      <trkpt lat="44.09309" lon="4.88108">
        <ele>43</ele>
        <time>2018-09-30T07:46:10Z</time>
      </trkpt>
      <trkpt lat="44.09327" lon="4.88105">
        <ele>43</ele>
        <time>2018-09-30T07:46:13Z</time>
      </trkpt>
      <trkpt lat="44.0934" lon="4.88102">
        <ele>44</ele>
        <time>2018-09-30T07:46:15Z</time>
      </trkpt>
      <trkpt lat="44.09359" lon="4.88096">
        <ele>44</ele>
        <time>2018-09-30T07:46:17Z</time>
      </trkpt>
      <trkpt lat="44.0937" lon="4.88091">
        <ele>45</ele>
        <time>2018-09-30T07:46:19Z</time>
      </trkpt>
      <trkpt lat="44.09382" lon="4.88085">
        <ele>45</ele>
        <time>2018-09-30T07:46:21Z</time>
      </trkpt>
      <trkpt lat="44.09394" lon="4.88079">
        <ele>45</ele>
        <time>2018-09-30T07:46:23Z</time>
      </trkpt>
      <trkpt lat="44.09406" lon="4.88073">
        <ele>46</ele>
        <time>2018-09-30T07:46:25Z</time>
      </trkpt>
      <trkpt lat="44.09418" lon="4.88067">
        <ele>46</ele>
        <time>2018-09-30T07:46:27Z</time>
      </trkpt>
      <trkpt lat="44.0943" lon="4.88061">
        <ele>47</ele>
        <time>2018-09-30T07:46:29Z</time>
      </trkpt>
      <trkpt lat="44.09442" lon="4.88055">
        <ele>47</ele>
        <time>2018-09-30T07:46:32Z</time>
      </trkpt>
      <trkpt lat="44.09454" lon="4.88048">
        <ele>47</ele>
        <time>2018-09-30T07:46:34Z</time>
      </trkpt>
      <trkpt lat="44.09473" lon="4.88038">
        <ele>47</ele>
        <time>2018-09-30T07:46:36Z</time>
      </trkpt>
      <trkpt lat="44.09486" lon="4.88032">
        <ele>48</ele>
        <time>2018-09-30T07:46:38Z</time>
      </trkpt>
      <trkpt lat="44.09499" lon="4.88026">
        <ele>48</ele>
        <time>2018-09-30T07:46:41Z</time>
      </trkpt>
      <trkpt lat="44.09518" lon="4.88018">
        <ele>48</ele>
        <time>2018-09-30T07:46:44Z</time>
      </trkpt>
      <trkpt lat="44.09536" lon="4.88011">
        <ele>48</ele>
        <time>2018-09-30T07:46:47Z</time>
      </trkpt>
      <trkpt lat="44.09556" lon="4.88003">
        <ele>49</ele>
        <time>2018-09-30T07:46:49Z</time>
      </trkpt>
      <trkpt lat="44.09576" lon="4.87995">
        <ele>49</ele>
        <time>2018-09-30T07:46:53Z</time>
      </trkpt>
      <trkpt lat="44.09596" lon="4.87988">
        <ele>48</ele>
        <time>2018-09-30T07:46:55Z</time>
      </trkpt>
      <trkpt lat="44.0961" lon="4.87985">
        <ele>48</ele>
        <time>2018-09-30T07:46:58Z</time>
      </trkpt>
      <trkpt lat="44.0963" lon="4.87982">
        <ele>48</ele>
        <time>2018-09-30T07:47:00Z</time>
      </trkpt>
      <trkpt lat="44.09644" lon="4.87981">
        <ele>48</ele>
        <time>2018-09-30T07:47:02Z</time>
      </trkpt>
      <trkpt lat="44.09657" lon="4.87981">
        <ele>49</ele>
        <time>2018-09-30T07:47:04Z</time>
      </trkpt>
      <trkpt lat="44.0967" lon="4.8798">
        <ele>49</ele>
        <time>2018-09-30T07:47:06Z</time>
      </trkpt>
      <trkpt lat="44.09682" lon="4.8798">
        <ele>49</ele>
        <time>2018-09-30T07:47:08Z</time>
      </trkpt>
      <trkpt lat="44.09694" lon="4.8798">
        <ele>49</ele>
        <time>2018-09-30T07:47:10Z</time>
      </trkpt>
      <trkpt lat="44.09705" lon="4.8798">
        <ele>49</ele>
        <time>2018-09-30T07:47:12Z</time>
      </trkpt>
      <trkpt lat="44.09716" lon="4.8798">
        <ele>49</ele>
        <time>2018-09-30T07:47:15Z</time>
      </trkpt>
      <trkpt lat="44.09731" lon="4.87981">
        <ele>49</ele>
        <time>2018-09-30T07:47:17Z</time>
      </trkpt>
      <trkpt lat="44.09744" lon="4.8798">
        <ele>48</ele>
        <time>2018-09-30T07:47:20Z</time>
      </trkpt>
      <trkpt lat="44.09753" lon="4.87979">
        <ele>48</ele>
        <time>2018-09-30T07:47:22Z</time>
      </trkpt>
      <trkpt lat="44.09761" lon="4.87979">
        <ele>48</ele>
        <time>2018-09-30T07:47:24Z</time>
      </trkpt>
      <trkpt lat="44.0977" lon="4.87978">
        <ele>48</ele>
        <time>2018-09-30T07:47:26Z</time>
      </trkpt>
      <trkpt lat="44.09779" lon="4.87977">
        <ele>49</ele>
        <time>2018-09-30T07:47:28Z</time>
      </trkpt>
      <trkpt lat="44.09791" lon="4.87975">
        <ele>49</ele>
        <time>2018-09-30T07:47:31Z</time>
      </trkpt>
      <trkpt lat="44.09799" lon="4.87972">
        <ele>49</ele>
        <time>2018-09-30T07:47:34Z</time>
      </trkpt>
      <trkpt lat="44.09812" lon="4.87969">
        <ele>49</ele>
        <time>2018-09-30T07:47:36Z</time>
      </trkpt>
      <trkpt lat="44.09821" lon="4.87966">
        <ele>49</ele>
        <time>2018-09-30T07:47:38Z</time>
      </trkpt>
      <trkpt lat="44.09832" lon="4.87962">
        <ele>49</ele>
        <time>2018-09-30T07:47:40Z</time>
      </trkpt>
      <trkpt lat="44.09852" lon="4.87956">
        <ele>49</ele>
        <time>2018-09-30T07:47:44Z</time>
      </trkpt>
      <trkpt lat="44.09874" lon="4.87948">
        <ele>49</ele>
        <time>2018-09-30T07:47:47Z</time>
      </trkpt>
      <trkpt lat="44.09895" lon="4.87939">
        <ele>50</ele>
        <time>2018-09-30T07:47:50Z</time>
      </trkpt>
      <trkpt lat="44.09917" lon="4.87929">
        <ele>51</ele>
        <time>2018-09-30T07:47:53Z</time>
      </trkpt>
      <trkpt lat="44.09937" lon="4.87917">
        <ele>50</ele>
        <time>2018-09-30T07:47:55Z</time>
      </trkpt>
      <trkpt lat="44.0995" lon="4.8791">
        <ele>49</ele>
        <time>2018-09-30T07:47:58Z</time>
      </trkpt>
      <trkpt lat="44.09969" lon="4.87897">
        <ele>49</ele>
        <time>2018-09-30T07:48:00Z</time>
      </trkpt>
      <trkpt lat="44.09982" lon="4.87889">
        <ele>49</ele>
        <time>2018-09-30T07:48:02Z</time>
      </trkpt>
      <trkpt lat="44.09995" lon="4.87881">
        <ele>49</ele>
        <time>2018-09-30T07:48:04Z</time>
      </trkpt>
      <trkpt lat="44.10007" lon="4.87874">
        <ele>49</ele>
        <time>2018-09-30T07:48:07Z</time>
      </trkpt>
      <trkpt lat="44.10024" lon="4.87865">
        <ele>49</ele>
        <time>2018-09-30T07:48:09Z</time>
      </trkpt>
      <trkpt lat="44.10035" lon="4.87859">
        <ele>49</ele>
        <time>2018-09-30T07:48:12Z</time>
      </trkpt>
      <trkpt lat="44.10053" lon="4.87853">
        <ele>48</ele>
        <time>2018-09-30T07:48:14Z</time>
      </trkpt>
      <trkpt lat="44.10064" lon="4.87854">
        <ele>48</ele>
        <time>2018-09-30T07:48:17Z</time>
      </trkpt>
      <trkpt lat="44.10075" lon="4.8786">
        <ele>48</ele>
        <time>2018-09-30T07:48:19Z</time>
      </trkpt>
      <trkpt lat="44.10093" lon="4.87856">
        <ele>48</ele>
        <time>2018-09-30T07:48:21Z</time>
      </trkpt>
      <trkpt lat="44.10109" lon="4.87839">
        <ele>47</ele>
        <time>2018-09-30T07:48:24Z</time>
      </trkpt>
      <trkpt lat="44.10127" lon="4.87828">
        <ele>47</ele>
        <time>2018-09-30T07:48:27Z</time>
      </trkpt>
      <trkpt lat="44.10146" lon="4.87822">
        <ele>47</ele>
        <time>2018-09-30T07:48:30Z</time>
      </trkpt>
      <trkpt lat="44.10165" lon="4.87817">
        <ele>48</ele>
        <time>2018-09-30T07:48:33Z</time>
      </trkpt>
      <trkpt lat="44.10178" lon="4.87813">
        <ele>48</ele>
        <time>2018-09-30T07:48:35Z</time>
      </trkpt>
      <trkpt lat="44.10192" lon="4.8781">
        <ele>48</ele>
        <time>2018-09-30T07:48:38Z</time>
      </trkpt>
      <trkpt lat="44.10212" lon="4.87805">
        <ele>48</ele>
        <time>2018-09-30T07:48:40Z</time>
      </trkpt>
      <trkpt lat="44.10225" lon="4.87801">
        <ele>48</ele>
        <time>2018-09-30T07:48:42Z</time>
      </trkpt>
      <trkpt lat="44.10247" lon="4.87795">
        <ele>49</ele>
        <time>2018-09-30T07:48:45Z</time>
      </trkpt>
      <trkpt lat="44.1027" lon="4.87789">
        <ele>50</ele>
        <time>2018-09-30T07:48:48Z</time>
      </trkpt>
      <trkpt lat="44.10286" lon="4.87785">
        <ele>50</ele>
        <time>2018-09-30T07:48:50Z</time>
      </trkpt>
      <trkpt lat="44.1031" lon="4.87778">
        <ele>49</ele>
        <time>2018-09-30T07:48:53Z</time>
      </trkpt>
      <trkpt lat="44.10326" lon="4.87774">
        <ele>49</ele>
        <time>2018-09-30T07:48:55Z</time>
      </trkpt>
      <trkpt lat="44.10351" lon="4.87767">
        <ele>48</ele>
        <time>2018-09-30T07:48:58Z</time>
      </trkpt>
      <trkpt lat="44.10366" lon="4.87762">
        <ele>48</ele>
        <time>2018-09-30T07:49:00Z</time>
      </trkpt>
      <trkpt lat="44.10381" lon="4.87756">
        <ele>48</ele>
        <time>2018-09-30T07:49:03Z</time>
      </trkpt>
      <trkpt lat="44.10403" lon="4.87746">
        <ele>48</ele>
        <time>2018-09-30T07:49:05Z</time>
      </trkpt>
      <trkpt lat="44.10424" lon="4.87737">
        <ele>49</ele>
        <time>2018-09-30T07:49:08Z</time>
      </trkpt>
      <trkpt lat="44.10444" lon="4.87726">
        <ele>50</ele>
        <time>2018-09-30T07:49:11Z</time>
      </trkpt>
      <trkpt lat="44.10466" lon="4.87716">
        <ele>51</ele>
        <time>2018-09-30T07:49:14Z</time>
      </trkpt>
      <trkpt lat="44.10487" lon="4.87707">
        <ele>50</ele>
        <time>2018-09-30T07:49:17Z</time>
      </trkpt>
      <trkpt lat="44.10509" lon="4.87696">
        <ele>50</ele>
        <time>2018-09-30T07:49:20Z</time>
      </trkpt>
      <trkpt lat="44.10532" lon="4.87685">
        <ele>50</ele>
        <time>2018-09-30T07:49:23Z</time>
      </trkpt>
      <trkpt lat="44.10554" lon="4.87675">
        <ele>49</ele>
        <time>2018-09-30T07:49:26Z</time>
      </trkpt>
      <trkpt lat="44.10569" lon="4.87669">
        <ele>49</ele>
        <time>2018-09-30T07:49:28Z</time>
      </trkpt>
      <trkpt lat="44.10583" lon="4.87663">
        <ele>49</ele>
        <time>2018-09-30T07:49:31Z</time>
      </trkpt>
      <trkpt lat="44.10606" lon="4.87655">
        <ele>50</ele>
        <time>2018-09-30T07:49:33Z</time>
      </trkpt>
      <trkpt lat="44.10628" lon="4.87649">
        <ele>50</ele>
        <time>2018-09-30T07:49:36Z</time>
      </trkpt>
      <trkpt lat="44.10649" lon="4.87643">
        <ele>50</ele>
        <time>2018-09-30T07:49:39Z</time>
      </trkpt>
      <trkpt lat="44.10672" lon="4.87638">
        <ele>50</ele>
        <time>2018-09-30T07:49:42Z</time>
      </trkpt>
      <trkpt lat="44.10695" lon="4.87631">
        <ele>50</ele>
        <time>2018-09-30T07:49:45Z</time>
      </trkpt>
      <trkpt lat="44.1071" lon="4.87626">
        <ele>51</ele>
        <time>2018-09-30T07:49:47Z</time>
      </trkpt>
      <trkpt lat="44.10726" lon="4.87619">
        <ele>51</ele>
        <time>2018-09-30T07:49:49Z</time>
      </trkpt>
      <trkpt lat="44.10751" lon="4.87608">
        <ele>51</ele>
        <time>2018-09-30T07:49:52Z</time>
      </trkpt>
      <trkpt lat="44.10766" lon="4.87599">
        <ele>51</ele>
        <time>2018-09-30T07:49:55Z</time>
      </trkpt>
      <trkpt lat="44.10791" lon="4.87586">
        <ele>51</ele>
        <time>2018-09-30T07:49:57Z</time>
      </trkpt>
      <trkpt lat="44.10814" lon="4.87573">
        <ele>51</ele>
        <time>2018-09-30T07:50:00Z</time>
      </trkpt>
      <trkpt lat="44.10838" lon="4.87561">
        <ele>50</ele>
        <time>2018-09-30T07:50:03Z</time>
      </trkpt>
      <trkpt lat="44.10862" lon="4.87546">
        <ele>49</ele>
        <time>2018-09-30T07:50:06Z</time>
      </trkpt>
      <trkpt lat="44.10877" lon="4.87535">
        <ele>49</ele>
        <time>2018-09-30T07:50:08Z</time>
      </trkpt>
      <trkpt lat="44.10901" lon="4.87517">
        <ele>49</ele>
        <time>2018-09-30T07:50:11Z</time>
      </trkpt>
      <trkpt lat="44.10926" lon="4.875">
        <ele>48</ele>
        <time>2018-09-30T07:50:14Z</time>
      </trkpt>
      <trkpt lat="44.10952" lon="4.87483">
        <ele>48</ele>
        <time>2018-09-30T07:50:17Z</time>
      </trkpt>
      <trkpt lat="44.10969" lon="4.87472">
        <ele>47</ele>
        <time>2018-09-30T07:50:20Z</time>
      </trkpt>
      <trkpt lat="44.10996" lon="4.87458">
        <ele>46</ele>
        <time>2018-09-30T07:50:22Z</time>
      </trkpt>
      <trkpt lat="44.11016" lon="4.8745">
        <ele>46</ele>
        <time>2018-09-30T07:50:24Z</time>
      </trkpt>
      <trkpt lat="44.11047" lon="4.87444">
        <ele>46</ele>
        <time>2018-09-30T07:50:27Z</time>
      </trkpt>
      <trkpt lat="44.11068" lon="4.87443">
        <ele>46</ele>
        <time>2018-09-30T07:50:29Z</time>
      </trkpt>
      <trkpt lat="44.11098" lon="4.87446">
        <ele>46</ele>
        <time>2018-09-30T07:50:32Z</time>
      </trkpt>
      <trkpt lat="44.11118" lon="4.8745">
        <ele>46</ele>
        <time>2018-09-30T07:50:34Z</time>
      </trkpt>
      <trkpt lat="44.11146" lon="4.87458">
        <ele>46</ele>
        <time>2018-09-30T07:50:37Z</time>
      </trkpt>
      <trkpt lat="44.11175" lon="4.87465">
        <ele>46</ele>
        <time>2018-09-30T07:50:40Z</time>
      </trkpt>
      <trkpt lat="44.11194" lon="4.87471">
        <ele>46</ele>
        <time>2018-09-30T07:50:43Z</time>
      </trkpt>
      <trkpt lat="44.11222" lon="4.87479">
        <ele>46</ele>
        <time>2018-09-30T07:50:45Z</time>
      </trkpt>
      <trkpt lat="44.1125" lon="4.87488">
        <ele>46</ele>
        <time>2018-09-30T07:50:48Z</time>
      </trkpt>
      <trkpt lat="44.11266" lon="4.87495">
        <ele>46</ele>
        <time>2018-09-30T07:50:50Z</time>
      </trkpt>
      <trkpt lat="44.1129" lon="4.87506">
        <ele>46</ele>
        <time>2018-09-30T07:50:53Z</time>
      </trkpt>
      <trkpt lat="44.11306" lon="4.87514">
        <ele>46</ele>
        <time>2018-09-30T07:50:55Z</time>
      </trkpt>
      <trkpt lat="44.1133" lon="4.87526">
        <ele>47</ele>
        <time>2018-09-30T07:50:58Z</time>
      </trkpt>
      <trkpt lat="44.11354" lon="4.87537">
        <ele>48</ele>
        <time>2018-09-30T07:51:01Z</time>
      </trkpt>
      <trkpt lat="44.1137" lon="4.87544">
        <ele>48</ele>
        <time>2018-09-30T07:51:04Z</time>
      </trkpt>
      <trkpt lat="44.11396" lon="4.87553">
        <ele>48</ele>
        <time>2018-09-30T07:51:06Z</time>
      </trkpt>
      <trkpt lat="44.11421" lon="4.87559">
        <ele>48</ele>
        <time>2018-09-30T07:51:09Z</time>
      </trkpt>
      <trkpt lat="44.11438" lon="4.87563">
        <ele>48</ele>
        <time>2018-09-30T07:51:11Z</time>
      </trkpt>
      <trkpt lat="44.11462" lon="4.87571">
        <ele>48</ele>
        <time>2018-09-30T07:51:14Z</time>
      </trkpt>
      <trkpt lat="44.11485" lon="4.87581">
        <ele>48</ele>
        <time>2018-09-30T07:51:17Z</time>
      </trkpt>
      <trkpt lat="44.115" lon="4.87587">
        <ele>48</ele>
        <time>2018-09-30T07:51:19Z</time>
      </trkpt>
      <trkpt lat="44.11525" lon="4.87596">
        <ele>48</ele>
        <time>2018-09-30T07:51:22Z</time>
      </trkpt>
      <trkpt lat="44.11549" lon="4.87605">
        <ele>47</ele>
        <time>2018-09-30T07:51:25Z</time>
      </trkpt>
      <trkpt lat="44.11565" lon="4.87611">
        <ele>48</ele>
        <time>2018-09-30T07:51:28Z</time>
      </trkpt>
      <trkpt lat="44.11591" lon="4.87618">
        <ele>48</ele>
        <time>2018-09-30T07:51:30Z</time>
      </trkpt>
      <trkpt lat="44.11617" lon="4.87624">
        <ele>48</ele>
        <time>2018-09-30T07:51:33Z</time>
      </trkpt>
      <trkpt lat="44.1164" lon="4.87627">
        <ele>48</ele>
        <time>2018-09-30T07:51:36Z</time>
      </trkpt>
      <trkpt lat="44.11662" lon="4.87626">
        <ele>48</ele>
        <time>2018-09-30T07:51:39Z</time>
      </trkpt>
      <trkpt lat="44.11682" lon="4.87622">
        <ele>48</ele>
        <time>2018-09-30T07:51:42Z</time>
      </trkpt>
      <trkpt lat="44.11692" lon="4.87631">
        <ele>48</ele>
        <time>2018-09-30T07:51:44Z</time>
      </trkpt>
      <trkpt lat="44.11694" lon="4.87656">
        <ele>48</ele>
        <time>2018-09-30T07:51:47Z</time>
      </trkpt>
      <trkpt lat="44.11697" lon="4.87672">
        <ele>47</ele>
        <time>2018-09-30T07:51:49Z</time>
      </trkpt>
      <trkpt lat="44.11711" lon="4.87684">
        <ele>47</ele>
        <time>2018-09-30T07:51:52Z</time>
      </trkpt>
      <trkpt lat="44.11723" lon="4.8768">
        <ele>47</ele>
        <time>2018-09-30T07:51:55Z</time>
      </trkpt>
      <trkpt lat="44.11742" lon="4.87669">
        <ele>47</ele>
        <time>2018-09-30T07:51:57Z</time>
      </trkpt>
      <trkpt lat="44.11761" lon="4.87657">
        <ele>47</ele>
        <time>2018-09-30T07:52:00Z</time>
      </trkpt>
      <trkpt lat="44.11775" lon="4.87653">
        <ele>47</ele>
        <time>2018-09-30T07:52:02Z</time>
      </trkpt>
      <trkpt lat="44.11799" lon="4.87654">
        <ele>46</ele>
        <time>2018-09-30T07:52:05Z</time>
      </trkpt>
      <trkpt lat="44.11824" lon="4.87659">
        <ele>47</ele>
        <time>2018-09-30T07:52:08Z</time>
      </trkpt>
      <trkpt lat="44.11849" lon="4.87664">
        <ele>47</ele>
        <time>2018-09-30T07:52:11Z</time>
      </trkpt>
      <trkpt lat="44.11875" lon="4.87667">
        <ele>48</ele>
        <time>2018-09-30T07:52:14Z</time>
      </trkpt>
      <trkpt lat="44.11892" lon="4.87669">
        <ele>48</ele>
        <time>2018-09-30T07:52:17Z</time>
      </trkpt>
      <trkpt lat="44.11917" lon="4.8767">
        <ele>48</ele>
        <time>2018-09-30T07:52:19Z</time>
      </trkpt>
      <trkpt lat="44.11935" lon="4.87669">
        <ele>48</ele>
        <time>2018-09-30T07:52:21Z</time>
      </trkpt>
      <trkpt lat="44.11952" lon="4.87669">
        <ele>48</ele>
        <time>2018-09-30T07:52:23Z</time>
      </trkpt>
      <trkpt lat="44.11969" lon="4.87669">
        <ele>48</ele>
        <time>2018-09-30T07:52:25Z</time>
      </trkpt>
      <trkpt lat="44.11995" lon="4.8767">
        <ele>48</ele>
        <time>2018-09-30T07:52:28Z</time>
      </trkpt>
      <trkpt lat="44.12012" lon="4.8767">
        <ele>47</ele>
        <time>2018-09-30T07:52:30Z</time>
      </trkpt>
      <trkpt lat="44.12029" lon="4.8767">
        <ele>47</ele>
        <time>2018-09-30T07:52:32Z</time>
      </trkpt>
      <trkpt lat="44.12046" lon="4.87669">
        <ele>46</ele>
        <time>2018-09-30T07:52:34Z</time>
      </trkpt>
      <trkpt lat="44.12072" lon="4.87668">
        <ele>46</ele>
        <time>2018-09-30T07:52:37Z</time>
      </trkpt>
      <trkpt lat="44.12089" lon="4.87668">
        <ele>47</ele>
        <time>2018-09-30T07:52:39Z</time>
      </trkpt>
      <trkpt lat="44.12106" lon="4.87667">
        <ele>46</ele>
        <time>2018-09-30T07:52:41Z</time>
      </trkpt>
      <trkpt lat="44.12132" lon="4.87663">
        <ele>46</ele>
        <time>2018-09-30T07:52:44Z</time>
      </trkpt>
      <trkpt lat="44.12158" lon="4.87656">
        <ele>46</ele>
        <time>2018-09-30T07:52:47Z</time>
      </trkpt>
      <trkpt lat="44.12175" lon="4.87652">
        <ele>46</ele>
        <time>2018-09-30T07:52:49Z</time>
      </trkpt>
      <trkpt lat="44.12201" lon="4.8765">
        <ele>46</ele>
        <time>2018-09-30T07:52:52Z</time>
      </trkpt>
      <trkpt lat="44.12218" lon="4.87649">
        <ele>46</ele>
        <time>2018-09-30T07:52:54Z</time>
      </trkpt>
      <trkpt lat="44.12244" lon="4.87647">
        <ele>46</ele>
        <time>2018-09-30T07:52:57Z</time>
      </trkpt>
      <trkpt lat="44.1227" lon="4.87644">
        <ele>46</ele>
        <time>2018-09-30T07:53:00Z</time>
      </trkpt>
      <trkpt lat="44.12294" lon="4.87639">
        <ele>46</ele>
        <time>2018-09-30T07:53:03Z</time>
      </trkpt>
      <trkpt lat="44.12317" lon="4.87634">
        <ele>46</ele>
        <time>2018-09-30T07:53:06Z</time>
      </trkpt>
      <trkpt lat="44.12339" lon="4.8763">
        <ele>46</ele>
        <time>2018-09-30T07:53:09Z</time>
      </trkpt>
      <trkpt lat="44.12362" lon="4.87626">
        <ele>46</ele>
        <time>2018-09-30T07:53:12Z</time>
      </trkpt>
      <trkpt lat="44.12388" lon="4.87623">
        <ele>46</ele>
        <time>2018-09-30T07:53:15Z</time>
      </trkpt>
      <trkpt lat="44.12405" lon="4.87619">
        <ele>46</ele>
        <time>2018-09-30T07:53:17Z</time>
      </trkpt>
      <trkpt lat="44.12421" lon="4.87616">
        <ele>46</ele>
        <time>2018-09-30T07:53:20Z</time>
      </trkpt>
      <trkpt lat="44.12443" lon="4.87613">
        <ele>46</ele>
        <time>2018-09-30T07:53:22Z</time>
      </trkpt>
      <trkpt lat="44.12466" lon="4.8761">
        <ele>46</ele>
        <time>2018-09-30T07:53:25Z</time>
      </trkpt>
      <trkpt lat="44.1249" lon="4.87609">
        <ele>46</ele>
        <time>2018-09-30T07:53:28Z</time>
      </trkpt>
      <trkpt lat="44.12506" lon="4.87607">
        <ele>46</ele>
        <time>2018-09-30T07:53:30Z</time>
      </trkpt>
      <trkpt lat="44.1253" lon="4.87606">
        <ele>47</ele>
        <time>2018-09-30T07:53:33Z</time>
      </trkpt>
      <trkpt lat="44.12546" lon="4.87605">
        <ele>47</ele>
        <time>2018-09-30T07:53:35Z</time>
      </trkpt>
      <trkpt lat="44.12562" lon="4.87605">
        <ele>47</ele>
        <time>2018-09-30T07:53:37Z</time>
      </trkpt>
      <trkpt lat="44.12577" lon="4.87604">
        <ele>47</ele>
        <time>2018-09-30T07:53:39Z</time>
      </trkpt>
      <trkpt lat="44.12592" lon="4.87604">
        <ele>46</ele>
        <time>2018-09-30T07:53:42Z</time>
      </trkpt>
      <trkpt lat="44.12614" lon="4.87604">
        <ele>46</ele>
        <time>2018-09-30T07:53:44Z</time>
      </trkpt>
      <trkpt lat="44.12634" lon="4.87606">
        <ele>47</ele>
        <time>2018-09-30T07:53:47Z</time>
      </trkpt>
      <trkpt lat="44.12652" lon="4.8761">
        <ele>47</ele>
        <time>2018-09-30T07:53:50Z</time>
      </trkpt>
      <trkpt lat="44.12661" lon="4.87624">
        <ele>47</ele>
        <time>2018-09-30T07:53:53Z</time>
      </trkpt>
      <trkpt lat="44.12662" lon="4.87649">
        <ele>47</ele>
        <time>2018-09-30T07:53:56Z</time>
      </trkpt>
      <trkpt lat="44.12663" lon="4.87683">
        <ele>46</ele>
        <time>2018-09-30T07:53:59Z</time>
      </trkpt>
      <trkpt lat="44.12664" lon="4.87709">
        <ele>45</ele>
        <time>2018-09-30T07:54:01Z</time>
      </trkpt>
      <trkpt lat="44.12664" lon="4.87736">
        <ele>45</ele>
        <time>2018-09-30T07:54:03Z</time>
      </trkpt>
      <trkpt lat="44.12665" lon="4.87777">
        <ele>44</ele>
        <time>2018-09-30T07:54:06Z</time>
      </trkpt>
      <trkpt lat="44.12666" lon="4.87806">
        <ele>44</ele>
        <time>2018-09-30T07:54:08Z</time>
      </trkpt>
      <trkpt lat="44.12667" lon="4.87836">
        <ele>43</ele>
        <time>2018-09-30T07:54:10Z</time>
      </trkpt>
      <trkpt lat="44.12667" lon="4.87864">
        <ele>43</ele>
        <time>2018-09-30T07:54:12Z</time>
      </trkpt>
      <trkpt lat="44.12667" lon="4.87906">
        <ele>42</ele>
        <time>2018-09-30T07:54:15Z</time>
      </trkpt>
      <trkpt lat="44.12666" lon="4.87932">
        <ele>42</ele>
        <time>2018-09-30T07:54:17Z</time>
      </trkpt>
      <trkpt lat="44.12663" lon="4.87971">
        <ele>42</ele>
        <time>2018-09-30T07:54:20Z</time>
      </trkpt>
      <trkpt lat="44.12659" lon="4.88008">
        <ele>42</ele>
        <time>2018-09-30T07:54:23Z</time>
      </trkpt>
      <trkpt lat="44.12656" lon="4.88032">
        <ele>42</ele>
        <time>2018-09-30T07:54:25Z</time>
      </trkpt>
      <trkpt lat="44.12653" lon="4.88056">
        <ele>42</ele>
        <time>2018-09-30T07:54:28Z</time>
      </trkpt>
      <trkpt lat="44.12649" lon="4.88093">
        <ele>43</ele>
        <time>2018-09-30T07:54:30Z</time>
      </trkpt>
      <trkpt lat="44.12646" lon="4.88118">
        <ele>43</ele>
        <time>2018-09-30T07:54:32Z</time>
      </trkpt>
      <trkpt lat="44.12643" lon="4.88155">
        <ele>43</ele>
        <time>2018-09-30T07:54:35Z</time>
      </trkpt>
      <trkpt lat="44.12639" lon="4.88193">
        <ele>43</ele>
        <time>2018-09-30T07:54:38Z</time>
      </trkpt>
      <trkpt lat="44.12634" lon="4.8823">
        <ele>43</ele>
        <time>2018-09-30T07:54:41Z</time>
      </trkpt>
      <trkpt lat="44.12627" lon="4.88253">
        <ele>44</ele>
        <time>2018-09-30T07:54:43Z</time>
      </trkpt>
      <trkpt lat="44.1262" lon="4.8829">
        <ele>43</ele>
        <time>2018-09-30T07:54:46Z</time>
      </trkpt>
      <trkpt lat="44.12618" lon="4.88316">
        <ele>44</ele>
        <time>2018-09-30T07:54:49Z</time>
      </trkpt>
      <trkpt lat="44.12618" lon="4.88353">
        <ele>43</ele>
        <time>2018-09-30T07:54:51Z</time>
      </trkpt>
      <trkpt lat="44.12619" lon="4.88376">
        <ele>43</ele>
        <time>2018-09-30T07:54:53Z</time>
      </trkpt>
      <trkpt lat="44.12619" lon="4.88411">
        <ele>42</ele>
        <time>2018-09-30T07:54:56Z</time>
      </trkpt>
      <trkpt lat="44.12621" lon="4.88446">
        <ele>43</ele>
        <time>2018-09-30T07:54:59Z</time>
      </trkpt>
      <trkpt lat="44.12624" lon="4.8847">
        <ele>43</ele>
        <time>2018-09-30T07:55:01Z</time>
      </trkpt>
      <trkpt lat="44.12631" lon="4.88507">
        <ele>44</ele>
        <time>2018-09-30T07:55:04Z</time>
      </trkpt>
      <trkpt lat="44.12634" lon="4.88548">
        <ele>43</ele>
        <time>2018-09-30T07:55:07Z</time>
      </trkpt>
      <trkpt lat="44.12635" lon="4.88575">
        <ele>44</ele>
        <time>2018-09-30T07:55:10Z</time>
      </trkpt>
      <trkpt lat="44.12637" lon="4.88615">
        <ele>44</ele>
        <time>2018-09-30T07:55:12Z</time>
      </trkpt>
      <trkpt lat="44.1264" lon="4.88654">
        <ele>44</ele>
        <time>2018-09-30T07:55:15Z</time>
      </trkpt>
      <trkpt lat="44.12643" lon="4.8869">
        <ele>44</ele>
        <time>2018-09-30T07:55:18Z</time>
      </trkpt>
      <trkpt lat="44.12643" lon="4.88718">
        <ele>44</ele>
        <time>2018-09-30T07:55:21Z</time>
      </trkpt>
      <trkpt lat="44.12643" lon="4.88734">
        <ele>43</ele>
        <time>2018-09-30T07:55:23Z</time>
      </trkpt>
      <trkpt lat="44.12643" lon="4.88753">
        <ele>43</ele>
        <time>2018-09-30T07:55:26Z</time>
      </trkpt>
      <trkpt lat="44.12651" lon="4.88764">
        <ele>43</ele>
        <time>2018-09-30T07:55:29Z</time>
      </trkpt>
      <trkpt lat="44.1266" lon="4.88769">
        <ele>43</ele>
        <time>2018-09-30T07:55:31Z</time>
      </trkpt>
      <trkpt lat="44.1267" lon="4.88776">
        <ele>43</ele>
        <time>2018-09-30T07:55:34Z</time>
      </trkpt>
      <trkpt lat="44.12688" lon="4.8879">
        <ele>44</ele>
        <time>2018-09-30T07:55:36Z</time>
      </trkpt>
      <trkpt lat="44.12708" lon="4.88804">
        <ele>44</ele>
        <time>2018-09-30T07:55:39Z</time>
      </trkpt>
      <trkpt lat="44.12723" lon="4.88815">
        <ele>45</ele>
        <time>2018-09-30T07:55:41Z</time>
      </trkpt>
      <trkpt lat="44.12748" lon="4.88831">
        <ele>45</ele>
        <time>2018-09-30T07:55:44Z</time>
      </trkpt>
      <trkpt lat="44.12764" lon="4.88842">
        <ele>46</ele>
        <time>2018-09-30T07:55:46Z</time>
      </trkpt>
      <trkpt lat="44.1278" lon="4.88853">
        <ele>46</ele>
        <time>2018-09-30T07:55:48Z</time>
      </trkpt>
      <trkpt lat="44.12797" lon="4.88864">
        <ele>46</ele>
        <time>2018-09-30T07:55:50Z</time>
      </trkpt>
      <trkpt lat="44.12814" lon="4.88874">
        <ele>46</ele>
        <time>2018-09-30T07:55:52Z</time>
      </trkpt>
      <trkpt lat="44.12832" lon="4.88884">
        <ele>45</ele>
        <time>2018-09-30T07:55:55Z</time>
      </trkpt>
      <trkpt lat="44.12858" lon="4.88895">
        <ele>45</ele>
        <time>2018-09-30T07:55:57Z</time>
      </trkpt>
      <trkpt lat="44.12883" lon="4.88905">
        <ele>46</ele>
        <time>2018-09-30T07:56:00Z</time>
      </trkpt>
      <trkpt lat="44.12907" lon="4.88918">
        <ele>46</ele>
        <time>2018-09-30T07:56:03Z</time>
      </trkpt>
      <trkpt lat="44.1293" lon="4.8893">
        <ele>46</ele>
        <time>2018-09-30T07:56:06Z</time>
      </trkpt>
      <trkpt lat="44.12943" lon="4.88937">
        <ele>45</ele>
        <time>2018-09-30T07:56:08Z</time>
      </trkpt>
      <trkpt lat="44.12951" lon="4.88942">
        <ele>45</ele>
        <time>2018-09-30T07:56:10Z</time>
      </trkpt>
      <trkpt lat="44.12957" lon="4.88945">
        <ele>45</ele>
        <time>2018-09-30T07:56:12Z</time>
      </trkpt>
      <trkpt lat="44.12964" lon="4.88948">
        <ele>45</ele>
        <time>2018-09-30T07:56:14Z</time>
      </trkpt>
      <trkpt lat="44.12975" lon="4.88942">
        <ele>45</ele>
        <time>2018-09-30T07:56:17Z</time>
      </trkpt>
      <trkpt lat="44.12981" lon="4.88934">
        <ele>45</ele>
        <time>2018-09-30T07:56:20Z</time>
      </trkpt>
      <trkpt lat="44.12991" lon="4.8892">
        <ele>45</ele>
        <time>2018-09-30T07:56:22Z</time>
      </trkpt>
      <trkpt lat="44.13002" lon="4.88905">
        <ele>46</ele>
        <time>2018-09-30T07:56:25Z</time>
      </trkpt>
      <trkpt lat="44.13015" lon="4.88886">
        <ele>46</ele>
        <time>2018-09-30T07:56:28Z</time>
      </trkpt>
      <trkpt lat="44.13029" lon="4.88864">
        <ele>47</ele>
        <time>2018-09-30T07:56:31Z</time>
      </trkpt>
      <trkpt lat="44.13046" lon="4.88839">
        <ele>47</ele>
        <time>2018-09-30T07:56:34Z</time>
      </trkpt>
      <trkpt lat="44.13057" lon="4.88822">
        <ele>47</ele>
        <time>2018-09-30T07:56:36Z</time>
      </trkpt>
      <trkpt lat="44.13068" lon="4.88805">
        <ele>47</ele>
        <time>2018-09-30T07:56:38Z</time>
      </trkpt>
      <trkpt lat="44.13078" lon="4.8879">
        <ele>47</ele>
        <time>2018-09-30T07:56:41Z</time>
      </trkpt>
      <trkpt lat="44.13092" lon="4.88769">
        <ele>47</ele>
        <time>2018-09-30T07:56:43Z</time>
      </trkpt>
      <trkpt lat="44.13102" lon="4.88755">
        <ele>47</ele>
        <time>2018-09-30T07:56:45Z</time>
      </trkpt>
      <trkpt lat="44.13112" lon="4.8874">
        <ele>47</ele>
        <time>2018-09-30T07:56:47Z</time>
      </trkpt>
      <trkpt lat="44.13121" lon="4.88723">
        <ele>46</ele>
        <time>2018-09-30T07:56:49Z</time>
      </trkpt>
      <trkpt lat="44.13137" lon="4.88698">
        <ele>47</ele>
        <time>2018-09-30T07:56:52Z</time>
      </trkpt>
      <trkpt lat="44.13148" lon="4.88681">
        <ele>47</ele>
        <time>2018-09-30T07:56:54Z</time>
      </trkpt>
      <trkpt lat="44.1316" lon="4.88663">
        <ele>47</ele>
        <time>2018-09-30T07:56:56Z</time>
      </trkpt>
      <trkpt lat="44.13173" lon="4.88645">
        <ele>47</ele>
        <time>2018-09-30T07:56:58Z</time>
      </trkpt>
      <trkpt lat="44.13184" lon="4.88626">
        <ele>47</ele>
        <time>2018-09-30T07:57:00Z</time>
      </trkpt>
      <trkpt lat="44.132" lon="4.88599">
        <ele>46</ele>
        <time>2018-09-30T07:57:03Z</time>
      </trkpt>
      <trkpt lat="44.1321" lon="4.88582">
        <ele>46</ele>
        <time>2018-09-30T07:57:05Z</time>
      </trkpt>
      <trkpt lat="44.13224" lon="4.88557">
        <ele>46</ele>
        <time>2018-09-30T07:57:08Z</time>
      </trkpt>
      <trkpt lat="44.13242" lon="4.88531">
        <ele>46</ele>
        <time>2018-09-30T07:57:11Z</time>
      </trkpt>
      <trkpt lat="44.13253" lon="4.88514">
        <ele>46</ele>
        <time>2018-09-30T07:57:13Z</time>
      </trkpt>
      <trkpt lat="44.13266" lon="4.88496">
        <ele>46</ele>
        <time>2018-09-30T07:57:15Z</time>
      </trkpt>
      <trkpt lat="44.13286" lon="4.88469">
        <ele>46</ele>
        <time>2018-09-30T07:57:18Z</time>
      </trkpt>
      <trkpt lat="44.13298" lon="4.88448">
        <ele>46</ele>
        <time>2018-09-30T07:57:20Z</time>
      </trkpt>
      <trkpt lat="44.13316" lon="4.88417">
        <ele>45</ele>
        <time>2018-09-30T07:57:23Z</time>
      </trkpt>
      <trkpt lat="44.13328" lon="4.88396">
        <ele>45</ele>
        <time>2018-09-30T07:57:26Z</time>
      </trkpt>
      <trkpt lat="44.13343" lon="4.88365">
        <ele>45</ele>
        <time>2018-09-30T07:57:28Z</time>
      </trkpt>
      <trkpt lat="44.13356" lon="4.88333">
        <ele>45</ele>
        <time>2018-09-30T07:57:31Z</time>
      </trkpt>
      <trkpt lat="44.13369" lon="4.88302">
        <ele>45</ele>
        <time>2018-09-30T07:57:34Z</time>
      </trkpt>
      <trkpt lat="44.13383" lon="4.8827">
        <ele>46</ele>
        <time>2018-09-30T07:57:37Z</time>
      </trkpt>
      <trkpt lat="44.13395" lon="4.88239">
        <ele>46</ele>
        <time>2018-09-30T07:57:40Z</time>
      </trkpt>
      <trkpt lat="44.13406" lon="4.88209">
        <ele>46</ele>
        <time>2018-09-30T07:57:43Z</time>
      </trkpt>
      <trkpt lat="44.13419" lon="4.88179">
        <ele>45</ele>
        <time>2018-09-30T07:57:46Z</time>
      </trkpt>
      <trkpt lat="44.13435" lon="4.88149">
        <ele>45</ele>
        <time>2018-09-30T07:57:49Z</time>
      </trkpt>
      <trkpt lat="44.13445" lon="4.88129">
        <ele>45</ele>
        <time>2018-09-30T07:57:52Z</time>
      </trkpt>
      <trkpt lat="44.13461" lon="4.88101">
        <ele>45</ele>
        <time>2018-09-30T07:57:54Z</time>
      </trkpt>
      <trkpt lat="44.13471" lon="4.88082">
        <ele>45</ele>
        <time>2018-09-30T07:57:56Z</time>
      </trkpt>
      <trkpt lat="44.13481" lon="4.88064">
        <ele>45</ele>
        <time>2018-09-30T07:57:58Z</time>
      </trkpt>
      <trkpt lat="44.13497" lon="4.88035">
        <ele>45</ele>
        <time>2018-09-30T07:58:01Z</time>
      </trkpt>
      <trkpt lat="44.13507" lon="4.88018">
        <ele>46</ele>
        <time>2018-09-30T07:58:03Z</time>
      </trkpt>
      <trkpt lat="44.13516" lon="4.88001">
        <ele>46</ele>
        <time>2018-09-30T07:58:05Z</time>
      </trkpt>
      <trkpt lat="44.13524" lon="4.87987">
        <ele>47</ele>
        <time>2018-09-30T07:58:07Z</time>
      </trkpt>
      <trkpt lat="44.1353" lon="4.87975">
        <ele>48</ele>
        <time>2018-09-30T07:58:09Z</time>
      </trkpt>
      <trkpt lat="44.13537" lon="4.87963">
        <ele>48</ele>
        <time>2018-09-30T07:58:12Z</time>
      </trkpt>
      <trkpt lat="44.13542" lon="4.87958">
        <ele>49</ele>
        <time>2018-09-30T07:58:14Z</time>
      </trkpt>
      <trkpt lat="44.13554" lon="4.87957">
        <ele>49</ele>
        <time>2018-09-30T07:58:17Z</time>
      </trkpt>
      <trkpt lat="44.13564" lon="4.8796">
        <ele>50</ele>
        <time>2018-09-30T07:58:19Z</time>
      </trkpt>
      <trkpt lat="44.13581" lon="4.87968">
        <ele>50</ele>
        <time>2018-09-30T07:58:22Z</time>
      </trkpt>
      <trkpt lat="44.136" lon="4.87976">
        <ele>51</ele>
        <time>2018-09-30T07:58:25Z</time>
      </trkpt>
      <trkpt lat="44.13621" lon="4.87984">
        <ele>51</ele>
        <time>2018-09-30T07:58:28Z</time>
      </trkpt>
      <trkpt lat="44.13634" lon="4.87989">
        <ele>52</ele>
        <time>2018-09-30T07:58:30Z</time>
      </trkpt>
      <trkpt lat="44.13647" lon="4.87994">
        <ele>52</ele>
        <time>2018-09-30T07:58:32Z</time>
      </trkpt>
      <trkpt lat="44.1366" lon="4.88">
        <ele>52</ele>
        <time>2018-09-30T07:58:34Z</time>
      </trkpt>
      <trkpt lat="44.13673" lon="4.88005">
        <ele>52</ele>
        <time>2018-09-30T07:58:36Z</time>
      </trkpt>
      <trkpt lat="44.13685" lon="4.8801">
        <ele>52</ele>
        <time>2018-09-30T07:58:38Z</time>
      </trkpt>
      <trkpt lat="44.13698" lon="4.88015">
        <ele>52</ele>
        <time>2018-09-30T07:58:40Z</time>
      </trkpt>
      <trkpt lat="44.13717" lon="4.88023">
        <ele>53</ele>
        <time>2018-09-30T07:58:43Z</time>
      </trkpt>
      <trkpt lat="44.13731" lon="4.88029">
        <ele>53</ele>
        <time>2018-09-30T07:58:45Z</time>
      </trkpt>
      <trkpt lat="44.13744" lon="4.88034">
        <ele>52</ele>
        <time>2018-09-30T07:58:47Z</time>
      </trkpt>
      <trkpt lat="44.13756" lon="4.88038">
        <ele>52</ele>
        <time>2018-09-30T07:58:49Z</time>
      </trkpt>
      <trkpt lat="44.13771" lon="4.88029">
        <ele>52</ele>
        <time>2018-09-30T07:58:52Z</time>
      </trkpt>
      <trkpt lat="44.13783" lon="4.88006">
        <ele>53</ele>
        <time>2018-09-30T07:58:55Z</time>
      </trkpt>
      <trkpt lat="44.13792" lon="4.87989">
        <ele>53</ele>
        <time>2018-09-30T07:58:57Z</time>
      </trkpt>
      <trkpt lat="44.13802" lon="4.87971">
        <ele>54</ele>
        <time>2018-09-30T07:59:00Z</time>
      </trkpt>
      <trkpt lat="44.13817" lon="4.87944">
        <ele>54</ele>
        <time>2018-09-30T07:59:02Z</time>
      </trkpt>
      <trkpt lat="44.13833" lon="4.87915">
        <ele>55</ele>
        <time>2018-09-30T07:59:05Z</time>
      </trkpt>
      <trkpt lat="44.13843" lon="4.87896">
        <ele>54</ele>
        <time>2018-09-30T07:59:07Z</time>
      </trkpt>
      <trkpt lat="44.13853" lon="4.87875">
        <ele>54</ele>
        <time>2018-09-30T07:59:09Z</time>
      </trkpt>
      <trkpt lat="44.1387" lon="4.87844">
        <ele>55</ele>
        <time>2018-09-30T07:59:12Z</time>
      </trkpt>
      <trkpt lat="44.13882" lon="4.87823">
        <ele>54</ele>
        <time>2018-09-30T07:59:14Z</time>
      </trkpt>
      <trkpt lat="44.13899" lon="4.87792">
        <ele>54</ele>
        <time>2018-09-30T07:59:17Z</time>
      </trkpt>
      <trkpt lat="44.13911" lon="4.87772">
        <ele>54</ele>
        <time>2018-09-30T07:59:19Z</time>
      </trkpt>
      <trkpt lat="44.13922" lon="4.87753">
        <ele>53</ele>
        <time>2018-09-30T07:59:21Z</time>
      </trkpt>
      <trkpt lat="44.13941" lon="4.87726">
        <ele>54</ele>
        <time>2018-09-30T07:59:24Z</time>
      </trkpt>
      <trkpt lat="44.13954" lon="4.8771">
        <ele>53</ele>
        <time>2018-09-30T07:59:26Z</time>
      </trkpt>
      <trkpt lat="44.13968" lon="4.87694">
        <ele>52</ele>
        <time>2018-09-30T07:59:28Z</time>
      </trkpt>
      <trkpt lat="44.1399" lon="4.87674">
        <ele>51</ele>
        <time>2018-09-30T07:59:31Z</time>
      </trkpt>
      <trkpt lat="44.14008" lon="4.87652">
        <ele>51</ele>
        <time>2018-09-30T07:59:34Z</time>
      </trkpt>
      <trkpt lat="44.14016" lon="4.87619">
        <ele>51</ele>
        <time>2018-09-30T07:59:37Z</time>
      </trkpt>
      <trkpt lat="44.14025" lon="4.87597">
        <ele>50</ele>
        <time>2018-09-30T07:59:39Z</time>
      </trkpt>
      <trkpt lat="44.14039" lon="4.87583">
        <ele>50</ele>
        <time>2018-09-30T07:59:41Z</time>
      </trkpt>
      <trkpt lat="44.14058" lon="4.87578">
        <ele>51</ele>
        <time>2018-09-30T07:59:44Z</time>
      </trkpt>
      <trkpt lat="44.14086" lon="4.87576">
        <ele>50</ele>
        <time>2018-09-30T07:59:46Z</time>
      </trkpt>
      <trkpt lat="44.14114" lon="4.87574">
        <ele>51</ele>
        <time>2018-09-30T07:59:49Z</time>
      </trkpt>
      <trkpt lat="44.14133" lon="4.87574">
        <ele>51</ele>
        <time>2018-09-30T07:59:51Z</time>
      </trkpt>
      <trkpt lat="44.14151" lon="4.87573">
        <ele>51</ele>
        <time>2018-09-30T07:59:53Z</time>
      </trkpt>
      <trkpt lat="44.14169" lon="4.87572">
        <ele>51</ele>
        <time>2018-09-30T07:59:55Z</time>
      </trkpt>
      <trkpt lat="44.14187" lon="4.87569">
        <ele>51</ele>
        <time>2018-09-30T07:59:57Z</time>
      </trkpt>
      <trkpt lat="44.14204" lon="4.87564">
        <ele>50</ele>
        <time>2018-09-30T07:59:59Z</time>
      </trkpt>
      <trkpt lat="44.14222" lon="4.8756">
        <ele>50</ele>
        <time>2018-09-30T08:00:01Z</time>
      </trkpt>
      <trkpt lat="44.14247" lon="4.87554">
        <ele>51</ele>
        <time>2018-09-30T08:00:04Z</time>
      </trkpt>
      <trkpt lat="44.14263" lon="4.87551">
        <ele>51</ele>
        <time>2018-09-30T08:00:06Z</time>
      </trkpt>
      <trkpt lat="44.1428" lon="4.8755">
        <ele>51</ele>
        <time>2018-09-30T08:00:08Z</time>
      </trkpt>
      <trkpt lat="44.14297" lon="4.87548">
        <ele>51</ele>
        <time>2018-09-30T08:00:10Z</time>
      </trkpt>
      <trkpt lat="44.14323" lon="4.87546">
        <ele>52</ele>
        <time>2018-09-30T08:00:13Z</time>
      </trkpt>
      <trkpt lat="44.14341" lon="4.87545">
        <ele>52</ele>
        <time>2018-09-30T08:00:15Z</time>
      </trkpt>
      <trkpt lat="44.14368" lon="4.87542">
        <ele>52</ele>
        <time>2018-09-30T08:00:18Z</time>
      </trkpt>
      <trkpt lat="44.14385" lon="4.8754">
        <ele>53</ele>
        <time>2018-09-30T08:00:20Z</time>
      </trkpt>
      <trkpt lat="44.14403" lon="4.87539">
        <ele>52</ele>
        <time>2018-09-30T08:00:23Z</time>
      </trkpt>
      <trkpt lat="44.1443" lon="4.87537">
        <ele>52</ele>
        <time>2018-09-30T08:00:25Z</time>
      </trkpt>
      <trkpt lat="44.14456" lon="4.87536">
        <ele>52</ele>
        <time>2018-09-30T08:00:28Z</time>
      </trkpt>
      <trkpt lat="44.14473" lon="4.87534">
        <ele>52</ele>
        <time>2018-09-30T08:00:30Z</time>
      </trkpt>
      <trkpt lat="44.145" lon="4.87532">
        <ele>52</ele>
        <time>2018-09-30T08:00:33Z</time>
      </trkpt>
      <trkpt lat="44.14517" lon="4.8753">
        <ele>53</ele>
        <time>2018-09-30T08:00:35Z</time>
      </trkpt>
      <trkpt lat="44.14545" lon="4.87528">
        <ele>53</ele>
        <time>2018-09-30T08:00:38Z</time>
      </trkpt>
      <trkpt lat="44.14572" lon="4.87526">
        <ele>53</ele>
        <time>2018-09-30T08:00:41Z</time>
      </trkpt>
      <trkpt lat="44.14598" lon="4.87525">
        <ele>53</ele>
        <time>2018-09-30T08:00:44Z</time>
      </trkpt>
      <trkpt lat="44.14616" lon="4.87524">
        <ele>53</ele>
        <time>2018-09-30T08:00:47Z</time>
      </trkpt>
      <trkpt lat="44.14641" lon="4.8752">
        <ele>53</ele>
        <time>2018-09-30T08:00:49Z</time>
      </trkpt>
      <trkpt lat="44.14666" lon="4.87513">
        <ele>53</ele>
        <time>2018-09-30T08:00:52Z</time>
      </trkpt>
      <trkpt lat="44.14691" lon="4.87505">
        <ele>54</ele>
        <time>2018-09-30T08:00:55Z</time>
      </trkpt>
      <trkpt lat="44.14718" lon="4.87496">
        <ele>54</ele>
        <time>2018-09-30T08:00:58Z</time>
      </trkpt>
      <trkpt lat="44.14745" lon="4.87488">
        <ele>55</ele>
        <time>2018-09-30T08:01:01Z</time>
      </trkpt>
      <trkpt lat="44.14769" lon="4.87479">
        <ele>54</ele>
        <time>2018-09-30T08:01:04Z</time>
      </trkpt>
      <trkpt lat="44.14786" lon="4.87474">
        <ele>54</ele>
        <time>2018-09-30T08:01:06Z</time>
      </trkpt>
      <trkpt lat="44.14812" lon="4.87465">
        <ele>54</ele>
        <time>2018-09-30T08:01:09Z</time>
      </trkpt>
      <trkpt lat="44.14837" lon="4.87458">
        <ele>55</ele>
        <time>2018-09-30T08:01:12Z</time>
      </trkpt>
      <trkpt lat="44.14855" lon="4.87454">
        <ele>55</ele>
        <time>2018-09-30T08:01:14Z</time>
      </trkpt>
      <trkpt lat="44.14883" lon="4.87449">
        <ele>55</ele>
        <time>2018-09-30T08:01:17Z</time>
      </trkpt>
      <trkpt lat="44.14911" lon="4.87443">
        <ele>55</ele>
        <time>2018-09-30T08:01:20Z</time>
      </trkpt>
      <trkpt lat="44.14938" lon="4.87437">
        <ele>55</ele>
        <time>2018-09-30T08:01:23Z</time>
      </trkpt>
      <trkpt lat="44.14966" lon="4.87431">
        <ele>55</ele>
        <time>2018-09-30T08:01:26Z</time>
      </trkpt>
      <trkpt lat="44.14994" lon="4.87421">
        <ele>55</ele>
        <time>2018-09-30T08:01:29Z</time>
      </trkpt>
      <trkpt lat="44.15018" lon="4.87404">
        <ele>55</ele>
        <time>2018-09-30T08:01:32Z</time>
      </trkpt>
      <trkpt lat="44.15041" lon="4.87382">
        <ele>54</ele>
        <time>2018-09-30T08:01:35Z</time>
      </trkpt>
      <trkpt lat="44.15054" lon="4.87365">
        <ele>54</ele>
        <time>2018-09-30T08:01:37Z</time>
      </trkpt>
      <trkpt lat="44.15072" lon="4.87342">
        <ele>55</ele>
        <time>2018-09-30T08:01:40Z</time>
      </trkpt>
      <trkpt lat="44.15084" lon="4.87327">
        <ele>55</ele>
        <time>2018-09-30T08:01:42Z</time>
      </trkpt>
      <trkpt lat="44.15096" lon="4.87312">
        <ele>55</ele>
        <time>2018-09-30T08:01:44Z</time>
      </trkpt>
      <trkpt lat="44.15114" lon="4.87288">
        <ele>55</ele>
        <time>2018-09-30T08:01:47Z</time>
      </trkpt>
      <trkpt lat="44.15131" lon="4.87263">
        <ele>55</ele>
        <time>2018-09-30T08:01:50Z</time>
      </trkpt>
      <trkpt lat="44.15149" lon="4.8724">
        <ele>55</ele>
        <time>2018-09-30T08:01:53Z</time>
      </trkpt>
      <trkpt lat="44.1516" lon="4.87226">
        <ele>55</ele>
        <time>2018-09-30T08:01:55Z</time>
      </trkpt>
      <trkpt lat="44.15173" lon="4.87214">
        <ele>55</ele>
        <time>2018-09-30T08:01:57Z</time>
      </trkpt>
      <trkpt lat="44.15186" lon="4.87201">
        <ele>55</ele>
        <time>2018-09-30T08:02:00Z</time>
      </trkpt>
      <trkpt lat="44.15205" lon="4.87182">
        <ele>55</ele>
        <time>2018-09-30T08:02:02Z</time>
      </trkpt>
      <trkpt lat="44.15219" lon="4.8717">
        <ele>55</ele>
        <time>2018-09-30T08:02:04Z</time>
      </trkpt>
      <trkpt lat="44.15244" lon="4.8716">
        <ele>55</ele>
        <time>2018-09-30T08:02:07Z</time>
      </trkpt>
      <trkpt lat="44.15261" lon="4.87159">
        <ele>55</ele>
        <time>2018-09-30T08:02:09Z</time>
      </trkpt>
      <trkpt lat="44.15285" lon="4.87161">
        <ele>55</ele>
        <time>2018-09-30T08:02:12Z</time>
      </trkpt>
      <trkpt lat="44.15306" lon="4.87166">
        <ele>55</ele>
        <time>2018-09-30T08:02:15Z</time>
      </trkpt>
      <trkpt lat="44.15323" lon="4.87169">
        <ele>55</ele>
        <time>2018-09-30T08:02:18Z</time>
      </trkpt>
      <trkpt lat="44.15333" lon="4.87172">
        <ele>55</ele>
        <time>2018-09-30T08:02:20Z</time>
      </trkpt>
      <trkpt lat="44.15347" lon="4.87175">
        <ele>55</ele>
        <time>2018-09-30T08:02:23Z</time>
      </trkpt>
      <trkpt lat="44.15355" lon="4.87179">
        <ele>55</ele>
        <time>2018-09-30T08:02:25Z</time>
      </trkpt>
      <trkpt lat="44.15364" lon="4.87183">
        <ele>55</ele>
        <time>2018-09-30T08:02:28Z</time>
      </trkpt>
      <trkpt lat="44.15372" lon="4.87184">
        <ele>54</ele>
        <time>2018-09-30T08:02:31Z</time>
      </trkpt>
      <trkpt lat="44.15375" lon="4.87184">
        <ele>54</ele>
        <time>2018-09-30T08:02:34Z</time>
      </trkpt>
      <trkpt lat="44.15375" lon="4.87184">
        <ele>54</ele>
        <time>2018-09-30T08:02:36Z</time>
      </trkpt>
      <trkpt lat="44.15375" lon="4.87184">
        <ele>54</ele>
        <time>2018-09-30T08:02:38Z</time>
      </trkpt>
      <trkpt lat="44.15376" lon="4.87184">
        <ele>54</ele>
        <time>2018-09-30T08:02:40Z</time>
      </trkpt>
      <trkpt lat="44.15376" lon="4.87184">
        <ele>54</ele>
        <time>2018-09-30T08:02:42Z</time>
      </trkpt>
      <trkpt lat="44.15376" lon="4.87184">
        <ele>54</ele>
        <time>2018-09-30T08:02:45Z</time>
      </trkpt>
      <trkpt lat="44.15376" lon="4.87184">
        <ele>54</ele>
        <time>2018-09-30T08:02:48Z</time>
      </trkpt>
      <trkpt lat="44.15377" lon="4.87184">
        <ele>54</ele>
        <time>2018-09-30T08:02:50Z</time>
      </trkpt>
      <trkpt lat="44.15377" lon="4.87184">
        <ele>54</ele>
        <time>2018-09-30T08:02:54Z</time>
      </trkpt>
      <trkpt lat="44.15377" lon="4.87184">
        <ele>54</ele>
        <time>2018-09-30T08:02:58Z</time>
      </trkpt>
      <trkpt lat="44.15377" lon="4.87184">
        <ele>54</ele>
        <time>2018-09-30T08:03:00Z</time>
      </trkpt>
      <trkpt lat="44.15377" lon="4.87184">
        <ele>54</ele>
        <time>2018-09-30T08:03:03Z</time>
      </trkpt>
      <trkpt lat="44.15377" lon="4.87184">
        <ele>54</ele>
        <time>2018-09-30T08:03:06Z</time>
      </trkpt>
      <trkpt lat="44.15376" lon="4.87185">
        <ele>54</ele>
        <time>2018-09-30T08:03:10Z</time>
      </trkpt>
      <trkpt lat="44.15376" lon="4.87185">
        <ele>54</ele>
        <time>2018-09-30T08:03:12Z</time>
      </trkpt>
      <trkpt lat="44.15376" lon="4.87185">
        <ele>54</ele>
        <time>2018-09-30T08:03:14Z</time>
      </trkpt>
      <trkpt lat="44.15376" lon="4.87185">
        <ele>54</ele>
        <time>2018-09-30T08:03:16Z</time>
      </trkpt>
      <trkpt lat="44.15376" lon="4.87185">
        <ele>54</ele>
        <time>2018-09-30T08:03:18Z</time>
      </trkpt>
      <trkpt lat="44.15376" lon="4.87185">
        <ele>54</ele>
        <time>2018-09-30T08:03:21Z</time>
      </trkpt>
      <trkpt lat="44.15376" lon="4.87184">
        <ele>54</ele>
        <time>2018-09-30T08:03:24Z</time>
      </trkpt>
      <trkpt lat="44.15375" lon="4.87184">
        <ele>54</ele>
        <time>2018-09-30T08:03:27Z</time>
      </trkpt>
      <trkpt lat="44.15375" lon="4.87184">
        <ele>54</ele>
        <time>2018-09-30T08:03:30Z</time>
      </trkpt>
      <trkpt lat="44.15374" lon="4.87181">
        <ele>54</ele>
        <time>2018-09-30T08:03:32Z</time>
      </trkpt>
      <trkpt lat="44.15374" lon="4.87177">
        <ele>54</ele>
        <time>2018-09-30T08:03:34Z</time>
      </trkpt>
      <trkpt lat="44.15374" lon="4.8717">
        <ele>54</ele>
        <time>2018-09-30T08:03:36Z</time>
      </trkpt>
      <trkpt lat="44.15376" lon="4.87154">
        <ele>54</ele>
        <time>2018-09-30T08:03:39Z</time>
      </trkpt>
      <trkpt lat="44.15379" lon="4.87141">
        <ele>54</ele>
        <time>2018-09-30T08:03:41Z</time>
      </trkpt>
      <trkpt lat="44.15384" lon="4.87118">
        <ele>55</ele>
        <time>2018-09-30T08:03:44Z</time>
      </trkpt>
      <trkpt lat="44.15391" lon="4.87093">
        <ele>55</ele>
        <time>2018-09-30T08:03:47Z</time>
      </trkpt>
      <trkpt lat="44.15399" lon="4.87068">
        <ele>55</ele>
        <time>2018-09-30T08:03:50Z</time>
      </trkpt>
      <trkpt lat="44.15404" lon="4.87052">
        <ele>55</ele>
        <time>2018-09-30T08:03:52Z</time>
      </trkpt>
      <trkpt lat="44.15411" lon="4.87029">
        <ele>56</ele>
        <time>2018-09-30T08:03:55Z</time>
      </trkpt>
      <trkpt lat="44.15419" lon="4.87006">
        <ele>55</ele>
        <time>2018-09-30T08:03:58Z</time>
      </trkpt>
      <trkpt lat="44.15424" lon="4.8699">
        <ele>55</ele>
        <time>2018-09-30T08:04:00Z</time>
      </trkpt>
      <trkpt lat="44.1543" lon="4.86974">
        <ele>55</ele>
        <time>2018-09-30T08:04:03Z</time>
      </trkpt>
      <trkpt lat="44.15438" lon="4.86951">
        <ele>54</ele>
        <time>2018-09-30T08:04:05Z</time>
      </trkpt>
      <trkpt lat="44.15447" lon="4.86928">
        <ele>54</ele>
        <time>2018-09-30T08:04:08Z</time>
      </trkpt>
      <trkpt lat="44.15453" lon="4.86912">
        <ele>55</ele>
        <time>2018-09-30T08:04:10Z</time>
      </trkpt>
      <trkpt lat="44.15462" lon="4.86889">
        <ele>56</ele>
        <time>2018-09-30T08:04:13Z</time>
      </trkpt>
      <trkpt lat="44.15469" lon="4.86873">
        <ele>55</ele>
        <time>2018-09-30T08:04:15Z</time>
      </trkpt>
      <trkpt lat="44.15479" lon="4.86849">
        <ele>55</ele>
        <time>2018-09-30T08:04:18Z</time>
      </trkpt>
      <trkpt lat="44.15486" lon="4.86834">
        <ele>55</ele>
        <time>2018-09-30T08:04:20Z</time>
      </trkpt>
      <trkpt lat="44.15493" lon="4.86818">
        <ele>56</ele>
        <time>2018-09-30T08:04:22Z</time>
      </trkpt>
      <trkpt lat="44.15504" lon="4.86794">
        <ele>56</ele>
        <time>2018-09-30T08:04:25Z</time>
      </trkpt>
      <trkpt lat="44.15512" lon="4.86778">
        <ele>57</ele>
        <time>2018-09-30T08:04:27Z</time>
      </trkpt>
      <trkpt lat="44.15523" lon="4.86755">
        <ele>57</ele>
        <time>2018-09-30T08:04:30Z</time>
      </trkpt>
      <trkpt lat="44.1553" lon="4.86739">
        <ele>57</ele>
        <time>2018-09-30T08:04:32Z</time>
      </trkpt>
      <trkpt lat="44.15538" lon="4.86724">
        <ele>57</ele>
        <time>2018-09-30T08:04:34Z</time>
      </trkpt>
      <trkpt lat="44.1555" lon="4.86701">
        <ele>56</ele>
        <time>2018-09-30T08:04:37Z</time>
      </trkpt>
      <trkpt lat="44.15558" lon="4.86686">
        <ele>55</ele>
        <time>2018-09-30T08:04:39Z</time>
      </trkpt>
      <trkpt lat="44.1557" lon="4.86663">
        <ele>55</ele>
        <time>2018-09-30T08:04:42Z</time>
      </trkpt>
      <trkpt lat="44.15579" lon="4.86649">
        <ele>55</ele>
        <time>2018-09-30T08:04:45Z</time>
      </trkpt>
      <trkpt lat="44.15591" lon="4.86627">
        <ele>56</ele>
        <time>2018-09-30T08:04:47Z</time>
      </trkpt>
      <trkpt lat="44.15604" lon="4.86605">
        <ele>56</ele>
        <time>2018-09-30T08:04:50Z</time>
      </trkpt>
      <trkpt lat="44.15612" lon="4.86591">
        <ele>56</ele>
        <time>2018-09-30T08:04:52Z</time>
      </trkpt>
      <trkpt lat="44.1562" lon="4.86576">
        <ele>56</ele>
        <time>2018-09-30T08:04:54Z</time>
      </trkpt>
      <trkpt lat="44.15633" lon="4.86554">
        <ele>55</ele>
        <time>2018-09-30T08:04:57Z</time>
      </trkpt>
      <trkpt lat="44.15642" lon="4.8654">
        <ele>55</ele>
        <time>2018-09-30T08:04:59Z</time>
      </trkpt>
      <trkpt lat="44.15654" lon="4.86518">
        <ele>56</ele>
        <time>2018-09-30T08:05:02Z</time>
      </trkpt>
      <trkpt lat="44.15667" lon="4.86496">
        <ele>56</ele>
        <time>2018-09-30T08:05:05Z</time>
      </trkpt>
      <trkpt lat="44.15675" lon="4.86481">
        <ele>56</ele>
        <time>2018-09-30T08:05:08Z</time>
      </trkpt>
      <trkpt lat="44.15688" lon="4.8646">
        <ele>56</ele>
        <time>2018-09-30T08:05:10Z</time>
      </trkpt>
      <trkpt lat="44.15701" lon="4.86438">
        <ele>56</ele>
        <time>2018-09-30T08:05:13Z</time>
      </trkpt>
      <trkpt lat="44.15714" lon="4.86418">
        <ele>56</ele>
        <time>2018-09-30T08:05:16Z</time>
      </trkpt>
      <trkpt lat="44.15731" lon="4.86405">
        <ele>56</ele>
        <time>2018-09-30T08:05:19Z</time>
      </trkpt>
      <trkpt lat="44.15749" lon="4.86398">
        <ele>55</ele>
        <time>2018-09-30T08:05:22Z</time>
      </trkpt>
      <trkpt lat="44.15761" lon="4.8638">
        <ele>55</ele>
        <time>2018-09-30T08:05:25Z</time>
      </trkpt>
      <trkpt lat="44.15768" lon="4.86354">
        <ele>56</ele>
        <time>2018-09-30T08:05:28Z</time>
      </trkpt>
      <trkpt lat="44.15783" lon="4.86335">
        <ele>56</ele>
        <time>2018-09-30T08:05:31Z</time>
      </trkpt>
      <trkpt lat="44.15794" lon="4.86323">
        <ele>56</ele>
        <time>2018-09-30T08:05:34Z</time>
      </trkpt>
      <trkpt lat="44.1581" lon="4.86305">
        <ele>56</ele>
        <time>2018-09-30T08:05:36Z</time>
      </trkpt>
      <trkpt lat="44.15826" lon="4.86287">
        <ele>56</ele>
        <time>2018-09-30T08:05:39Z</time>
      </trkpt>
      <trkpt lat="44.15842" lon="4.8627">
        <ele>56</ele>
        <time>2018-09-30T08:05:42Z</time>
      </trkpt>
      <trkpt lat="44.15858" lon="4.86253">
        <ele>55</ele>
        <time>2018-09-30T08:05:45Z</time>
      </trkpt>
      <trkpt lat="44.15875" lon="4.86236">
        <ele>55</ele>
        <time>2018-09-30T08:05:48Z</time>
      </trkpt>
      <trkpt lat="44.15891" lon="4.86218">
        <ele>56</ele>
        <time>2018-09-30T08:05:51Z</time>
      </trkpt>
      <trkpt lat="44.15907" lon="4.86201">
        <ele>56</ele>
        <time>2018-09-30T08:05:54Z</time>
      </trkpt>
      <trkpt lat="44.15918" lon="4.86188">
        <ele>56</ele>
        <time>2018-09-30T08:05:56Z</time>
      </trkpt>
      <trkpt lat="44.15934" lon="4.8617">
        <ele>56</ele>
        <time>2018-09-30T08:05:59Z</time>
      </trkpt>
      <trkpt lat="44.1595" lon="4.86153">
        <ele>56</ele>
        <time>2018-09-30T08:06:02Z</time>
      </trkpt>
      <trkpt lat="44.15967" lon="4.86134">
        <ele>56</ele>
        <time>2018-09-30T08:06:05Z</time>
      </trkpt>
      <trkpt lat="44.15983" lon="4.86117">
        <ele>55</ele>
        <time>2018-09-30T08:06:08Z</time>
      </trkpt>
      <trkpt lat="44.16" lon="4.86099">
        <ele>56</ele>
        <time>2018-09-30T08:06:11Z</time>
      </trkpt>
      <trkpt lat="44.16016" lon="4.86082">
        <ele>56</ele>
        <time>2018-09-30T08:06:14Z</time>
      </trkpt>
      <trkpt lat="44.16027" lon="4.86071">
        <ele>56</ele>
        <time>2018-09-30T08:06:16Z</time>
      </trkpt>
      <trkpt lat="44.16044" lon="4.86054">
        <ele>56</ele>
        <time>2018-09-30T08:06:19Z</time>
      </trkpt>
      <trkpt lat="44.16061" lon="4.86039">
        <ele>56</ele>
        <time>2018-09-30T08:06:22Z</time>
      </trkpt>
      <trkpt lat="44.16078" lon="4.86023">
        <ele>55</ele>
        <time>2018-09-30T08:06:25Z</time>
      </trkpt>
      <trkpt lat="44.1609" lon="4.86013">
        <ele>55</ele>
        <time>2018-09-30T08:06:27Z</time>
      </trkpt>
      <trkpt lat="44.16107" lon="4.85998">
        <ele>55</ele>
        <time>2018-09-30T08:06:30Z</time>
      </trkpt>
      <trkpt lat="44.16119" lon="4.85989">
        <ele>55</ele>
        <time>2018-09-30T08:06:32Z</time>
      </trkpt>
      <trkpt lat="44.16136" lon="4.85974">
        <ele>56</ele>
        <time>2018-09-30T08:06:35Z</time>
      </trkpt>
      <trkpt lat="44.16148" lon="4.85965">
        <ele>56</ele>
        <time>2018-09-30T08:06:37Z</time>
      </trkpt>
      <trkpt lat="44.1616" lon="4.85956">
        <ele>56</ele>
        <time>2018-09-30T08:06:39Z</time>
      </trkpt>
      <trkpt lat="44.16173" lon="4.85947">
        <ele>56</ele>
        <time>2018-09-30T08:06:42Z</time>
      </trkpt>
      <trkpt lat="44.16191" lon="4.85935">
        <ele>56</ele>
        <time>2018-09-30T08:06:44Z</time>
      </trkpt>
      <trkpt lat="44.1621" lon="4.85922">
        <ele>56</ele>
        <time>2018-09-30T08:06:47Z</time>
      </trkpt>
      <trkpt lat="44.16222" lon="4.85915">
        <ele>56</ele>
        <time>2018-09-30T08:06:49Z</time>
      </trkpt>
      <trkpt lat="44.16241" lon="4.85904">
        <ele>56</ele>
        <time>2018-09-30T08:06:52Z</time>
      </trkpt>
      <trkpt lat="44.16259" lon="4.85893">
        <ele>56</ele>
        <time>2018-09-30T08:06:55Z</time>
      </trkpt>
      <trkpt lat="44.16279" lon="4.85883">
        <ele>57</ele>
        <time>2018-09-30T08:06:58Z</time>
      </trkpt>
      <trkpt lat="44.16298" lon="4.85873">
        <ele>57</ele>
        <time>2018-09-30T08:07:01Z</time>
      </trkpt>
      <trkpt lat="44.16317" lon="4.85864">
        <ele>57</ele>
        <time>2018-09-30T08:07:04Z</time>
      </trkpt>
      <trkpt lat="44.1633" lon="4.85858">
        <ele>57</ele>
        <time>2018-09-30T08:07:06Z</time>
      </trkpt>
      <trkpt lat="44.16343" lon="4.85852">
        <ele>57</ele>
        <time>2018-09-30T08:07:08Z</time>
      </trkpt>
      <trkpt lat="44.16363" lon="4.85844">
        <ele>57</ele>
        <time>2018-09-30T08:07:11Z</time>
      </trkpt>
      <trkpt lat="44.16383" lon="4.85836">
        <ele>57</ele>
        <time>2018-09-30T08:07:14Z</time>
      </trkpt>
      <trkpt lat="44.16403" lon="4.85829">
        <ele>56</ele>
        <time>2018-09-30T08:07:17Z</time>
      </trkpt>
      <trkpt lat="44.16423" lon="4.85822">
        <ele>57</ele>
        <time>2018-09-30T08:07:20Z</time>
      </trkpt>
      <trkpt lat="44.16443" lon="4.85816">
        <ele>57</ele>
        <time>2018-09-30T08:07:23Z</time>
      </trkpt>
      <trkpt lat="44.16463" lon="4.85809">
        <ele>57</ele>
        <time>2018-09-30T08:07:26Z</time>
      </trkpt>
      <trkpt lat="44.16477" lon="4.85804">
        <ele>57</ele>
        <time>2018-09-30T08:07:28Z</time>
      </trkpt>
      <trkpt lat="44.16497" lon="4.85798">
        <ele>57</ele>
        <time>2018-09-30T08:07:31Z</time>
      </trkpt>
      <trkpt lat="44.1651" lon="4.85793">
        <ele>58</ele>
        <time>2018-09-30T08:07:33Z</time>
      </trkpt>
      <trkpt lat="44.16523" lon="4.85788">
        <ele>58</ele>
        <time>2018-09-30T08:07:35Z</time>
      </trkpt>
      <trkpt lat="44.16543" lon="4.85782">
        <ele>58</ele>
        <time>2018-09-30T08:07:38Z</time>
      </trkpt>
      <trkpt lat="44.16556" lon="4.85778">
        <ele>58</ele>
        <time>2018-09-30T08:07:40Z</time>
      </trkpt>
      <trkpt lat="44.16569" lon="4.85774">
        <ele>58</ele>
        <time>2018-09-30T08:07:42Z</time>
      </trkpt>
      <trkpt lat="44.16582" lon="4.85769">
        <ele>58</ele>
        <time>2018-09-30T08:07:44Z</time>
      </trkpt>
      <trkpt lat="44.16602" lon="4.85763">
        <ele>58</ele>
        <time>2018-09-30T08:07:47Z</time>
      </trkpt>
      <trkpt lat="44.16616" lon="4.85759">
        <ele>58</ele>
        <time>2018-09-30T08:07:49Z</time>
      </trkpt>
      <trkpt lat="44.16636" lon="4.85752">
        <ele>58</ele>
        <time>2018-09-30T08:07:52Z</time>
      </trkpt>
      <trkpt lat="44.16649" lon="4.85748">
        <ele>58</ele>
        <time>2018-09-30T08:07:54Z</time>
      </trkpt>
      <trkpt lat="44.1667" lon="4.85741">
        <ele>58</ele>
        <time>2018-09-30T08:07:57Z</time>
      </trkpt>
      <trkpt lat="44.1669" lon="4.85735">
        <ele>58</ele>
        <time>2018-09-30T08:08:00Z</time>
      </trkpt>
      <trkpt lat="44.16704" lon="4.85731">
        <ele>59</ele>
        <time>2018-09-30T08:08:02Z</time>
      </trkpt>
      <trkpt lat="44.16724" lon="4.85724">
        <ele>59</ele>
        <time>2018-09-30T08:08:05Z</time>
      </trkpt>
      <trkpt lat="44.16745" lon="4.85718">
        <ele>59</ele>
        <time>2018-09-30T08:08:08Z</time>
      </trkpt>
      <trkpt lat="44.16766" lon="4.85712">
        <ele>59</ele>
        <time>2018-09-30T08:08:11Z</time>
      </trkpt>
      <trkpt lat="44.16787" lon="4.85707">
        <ele>59</ele>
        <time>2018-09-30T08:08:14Z</time>
      </trkpt>
      <trkpt lat="44.16808" lon="4.85701">
        <ele>59</ele>
        <time>2018-09-30T08:08:17Z</time>
      </trkpt>
      <trkpt lat="44.16822" lon="4.85697">
        <ele>59</ele>
        <time>2018-09-30T08:08:19Z</time>
      </trkpt>
      <trkpt lat="44.16843" lon="4.85692">
        <ele>58</ele>
        <time>2018-09-30T08:08:22Z</time>
      </trkpt>
      <trkpt lat="44.16864" lon="4.85687">
        <ele>59</ele>
        <time>2018-09-30T08:08:25Z</time>
      </trkpt>
      <trkpt lat="44.16885" lon="4.85682">
        <ele>59</ele>
        <time>2018-09-30T08:08:28Z</time>
      </trkpt>
      <trkpt lat="44.16905" lon="4.85677">
        <ele>59</ele>
        <time>2018-09-30T08:08:31Z</time>
      </trkpt>
      <trkpt lat="44.16925" lon="4.85673">
        <ele>59</ele>
        <time>2018-09-30T08:08:34Z</time>
      </trkpt>
      <trkpt lat="44.16945" lon="4.85669">
        <ele>59</ele>
        <time>2018-09-30T08:08:37Z</time>
      </trkpt>
      <trkpt lat="44.16965" lon="4.85665">
        <ele>59</ele>
        <time>2018-09-30T08:08:40Z</time>
      </trkpt>
      <trkpt lat="44.16985" lon="4.85661">
        <ele>59</ele>
        <time>2018-09-30T08:08:43Z</time>
      </trkpt>
      <trkpt lat="44.16998" lon="4.85659">
        <ele>59</ele>
        <time>2018-09-30T08:08:45Z</time>
      </trkpt>
      <trkpt lat="44.17017" lon="4.85655">
        <ele>59</ele>
        <time>2018-09-30T08:08:48Z</time>
      </trkpt>
      <trkpt lat="44.17037" lon="4.85652">
        <ele>59</ele>
        <time>2018-09-30T08:08:51Z</time>
      </trkpt>
      <trkpt lat="44.17056" lon="4.85649">
        <ele>60</ele>
        <time>2018-09-30T08:08:54Z</time>
      </trkpt>
      <trkpt lat="44.17076" lon="4.85646">
        <ele>60</ele>
        <time>2018-09-30T08:08:57Z</time>
      </trkpt>
      <trkpt lat="44.17089" lon="4.85644">
        <ele>60</ele>
        <time>2018-09-30T08:08:59Z</time>
      </trkpt>
      <trkpt lat="44.1711" lon="4.85641">
        <ele>60</ele>
        <time>2018-09-30T08:09:02Z</time>
      </trkpt>
      <trkpt lat="44.1713" lon="4.85638">
        <ele>61</ele>
        <time>2018-09-30T08:09:05Z</time>
      </trkpt>
      <trkpt lat="44.17143" lon="4.85636">
        <ele>62</ele>
        <time>2018-09-30T08:09:07Z</time>
      </trkpt>
      <trkpt lat="44.17156" lon="4.85635">
        <ele>62</ele>
        <time>2018-09-30T08:09:09Z</time>
      </trkpt>
      <trkpt lat="44.17176" lon="4.85635">
        <ele>62</ele>
        <time>2018-09-30T08:09:12Z</time>
      </trkpt>
      <trkpt lat="44.1719" lon="4.85635">
        <ele>63</ele>
        <time>2018-09-30T08:09:14Z</time>
      </trkpt>
      <trkpt lat="44.1721" lon="4.85636">
        <ele>63</ele>
        <time>2018-09-30T08:09:17Z</time>
      </trkpt>
      <trkpt lat="44.17224" lon="4.85636">
        <ele>62</ele>
        <time>2018-09-30T08:09:19Z</time>
      </trkpt>
      <trkpt lat="44.17245" lon="4.85637">
        <ele>62</ele>
        <time>2018-09-30T08:09:22Z</time>
      </trkpt>
      <trkpt lat="44.17259" lon="4.85637">
        <ele>62</ele>
        <time>2018-09-30T08:09:24Z</time>
      </trkpt>
      <trkpt lat="44.1728" lon="4.85638">
        <ele>63</ele>
        <time>2018-09-30T08:09:27Z</time>
      </trkpt>
      <trkpt lat="44.17294" lon="4.85638">
        <ele>63</ele>
        <time>2018-09-30T08:09:29Z</time>
      </trkpt>
      <trkpt lat="44.17308" lon="4.85639">
        <ele>63</ele>
        <time>2018-09-30T08:09:31Z</time>
      </trkpt>
      <trkpt lat="44.17329" lon="4.8564">
        <ele>63</ele>
        <time>2018-09-30T08:09:34Z</time>
      </trkpt>
      <trkpt lat="44.1735" lon="4.85641">
        <ele>62</ele>
        <time>2018-09-30T08:09:37Z</time>
      </trkpt>
      <trkpt lat="44.17371" lon="4.85643">
        <ele>63</ele>
        <time>2018-09-30T08:09:40Z</time>
      </trkpt>
      <trkpt lat="44.17392" lon="4.85644">
        <ele>63</ele>
        <time>2018-09-30T08:09:43Z</time>
      </trkpt>
      <trkpt lat="44.17412" lon="4.85645">
        <ele>63</ele>
        <time>2018-09-30T08:09:46Z</time>
      </trkpt>
      <trkpt lat="44.17433" lon="4.85646">
        <ele>63</ele>
        <time>2018-09-30T08:09:49Z</time>
      </trkpt>
      <trkpt lat="44.17453" lon="4.85647">
        <ele>63</ele>
        <time>2018-09-30T08:09:52Z</time>
      </trkpt>
      <trkpt lat="44.17467" lon="4.85647">
        <ele>63</ele>
        <time>2018-09-30T08:09:54Z</time>
      </trkpt>
      <trkpt lat="44.17488" lon="4.85648">
        <ele>63</ele>
        <time>2018-09-30T08:09:57Z</time>
      </trkpt>
      <trkpt lat="44.17509" lon="4.8565">
        <ele>63</ele>
        <time>2018-09-30T08:10:00Z</time>
      </trkpt>
      <trkpt lat="44.17523" lon="4.85651">
        <ele>63</ele>
        <time>2018-09-30T08:10:02Z</time>
      </trkpt>
      <trkpt lat="44.17544" lon="4.85652">
        <ele>63</ele>
        <time>2018-09-30T08:10:05Z</time>
      </trkpt>
      <trkpt lat="44.17565" lon="4.85653">
        <ele>63</ele>
        <time>2018-09-30T08:10:08Z</time>
      </trkpt>
      <trkpt lat="44.17579" lon="4.85654">
        <ele>63</ele>
        <time>2018-09-30T08:10:10Z</time>
      </trkpt>
      <trkpt lat="44.17601" lon="4.85655">
        <ele>63</ele>
        <time>2018-09-30T08:10:13Z</time>
      </trkpt>
      <trkpt lat="44.17622" lon="4.85656">
        <ele>63</ele>
        <time>2018-09-30T08:10:16Z</time>
      </trkpt>
      <trkpt lat="44.17636" lon="4.85657">
        <ele>63</ele>
        <time>2018-09-30T08:10:18Z</time>
      </trkpt>
      <trkpt lat="44.17657" lon="4.85658">
        <ele>63</ele>
        <time>2018-09-30T08:10:21Z</time>
      </trkpt>
      <trkpt lat="44.17677" lon="4.85659">
        <ele>64</ele>
        <time>2018-09-30T08:10:24Z</time>
      </trkpt>
      <trkpt lat="44.17697" lon="4.8566">
        <ele>64</ele>
        <time>2018-09-30T08:10:27Z</time>
      </trkpt>
      <trkpt lat="44.1771" lon="4.85661">
        <ele>64</ele>
        <time>2018-09-30T08:10:29Z</time>
      </trkpt>
      <trkpt lat="44.17731" lon="4.85661">
        <ele>64</ele>
        <time>2018-09-30T08:10:32Z</time>
      </trkpt>
      <trkpt lat="44.17751" lon="4.85661">
        <ele>65</ele>
        <time>2018-09-30T08:10:35Z</time>
      </trkpt>
      <trkpt lat="44.17764" lon="4.85661">
        <ele>65</ele>
        <time>2018-09-30T08:10:37Z</time>
      </trkpt>
      <trkpt lat="44.17783" lon="4.85659">
        <ele>65</ele>
        <time>2018-09-30T08:10:40Z</time>
      </trkpt>
      <trkpt lat="44.17797" lon="4.85657">
        <ele>65</ele>
        <time>2018-09-30T08:10:42Z</time>
      </trkpt>
      <trkpt lat="44.17811" lon="4.85654">
        <ele>65</ele>
        <time>2018-09-30T08:10:45Z</time>
      </trkpt>
      <trkpt lat="44.17831" lon="4.85651">
        <ele>66</ele>
        <time>2018-09-30T08:10:47Z</time>
      </trkpt>
      <trkpt lat="44.17851" lon="4.85647">
        <ele>66</ele>
        <time>2018-09-30T08:10:50Z</time>
      </trkpt>
      <trkpt lat="44.17871" lon="4.85641">
        <ele>67</ele>
        <time>2018-09-30T08:10:53Z</time>
      </trkpt>
      <trkpt lat="44.17891" lon="4.85635">
        <ele>66</ele>
        <time>2018-09-30T08:10:56Z</time>
      </trkpt>
      <trkpt lat="44.1791" lon="4.85628">
        <ele>66</ele>
        <time>2018-09-30T08:10:59Z</time>
      </trkpt>
      <trkpt lat="44.17931" lon="4.85622">
        <ele>66</ele>
        <time>2018-09-30T08:11:02Z</time>
      </trkpt>
      <trkpt lat="44.1795" lon="4.85614">
        <ele>66</ele>
        <time>2018-09-30T08:11:05Z</time>
      </trkpt>
      <trkpt lat="44.17964" lon="4.85608">
        <ele>66</ele>
        <time>2018-09-30T08:11:07Z</time>
      </trkpt>
      <trkpt lat="44.17977" lon="4.85603">
        <ele>66</ele>
        <time>2018-09-30T08:11:09Z</time>
      </trkpt>
      <trkpt lat="44.17997" lon="4.85595">
        <ele>66</ele>
        <time>2018-09-30T08:11:12Z</time>
      </trkpt>
      <trkpt lat="44.18017" lon="4.85587">
        <ele>67</ele>
        <time>2018-09-30T08:11:15Z</time>
      </trkpt>
      <trkpt lat="44.18037" lon="4.85579">
        <ele>67</ele>
        <time>2018-09-30T08:11:18Z</time>
      </trkpt>
      <trkpt lat="44.18058" lon="4.85571">
        <ele>67</ele>
        <time>2018-09-30T08:11:21Z</time>
      </trkpt>
      <trkpt lat="44.18077" lon="4.85563">
        <ele>67</ele>
        <time>2018-09-30T08:11:24Z</time>
      </trkpt>
      <trkpt lat="44.18098" lon="4.85556">
        <ele>67</ele>
        <time>2018-09-30T08:11:27Z</time>
      </trkpt>
      <trkpt lat="44.18118" lon="4.85547">
        <ele>67</ele>
        <time>2018-09-30T08:11:30Z</time>
      </trkpt>
      <trkpt lat="44.18137" lon="4.85539">
        <ele>67</ele>
        <time>2018-09-30T08:11:33Z</time>
      </trkpt>
      <trkpt lat="44.18156" lon="4.85531">
        <ele>67</ele>
        <time>2018-09-30T08:11:36Z</time>
      </trkpt>
      <trkpt lat="44.18176" lon="4.85523">
        <ele>67</ele>
        <time>2018-09-30T08:11:39Z</time>
      </trkpt>
      <trkpt lat="44.18195" lon="4.85515">
        <ele>68</ele>
        <time>2018-09-30T08:11:42Z</time>
      </trkpt>
      <trkpt lat="44.18214" lon="4.85508">
        <ele>68</ele>
        <time>2018-09-30T08:11:45Z</time>
      </trkpt>
      <trkpt lat="44.18232" lon="4.85499">
        <ele>67</ele>
        <time>2018-09-30T08:11:48Z</time>
      </trkpt>
      <trkpt lat="44.1824" lon="4.85479">
        <ele>67</ele>
        <time>2018-09-30T08:11:51Z</time>
      </trkpt>
      <trkpt lat="44.18239" lon="4.85463">
        <ele>67</ele>
        <time>2018-09-30T08:11:53Z</time>
      </trkpt>
      <trkpt lat="44.18239" lon="4.85446">
        <ele>67</ele>
        <time>2018-09-30T08:11:55Z</time>
      </trkpt>
      <trkpt lat="44.18245" lon="4.85422">
        <ele>67</ele>
        <time>2018-09-30T08:11:58Z</time>
      </trkpt>
      <trkpt lat="44.1825" lon="4.85407">
        <ele>67</ele>
        <time>2018-09-30T08:12:00Z</time>
      </trkpt>
      <trkpt lat="44.18258" lon="4.85384">
        <ele>66</ele>
        <time>2018-09-30T08:12:03Z</time>
      </trkpt>
      <trkpt lat="44.18264" lon="4.85369">
        <ele>66</ele>
        <time>2018-09-30T08:12:05Z</time>
      </trkpt>
      <trkpt lat="44.18272" lon="4.85345">
        <ele>66</ele>
        <time>2018-09-30T08:12:08Z</time>
      </trkpt>
      <trkpt lat="44.18277" lon="4.85329">
        <ele>67</ele>
        <time>2018-09-30T08:12:10Z</time>
      </trkpt>
      <trkpt lat="44.18284" lon="4.85306">
        <ele>66</ele>
        <time>2018-09-30T08:12:13Z</time>
      </trkpt>
      <trkpt lat="44.18289" lon="4.85289">
        <ele>66</ele>
        <time>2018-09-30T08:12:15Z</time>
      </trkpt>
      <trkpt lat="44.18293" lon="4.85272">
        <ele>66</ele>
        <time>2018-09-30T08:12:17Z</time>
      </trkpt>
      <trkpt lat="44.18298" lon="4.85245">
        <ele>66</ele>
        <time>2018-09-30T08:12:20Z</time>
      </trkpt>
      <trkpt lat="44.18304" lon="4.85217">
        <ele>65</ele>
        <time>2018-09-30T08:12:23Z</time>
      </trkpt>
      <trkpt lat="44.18313" lon="4.85189">
        <ele>65</ele>
        <time>2018-09-30T08:12:26Z</time>
      </trkpt>
      <trkpt lat="44.18322" lon="4.85159">
        <ele>65</ele>
        <time>2018-09-30T08:12:29Z</time>
      </trkpt>
      <trkpt lat="44.1833" lon="4.8513">
        <ele>64</ele>
        <time>2018-09-30T08:12:32Z</time>
      </trkpt>
      <trkpt lat="44.18339" lon="4.85102">
        <ele>63</ele>
        <time>2018-09-30T08:12:35Z</time>
      </trkpt>
      <trkpt lat="44.18349" lon="4.85077">
        <ele>62</ele>
        <time>2018-09-30T08:12:38Z</time>
      </trkpt>
      <trkpt lat="44.1836" lon="4.85054">
        <ele>62</ele>
        <time>2018-09-30T08:12:41Z</time>
      </trkpt>
      <trkpt lat="44.18368" lon="4.85039">
        <ele>62</ele>
        <time>2018-09-30T08:12:43Z</time>
      </trkpt>
      <trkpt lat="44.1838" lon="4.85019">
        <ele>62</ele>
        <time>2018-09-30T08:12:46Z</time>
      </trkpt>
      <trkpt lat="44.18392" lon="4.85">
        <ele>62</ele>
        <time>2018-09-30T08:12:49Z</time>
      </trkpt>
      <trkpt lat="44.18402" lon="4.84978">
        <ele>62</ele>
        <time>2018-09-30T08:12:52Z</time>
      </trkpt>
      <trkpt lat="44.1841" lon="4.84964">
        <ele>62</ele>
        <time>2018-09-30T08:12:54Z</time>
      </trkpt>
      <trkpt lat="44.18423" lon="4.84945">
        <ele>62</ele>
        <time>2018-09-30T08:12:57Z</time>
      </trkpt>
      <trkpt lat="44.18436" lon="4.84927">
        <ele>62</ele>
        <time>2018-09-30T08:13:00Z</time>
      </trkpt>
      <trkpt lat="44.18449" lon="4.84909">
        <ele>63</ele>
        <time>2018-09-30T08:13:03Z</time>
      </trkpt>
      <trkpt lat="44.18459" lon="4.84898">
        <ele>63</ele>
        <time>2018-09-30T08:13:05Z</time>
      </trkpt>
      <trkpt lat="44.18468" lon="4.84886">
        <ele>62</ele>
        <time>2018-09-30T08:13:07Z</time>
      </trkpt>
      <trkpt lat="44.18481" lon="4.84868">
        <ele>62</ele>
        <time>2018-09-30T08:13:10Z</time>
      </trkpt>
      <trkpt lat="44.18495" lon="4.84851">
        <ele>63</ele>
        <time>2018-09-30T08:13:13Z</time>
      </trkpt>
      <trkpt lat="44.18508" lon="4.84834">
        <ele>62</ele>
        <time>2018-09-30T08:13:16Z</time>
      </trkpt>
      <trkpt lat="44.18522" lon="4.84818">
        <ele>62</ele>
        <time>2018-09-30T08:13:19Z</time>
      </trkpt>
      <trkpt lat="44.18536" lon="4.84802">
        <ele>62</ele>
        <time>2018-09-30T08:13:22Z</time>
      </trkpt>
      <trkpt lat="44.18547" lon="4.84793">
        <ele>62</ele>
        <time>2018-09-30T08:13:24Z</time>
      </trkpt>
      <trkpt lat="44.18562" lon="4.84777">
        <ele>63</ele>
        <time>2018-09-30T08:13:27Z</time>
      </trkpt>
      <trkpt lat="44.18572" lon="4.84768">
        <ele>63</ele>
        <time>2018-09-30T08:13:29Z</time>
      </trkpt>
      <trkpt lat="44.18582" lon="4.84758">
        <ele>63</ele>
        <time>2018-09-30T08:13:31Z</time>
      </trkpt>
      <trkpt lat="44.18597" lon="4.84743">
        <ele>63</ele>
        <time>2018-09-30T08:13:34Z</time>
      </trkpt>
      <trkpt lat="44.18612" lon="4.84727">
        <ele>63</ele>
        <time>2018-09-30T08:13:37Z</time>
      </trkpt>
      <trkpt lat="44.18627" lon="4.84712">
        <ele>63</ele>
        <time>2018-09-30T08:13:40Z</time>
      </trkpt>
      <trkpt lat="44.18641" lon="4.84697">
        <ele>63</ele>
        <time>2018-09-30T08:13:43Z</time>
      </trkpt>
      <trkpt lat="44.18655" lon="4.84682">
        <ele>63</ele>
        <time>2018-09-30T08:13:46Z</time>
      </trkpt>
      <trkpt lat="44.18668" lon="4.84668">
        <ele>63</ele>
        <time>2018-09-30T08:13:49Z</time>
      </trkpt>
      <trkpt lat="44.1868" lon="4.84654">
        <ele>63</ele>
        <time>2018-09-30T08:13:52Z</time>
      </trkpt>
      <trkpt lat="44.18689" lon="4.84645">
        <ele>63</ele>
        <time>2018-09-30T08:13:54Z</time>
      </trkpt>
      <trkpt lat="44.18697" lon="4.84636">
        <ele>64</ele>
        <time>2018-09-30T08:13:56Z</time>
      </trkpt>
      <trkpt lat="44.1871" lon="4.84621">
        <ele>64</ele>
        <time>2018-09-30T08:13:59Z</time>
      </trkpt>
      <trkpt lat="44.18723" lon="4.84606">
        <ele>64</ele>
        <time>2018-09-30T08:14:02Z</time>
      </trkpt>
      <trkpt lat="44.18737" lon="4.8459">
        <ele>64</ele>
        <time>2018-09-30T08:14:05Z</time>
      </trkpt>
      <trkpt lat="44.1875" lon="4.84575">
        <ele>64</ele>
        <time>2018-09-30T08:14:08Z</time>
      </trkpt>
      <trkpt lat="44.18764" lon="4.84559">
        <ele>65</ele>
        <time>2018-09-30T08:14:11Z</time>
      </trkpt>
      <trkpt lat="44.18778" lon="4.84542">
        <ele>65</ele>
        <time>2018-09-30T08:14:14Z</time>
      </trkpt>
      <trkpt lat="44.18788" lon="4.84531">
        <ele>65</ele>
        <time>2018-09-30T08:14:16Z</time>
      </trkpt>
      <trkpt lat="44.18803" lon="4.84514">
        <ele>65</ele>
        <time>2018-09-30T08:14:19Z</time>
      </trkpt>
      <trkpt lat="44.18812" lon="4.84502">
        <ele>65</ele>
        <time>2018-09-30T08:14:21Z</time>
      </trkpt>
      <trkpt lat="44.18828" lon="4.84487">
        <ele>65</ele>
        <time>2018-09-30T08:14:24Z</time>
      </trkpt>
      <trkpt lat="44.18843" lon="4.84479">
        <ele>65</ele>
        <time>2018-09-30T08:14:27Z</time>
      </trkpt>
      <trkpt lat="44.18855" lon="4.84474">
        <ele>65</ele>
        <time>2018-09-30T08:14:30Z</time>
      </trkpt>
      <trkpt lat="44.18862" lon="4.84471">
        <ele>65</ele>
        <time>2018-09-30T08:14:33Z</time>
      </trkpt>
      <trkpt lat="44.18867" lon="4.84467">
        <ele>65</ele>
        <time>2018-09-30T08:14:35Z</time>
      </trkpt>
      <trkpt lat="44.18876" lon="4.84461">
        <ele>65</ele>
        <time>2018-09-30T08:14:38Z</time>
      </trkpt>
      <trkpt lat="44.18882" lon="4.8446">
        <ele>65</ele>
        <time>2018-09-30T08:14:40Z</time>
      </trkpt>
      <trkpt lat="44.18893" lon="4.84458">
        <ele>66</ele>
        <time>2018-09-30T08:14:43Z</time>
      </trkpt>
      <trkpt lat="44.18903" lon="4.84458">
        <ele>67</ele>
        <time>2018-09-30T08:14:46Z</time>
      </trkpt>
      <trkpt lat="44.18914" lon="4.84454">
        <ele>68</ele>
        <time>2018-09-30T08:14:49Z</time>
      </trkpt>
      <trkpt lat="44.18922" lon="4.84446">
        <ele>69</ele>
        <time>2018-09-30T08:14:52Z</time>
      </trkpt>
      <trkpt lat="44.18932" lon="4.84437">
        <ele>69</ele>
        <time>2018-09-30T08:14:55Z</time>
      </trkpt>
      <trkpt lat="44.1894" lon="4.84431">
        <ele>70</ele>
        <time>2018-09-30T08:14:57Z</time>
      </trkpt>
      <trkpt lat="44.18954" lon="4.8443">
        <ele>70</ele>
        <time>2018-09-30T08:15:00Z</time>
      </trkpt>
      <trkpt lat="44.18964" lon="4.84433">
        <ele>69</ele>
        <time>2018-09-30T08:15:02Z</time>
      </trkpt>
      <trkpt lat="44.1898" lon="4.84439">
        <ele>69</ele>
        <time>2018-09-30T08:15:05Z</time>
      </trkpt>
      <trkpt lat="44.18995" lon="4.84445">
        <ele>69</ele>
        <time>2018-09-30T08:15:08Z</time>
      </trkpt>
      <trkpt lat="44.19013" lon="4.8445">
        <ele>69</ele>
        <time>2018-09-30T08:15:11Z</time>
      </trkpt>
      <trkpt lat="44.19029" lon="4.84451">
        <ele>70</ele>
        <time>2018-09-30T08:15:14Z</time>
      </trkpt>
      <trkpt lat="44.19047" lon="4.84453">
        <ele>69</ele>
        <time>2018-09-30T08:15:17Z</time>
      </trkpt>
      <trkpt lat="44.19058" lon="4.84453">
        <ele>69</ele>
        <time>2018-09-30T08:15:19Z</time>
      </trkpt>
      <trkpt lat="44.19076" lon="4.84455">
        <ele>70</ele>
        <time>2018-09-30T08:15:22Z</time>
      </trkpt>
      <trkpt lat="44.19094" lon="4.84457">
        <ele>69</ele>
        <time>2018-09-30T08:15:25Z</time>
      </trkpt>
      <trkpt lat="44.19106" lon="4.84458">
        <ele>69</ele>
        <time>2018-09-30T08:15:27Z</time>
      </trkpt>
      <trkpt lat="44.19125" lon="4.84458">
        <ele>69</ele>
        <time>2018-09-30T08:15:30Z</time>
      </trkpt>
      <trkpt lat="44.19144" lon="4.84458">
        <ele>70</ele>
        <time>2018-09-30T08:15:33Z</time>
      </trkpt>
      <trkpt lat="44.19157" lon="4.84459">
        <ele>70</ele>
        <time>2018-09-30T08:15:35Z</time>
      </trkpt>
      <trkpt lat="44.19176" lon="4.84465">
        <ele>70</ele>
        <time>2018-09-30T08:15:38Z</time>
      </trkpt>
      <trkpt lat="44.19192" lon="4.84476">
        <ele>69</ele>
        <time>2018-09-30T08:15:41Z</time>
      </trkpt>
      <trkpt lat="44.19202" lon="4.84487">
        <ele>69</ele>
        <time>2018-09-30T08:15:43Z</time>
      </trkpt>
      <trkpt lat="44.19211" lon="4.84499">
        <ele>69</ele>
        <time>2018-09-30T08:15:45Z</time>
      </trkpt>
      <trkpt lat="44.19223" lon="4.84517">
        <ele>69</ele>
        <time>2018-09-30T08:15:48Z</time>
      </trkpt>
      <trkpt lat="44.19232" lon="4.84539">
        <ele>69</ele>
        <time>2018-09-30T08:15:51Z</time>
      </trkpt>
      <trkpt lat="44.19235" lon="4.84562">
        <ele>69</ele>
        <time>2018-09-30T08:15:54Z</time>
      </trkpt>
      <trkpt lat="44.19242" lon="4.84573">
        <ele>69</ele>
        <time>2018-09-30T08:15:56Z</time>
      </trkpt>
      <trkpt lat="44.19255" lon="4.84568">
        <ele>69</ele>
        <time>2018-09-30T08:15:59Z</time>
      </trkpt>
      <trkpt lat="44.19262" lon="4.84565">
        <ele>69</ele>
        <time>2018-09-30T08:16:01Z</time>
      </trkpt>
      <trkpt lat="44.19274" lon="4.84566">
        <ele>69</ele>
        <time>2018-09-30T08:16:04Z</time>
      </trkpt>
      <trkpt lat="44.19286" lon="4.84567">
        <ele>70</ele>
        <time>2018-09-30T08:16:07Z</time>
      </trkpt>
      <trkpt lat="44.19294" lon="4.84566">
        <ele>70</ele>
        <time>2018-09-30T08:16:09Z</time>
      </trkpt>
      <trkpt lat="44.19305" lon="4.84561">
        <ele>70</ele>
        <time>2018-09-30T08:16:12Z</time>
      </trkpt>
      <trkpt lat="44.19317" lon="4.84556">
        <ele>71</ele>
        <time>2018-09-30T08:16:15Z</time>
      </trkpt>
      <trkpt lat="44.1933" lon="4.84551">
        <ele>71</ele>
        <time>2018-09-30T08:16:18Z</time>
      </trkpt>
      <trkpt lat="44.19344" lon="4.84545">
        <ele>72</ele>
        <time>2018-09-30T08:16:21Z</time>
      </trkpt>
      <trkpt lat="44.19353" lon="4.84541">
        <ele>72</ele>
        <time>2018-09-30T08:16:23Z</time>
      </trkpt>
      <trkpt lat="44.19368" lon="4.84534">
        <ele>72</ele>
        <time>2018-09-30T08:16:26Z</time>
      </trkpt>
      <trkpt lat="44.19379" lon="4.84529">
        <ele>73</ele>
        <time>2018-09-30T08:16:28Z</time>
      </trkpt>
      <trkpt lat="44.19394" lon="4.84522">
        <ele>73</ele>
        <time>2018-09-30T08:16:31Z</time>
      </trkpt>
      <trkpt lat="44.19409" lon="4.84516">
        <ele>73</ele>
        <time>2018-09-30T08:16:34Z</time>
      </trkpt>
      <trkpt lat="44.19424" lon="4.84509">
        <ele>73</ele>
        <time>2018-09-30T08:16:37Z</time>
      </trkpt>
      <trkpt lat="44.19439" lon="4.84502">
        <ele>73</ele>
        <time>2018-09-30T08:16:40Z</time>
      </trkpt>
      <trkpt lat="44.19453" lon="4.84495">
        <ele>74</ele>
        <time>2018-09-30T08:16:43Z</time>
      </trkpt>
      <trkpt lat="44.19463" lon="4.84492">
        <ele>74</ele>
        <time>2018-09-30T08:16:45Z</time>
      </trkpt>
      <trkpt lat="44.19479" lon="4.84495">
        <ele>74</ele>
        <time>2018-09-30T08:16:48Z</time>
      </trkpt>
      <trkpt lat="44.19494" lon="4.84505">
        <ele>74</ele>
        <time>2018-09-30T08:16:51Z</time>
      </trkpt>
      <trkpt lat="44.19508" lon="4.84516">
        <ele>74</ele>
        <time>2018-09-30T08:16:54Z</time>
      </trkpt>
      <trkpt lat="44.19523" lon="4.84527">
        <ele>75</ele>
        <time>2018-09-30T08:16:57Z</time>
      </trkpt>
      <trkpt lat="44.19537" lon="4.84538">
        <ele>75</ele>
        <time>2018-09-30T08:17:00Z</time>
      </trkpt>
      <trkpt lat="44.19553" lon="4.8455">
        <ele>76</ele>
        <time>2018-09-30T08:17:03Z</time>
      </trkpt>
      <trkpt lat="44.19561" lon="4.84557">
        <ele>76</ele>
        <time>2018-09-30T08:17:05Z</time>
      </trkpt>
      <trkpt lat="44.19576" lon="4.84569">
        <ele>76</ele>
        <time>2018-09-30T08:17:08Z</time>
      </trkpt>
      <trkpt lat="44.19586" lon="4.84575">
        <ele>76</ele>
        <time>2018-09-30T08:17:10Z</time>
      </trkpt>
      <trkpt lat="44.19601" lon="4.84585">
        <ele>76</ele>
        <time>2018-09-30T08:17:13Z</time>
      </trkpt>
      <trkpt lat="44.19617" lon="4.84589">
        <ele>76</ele>
        <time>2018-09-30T08:17:16Z</time>
      </trkpt>
      <trkpt lat="44.19634" lon="4.84592">
        <ele>76</ele>
        <time>2018-09-30T08:17:19Z</time>
      </trkpt>
      <trkpt lat="44.1965" lon="4.84593">
        <ele>76</ele>
        <time>2018-09-30T08:17:22Z</time>
      </trkpt>
      <trkpt lat="44.19666" lon="4.84595">
        <ele>77</ele>
        <time>2018-09-30T08:17:25Z</time>
      </trkpt>
      <trkpt lat="44.19683" lon="4.84598">
        <ele>78</ele>
        <time>2018-09-30T08:17:28Z</time>
      </trkpt>
      <trkpt lat="44.19694" lon="4.846">
        <ele>78</ele>
        <time>2018-09-30T08:17:30Z</time>
      </trkpt>
      <trkpt lat="44.19711" lon="4.84601">
        <ele>78</ele>
        <time>2018-09-30T08:17:33Z</time>
      </trkpt>
      <trkpt lat="44.19728" lon="4.84602">
        <ele>78</ele>
        <time>2018-09-30T08:17:36Z</time>
      </trkpt>
      <trkpt lat="44.19745" lon="4.84604">
        <ele>79</ele>
        <time>2018-09-30T08:17:39Z</time>
      </trkpt>
      <trkpt lat="44.19762" lon="4.84606">
        <ele>80</ele>
        <time>2018-09-30T08:17:42Z</time>
      </trkpt>
      <trkpt lat="44.19772" lon="4.84606">
        <ele>80</ele>
        <time>2018-09-30T08:17:44Z</time>
      </trkpt>
      <trkpt lat="44.19788" lon="4.84606">
        <ele>80</ele>
        <time>2018-09-30T08:17:47Z</time>
      </trkpt>
      <trkpt lat="44.19799" lon="4.84605">
        <ele>80</ele>
        <time>2018-09-30T08:17:49Z</time>
      </trkpt>
      <trkpt lat="44.1981" lon="4.84605">
        <ele>81</ele>
        <time>2018-09-30T08:17:51Z</time>
      </trkpt>
      <trkpt lat="44.19821" lon="4.84605">
        <ele>81</ele>
        <time>2018-09-30T08:17:53Z</time>
      </trkpt>
      <trkpt lat="44.19837" lon="4.8461">
        <ele>82</ele>
        <time>2018-09-30T08:17:56Z</time>
      </trkpt>
      <trkpt lat="44.19852" lon="4.8462">
        <ele>82</ele>
        <time>2018-09-30T08:17:59Z</time>
      </trkpt>
      <trkpt lat="44.19861" lon="4.8463">
        <ele>82</ele>
        <time>2018-09-30T08:18:01Z</time>
      </trkpt>
      <trkpt lat="44.19869" lon="4.84642">
        <ele>82</ele>
        <time>2018-09-30T08:18:03Z</time>
      </trkpt>
      <trkpt lat="44.19875" lon="4.84655">
        <ele>82</ele>
        <time>2018-09-30T08:18:05Z</time>
      </trkpt>
      <trkpt lat="44.19881" lon="4.84667">
        <ele>83</ele>
        <time>2018-09-30T08:18:07Z</time>
      </trkpt>
      <trkpt lat="44.19893" lon="4.84684">
        <ele>83</ele>
        <time>2018-09-30T08:18:10Z</time>
      </trkpt>
      <trkpt lat="44.19902" lon="4.84693">
        <ele>83</ele>
        <time>2018-09-30T08:18:12Z</time>
      </trkpt>
      <trkpt lat="44.19918" lon="4.84704">
        <ele>83</ele>
        <time>2018-09-30T08:18:15Z</time>
      </trkpt>
      <trkpt lat="44.19934" lon="4.84714">
        <ele>84</ele>
        <time>2018-09-30T08:18:18Z</time>
      </trkpt>
      <trkpt lat="44.1995" lon="4.84725">
        <ele>84</ele>
        <time>2018-09-30T08:18:21Z</time>
      </trkpt>
      <trkpt lat="44.1996" lon="4.84731">
        <ele>85</ele>
        <time>2018-09-30T08:18:23Z</time>
      </trkpt>
      <trkpt lat="44.1997" lon="4.84738">
        <ele>85</ele>
        <time>2018-09-30T08:18:25Z</time>
      </trkpt>
      <trkpt lat="44.19981" lon="4.84745">
        <ele>85</ele>
        <time>2018-09-30T08:18:27Z</time>
      </trkpt>
      <trkpt lat="44.19995" lon="4.84758">
        <ele>85</ele>
        <time>2018-09-30T08:18:30Z</time>
      </trkpt>
      <trkpt lat="44.20003" lon="4.8477">
        <ele>85</ele>
        <time>2018-09-30T08:18:32Z</time>
      </trkpt>
      <trkpt lat="44.20008" lon="4.84784">
        <ele>85</ele>
        <time>2018-09-30T08:18:34Z</time>
      </trkpt>
      <trkpt lat="44.20018" lon="4.84804">
        <ele>84</ele>
        <time>2018-09-30T08:18:37Z</time>
      </trkpt>
      <trkpt lat="44.20026" lon="4.84817">
        <ele>84</ele>
        <time>2018-09-30T08:18:39Z</time>
      </trkpt>
      <trkpt lat="44.2004" lon="4.84833">
        <ele>83</ele>
        <time>2018-09-30T08:18:42Z</time>
      </trkpt>
      <trkpt lat="44.20049" lon="4.84844">
        <ele>83</ele>
        <time>2018-09-30T08:18:44Z</time>
      </trkpt>
      <trkpt lat="44.20064" lon="4.84858">
        <ele>83</ele>
        <time>2018-09-30T08:18:47Z</time>
      </trkpt>
      <trkpt lat="44.20079" lon="4.84869">
        <ele>83</ele>
        <time>2018-09-30T08:18:50Z</time>
      </trkpt>
      <trkpt lat="44.20095" lon="4.8488">
        <ele>82</ele>
        <time>2018-09-30T08:18:53Z</time>
      </trkpt>
      <trkpt lat="44.20106" lon="4.84887">
        <ele>82</ele>
        <time>2018-09-30T08:18:55Z</time>
      </trkpt>
      <trkpt lat="44.20122" lon="4.84897">
        <ele>82</ele>
        <time>2018-09-30T08:18:58Z</time>
      </trkpt>
      <trkpt lat="44.20138" lon="4.84906">
        <ele>82</ele>
        <time>2018-09-30T08:19:01Z</time>
      </trkpt>
      <trkpt lat="44.20153" lon="4.84916">
        <ele>82</ele>
        <time>2018-09-30T08:19:04Z</time>
      </trkpt>
      <trkpt lat="44.2017" lon="4.84927">
        <ele>82</ele>
        <time>2018-09-30T08:19:07Z</time>
      </trkpt>
      <trkpt lat="44.20181" lon="4.84933">
        <ele>82</ele>
        <time>2018-09-30T08:19:09Z</time>
      </trkpt>
      <trkpt lat="44.20198" lon="4.84943">
        <ele>83</ele>
        <time>2018-09-30T08:19:12Z</time>
      </trkpt>
      <trkpt lat="44.2021" lon="4.8495">
        <ele>83</ele>
        <time>2018-09-30T08:19:14Z</time>
      </trkpt>
      <trkpt lat="44.20227" lon="4.84961">
        <ele>83</ele>
        <time>2018-09-30T08:19:17Z</time>
      </trkpt>
      <trkpt lat="44.20238" lon="4.84968">
        <ele>83</ele>
        <time>2018-09-30T08:19:19Z</time>
      </trkpt>
      <trkpt lat="44.20256" lon="4.84978">
        <ele>83</ele>
        <time>2018-09-30T08:19:22Z</time>
      </trkpt>
      <trkpt lat="44.20273" lon="4.84988">
        <ele>83</ele>
        <time>2018-09-30T08:19:25Z</time>
      </trkpt>
      <trkpt lat="44.2029" lon="4.84998">
        <ele>83</ele>
        <time>2018-09-30T08:19:28Z</time>
      </trkpt>
      <trkpt lat="44.20308" lon="4.85008">
        <ele>84</ele>
        <time>2018-09-30T08:19:31Z</time>
      </trkpt>
      <trkpt lat="44.20325" lon="4.85018">
        <ele>84</ele>
        <time>2018-09-30T08:19:34Z</time>
      </trkpt>
      <trkpt lat="44.20343" lon="4.85027">
        <ele>84</ele>
        <time>2018-09-30T08:19:37Z</time>
      </trkpt>
      <trkpt lat="44.20359" lon="4.85036">
        <ele>84</ele>
        <time>2018-09-30T08:19:40Z</time>
      </trkpt>
      <trkpt lat="44.2037" lon="4.85043">
        <ele>84</ele>
        <time>2018-09-30T08:19:42Z</time>
      </trkpt>
      <trkpt lat="44.20382" lon="4.85049">
        <ele>84</ele>
        <time>2018-09-30T08:19:44Z</time>
      </trkpt>
      <trkpt lat="44.204" lon="4.85059">
        <ele>84</ele>
        <time>2018-09-30T08:19:47Z</time>
      </trkpt>
      <trkpt lat="44.20418" lon="4.85069">
        <ele>84</ele>
        <time>2018-09-30T08:19:50Z</time>
      </trkpt>
      <trkpt lat="44.20431" lon="4.85075">
        <ele>84</ele>
        <time>2018-09-30T08:19:52Z</time>
      </trkpt>
      <trkpt lat="44.20444" lon="4.8508">
        <ele>84</ele>
        <time>2018-09-30T08:19:54Z</time>
      </trkpt>
      <trkpt lat="44.20463" lon="4.85083">
        <ele>84</ele>
        <time>2018-09-30T08:19:57Z</time>
      </trkpt>
      <trkpt lat="44.20476" lon="4.8508">
        <ele>84</ele>
        <time>2018-09-30T08:19:59Z</time>
      </trkpt>
      <trkpt lat="44.20494" lon="4.85073">
        <ele>85</ele>
        <time>2018-09-30T08:20:02Z</time>
      </trkpt>
      <trkpt lat="44.20507" lon="4.85068">
        <ele>85</ele>
        <time>2018-09-30T08:20:04Z</time>
      </trkpt>
      <trkpt lat="44.20519" lon="4.85064">
        <ele>86</ele>
        <time>2018-09-30T08:20:06Z</time>
      </trkpt>
      <trkpt lat="44.20537" lon="4.85057">
        <ele>86</ele>
        <time>2018-09-30T08:20:09Z</time>
      </trkpt>
      <trkpt lat="44.20549" lon="4.85052">
        <ele>86</ele>
        <time>2018-09-30T08:20:11Z</time>
      </trkpt>
      <trkpt lat="44.20567" lon="4.85044">
        <ele>87</ele>
        <time>2018-09-30T08:20:14Z</time>
      </trkpt>
      <trkpt lat="44.20578" lon="4.8504">
        <ele>87</ele>
        <time>2018-09-30T08:20:16Z</time>
      </trkpt>
      <trkpt lat="44.2059" lon="4.85035">
        <ele>87</ele>
        <time>2018-09-30T08:20:18Z</time>
      </trkpt>
      <trkpt lat="44.20607" lon="4.85028">
        <ele>88</ele>
        <time>2018-09-30T08:20:21Z</time>
      </trkpt>
      <trkpt lat="44.20619" lon="4.85025">
        <ele>88</ele>
        <time>2018-09-30T08:20:23Z</time>
      </trkpt>
      <trkpt lat="44.20631" lon="4.85024">
        <ele>88</ele>
        <time>2018-09-30T08:20:25Z</time>
      </trkpt>
      <trkpt lat="44.20649" lon="4.85022">
        <ele>89</ele>
        <time>2018-09-30T08:20:28Z</time>
      </trkpt>
      <trkpt lat="44.20661" lon="4.85022">
        <ele>89</ele>
        <time>2018-09-30T08:20:30Z</time>
      </trkpt>
      <trkpt lat="44.20678" lon="4.85021">
        <ele>89</ele>
        <time>2018-09-30T08:20:33Z</time>
      </trkpt>
      <trkpt lat="44.20696" lon="4.8502">
        <ele>90</ele>
        <time>2018-09-30T08:20:36Z</time>
      </trkpt>
      <trkpt lat="44.20714" lon="4.85018">
        <ele>90</ele>
        <time>2018-09-30T08:20:39Z</time>
      </trkpt>
      <trkpt lat="44.20731" lon="4.85016">
        <ele>91</ele>
        <time>2018-09-30T08:20:42Z</time>
      </trkpt>
      <trkpt lat="44.20749" lon="4.85014">
        <ele>91</ele>
        <time>2018-09-30T08:20:45Z</time>
      </trkpt>
      <trkpt lat="44.20767" lon="4.85011">
        <ele>91</ele>
        <time>2018-09-30T08:20:48Z</time>
      </trkpt>
      <trkpt lat="44.20778" lon="4.8501">
        <ele>92</ele>
        <time>2018-09-30T08:20:50Z</time>
      </trkpt>
      <trkpt lat="44.20789" lon="4.8501">
        <ele>92</ele>
        <time>2018-09-30T08:20:52Z</time>
      </trkpt>
      <trkpt lat="44.20805" lon="4.85011">
        <ele>93</ele>
        <time>2018-09-30T08:20:55Z</time>
      </trkpt>
      <trkpt lat="44.20823" lon="4.85012">
        <ele>93</ele>
        <time>2018-09-30T08:20:58Z</time>
      </trkpt>
      <trkpt lat="44.20834" lon="4.85013">
        <ele>94</ele>
        <time>2018-09-30T08:21:00Z</time>
      </trkpt>
      <trkpt lat="44.2085" lon="4.85015">
        <ele>95</ele>
        <time>2018-09-30T08:21:03Z</time>
      </trkpt>
      <trkpt lat="44.20867" lon="4.85016">
        <ele>95</ele>
        <time>2018-09-30T08:21:06Z</time>
      </trkpt>
      <trkpt lat="44.20884" lon="4.85017">
        <ele>96</ele>
        <time>2018-09-30T08:21:09Z</time>
      </trkpt>
      <trkpt lat="44.20901" lon="4.85016">
        <ele>96</ele>
        <time>2018-09-30T08:21:12Z</time>
      </trkpt>
      <trkpt lat="44.20912" lon="4.85013">
        <ele>97</ele>
        <time>2018-09-30T08:21:14Z</time>
      </trkpt>
      <trkpt lat="44.20923" lon="4.8501">
        <ele>97</ele>
        <time>2018-09-30T08:21:16Z</time>
      </trkpt>
      <trkpt lat="44.20933" lon="4.85007">
        <ele>97</ele>
        <time>2018-09-30T08:21:18Z</time>
      </trkpt>
      <trkpt lat="44.20948" lon="4.85002">
        <ele>97</ele>
        <time>2018-09-30T08:21:21Z</time>
      </trkpt>
      <trkpt lat="44.20959" lon="4.85">
        <ele>98</ele>
        <time>2018-09-30T08:21:23Z</time>
      </trkpt>
      <trkpt lat="44.20969" lon="4.84997">
        <ele>98</ele>
        <time>2018-09-30T08:21:25Z</time>
      </trkpt>
      <trkpt lat="44.20984" lon="4.84992">
        <ele>99</ele>
        <time>2018-09-30T08:21:28Z</time>
      </trkpt>
      <trkpt lat="44.20998" lon="4.84988">
        <ele>99</ele>
        <time>2018-09-30T08:21:31Z</time>
      </trkpt>
      <trkpt lat="44.21013" lon="4.84983">
        <ele>100</ele>
        <time>2018-09-30T08:21:34Z</time>
      </trkpt>
      <trkpt lat="44.21028" lon="4.84978">
        <ele>101</ele>
        <time>2018-09-30T08:21:37Z</time>
      </trkpt>
      <trkpt lat="44.21038" lon="4.84975">
        <ele>101</ele>
        <time>2018-09-30T08:21:39Z</time>
      </trkpt>
      <trkpt lat="44.21053" lon="4.84971">
        <ele>101</ele>
        <time>2018-09-30T08:21:42Z</time>
      </trkpt>
      <trkpt lat="44.21067" lon="4.84966">
        <ele>101</ele>
        <time>2018-09-30T08:21:45Z</time>
      </trkpt>
      <trkpt lat="44.21082" lon="4.84962">
        <ele>101</ele>
        <time>2018-09-30T08:21:48Z</time>
      </trkpt>
      <trkpt lat="44.21092" lon="4.84959">
        <ele>102</ele>
        <time>2018-09-30T08:21:50Z</time>
      </trkpt>
      <trkpt lat="44.21104" lon="4.84954">
        <ele>103</ele>
        <time>2018-09-30T08:21:53Z</time>
      </trkpt>
      <trkpt lat="44.21112" lon="4.84951">
        <ele>103</ele>
        <time>2018-09-30T08:21:55Z</time>
      </trkpt>
      <trkpt lat="44.2112" lon="4.84949">
        <ele>103</ele>
        <time>2018-09-30T08:21:57Z</time>
      </trkpt>
      <trkpt lat="44.21132" lon="4.84945">
        <ele>104</ele>
        <time>2018-09-30T08:22:00Z</time>
      </trkpt>
      <trkpt lat="44.21144" lon="4.84941">
        <ele>105</ele>
        <time>2018-09-30T08:22:03Z</time>
      </trkpt>
      <trkpt lat="44.21152" lon="4.84939">
        <ele>105</ele>
        <time>2018-09-30T08:22:05Z</time>
      </trkpt>
      <trkpt lat="44.21163" lon="4.84936">
        <ele>106</ele>
        <time>2018-09-30T08:22:08Z</time>
      </trkpt>
      <trkpt lat="44.2117" lon="4.84933">
        <ele>106</ele>
        <time>2018-09-30T08:22:10Z</time>
      </trkpt>
      <trkpt lat="44.21181" lon="4.8493">
        <ele>107</ele>
        <time>2018-09-30T08:22:13Z</time>
      </trkpt>
      <trkpt lat="44.21188" lon="4.84927">
        <ele>107</ele>
        <time>2018-09-30T08:22:15Z</time>
      </trkpt>
      <trkpt lat="44.21195" lon="4.84924">
        <ele>108</ele>
        <time>2018-09-30T08:22:17Z</time>
      </trkpt>
      <trkpt lat="44.21206" lon="4.84918">
        <ele>108</ele>
        <time>2018-09-30T08:22:20Z</time>
      </trkpt>
      <trkpt lat="44.21212" lon="4.84914">
        <ele>109</ele>
        <time>2018-09-30T08:22:22Z</time>
      </trkpt>
      <trkpt lat="44.21223" lon="4.84907">
        <ele>110</ele>
        <time>2018-09-30T08:22:25Z</time>
      </trkpt>
      <trkpt lat="44.21233" lon="4.84898">
        <ele>110</ele>
        <time>2018-09-30T08:22:28Z</time>
      </trkpt>
      <trkpt lat="44.21243" lon="4.84885">
        <ele>111</ele>
        <time>2018-09-30T08:22:31Z</time>
      </trkpt>
      <trkpt lat="44.21252" lon="4.84873">
        <ele>112</ele>
        <time>2018-09-30T08:22:34Z</time>
      </trkpt>
      <trkpt lat="44.21258" lon="4.84865">
        <ele>112</ele>
        <time>2018-09-30T08:22:36Z</time>
      </trkpt>
      <trkpt lat="44.21265" lon="4.84858">
        <ele>113</ele>
        <time>2018-09-30T08:22:38Z</time>
      </trkpt>
      <trkpt lat="44.21274" lon="4.84847">
        <ele>114</ele>
        <time>2018-09-30T08:22:41Z</time>
      </trkpt>
      <trkpt lat="44.2128" lon="4.84839">
        <ele>114</ele>
        <time>2018-09-30T08:22:43Z</time>
      </trkpt>
      <trkpt lat="44.21289" lon="4.84828">
        <ele>115</ele>
        <time>2018-09-30T08:22:46Z</time>
      </trkpt>
      <trkpt lat="44.21295" lon="4.84821">
        <ele>115</ele>
        <time>2018-09-30T08:22:48Z</time>
      </trkpt>
      <trkpt lat="44.213" lon="4.84813">
        <ele>116</ele>
        <time>2018-09-30T08:22:50Z</time>
      </trkpt>
      <trkpt lat="44.21309" lon="4.84801">
        <ele>116</ele>
        <time>2018-09-30T08:22:53Z</time>
      </trkpt>
      <trkpt lat="44.21317" lon="4.84791">
        <ele>117</ele>
        <time>2018-09-30T08:22:56Z</time>
      </trkpt>
      <trkpt lat="44.21326" lon="4.84781">
        <ele>118</ele>
        <time>2018-09-30T08:22:59Z</time>
      </trkpt>
      <trkpt lat="44.21331" lon="4.84774">
        <ele>118</ele>
        <time>2018-09-30T08:23:01Z</time>
      </trkpt>
      <trkpt lat="44.2134" lon="4.84764">
        <ele>119</ele>
        <time>2018-09-30T08:23:04Z</time>
      </trkpt>
      <trkpt lat="44.21349" lon="4.84755">
        <ele>119</ele>
        <time>2018-09-30T08:23:07Z</time>
      </trkpt>
      <trkpt lat="44.2136" lon="4.84752">
        <ele>120</ele>
        <time>2018-09-30T08:23:10Z</time>
      </trkpt>
      <trkpt lat="44.21368" lon="4.84754">
        <ele>121</ele>
        <time>2018-09-30T08:23:12Z</time>
      </trkpt>
      <trkpt lat="44.21378" lon="4.84762">
        <ele>122</ele>
        <time>2018-09-30T08:23:15Z</time>
      </trkpt>
      <trkpt lat="44.21387" lon="4.84774">
        <ele>122</ele>
        <time>2018-09-30T08:23:18Z</time>
      </trkpt>
      <trkpt lat="44.21397" lon="4.84786">
        <ele>123</ele>
        <time>2018-09-30T08:23:21Z</time>
      </trkpt>
      <trkpt lat="44.21407" lon="4.84796">
        <ele>124</ele>
        <time>2018-09-30T08:23:24Z</time>
      </trkpt>
      <trkpt lat="44.21416" lon="4.84806">
        <ele>125</ele>
        <time>2018-09-30T08:23:27Z</time>
      </trkpt>
      <trkpt lat="44.21422" lon="4.84812">
        <ele>125</ele>
        <time>2018-09-30T08:23:29Z</time>
      </trkpt>
      <trkpt lat="44.21431" lon="4.84822">
        <ele>126</ele>
        <time>2018-09-30T08:23:32Z</time>
      </trkpt>
      <trkpt lat="44.21441" lon="4.84833">
        <ele>127</ele>
        <time>2018-09-30T08:23:35Z</time>
      </trkpt>
      <trkpt lat="44.21451" lon="4.84844">
        <ele>128</ele>
        <time>2018-09-30T08:23:38Z</time>
      </trkpt>
      <trkpt lat="44.21461" lon="4.84856">
        <ele>128</ele>
        <time>2018-09-30T08:23:41Z</time>
      </trkpt>
      <trkpt lat="44.21472" lon="4.84868">
        <ele>128</ele>
        <time>2018-09-30T08:23:44Z</time>
      </trkpt>
      <trkpt lat="44.21482" lon="4.8488">
        <ele>128</ele>
        <time>2018-09-30T08:23:47Z</time>
      </trkpt>
      <trkpt lat="44.21489" lon="4.84888">
        <ele>129</ele>
        <time>2018-09-30T08:23:49Z</time>
      </trkpt>
      <trkpt lat="44.21501" lon="4.84897">
        <ele>129</ele>
        <time>2018-09-30T08:23:52Z</time>
      </trkpt>
      <trkpt lat="44.2151" lon="4.84898">
        <ele>129</ele>
        <time>2018-09-30T08:23:54Z</time>
      </trkpt>
      <trkpt lat="44.21523" lon="4.84894">
        <ele>130</ele>
        <time>2018-09-30T08:23:57Z</time>
      </trkpt>
      <trkpt lat="44.21535" lon="4.84887">
        <ele>130</ele>
        <time>2018-09-30T08:24:00Z</time>
      </trkpt>
      <trkpt lat="44.21547" lon="4.84879">
        <ele>131</ele>
        <time>2018-09-30T08:24:03Z</time>
      </trkpt>
      <trkpt lat="44.21555" lon="4.84875">
        <ele>131</ele>
        <time>2018-09-30T08:24:05Z</time>
      </trkpt>
      <trkpt lat="44.21566" lon="4.84867">
        <ele>131</ele>
        <time>2018-09-30T08:24:08Z</time>
      </trkpt>
      <trkpt lat="44.21574" lon="4.84862">
        <ele>132</ele>
        <time>2018-09-30T08:24:10Z</time>
      </trkpt>
      <trkpt lat="44.21582" lon="4.84856">
        <ele>132</ele>
        <time>2018-09-30T08:24:12Z</time>
      </trkpt>
      <trkpt lat="44.2159" lon="4.8485">
        <ele>133</ele>
        <time>2018-09-30T08:24:14Z</time>
      </trkpt>
      <trkpt lat="44.21602" lon="4.84842">
        <ele>133</ele>
        <time>2018-09-30T08:24:17Z</time>
      </trkpt>
      <trkpt lat="44.21614" lon="4.84834">
        <ele>134</ele>
        <time>2018-09-30T08:24:20Z</time>
      </trkpt>
      <trkpt lat="44.21626" lon="4.84825">
        <ele>135</ele>
        <time>2018-09-30T08:24:23Z</time>
      </trkpt>
      <trkpt lat="44.21639" lon="4.84816">
        <ele>135</ele>
        <time>2018-09-30T08:24:26Z</time>
      </trkpt>
      <trkpt lat="44.21651" lon="4.84808">
        <ele>136</ele>
        <time>2018-09-30T08:24:29Z</time>
      </trkpt>
      <trkpt lat="44.21664" lon="4.84802">
        <ele>137</ele>
        <time>2018-09-30T08:24:32Z</time>
      </trkpt>
      <trkpt lat="44.21674" lon="4.84798">
        <ele>137</ele>
        <time>2018-09-30T08:24:34Z</time>
      </trkpt>
      <trkpt lat="44.21684" lon="4.84797">
        <ele>137</ele>
        <time>2018-09-30T08:24:36Z</time>
      </trkpt>
      <trkpt lat="44.21699" lon="4.84796">
        <ele>137</ele>
        <time>2018-09-30T08:24:39Z</time>
      </trkpt>
      <trkpt lat="44.21715" lon="4.84796">
        <ele>138</ele>
        <time>2018-09-30T08:24:42Z</time>
      </trkpt>
      <trkpt lat="44.21731" lon="4.84797">
        <ele>138</ele>
        <time>2018-09-30T08:24:45Z</time>
      </trkpt>
      <trkpt lat="44.21746" lon="4.84798">
        <ele>138</ele>
        <time>2018-09-30T08:24:48Z</time>
      </trkpt>
      <trkpt lat="44.21761" lon="4.84799">
        <ele>138</ele>
        <time>2018-09-30T08:24:51Z</time>
      </trkpt>
      <trkpt lat="44.21774" lon="4.84799">
        <ele>138</ele>
        <time>2018-09-30T08:24:54Z</time>
      </trkpt>
      <trkpt lat="44.21787" lon="4.84799">
        <ele>138</ele>
        <time>2018-09-30T08:24:57Z</time>
      </trkpt>
      <trkpt lat="44.21799" lon="4.84798">
        <ele>138</ele>
        <time>2018-09-30T08:25:00Z</time>
      </trkpt>
      <trkpt lat="44.21813" lon="4.84796">
        <ele>138</ele>
        <time>2018-09-30T08:25:03Z</time>
      </trkpt>
      <trkpt lat="44.21828" lon="4.84794">
        <ele>138</ele>
        <time>2018-09-30T08:25:06Z</time>
      </trkpt>
      <trkpt lat="44.21843" lon="4.84792">
        <ele>139</ele>
        <time>2018-09-30T08:25:09Z</time>
      </trkpt>
      <trkpt lat="44.21859" lon="4.84791">
        <ele>139</ele>
        <time>2018-09-30T08:25:12Z</time>
      </trkpt>
      <trkpt lat="44.21869" lon="4.8479">
        <ele>139</ele>
        <time>2018-09-30T08:25:14Z</time>
      </trkpt>
      <trkpt lat="44.21884" lon="4.8479">
        <ele>139</ele>
        <time>2018-09-30T08:25:17Z</time>
      </trkpt>
      <trkpt lat="44.21893" lon="4.84791">
        <ele>139</ele>
        <time>2018-09-30T08:25:19Z</time>
      </trkpt>
      <trkpt lat="44.21905" lon="4.84792">
        <ele>139</ele>
        <time>2018-09-30T08:25:22Z</time>
      </trkpt>
      <trkpt lat="44.21912" lon="4.84793">
        <ele>139</ele>
        <time>2018-09-30T08:25:24Z</time>
      </trkpt>
      <trkpt lat="44.21921" lon="4.84792">
        <ele>139</ele>
        <time>2018-09-30T08:25:27Z</time>
      </trkpt>
      <trkpt lat="44.21927" lon="4.84791">
        <ele>139</ele>
        <time>2018-09-30T08:25:29Z</time>
      </trkpt>
      <trkpt lat="44.21934" lon="4.84792">
        <ele>139</ele>
        <time>2018-09-30T08:25:32Z</time>
      </trkpt>
      <trkpt lat="44.21942" lon="4.84791">
        <ele>139</ele>
        <time>2018-09-30T08:25:35Z</time>
      </trkpt>
      <trkpt lat="44.21946" lon="4.8479">
        <ele>139</ele>
        <time>2018-09-30T08:25:37Z</time>
      </trkpt>
      <trkpt lat="44.21953" lon="4.84791">
        <ele>139</ele>
        <time>2018-09-30T08:25:40Z</time>
      </trkpt>
      <trkpt lat="44.21957" lon="4.8479">
        <ele>139</ele>
        <time>2018-09-30T08:25:42Z</time>
      </trkpt>
      <trkpt lat="44.21963" lon="4.8479">
        <ele>139</ele>
        <time>2018-09-30T08:25:45Z</time>
      </trkpt>
      <trkpt lat="44.21965" lon="4.84791">
        <ele>139</ele>
        <time>2018-09-30T08:25:47Z</time>
      </trkpt>
      <trkpt lat="44.21965" lon="4.84791">
        <ele>139</ele>
        <time>2018-09-30T08:25:50Z</time>
      </trkpt>
      <trkpt lat="44.21966" lon="4.84791">
        <ele>139</ele>
        <time>2018-09-30T08:25:52Z</time>
      </trkpt>
      <trkpt lat="44.21966" lon="4.84793">
        <ele>139</ele>
        <time>2018-09-30T08:25:55Z</time>
      </trkpt>
      <trkpt lat="44.21964" lon="4.84795">
        <ele>139</ele>
        <time>2018-09-30T08:25:57Z</time>
      </trkpt>
      <trkpt lat="44.21959" lon="4.84794">
        <ele>139</ele>
        <time>2018-09-30T08:26:00Z</time>
      </trkpt>
      <trkpt lat="44.21954" lon="4.84792">
        <ele>139</ele>
        <time>2018-09-30T08:26:03Z</time>
      </trkpt>
      <trkpt lat="44.21951" lon="4.84795">
        <ele>139</ele>
        <time>2018-09-30T08:26:05Z</time>
      </trkpt>
      <trkpt lat="44.21949" lon="4.84793">
        <ele>139</ele>
        <time>2018-09-30T08:26:07Z</time>
      </trkpt>
      <trkpt lat="44.21954" lon="4.84792">
        <ele>139</ele>
        <time>2018-09-30T08:26:10Z</time>
      </trkpt>
      <trkpt lat="44.21959" lon="4.84794">
        <ele>139</ele>
        <time>2018-09-30T08:26:12Z</time>
      </trkpt>
      <trkpt lat="44.2197" lon="4.84795">
        <ele>139</ele>
        <time>2018-09-30T08:26:15Z</time>
      </trkpt>
      <trkpt lat="44.21977" lon="4.84795">
        <ele>139</ele>
        <time>2018-09-30T08:26:17Z</time>
      </trkpt>
      <trkpt lat="44.21989" lon="4.84796">
        <ele>140</ele>
        <time>2018-09-30T08:26:20Z</time>
      </trkpt>
      <trkpt lat="44.22002" lon="4.84797">
        <ele>140</ele>
        <time>2018-09-30T08:26:23Z</time>
      </trkpt>
      <trkpt lat="44.22016" lon="4.84798">
        <ele>140</ele>
        <time>2018-09-30T08:26:26Z</time>
      </trkpt>
      <trkpt lat="44.2203" lon="4.84801">
        <ele>140</ele>
        <time>2018-09-30T08:26:29Z</time>
      </trkpt>
      <trkpt lat="44.22046" lon="4.84804">
        <ele>140</ele>
        <time>2018-09-30T08:26:32Z</time>
      </trkpt>
      <trkpt lat="44.22061" lon="4.84809">
        <ele>140</ele>
        <time>2018-09-30T08:26:35Z</time>
      </trkpt>
      <trkpt lat="44.22076" lon="4.84815">
        <ele>140</ele>
        <time>2018-09-30T08:26:38Z</time>
      </trkpt>
      <trkpt lat="44.22086" lon="4.84819">
        <ele>140</ele>
        <time>2018-09-30T08:26:40Z</time>
      </trkpt>
      <trkpt lat="44.22098" lon="4.84823">
        <ele>140</ele>
        <time>2018-09-30T08:26:42Z</time>
      </trkpt>
      <trkpt lat="44.22116" lon="4.84828">
        <ele>140</ele>
        <time>2018-09-30T08:26:45Z</time>
      </trkpt>
      <trkpt lat="44.22133" lon="4.84831">
        <ele>140</ele>
        <time>2018-09-30T08:26:48Z</time>
      </trkpt>
      <trkpt lat="44.2215" lon="4.84834">
        <ele>140</ele>
        <time>2018-09-30T08:26:51Z</time>
      </trkpt>
      <trkpt lat="44.22167" lon="4.84836">
        <ele>140</ele>
        <time>2018-09-30T08:26:54Z</time>
      </trkpt>
      <trkpt lat="44.22183" lon="4.8484">
        <ele>141</ele>
        <time>2018-09-30T08:26:57Z</time>
      </trkpt>
      <trkpt lat="44.222" lon="4.84843">
        <ele>141</ele>
        <time>2018-09-30T08:27:00Z</time>
      </trkpt>
      <trkpt lat="44.22218" lon="4.84846">
        <ele>141</ele>
        <time>2018-09-30T08:27:03Z</time>
      </trkpt>
      <trkpt lat="44.22236" lon="4.84851">
        <ele>141</ele>
        <time>2018-09-30T08:27:06Z</time>
      </trkpt>
      <trkpt lat="44.22248" lon="4.84854">
        <ele>142</ele>
        <time>2018-09-30T08:27:08Z</time>
      </trkpt>
      <trkpt lat="44.22265" lon="4.84861">
        <ele>142</ele>
        <time>2018-09-30T08:27:11Z</time>
      </trkpt>
      <trkpt lat="44.22275" lon="4.84867">
        <ele>143</ele>
        <time>2018-09-30T08:27:13Z</time>
      </trkpt>
      <trkpt lat="44.22292" lon="4.84874">
        <ele>144</ele>
        <time>2018-09-30T08:27:16Z</time>
      </trkpt>
      <trkpt lat="44.22309" lon="4.84882">
        <ele>144</ele>
        <time>2018-09-30T08:27:19Z</time>
      </trkpt>
      <trkpt lat="44.22326" lon="4.84887">
        <ele>144</ele>
        <time>2018-09-30T08:27:22Z</time>
      </trkpt>
      <trkpt lat="44.22337" lon="4.8489">
        <ele>144</ele>
        <time>2018-09-30T08:27:24Z</time>
      </trkpt>
      <trkpt lat="44.22349" lon="4.84894">
        <ele>145</ele>
        <time>2018-09-30T08:27:26Z</time>
      </trkpt>
      <trkpt lat="44.22362" lon="4.84898">
        <ele>145</ele>
        <time>2018-09-30T08:27:28Z</time>
      </trkpt>
      <trkpt lat="44.2238" lon="4.84905">
        <ele>145</ele>
        <time>2018-09-30T08:27:31Z</time>
      </trkpt>
      <trkpt lat="44.22399" lon="4.84914">
        <ele>145</ele>
        <time>2018-09-30T08:27:34Z</time>
      </trkpt>
      <trkpt lat="44.22417" lon="4.84924">
        <ele>145</ele>
        <time>2018-09-30T08:27:37Z</time>
      </trkpt>
      <trkpt lat="44.22429" lon="4.8493">
        <ele>145</ele>
        <time>2018-09-30T08:27:39Z</time>
      </trkpt>
      <trkpt lat="44.22448" lon="4.84938">
        <ele>145</ele>
        <time>2018-09-30T08:27:42Z</time>
      </trkpt>
      <trkpt lat="44.22467" lon="4.84946">
        <ele>145</ele>
        <time>2018-09-30T08:27:45Z</time>
      </trkpt>
      <trkpt lat="44.22487" lon="4.84953">
        <ele>144</ele>
        <time>2018-09-30T08:27:48Z</time>
      </trkpt>
      <trkpt lat="44.22499" lon="4.84957">
        <ele>144</ele>
        <time>2018-09-30T08:27:50Z</time>
      </trkpt>
      <trkpt lat="44.22519" lon="4.84964">
        <ele>144</ele>
        <time>2018-09-30T08:27:53Z</time>
      </trkpt>
      <trkpt lat="44.2254" lon="4.84969">
        <ele>143</ele>
        <time>2018-09-30T08:27:56Z</time>
      </trkpt>
      <trkpt lat="44.22563" lon="4.84971">
        <ele>143</ele>
        <time>2018-09-30T08:27:59Z</time>
      </trkpt>
      <trkpt lat="44.22586" lon="4.84971">
        <ele>142</ele>
        <time>2018-09-30T08:28:02Z</time>
      </trkpt>
      <trkpt lat="44.22612" lon="4.84973">
        <ele>140</ele>
        <time>2018-09-30T08:28:05Z</time>
      </trkpt>
      <trkpt lat="44.2264" lon="4.84984">
        <ele>138</ele>
        <time>2018-09-30T08:28:08Z</time>
      </trkpt>
      <trkpt lat="44.22669" lon="4.8499">
        <ele>136</ele>
        <time>2018-09-30T08:28:11Z</time>
      </trkpt>
      <trkpt lat="44.22698" lon="4.84991">
        <ele>136</ele>
        <time>2018-09-30T08:28:14Z</time>
      </trkpt>
      <trkpt lat="44.22715" lon="4.84993">
        <ele>136</ele>
        <time>2018-09-30T08:28:16Z</time>
      </trkpt>
      <trkpt lat="44.2273" lon="4.84995">
        <ele>136</ele>
        <time>2018-09-30T08:28:18Z</time>
      </trkpt>
      <trkpt lat="44.22747" lon="4.84991">
        <ele>136</ele>
        <time>2018-09-30T08:28:21Z</time>
      </trkpt>
      <trkpt lat="44.22756" lon="4.84975">
        <ele>135</ele>
        <time>2018-09-30T08:28:24Z</time>
      </trkpt>
      <trkpt lat="44.22761" lon="4.84964">
        <ele>135</ele>
        <time>2018-09-30T08:28:26Z</time>
      </trkpt>
      <trkpt lat="44.22772" lon="4.84948">
        <ele>135</ele>
        <time>2018-09-30T08:28:29Z</time>
      </trkpt>
      <trkpt lat="44.22786" lon="4.84936">
        <ele>135</ele>
        <time>2018-09-30T08:28:32Z</time>
      </trkpt>
      <trkpt lat="44.22796" lon="4.84928">
        <ele>135</ele>
        <time>2018-09-30T08:28:34Z</time>
      </trkpt>
      <trkpt lat="44.22812" lon="4.84914">
        <ele>135</ele>
        <time>2018-09-30T08:28:37Z</time>
      </trkpt>
      <trkpt lat="44.22824" lon="4.84905">
        <ele>134</ele>
        <time>2018-09-30T08:28:39Z</time>
      </trkpt>
      <trkpt lat="44.22837" lon="4.84896">
        <ele>134</ele>
        <time>2018-09-30T08:28:41Z</time>
      </trkpt>
      <trkpt lat="44.22859" lon="4.84889">
        <ele>134</ele>
        <time>2018-09-30T08:28:44Z</time>
      </trkpt>
      <trkpt lat="44.2288" lon="4.84904">
        <ele>133</ele>
        <time>2018-09-30T08:28:47Z</time>
      </trkpt>
      <trkpt lat="44.22891" lon="4.84921">
        <ele>133</ele>
        <time>2018-09-30T08:28:49Z</time>
      </trkpt>
      <trkpt lat="44.22907" lon="4.8495">
        <ele>132</ele>
        <time>2018-09-30T08:28:52Z</time>
      </trkpt>
      <trkpt lat="44.22923" lon="4.84979">
        <ele>132</ele>
        <time>2018-09-30T08:28:55Z</time>
      </trkpt>
      <trkpt lat="44.2294" lon="4.85008">
        <ele>131</ele>
        <time>2018-09-30T08:28:58Z</time>
      </trkpt>
      <trkpt lat="44.22959" lon="4.85036">
        <ele>130</ele>
        <time>2018-09-30T08:29:01Z</time>
      </trkpt>
      <trkpt lat="44.22978" lon="4.85062">
        <ele>128</ele>
        <time>2018-09-30T08:29:04Z</time>
      </trkpt>
      <trkpt lat="44.22991" lon="4.8508">
        <ele>127</ele>
        <time>2018-09-30T08:29:06Z</time>
      </trkpt>
      <trkpt lat="44.23011" lon="4.85105">
        <ele>127</ele>
        <time>2018-09-30T08:29:09Z</time>
      </trkpt>
      <trkpt lat="44.23032" lon="4.85128">
        <ele>126</ele>
        <time>2018-09-30T08:29:12Z</time>
      </trkpt>
      <trkpt lat="44.23056" lon="4.85145">
        <ele>125</ele>
        <time>2018-09-30T08:29:15Z</time>
      </trkpt>
      <trkpt lat="44.23083" lon="4.85152">
        <ele>122</ele>
        <time>2018-09-30T08:29:18Z</time>
      </trkpt>
      <trkpt lat="44.23111" lon="4.85159">
        <ele>121</ele>
        <time>2018-09-30T08:29:21Z</time>
      </trkpt>
      <trkpt lat="44.2313" lon="4.85163">
        <ele>119</ele>
        <time>2018-09-30T08:29:23Z</time>
      </trkpt>
      <trkpt lat="44.23148" lon="4.85164">
        <ele>120</ele>
        <time>2018-09-30T08:29:25Z</time>
      </trkpt>
      <trkpt lat="44.23176" lon="4.85164">
        <ele>119</ele>
        <time>2018-09-30T08:29:28Z</time>
      </trkpt>
      <trkpt lat="44.23195" lon="4.85162">
        <ele>118</ele>
        <time>2018-09-30T08:29:30Z</time>
      </trkpt>
      <trkpt lat="44.23223" lon="4.85166">
        <ele>118</ele>
        <time>2018-09-30T08:29:33Z</time>
      </trkpt>
      <trkpt lat="44.23249" lon="4.8518">
        <ele>116</ele>
        <time>2018-09-30T08:29:36Z</time>
      </trkpt>
      <trkpt lat="44.23264" lon="4.85192">
        <ele>116</ele>
        <time>2018-09-30T08:29:38Z</time>
      </trkpt>
      <trkpt lat="44.23285" lon="4.85212">
        <ele>115</ele>
        <time>2018-09-30T08:29:41Z</time>
      </trkpt>
      <trkpt lat="44.23299" lon="4.85224">
        <ele>114</ele>
        <time>2018-09-30T08:29:43Z</time>
      </trkpt>
      <trkpt lat="44.23319" lon="4.85243">
        <ele>114</ele>
        <time>2018-09-30T08:29:46Z</time>
      </trkpt>
      <trkpt lat="44.23339" lon="4.85261">
        <ele>113</ele>
        <time>2018-09-30T08:29:49Z</time>
      </trkpt>
      <trkpt lat="44.23359" lon="4.8528">
        <ele>112</ele>
        <time>2018-09-30T08:29:52Z</time>
      </trkpt>
      <trkpt lat="44.23378" lon="4.85297">
        <ele>112</ele>
        <time>2018-09-30T08:29:55Z</time>
      </trkpt>
      <trkpt lat="44.23391" lon="4.85308">
        <ele>111</ele>
        <time>2018-09-30T08:29:57Z</time>
      </trkpt>
      <trkpt lat="44.23405" lon="4.85318">
        <ele>111</ele>
        <time>2018-09-30T08:29:59Z</time>
      </trkpt>
      <trkpt lat="44.23426" lon="4.85331">
        <ele>111</ele>
        <time>2018-09-30T08:30:02Z</time>
      </trkpt>
      <trkpt lat="44.23449" lon="4.85344">
        <ele>111</ele>
        <time>2018-09-30T08:30:05Z</time>
      </trkpt>
      <trkpt lat="44.23472" lon="4.85356">
        <ele>110</ele>
        <time>2018-09-30T08:30:08Z</time>
      </trkpt>
      <trkpt lat="44.23487" lon="4.85364">
        <ele>109</ele>
        <time>2018-09-30T08:30:10Z</time>
      </trkpt>
      <trkpt lat="44.23511" lon="4.85377">
        <ele>109</ele>
        <time>2018-09-30T08:30:13Z</time>
      </trkpt>
      <trkpt lat="44.23534" lon="4.85389">
        <ele>108</ele>
        <time>2018-09-30T08:30:16Z</time>
      </trkpt>
      <trkpt lat="44.23551" lon="4.85397">
        <ele>108</ele>
        <time>2018-09-30T08:30:18Z</time>
      </trkpt>
      <trkpt lat="44.23566" lon="4.85405">
        <ele>109</ele>
        <time>2018-09-30T08:30:20Z</time>
      </trkpt>
      <trkpt lat="44.23589" lon="4.85416">
        <ele>109</ele>
        <time>2018-09-30T08:30:23Z</time>
      </trkpt>
      <trkpt lat="44.23604" lon="4.8542">
        <ele>110</ele>
        <time>2018-09-30T08:30:25Z</time>
      </trkpt>
      <trkpt lat="44.23628" lon="4.85417">
        <ele>110</ele>
        <time>2018-09-30T08:30:28Z</time>
      </trkpt>
      <trkpt lat="44.23642" lon="4.85409">
        <ele>109</ele>
        <time>2018-09-30T08:30:30Z</time>
      </trkpt>
      <trkpt lat="44.23662" lon="4.8539">
        <ele>109</ele>
        <time>2018-09-30T08:30:33Z</time>
      </trkpt>
      <trkpt lat="44.23675" lon="4.85376">
        <ele>108</ele>
        <time>2018-09-30T08:30:35Z</time>
      </trkpt>
      <trkpt lat="44.23694" lon="4.85354">
        <ele>107</ele>
        <time>2018-09-30T08:30:38Z</time>
      </trkpt>
      <trkpt lat="44.23706" lon="4.85339">
        <ele>107</ele>
        <time>2018-09-30T08:30:40Z</time>
      </trkpt>
      <trkpt lat="44.23718" lon="4.85325">
        <ele>106</ele>
        <time>2018-09-30T08:30:42Z</time>
      </trkpt>
      <trkpt lat="44.23736" lon="4.85303">
        <ele>105</ele>
        <time>2018-09-30T08:30:45Z</time>
      </trkpt>
      <trkpt lat="44.23748" lon="4.85288">
        <ele>105</ele>
        <time>2018-09-30T08:30:47Z</time>
      </trkpt>
      <trkpt lat="44.23767" lon="4.85265">
        <ele>106</ele>
        <time>2018-09-30T08:30:50Z</time>
      </trkpt>
      <trkpt lat="44.23779" lon="4.8525">
        <ele>106</ele>
        <time>2018-09-30T08:30:52Z</time>
      </trkpt>
      <trkpt lat="44.23791" lon="4.85235">
        <ele>106</ele>
        <time>2018-09-30T08:30:54Z</time>
      </trkpt>
      <trkpt lat="44.23809" lon="4.85213">
        <ele>104</ele>
        <time>2018-09-30T08:30:57Z</time>
      </trkpt>
      <trkpt lat="44.23821" lon="4.85198">
        <ele>104</ele>
        <time>2018-09-30T08:30:59Z</time>
      </trkpt>
      <trkpt lat="44.23838" lon="4.85175">
        <ele>104</ele>
        <time>2018-09-30T08:31:02Z</time>
      </trkpt>
      <trkpt lat="44.2385" lon="4.85158">
        <ele>103</ele>
        <time>2018-09-30T08:31:04Z</time>
      </trkpt>
      <trkpt lat="44.23861" lon="4.85141">
        <ele>104</ele>
        <time>2018-09-30T08:31:06Z</time>
      </trkpt>
      <trkpt lat="44.23875" lon="4.85113">
        <ele>103</ele>
        <time>2018-09-30T08:31:09Z</time>
      </trkpt>
      <trkpt lat="44.23889" lon="4.85084">
        <ele>103</ele>
        <time>2018-09-30T08:31:12Z</time>
      </trkpt>
      <trkpt lat="44.23898" lon="4.85065">
        <ele>103</ele>
        <time>2018-09-30T08:31:14Z</time>
      </trkpt>
      <trkpt lat="44.23912" lon="4.85037">
        <ele>102</ele>
        <time>2018-09-30T08:31:17Z</time>
      </trkpt>
      <trkpt lat="44.23925" lon="4.85009">
        <ele>102</ele>
        <time>2018-09-30T08:31:20Z</time>
      </trkpt>
      <trkpt lat="44.23938" lon="4.84981">
        <ele>100</ele>
        <time>2018-09-30T08:31:23Z</time>
      </trkpt>
      <trkpt lat="44.23946" lon="4.84963">
        <ele>100</ele>
        <time>2018-09-30T08:31:25Z</time>
      </trkpt>
      <trkpt lat="44.23959" lon="4.84936">
        <ele>100</ele>
        <time>2018-09-30T08:31:28Z</time>
      </trkpt>
      <trkpt lat="44.23968" lon="4.84917">
        <ele>100</ele>
        <time>2018-09-30T08:31:30Z</time>
      </trkpt>
      <trkpt lat="44.2398" lon="4.84891">
        <ele>100</ele>
        <time>2018-09-30T08:31:33Z</time>
      </trkpt>
      <trkpt lat="44.23993" lon="4.84865">
        <ele>100</ele>
        <time>2018-09-30T08:31:36Z</time>
      </trkpt>
      <trkpt lat="44.24001" lon="4.84847">
        <ele>100</ele>
        <time>2018-09-30T08:31:38Z</time>
      </trkpt>
      <trkpt lat="44.24014" lon="4.84821">
        <ele>101</ele>
        <time>2018-09-30T08:31:41Z</time>
      </trkpt>
      <trkpt lat="44.24025" lon="4.84794">
        <ele>102</ele>
        <time>2018-09-30T08:31:44Z</time>
      </trkpt>
      <trkpt lat="44.24035" lon="4.84768">
        <ele>101</ele>
        <time>2018-09-30T08:31:47Z</time>
      </trkpt>
      <trkpt lat="44.24045" lon="4.8474">
        <ele>100</ele>
        <time>2018-09-30T08:31:50Z</time>
      </trkpt>
      <trkpt lat="44.24051" lon="4.84722">
        <ele>100</ele>
        <time>2018-09-30T08:31:52Z</time>
      </trkpt>
      <trkpt lat="44.24057" lon="4.84704">
        <ele>100</ele>
        <time>2018-09-30T08:31:54Z</time>
      </trkpt>
      <trkpt lat="44.24067" lon="4.84677">
        <ele>101</ele>
        <time>2018-09-30T08:31:57Z</time>
      </trkpt>
      <trkpt lat="44.24073" lon="4.84659">
        <ele>101</ele>
        <time>2018-09-30T08:31:59Z</time>
      </trkpt>
      <trkpt lat="44.24082" lon="4.84632">
        <ele>101</ele>
        <time>2018-09-30T08:32:02Z</time>
      </trkpt>
      <trkpt lat="44.24092" lon="4.84606">
        <ele>100</ele>
        <time>2018-09-30T08:32:05Z</time>
      </trkpt>
      <trkpt lat="44.24098" lon="4.8459">
        <ele>100</ele>
        <time>2018-09-30T08:32:07Z</time>
      </trkpt>
      <trkpt lat="44.24104" lon="4.84573">
        <ele>100</ele>
        <time>2018-09-30T08:32:09Z</time>
      </trkpt>
      <trkpt lat="44.2411" lon="4.84555">
        <ele>100</ele>
        <time>2018-09-30T08:32:11Z</time>
      </trkpt>
      <trkpt lat="44.24116" lon="4.84538">
        <ele>100</ele>
        <time>2018-09-30T08:32:13Z</time>
      </trkpt>
      <trkpt lat="44.24121" lon="4.84522">
        <ele>100</ele>
        <time>2018-09-30T08:32:15Z</time>
      </trkpt>
      <trkpt lat="44.2413" lon="4.84496">
        <ele>100</ele>
        <time>2018-09-30T08:32:18Z</time>
      </trkpt>
      <trkpt lat="44.24136" lon="4.8448">
        <ele>100</ele>
        <time>2018-09-30T08:32:20Z</time>
      </trkpt>
      <trkpt lat="44.24146" lon="4.84455">
        <ele>101</ele>
        <time>2018-09-30T08:32:23Z</time>
      </trkpt>
      <trkpt lat="44.24153" lon="4.84439">
        <ele>101</ele>
        <time>2018-09-30T08:32:25Z</time>
      </trkpt>
      <trkpt lat="44.24159" lon="4.84423">
        <ele>101</ele>
        <time>2018-09-30T08:32:27Z</time>
      </trkpt>
      <trkpt lat="44.24166" lon="4.84407">
        <ele>102</ele>
        <time>2018-09-30T08:32:29Z</time>
      </trkpt>
      <trkpt lat="44.24177" lon="4.84383">
        <ele>101</ele>
        <time>2018-09-30T08:32:32Z</time>
      </trkpt>
      <trkpt lat="44.24187" lon="4.84359">
        <ele>102</ele>
        <time>2018-09-30T08:32:35Z</time>
      </trkpt>
      <trkpt lat="44.24194" lon="4.84343">
        <ele>102</ele>
        <time>2018-09-30T08:32:37Z</time>
      </trkpt>
      <trkpt lat="44.24204" lon="4.8432">
        <ele>102</ele>
        <time>2018-09-30T08:32:40Z</time>
      </trkpt>
      <trkpt lat="44.24211" lon="4.84304">
        <ele>102</ele>
        <time>2018-09-30T08:32:42Z</time>
      </trkpt>
      <trkpt lat="44.24221" lon="4.84281">
        <ele>103</ele>
        <time>2018-09-30T08:32:45Z</time>
      </trkpt>
      <trkpt lat="44.24232" lon="4.84259">
        <ele>104</ele>
        <time>2018-09-30T08:32:48Z</time>
      </trkpt>
      <trkpt lat="44.2424" lon="4.84245">
        <ele>104</ele>
        <time>2018-09-30T08:32:50Z</time>
      </trkpt>
      <trkpt lat="44.24253" lon="4.84226">
        <ele>104</ele>
        <time>2018-09-30T08:32:53Z</time>
      </trkpt>
      <trkpt lat="44.24267" lon="4.84209">
        <ele>103</ele>
        <time>2018-09-30T08:32:56Z</time>
      </trkpt>
      <trkpt lat="44.24277" lon="4.84198">
        <ele>103</ele>
        <time>2018-09-30T08:32:58Z</time>
      </trkpt>
      <trkpt lat="44.24288" lon="4.84188">
        <ele>103</ele>
        <time>2018-09-30T08:33:00Z</time>
      </trkpt>
      <trkpt lat="44.24298" lon="4.84177">
        <ele>103</ele>
        <time>2018-09-30T08:33:02Z</time>
      </trkpt>
      <trkpt lat="44.24314" lon="4.84162">
        <ele>103</ele>
        <time>2018-09-30T08:33:05Z</time>
      </trkpt>
      <trkpt lat="44.24324" lon="4.84152">
        <ele>103</ele>
        <time>2018-09-30T08:33:07Z</time>
      </trkpt>
      <trkpt lat="44.24334" lon="4.84142">
        <ele>103</ele>
        <time>2018-09-30T08:33:09Z</time>
      </trkpt>
      <trkpt lat="44.24349" lon="4.84127">
        <ele>104</ele>
        <time>2018-09-30T08:33:12Z</time>
      </trkpt>
      <trkpt lat="44.24364" lon="4.84111">
        <ele>103</ele>
        <time>2018-09-30T08:33:15Z</time>
      </trkpt>
      <trkpt lat="44.24378" lon="4.84094">
        <ele>103</ele>
        <time>2018-09-30T08:33:18Z</time>
      </trkpt>
      <trkpt lat="44.24387" lon="4.84081">
        <ele>103</ele>
        <time>2018-09-30T08:33:20Z</time>
      </trkpt>
      <trkpt lat="44.244" lon="4.84061">
        <ele>103</ele>
        <time>2018-09-30T08:33:23Z</time>
      </trkpt>
      <trkpt lat="44.24408" lon="4.84048">
        <ele>104</ele>
        <time>2018-09-30T08:33:25Z</time>
      </trkpt>
      <trkpt lat="44.24416" lon="4.84034">
        <ele>104</ele>
        <time>2018-09-30T08:33:27Z</time>
      </trkpt>
      <trkpt lat="44.24429" lon="4.84014">
        <ele>104</ele>
        <time>2018-09-30T08:33:30Z</time>
      </trkpt>
      <trkpt lat="44.2444" lon="4.83994">
        <ele>104</ele>
        <time>2018-09-30T08:33:33Z</time>
      </trkpt>
      <trkpt lat="44.24448" lon="4.8398">
        <ele>104</ele>
        <time>2018-09-30T08:33:35Z</time>
      </trkpt>
      <trkpt lat="44.24456" lon="4.83966">
        <ele>104</ele>
        <time>2018-09-30T08:33:37Z</time>
      </trkpt>
      <trkpt lat="44.24468" lon="4.83946">
        <ele>104</ele>
        <time>2018-09-30T08:33:40Z</time>
      </trkpt>
      <trkpt lat="44.2448" lon="4.83926">
        <ele>104</ele>
        <time>2018-09-30T08:33:43Z</time>
      </trkpt>
      <trkpt lat="44.24487" lon="4.83913">
        <ele>104</ele>
        <time>2018-09-30T08:33:45Z</time>
      </trkpt>
      <trkpt lat="44.24494" lon="4.83899">
        <ele>104</ele>
        <time>2018-09-30T08:33:47Z</time>
      </trkpt>
      <trkpt lat="44.24502" lon="4.83878">
        <ele>105</ele>
        <time>2018-09-30T08:33:50Z</time>
      </trkpt>
      <trkpt lat="44.24507" lon="4.83863">
        <ele>105</ele>
        <time>2018-09-30T08:33:52Z</time>
      </trkpt>
      <trkpt lat="44.2451" lon="4.83848">
        <ele>106</ele>
        <time>2018-09-30T08:33:54Z</time>
      </trkpt>
      <trkpt lat="44.24513" lon="4.83833">
        <ele>106</ele>
        <time>2018-09-30T08:33:56Z</time>
      </trkpt>
      <trkpt lat="44.24517" lon="4.83811">
        <ele>107</ele>
        <time>2018-09-30T08:33:59Z</time>
      </trkpt>
      <trkpt lat="44.24519" lon="4.83796">
        <ele>107</ele>
        <time>2018-09-30T08:34:01Z</time>
      </trkpt>
      <trkpt lat="44.24521" lon="4.83774">
        <ele>107</ele>
        <time>2018-09-30T08:34:04Z</time>
      </trkpt>
      <trkpt lat="44.24523" lon="4.8376">
        <ele>107</ele>
        <time>2018-09-30T08:34:06Z</time>
      </trkpt>
      <trkpt lat="44.24526" lon="4.83738">
        <ele>108</ele>
        <time>2018-09-30T08:34:09Z</time>
      </trkpt>
      <trkpt lat="44.24528" lon="4.83723">
        <ele>108</ele>
        <time>2018-09-30T08:34:11Z</time>
      </trkpt>
      <trkpt lat="44.2453" lon="4.83708">
        <ele>108</ele>
        <time>2018-09-30T08:34:13Z</time>
      </trkpt>
      <trkpt lat="44.24531" lon="4.83694">
        <ele>109</ele>
        <time>2018-09-30T08:34:15Z</time>
      </trkpt>
      <trkpt lat="44.24532" lon="4.83679">
        <ele>109</ele>
        <time>2018-09-30T08:34:17Z</time>
      </trkpt>
      <trkpt lat="44.24535" lon="4.83658">
        <ele>110</ele>
        <time>2018-09-30T08:34:20Z</time>
      </trkpt>
      <trkpt lat="44.24537" lon="4.83636">
        <ele>110</ele>
        <time>2018-09-30T08:34:23Z</time>
      </trkpt>
      <trkpt lat="44.24539" lon="4.83615">
        <ele>111</ele>
        <time>2018-09-30T08:34:26Z</time>
      </trkpt>
      <trkpt lat="44.24541" lon="4.83594">
        <ele>112</ele>
        <time>2018-09-30T08:34:29Z</time>
      </trkpt>
      <trkpt lat="44.24545" lon="4.83573">
        <ele>112</ele>
        <time>2018-09-30T08:34:32Z</time>
      </trkpt>
      <trkpt lat="44.24546" lon="4.83559">
        <ele>113</ele>
        <time>2018-09-30T08:34:34Z</time>
      </trkpt>
      <trkpt lat="44.24548" lon="4.83544">
        <ele>113</ele>
        <time>2018-09-30T08:34:36Z</time>
      </trkpt>
      <trkpt lat="44.2455" lon="4.8353">
        <ele>113</ele>
        <time>2018-09-30T08:34:38Z</time>
      </trkpt>
      <trkpt lat="44.24551" lon="4.83514">
        <ele>114</ele>
        <time>2018-09-30T08:34:40Z</time>
      </trkpt>
      <trkpt lat="44.24554" lon="4.83493">
        <ele>114</ele>
        <time>2018-09-30T08:34:43Z</time>
      </trkpt>
      <trkpt lat="44.24556" lon="4.8347">
        <ele>115</ele>
        <time>2018-09-30T08:34:46Z</time>
      </trkpt>
      <trkpt lat="44.24558" lon="4.83456">
        <ele>116</ele>
        <time>2018-09-30T08:34:48Z</time>
      </trkpt>
      <trkpt lat="44.24559" lon="4.83442">
        <ele>116</ele>
        <time>2018-09-30T08:34:50Z</time>
      </trkpt>
      <trkpt lat="44.24562" lon="4.83422">
        <ele>116</ele>
        <time>2018-09-30T08:34:53Z</time>
      </trkpt>
      <trkpt lat="44.24564" lon="4.83407">
        <ele>117</ele>
        <time>2018-09-30T08:34:55Z</time>
      </trkpt>
      <trkpt lat="44.24565" lon="4.83392">
        <ele>117</ele>
        <time>2018-09-30T08:34:57Z</time>
      </trkpt>
      <trkpt lat="44.24567" lon="4.83378">
        <ele>118</ele>
        <time>2018-09-30T08:34:59Z</time>
      </trkpt>
      <trkpt lat="44.24568" lon="4.83363">
        <ele>118</ele>
        <time>2018-09-30T08:35:01Z</time>
      </trkpt>
      <trkpt lat="44.24571" lon="4.83341">
        <ele>118</ele>
        <time>2018-09-30T08:35:04Z</time>
      </trkpt>
      <trkpt lat="44.24576" lon="4.83321">
        <ele>119</ele>
        <time>2018-09-30T08:35:07Z</time>
      </trkpt>
      <trkpt lat="44.24582" lon="4.833">
        <ele>119</ele>
        <time>2018-09-30T08:35:10Z</time>
      </trkpt>
      <trkpt lat="44.24591" lon="4.83281">
        <ele>119</ele>
        <time>2018-09-30T08:35:13Z</time>
      </trkpt>
      <trkpt lat="44.24601" lon="4.83262">
        <ele>120</ele>
        <time>2018-09-30T08:35:16Z</time>
      </trkpt>
      <trkpt lat="44.24606" lon="4.8325">
        <ele>119</ele>
        <time>2018-09-30T08:35:18Z</time>
      </trkpt>
      <trkpt lat="44.24612" lon="4.83237">
        <ele>119</ele>
        <time>2018-09-30T08:35:20Z</time>
      </trkpt>
      <trkpt lat="44.24622" lon="4.83217">
        <ele>119</ele>
        <time>2018-09-30T08:35:23Z</time>
      </trkpt>
      <trkpt lat="44.24632" lon="4.83199">
        <ele>119</ele>
        <time>2018-09-30T08:35:26Z</time>
      </trkpt>
      <trkpt lat="44.2464" lon="4.83186">
        <ele>120</ele>
        <time>2018-09-30T08:35:28Z</time>
      </trkpt>
      <trkpt lat="44.2465" lon="4.83166">
        <ele>120</ele>
        <time>2018-09-30T08:35:31Z</time>
      </trkpt>
      <trkpt lat="44.2466" lon="4.83145">
        <ele>120</ele>
        <time>2018-09-30T08:35:34Z</time>
      </trkpt>
      <trkpt lat="44.24667" lon="4.83132">
        <ele>120</ele>
        <time>2018-09-30T08:35:36Z</time>
      </trkpt>
      <trkpt lat="44.24676" lon="4.83112">
        <ele>120</ele>
        <time>2018-09-30T08:35:39Z</time>
      </trkpt>
      <trkpt lat="44.24682" lon="4.83099">
        <ele>119</ele>
        <time>2018-09-30T08:35:41Z</time>
      </trkpt>
      <trkpt lat="44.24688" lon="4.83086">
        <ele>119</ele>
        <time>2018-09-30T08:35:43Z</time>
      </trkpt>
      <trkpt lat="44.24696" lon="4.83069">
        <ele>118</ele>
        <time>2018-09-30T08:35:46Z</time>
      </trkpt>
      <trkpt lat="44.24702" lon="4.83056">
        <ele>118</ele>
        <time>2018-09-30T08:35:48Z</time>
      </trkpt>
      <trkpt lat="44.24709" lon="4.83039">
        <ele>117</ele>
        <time>2018-09-30T08:35:51Z</time>
      </trkpt>
      <trkpt lat="44.24715" lon="4.83029">
        <ele>117</ele>
        <time>2018-09-30T08:35:53Z</time>
      </trkpt>
      <trkpt lat="44.24723" lon="4.83014">
        <ele>117</ele>
        <time>2018-09-30T08:35:56Z</time>
      </trkpt>
      <trkpt lat="44.24728" lon="4.83006">
        <ele>117</ele>
        <time>2018-09-30T08:35:58Z</time>
      </trkpt>
      <trkpt lat="44.24735" lon="4.82998">
        <ele>117</ele>
        <time>2018-09-30T08:36:01Z</time>
      </trkpt>
      <trkpt lat="44.2474" lon="4.82995">
        <ele>117</ele>
        <time>2018-09-30T08:36:03Z</time>
      </trkpt>
      <trkpt lat="44.24744" lon="4.82993">
        <ele>117</ele>
        <time>2018-09-30T08:36:05Z</time>
      </trkpt>
      <trkpt lat="44.24749" lon="4.82992">
        <ele>116</ele>
        <time>2018-09-30T08:36:08Z</time>
      </trkpt>
      <trkpt lat="44.24755" lon="4.82988">
        <ele>116</ele>
        <time>2018-09-30T08:36:11Z</time>
      </trkpt>
      <trkpt lat="44.24761" lon="4.82983">
        <ele>116</ele>
        <time>2018-09-30T08:36:14Z</time>
      </trkpt>
      <trkpt lat="44.24767" lon="4.8298">
        <ele>115</ele>
        <time>2018-09-30T08:36:17Z</time>
      </trkpt>
      <trkpt lat="44.24773" lon="4.8298">
        <ele>115</ele>
        <time>2018-09-30T08:36:20Z</time>
      </trkpt>
      <trkpt lat="44.24782" lon="4.82989">
        <ele>115</ele>
        <time>2018-09-30T08:36:23Z</time>
      </trkpt>
      <trkpt lat="44.2479" lon="4.83005">
        <ele>114</ele>
        <time>2018-09-30T08:36:26Z</time>
      </trkpt>
      <trkpt lat="44.24801" lon="4.83026">
        <ele>114</ele>
        <time>2018-09-30T08:36:29Z</time>
      </trkpt>
      <trkpt lat="44.24809" lon="4.8304">
        <ele>113</ele>
        <time>2018-09-30T08:36:31Z</time>
      </trkpt>
      <trkpt lat="44.24816" lon="4.8305">
        <ele>113</ele>
        <time>2018-09-30T08:36:33Z</time>
      </trkpt>
      <trkpt lat="44.24823" lon="4.83062">
        <ele>111</ele>
        <time>2018-09-30T08:36:35Z</time>
      </trkpt>
      <trkpt lat="44.24834" lon="4.83081">
        <ele>111</ele>
        <time>2018-09-30T08:36:38Z</time>
      </trkpt>
      <trkpt lat="44.24842" lon="4.83095">
        <ele>110</ele>
        <time>2018-09-30T08:36:40Z</time>
      </trkpt>
      <trkpt lat="44.2485" lon="4.83109">
        <ele>110</ele>
        <time>2018-09-30T08:36:42Z</time>
      </trkpt>
      <trkpt lat="44.24858" lon="4.83123">
        <ele>109</ele>
        <time>2018-09-30T08:36:45Z</time>
      </trkpt>
      <trkpt lat="44.24861" lon="4.83127">
        <ele>108</ele>
        <time>2018-09-30T08:36:47Z</time>
      </trkpt>
      <trkpt lat="44.24863" lon="4.83132">
        <ele>108</ele>
        <time>2018-09-30T08:36:49Z</time>
      </trkpt>
      <trkpt lat="44.24868" lon="4.83139">
        <ele>108</ele>
        <time>2018-09-30T08:36:52Z</time>
      </trkpt>
      <trkpt lat="44.24876" lon="4.83144">
        <ele>108</ele>
        <time>2018-09-30T08:36:55Z</time>
      </trkpt>
      <trkpt lat="44.24884" lon="4.83133">
        <ele>108</ele>
        <time>2018-09-30T08:36:58Z</time>
      </trkpt>
      <trkpt lat="44.24894" lon="4.83117">
        <ele>108</ele>
        <time>2018-09-30T08:37:01Z</time>
      </trkpt>
      <trkpt lat="44.24901" lon="4.83105">
        <ele>108</ele>
        <time>2018-09-30T08:37:03Z</time>
      </trkpt>
      <trkpt lat="44.24909" lon="4.83093">
        <ele>108</ele>
        <time>2018-09-30T08:37:05Z</time>
      </trkpt>
      <trkpt lat="44.24922" lon="4.83074">
        <ele>108</ele>
        <time>2018-09-30T08:37:08Z</time>
      </trkpt>
      <trkpt lat="44.24934" lon="4.83055">
        <ele>108</ele>
        <time>2018-09-30T08:37:11Z</time>
      </trkpt>
      <trkpt lat="44.24945" lon="4.83038">
        <ele>107</ele>
        <time>2018-09-30T08:37:14Z</time>
      </trkpt>
      <trkpt lat="44.24956" lon="4.8302">
        <ele>107</ele>
        <time>2018-09-30T08:37:17Z</time>
      </trkpt>
      <trkpt lat="44.24967" lon="4.83001">
        <ele>106</ele>
        <time>2018-09-30T08:37:20Z</time>
      </trkpt>
      <trkpt lat="44.2498" lon="4.82982">
        <ele>106</ele>
        <time>2018-09-30T08:37:23Z</time>
      </trkpt>
      <trkpt lat="44.24988" lon="4.82969">
        <ele>105</ele>
        <time>2018-09-30T08:37:25Z</time>
      </trkpt>
      <trkpt lat="44.25" lon="4.8295">
        <ele>106</ele>
        <time>2018-09-30T08:37:28Z</time>
      </trkpt>
      <trkpt lat="44.25008" lon="4.82937">
        <ele>106</ele>
        <time>2018-09-30T08:37:30Z</time>
      </trkpt>
      <trkpt lat="44.25019" lon="4.8292">
        <ele>106</ele>
        <time>2018-09-30T08:37:33Z</time>
      </trkpt>
      <trkpt lat="44.25031" lon="4.82903">
        <ele>105</ele>
        <time>2018-09-30T08:37:36Z</time>
      </trkpt>
      <trkpt lat="44.25043" lon="4.82897">
        <ele>104</ele>
        <time>2018-09-30T08:37:39Z</time>
      </trkpt>
      <trkpt lat="44.25055" lon="4.82913">
        <ele>104</ele>
        <time>2018-09-30T08:37:42Z</time>
      </trkpt>
      <trkpt lat="44.25067" lon="4.82935">
        <ele>104</ele>
        <time>2018-09-30T08:37:45Z</time>
      </trkpt>
      <trkpt lat="44.25075" lon="4.82949">
        <ele>104</ele>
        <time>2018-09-30T08:37:47Z</time>
      </trkpt>
      <trkpt lat="44.25084" lon="4.82964">
        <ele>104</ele>
        <time>2018-09-30T08:37:49Z</time>
      </trkpt>
      <trkpt lat="44.25092" lon="4.82979">
        <ele>104</ele>
        <time>2018-09-30T08:37:51Z</time>
      </trkpt>
      <trkpt lat="44.25106" lon="4.83001">
        <ele>104</ele>
        <time>2018-09-30T08:37:54Z</time>
      </trkpt>
      <trkpt lat="44.2512" lon="4.83021">
        <ele>105</ele>
        <time>2018-09-30T08:37:57Z</time>
      </trkpt>
      <trkpt lat="44.25136" lon="4.83039">
        <ele>104</ele>
        <time>2018-09-30T08:38:00Z</time>
      </trkpt>
      <trkpt lat="44.25148" lon="4.8305">
        <ele>104</ele>
        <time>2018-09-30T08:38:02Z</time>
      </trkpt>
      <trkpt lat="44.25166" lon="4.83067">
        <ele>103</ele>
        <time>2018-09-30T08:38:05Z</time>
      </trkpt>
      <trkpt lat="44.25184" lon="4.83083">
        <ele>103</ele>
        <time>2018-09-30T08:38:08Z</time>
      </trkpt>
      <trkpt lat="44.25202" lon="4.83101">
        <ele>103</ele>
        <time>2018-09-30T08:38:11Z</time>
      </trkpt>
      <trkpt lat="44.2522" lon="4.83117">
        <ele>103</ele>
        <time>2018-09-30T08:38:14Z</time>
      </trkpt>
      <trkpt lat="44.25232" lon="4.83128">
        <ele>103</ele>
        <time>2018-09-30T08:38:16Z</time>
      </trkpt>
      <trkpt lat="44.2525" lon="4.83145">
        <ele>102</ele>
        <time>2018-09-30T08:38:19Z</time>
      </trkpt>
      <trkpt lat="44.25267" lon="4.83162">
        <ele>101</ele>
        <time>2018-09-30T08:38:22Z</time>
      </trkpt>
      <trkpt lat="44.25285" lon="4.83178">
        <ele>101</ele>
        <time>2018-09-30T08:38:25Z</time>
      </trkpt>
      <trkpt lat="44.25304" lon="4.8319">
        <ele>101</ele>
        <time>2018-09-30T08:38:28Z</time>
      </trkpt>
      <trkpt lat="44.25318" lon="4.83193">
        <ele>101</ele>
        <time>2018-09-30T08:38:30Z</time>
      </trkpt>
      <trkpt lat="44.25339" lon="4.8319">
        <ele>101</ele>
        <time>2018-09-30T08:38:33Z</time>
      </trkpt>
      <trkpt lat="44.2536" lon="4.83185">
        <ele>101</ele>
        <time>2018-09-30T08:38:36Z</time>
      </trkpt>
      <trkpt lat="44.25374" lon="4.83181">
        <ele>101</ele>
        <time>2018-09-30T08:38:38Z</time>
      </trkpt>
      <trkpt lat="44.25388" lon="4.83177">
        <ele>100</ele>
        <time>2018-09-30T08:38:40Z</time>
      </trkpt>
      <trkpt lat="44.2541" lon="4.83172">
        <ele>100</ele>
        <time>2018-09-30T08:38:43Z</time>
      </trkpt>
      <trkpt lat="44.25424" lon="4.83168">
        <ele>99</ele>
        <time>2018-09-30T08:38:45Z</time>
      </trkpt>
      <trkpt lat="44.25446" lon="4.83163">
        <ele>99</ele>
        <time>2018-09-30T08:38:48Z</time>
      </trkpt>
      <trkpt lat="44.25467" lon="4.83157">
        <ele>99</ele>
        <time>2018-09-30T08:38:51Z</time>
      </trkpt>
      <trkpt lat="44.25489" lon="4.83151">
        <ele>98</ele>
        <time>2018-09-30T08:38:54Z</time>
      </trkpt>
      <trkpt lat="44.2551" lon="4.83145">
        <ele>97</ele>
        <time>2018-09-30T08:38:57Z</time>
      </trkpt>
      <trkpt lat="44.25525" lon="4.83141">
        <ele>97</ele>
        <time>2018-09-30T08:38:59Z</time>
      </trkpt>
      <trkpt lat="44.25547" lon="4.83135">
        <ele>97</ele>
        <time>2018-09-30T08:39:02Z</time>
      </trkpt>
      <trkpt lat="44.25561" lon="4.83131">
        <ele>96</ele>
        <time>2018-09-30T08:39:04Z</time>
      </trkpt>
      <trkpt lat="44.25582" lon="4.83125">
        <ele>96</ele>
        <time>2018-09-30T08:39:07Z</time>
      </trkpt>
      <trkpt lat="44.25596" lon="4.83121">
        <ele>95</ele>
        <time>2018-09-30T08:39:09Z</time>
      </trkpt>
      <trkpt lat="44.25618" lon="4.83116">
        <ele>95</ele>
        <time>2018-09-30T08:39:12Z</time>
      </trkpt>
      <trkpt lat="44.2564" lon="4.83116">
        <ele>95</ele>
        <time>2018-09-30T08:39:15Z</time>
      </trkpt>
      <trkpt lat="44.25662" lon="4.83118">
        <ele>95</ele>
        <time>2018-09-30T08:39:18Z</time>
      </trkpt>
      <trkpt lat="44.25678" lon="4.83121">
        <ele>95</ele>
        <time>2018-09-30T08:39:20Z</time>
      </trkpt>
      <trkpt lat="44.257" lon="4.83124">
        <ele>94</ele>
        <time>2018-09-30T08:39:23Z</time>
      </trkpt>
      <trkpt lat="44.25722" lon="4.83129">
        <ele>95</ele>
        <time>2018-09-30T08:39:26Z</time>
      </trkpt>
      <trkpt lat="44.25737" lon="4.83131">
        <ele>94</ele>
        <time>2018-09-30T08:39:28Z</time>
      </trkpt>
      <trkpt lat="44.25751" lon="4.83133">
        <ele>94</ele>
        <time>2018-09-30T08:39:30Z</time>
      </trkpt>
      <trkpt lat="44.25773" lon="4.83137">
        <ele>93</ele>
        <time>2018-09-30T08:39:33Z</time>
      </trkpt>
      <trkpt lat="44.25795" lon="4.8314">
        <ele>92</ele>
        <time>2018-09-30T08:39:36Z</time>
      </trkpt>
      <trkpt lat="44.2581" lon="4.83143">
        <ele>92</ele>
        <time>2018-09-30T08:39:38Z</time>
      </trkpt>
      <trkpt lat="44.25832" lon="4.83146">
        <ele>91</ele>
        <time>2018-09-30T08:39:41Z</time>
      </trkpt>
      <trkpt lat="44.25854" lon="4.8315">
        <ele>91</ele>
        <time>2018-09-30T08:39:44Z</time>
      </trkpt>
      <trkpt lat="44.25868" lon="4.83151">
        <ele>91</ele>
        <time>2018-09-30T08:39:46Z</time>
      </trkpt>
      <trkpt lat="44.2589" lon="4.83152">
        <ele>91</ele>
        <time>2018-09-30T08:39:49Z</time>
      </trkpt>
      <trkpt lat="44.25912" lon="4.83152">
        <ele>91</ele>
        <time>2018-09-30T08:39:52Z</time>
      </trkpt>
      <trkpt lat="44.25934" lon="4.83151">
        <ele>92</ele>
        <time>2018-09-30T08:39:55Z</time>
      </trkpt>
      <trkpt lat="44.25949" lon="4.83151">
        <ele>91</ele>
        <time>2018-09-30T08:39:57Z</time>
      </trkpt>
      <trkpt lat="44.25971" lon="4.83151">
        <ele>91</ele>
        <time>2018-09-30T08:40:00Z</time>
      </trkpt>
      <trkpt lat="44.25994" lon="4.8315">
        <ele>91</ele>
        <time>2018-09-30T08:40:03Z</time>
      </trkpt>
      <trkpt lat="44.26017" lon="4.83151">
        <ele>91</ele>
        <time>2018-09-30T08:40:06Z</time>
      </trkpt>
      <trkpt lat="44.26031" lon="4.83153">
        <ele>91</ele>
        <time>2018-09-30T08:40:08Z</time>
      </trkpt>
      <trkpt lat="44.26046" lon="4.83156">
        <ele>91</ele>
        <time>2018-09-30T08:40:10Z</time>
      </trkpt>
      <trkpt lat="44.26068" lon="4.83161">
        <ele>90</ele>
        <time>2018-09-30T08:40:13Z</time>
      </trkpt>
      <trkpt lat="44.2609" lon="4.83167">
        <ele>89</ele>
        <time>2018-09-30T08:40:16Z</time>
      </trkpt>
      <trkpt lat="44.26113" lon="4.83172">
        <ele>89</ele>
        <time>2018-09-30T08:40:19Z</time>
      </trkpt>
      <trkpt lat="44.26135" lon="4.83177">
        <ele>89</ele>
        <time>2018-09-30T08:40:22Z</time>
      </trkpt>
      <trkpt lat="44.2615" lon="4.8318">
        <ele>89</ele>
        <time>2018-09-30T08:40:24Z</time>
      </trkpt>
      <trkpt lat="44.26165" lon="4.83184">
        <ele>88</ele>
        <time>2018-09-30T08:40:26Z</time>
      </trkpt>
      <trkpt lat="44.26188" lon="4.83189">
        <ele>88</ele>
        <time>2018-09-30T08:40:29Z</time>
      </trkpt>
      <trkpt lat="44.2621" lon="4.83195">
        <ele>88</ele>
        <time>2018-09-30T08:40:32Z</time>
      </trkpt>
      <trkpt lat="44.26233" lon="4.832">
        <ele>88</ele>
        <time>2018-09-30T08:40:35Z</time>
      </trkpt>
      <trkpt lat="44.26247" lon="4.83204">
        <ele>88</ele>
        <time>2018-09-30T08:40:37Z</time>
      </trkpt>
      <trkpt lat="44.2627" lon="4.83209">
        <ele>88</ele>
        <time>2018-09-30T08:40:40Z</time>
      </trkpt>
      <trkpt lat="44.26293" lon="4.83214">
        <ele>88</ele>
        <time>2018-09-30T08:40:43Z</time>
      </trkpt>
      <trkpt lat="44.26315" lon="4.83218">
        <ele>88</ele>
        <time>2018-09-30T08:40:46Z</time>
      </trkpt>
      <trkpt lat="44.2633" lon="4.8322">
        <ele>87</ele>
        <time>2018-09-30T08:40:48Z</time>
      </trkpt>
      <trkpt lat="44.26345" lon="4.83221">
        <ele>87</ele>
        <time>2018-09-30T08:40:50Z</time>
      </trkpt>
      <trkpt lat="44.2636" lon="4.83223">
        <ele>87</ele>
        <time>2018-09-30T08:40:52Z</time>
      </trkpt>
      <trkpt lat="44.26376" lon="4.83224">
        <ele>87</ele>
        <time>2018-09-30T08:40:54Z</time>
      </trkpt>
      <trkpt lat="44.26391" lon="4.83225">
        <ele>87</ele>
        <time>2018-09-30T08:40:56Z</time>
      </trkpt>
      <trkpt lat="44.26413" lon="4.83227">
        <ele>86</ele>
        <time>2018-09-30T08:40:59Z</time>
      </trkpt>
      <trkpt lat="44.26427" lon="4.83229">
        <ele>86</ele>
        <time>2018-09-30T08:41:01Z</time>
      </trkpt>
      <trkpt lat="44.26449" lon="4.8323">
        <ele>86</ele>
        <time>2018-09-30T08:41:04Z</time>
      </trkpt>
      <trkpt lat="44.26471" lon="4.83233">
        <ele>86</ele>
        <time>2018-09-30T08:41:07Z</time>
      </trkpt>
      <trkpt lat="44.26485" lon="4.83234">
        <ele>87</ele>
        <time>2018-09-30T08:41:09Z</time>
      </trkpt>
      <trkpt lat="44.26507" lon="4.83236">
        <ele>86</ele>
        <time>2018-09-30T08:41:12Z</time>
      </trkpt>
      <trkpt lat="44.26522" lon="4.83238">
        <ele>86</ele>
        <time>2018-09-30T08:41:14Z</time>
      </trkpt>
      <trkpt lat="44.26544" lon="4.83239">
        <ele>85</ele>
        <time>2018-09-30T08:41:17Z</time>
      </trkpt>
      <trkpt lat="44.26559" lon="4.83241">
        <ele>85</ele>
        <time>2018-09-30T08:41:19Z</time>
      </trkpt>
      <trkpt lat="44.26582" lon="4.83243">
        <ele>85</ele>
        <time>2018-09-30T08:41:22Z</time>
      </trkpt>
      <trkpt lat="44.26597" lon="4.83244">
        <ele>85</ele>
        <time>2018-09-30T08:41:24Z</time>
      </trkpt>
      <trkpt lat="44.26619" lon="4.83246">
        <ele>85</ele>
        <time>2018-09-30T08:41:27Z</time>
      </trkpt>
      <trkpt lat="44.26635" lon="4.83248">
        <ele>85</ele>
        <time>2018-09-30T08:41:29Z</time>
      </trkpt>
      <trkpt lat="44.26657" lon="4.8325">
        <ele>85</ele>
        <time>2018-09-30T08:41:32Z</time>
      </trkpt>
      <trkpt lat="44.26673" lon="4.83251">
        <ele>85</ele>
        <time>2018-09-30T08:41:34Z</time>
      </trkpt>
      <trkpt lat="44.26695" lon="4.83254">
        <ele>85</ele>
        <time>2018-09-30T08:41:37Z</time>
      </trkpt>
      <trkpt lat="44.2671" lon="4.83256">
        <ele>84</ele>
        <time>2018-09-30T08:41:39Z</time>
      </trkpt>
      <trkpt lat="44.26733" lon="4.83259">
        <ele>85</ele>
        <time>2018-09-30T08:41:42Z</time>
      </trkpt>
      <trkpt lat="44.26747" lon="4.83262">
        <ele>85</ele>
        <time>2018-09-30T08:41:44Z</time>
      </trkpt>
      <trkpt lat="44.26762" lon="4.83264">
        <ele>85</ele>
        <time>2018-09-30T08:41:46Z</time>
      </trkpt>
      <trkpt lat="44.26784" lon="4.83267">
        <ele>85</ele>
        <time>2018-09-30T08:41:49Z</time>
      </trkpt>
      <trkpt lat="44.26806" lon="4.83271">
        <ele>84</ele>
        <time>2018-09-30T08:41:52Z</time>
      </trkpt>
      <trkpt lat="44.2682" lon="4.83274">
        <ele>84</ele>
        <time>2018-09-30T08:41:54Z</time>
      </trkpt>
      <trkpt lat="44.26835" lon="4.83276">
        <ele>84</ele>
        <time>2018-09-30T08:41:56Z</time>
      </trkpt>
      <trkpt lat="44.26857" lon="4.83279">
        <ele>83</ele>
        <time>2018-09-30T08:41:59Z</time>
      </trkpt>
      <trkpt lat="44.26879" lon="4.83283">
        <ele>84</ele>
        <time>2018-09-30T08:42:02Z</time>
      </trkpt>
      <trkpt lat="44.26894" lon="4.83285">
        <ele>84</ele>
        <time>2018-09-30T08:42:04Z</time>
      </trkpt>
      <trkpt lat="44.26915" lon="4.83289">
        <ele>84</ele>
        <time>2018-09-30T08:42:07Z</time>
      </trkpt>
      <trkpt lat="44.26937" lon="4.83292">
        <ele>84</ele>
        <time>2018-09-30T08:42:10Z</time>
      </trkpt>
      <trkpt lat="44.26952" lon="4.83295">
        <ele>84</ele>
        <time>2018-09-30T08:42:12Z</time>
      </trkpt>
      <trkpt lat="44.26973" lon="4.83298">
        <ele>85</ele>
        <time>2018-09-30T08:42:15Z</time>
      </trkpt>
      <trkpt lat="44.26987" lon="4.83301">
        <ele>84</ele>
        <time>2018-09-30T08:42:17Z</time>
      </trkpt>
      <trkpt lat="44.27002" lon="4.83303">
        <ele>84</ele>
        <time>2018-09-30T08:42:19Z</time>
      </trkpt>
      <trkpt lat="44.27016" lon="4.83306">
        <ele>84</ele>
        <time>2018-09-30T08:42:21Z</time>
      </trkpt>
      <trkpt lat="44.2703" lon="4.83308">
        <ele>84</ele>
        <time>2018-09-30T08:42:23Z</time>
      </trkpt>
      <trkpt lat="44.27052" lon="4.83311">
        <ele>84</ele>
        <time>2018-09-30T08:42:26Z</time>
      </trkpt>
      <trkpt lat="44.27067" lon="4.83313">
        <ele>84</ele>
        <time>2018-09-30T08:42:28Z</time>
      </trkpt>
      <trkpt lat="44.27081" lon="4.83314">
        <ele>84</ele>
        <time>2018-09-30T08:42:30Z</time>
      </trkpt>
      <trkpt lat="44.27103" lon="4.83316">
        <ele>84</ele>
        <time>2018-09-30T08:42:33Z</time>
      </trkpt>
      <trkpt lat="44.27117" lon="4.83318">
        <ele>84</ele>
        <time>2018-09-30T08:42:35Z</time>
      </trkpt>
      <trkpt lat="44.27139" lon="4.8332">
        <ele>84</ele>
        <time>2018-09-30T08:42:38Z</time>
      </trkpt>
      <trkpt lat="44.27153" lon="4.83321">
        <ele>84</ele>
        <time>2018-09-30T08:42:40Z</time>
      </trkpt>
      <trkpt lat="44.27175" lon="4.83323">
        <ele>83</ele>
        <time>2018-09-30T08:42:43Z</time>
      </trkpt>
      <trkpt lat="44.27189" lon="4.83324">
        <ele>83</ele>
        <time>2018-09-30T08:42:45Z</time>
      </trkpt>
      <trkpt lat="44.27204" lon="4.83325">
        <ele>83</ele>
        <time>2018-09-30T08:42:47Z</time>
      </trkpt>
      <trkpt lat="44.27218" lon="4.83327">
        <ele>83</ele>
        <time>2018-09-30T08:42:49Z</time>
      </trkpt>
      <trkpt lat="44.2724" lon="4.83329">
        <ele>83</ele>
        <time>2018-09-30T08:42:52Z</time>
      </trkpt>
      <trkpt lat="44.27254" lon="4.8333">
        <ele>83</ele>
        <time>2018-09-30T08:42:54Z</time>
      </trkpt>
      <trkpt lat="44.27276" lon="4.83332">
        <ele>83</ele>
        <time>2018-09-30T08:42:57Z</time>
      </trkpt>
      <trkpt lat="44.2729" lon="4.83334">
        <ele>83</ele>
        <time>2018-09-30T08:42:59Z</time>
      </trkpt>
      <trkpt lat="44.27312" lon="4.83335">
        <ele>83</ele>
        <time>2018-09-30T08:43:02Z</time>
      </trkpt>
      <trkpt lat="44.27326" lon="4.83337">
        <ele>83</ele>
        <time>2018-09-30T08:43:04Z</time>
      </trkpt>
      <trkpt lat="44.27348" lon="4.83339">
        <ele>83</ele>
        <time>2018-09-30T08:43:07Z</time>
      </trkpt>
      <trkpt lat="44.27362" lon="4.8334">
        <ele>83</ele>
        <time>2018-09-30T08:43:09Z</time>
      </trkpt>
      <trkpt lat="44.27376" lon="4.83342">
        <ele>84</ele>
        <time>2018-09-30T08:43:11Z</time>
      </trkpt>
      <trkpt lat="44.27398" lon="4.83344">
        <ele>83</ele>
        <time>2018-09-30T08:43:14Z</time>
      </trkpt>
      <trkpt lat="44.27413" lon="4.83345">
        <ele>83</ele>
        <time>2018-09-30T08:43:16Z</time>
      </trkpt>
      <trkpt lat="44.27435" lon="4.83347">
        <ele>83</ele>
        <time>2018-09-30T08:43:19Z</time>
      </trkpt>
      <trkpt lat="44.27449" lon="4.83348">
        <ele>82</ele>
        <time>2018-09-30T08:43:21Z</time>
      </trkpt>
      <trkpt lat="44.2747" lon="4.8335">
        <ele>83</ele>
        <time>2018-09-30T08:43:24Z</time>
      </trkpt>
      <trkpt lat="44.27485" lon="4.83352">
        <ele>83</ele>
        <time>2018-09-30T08:43:26Z</time>
      </trkpt>
      <trkpt lat="44.27506" lon="4.83354">
        <ele>83</ele>
        <time>2018-09-30T08:43:29Z</time>
      </trkpt>
      <trkpt lat="44.2752" lon="4.83356">
        <ele>84</ele>
        <time>2018-09-30T08:43:31Z</time>
      </trkpt>
      <trkpt lat="44.27541" lon="4.83358">
        <ele>84</ele>
        <time>2018-09-30T08:43:34Z</time>
      </trkpt>
      <trkpt lat="44.27555" lon="4.8336">
        <ele>84</ele>
        <time>2018-09-30T08:43:36Z</time>
      </trkpt>
      <trkpt lat="44.2757" lon="4.83361">
        <ele>83</ele>
        <time>2018-09-30T08:43:38Z</time>
      </trkpt>
      <trkpt lat="44.27584" lon="4.83363">
        <ele>83</ele>
        <time>2018-09-30T08:43:40Z</time>
      </trkpt>
      <trkpt lat="44.27605" lon="4.83366">
        <ele>83</ele>
        <time>2018-09-30T08:43:43Z</time>
      </trkpt>
      <trkpt lat="44.2762" lon="4.83368">
        <ele>83</ele>
        <time>2018-09-30T08:43:45Z</time>
      </trkpt>
      <trkpt lat="44.27634" lon="4.8337">
        <ele>83</ele>
        <time>2018-09-30T08:43:47Z</time>
      </trkpt>
      <trkpt lat="44.27649" lon="4.83372">
        <ele>82</ele>
        <time>2018-09-30T08:43:49Z</time>
      </trkpt>
      <trkpt lat="44.2767" lon="4.83374">
        <ele>83</ele>
        <time>2018-09-30T08:43:52Z</time>
      </trkpt>
      <trkpt lat="44.27684" lon="4.83376">
        <ele>83</ele>
        <time>2018-09-30T08:43:54Z</time>
      </trkpt>
      <trkpt lat="44.27705" lon="4.83379">
        <ele>83</ele>
        <time>2018-09-30T08:43:57Z</time>
      </trkpt>
      <trkpt lat="44.2772" lon="4.8338">
        <ele>83</ele>
        <time>2018-09-30T08:43:59Z</time>
      </trkpt>
      <trkpt lat="44.27735" lon="4.83383">
        <ele>83</ele>
        <time>2018-09-30T08:44:01Z</time>
      </trkpt>
      <trkpt lat="44.2775" lon="4.83385">
        <ele>83</ele>
        <time>2018-09-30T08:44:03Z</time>
      </trkpt>
      <trkpt lat="44.27772" lon="4.83387">
        <ele>84</ele>
        <time>2018-09-30T08:44:06Z</time>
      </trkpt>
      <trkpt lat="44.27787" lon="4.83389">
        <ele>84</ele>
        <time>2018-09-30T08:44:08Z</time>
      </trkpt>
      <trkpt lat="44.27809" lon="4.83392">
        <ele>84</ele>
        <time>2018-09-30T08:44:11Z</time>
      </trkpt>
      <trkpt lat="44.27823" lon="4.83394">
        <ele>84</ele>
        <time>2018-09-30T08:44:13Z</time>
      </trkpt>
      <trkpt lat="44.27837" lon="4.83396">
        <ele>84</ele>
        <time>2018-09-30T08:44:15Z</time>
      </trkpt>
      <trkpt lat="44.27859" lon="4.83399">
        <ele>84</ele>
        <time>2018-09-30T08:44:18Z</time>
      </trkpt>
      <trkpt lat="44.27873" lon="4.834">
        <ele>84</ele>
        <time>2018-09-30T08:44:20Z</time>
      </trkpt>
      <trkpt lat="44.27888" lon="4.83402">
        <ele>84</ele>
        <time>2018-09-30T08:44:22Z</time>
      </trkpt>
      <trkpt lat="44.27902" lon="4.83404">
        <ele>84</ele>
        <time>2018-09-30T08:44:24Z</time>
      </trkpt>
      <trkpt lat="44.27924" lon="4.83407">
        <ele>84</ele>
        <time>2018-09-30T08:44:27Z</time>
      </trkpt>
      <trkpt lat="44.27938" lon="4.83409">
        <ele>84</ele>
        <time>2018-09-30T08:44:29Z</time>
      </trkpt>
      <trkpt lat="44.27953" lon="4.83411">
        <ele>84</ele>
        <time>2018-09-30T08:44:31Z</time>
      </trkpt>
      <trkpt lat="44.27967" lon="4.83413">
        <ele>84</ele>
        <time>2018-09-30T08:44:33Z</time>
      </trkpt>
      <trkpt lat="44.27982" lon="4.83415">
        <ele>84</ele>
        <time>2018-09-30T08:44:35Z</time>
      </trkpt>
      <trkpt lat="44.28004" lon="4.83417">
        <ele>84</ele>
        <time>2018-09-30T08:44:38Z</time>
      </trkpt>
      <trkpt lat="44.28019" lon="4.8342">
        <ele>84</ele>
        <time>2018-09-30T08:44:40Z</time>
      </trkpt>
      <trkpt lat="44.28033" lon="4.83421">
        <ele>84</ele>
        <time>2018-09-30T08:44:42Z</time>
      </trkpt>
      <trkpt lat="44.28048" lon="4.83423">
        <ele>84</ele>
        <time>2018-09-30T08:44:44Z</time>
      </trkpt>
      <trkpt lat="44.28063" lon="4.83425">
        <ele>84</ele>
        <time>2018-09-30T08:44:46Z</time>
      </trkpt>
      <trkpt lat="44.28086" lon="4.83428">
        <ele>84</ele>
        <time>2018-09-30T08:44:49Z</time>
      </trkpt>
      <trkpt lat="44.28101" lon="4.8343">
        <ele>84</ele>
        <time>2018-09-30T08:44:51Z</time>
      </trkpt>
      <trkpt lat="44.28124" lon="4.83433">
        <ele>84</ele>
        <time>2018-09-30T08:44:54Z</time>
      </trkpt>
      <trkpt lat="44.28138" lon="4.83435">
        <ele>84</ele>
        <time>2018-09-30T08:44:56Z</time>
      </trkpt>
      <trkpt lat="44.28153" lon="4.83437">
        <ele>83</ele>
        <time>2018-09-30T08:44:58Z</time>
      </trkpt>
      <trkpt lat="44.28168" lon="4.83438">
        <ele>83</ele>
        <time>2018-09-30T08:45:00Z</time>
      </trkpt>
      <trkpt lat="44.28182" lon="4.83441">
        <ele>83</ele>
        <time>2018-09-30T08:45:02Z</time>
      </trkpt>
      <trkpt lat="44.28197" lon="4.83442">
        <ele>84</ele>
        <time>2018-09-30T08:45:04Z</time>
      </trkpt>
      <trkpt lat="44.28212" lon="4.83444">
        <ele>84</ele>
        <time>2018-09-30T08:45:06Z</time>
      </trkpt>
      <trkpt lat="44.28234" lon="4.83447">
        <ele>83</ele>
        <time>2018-09-30T08:45:09Z</time>
      </trkpt>
      <trkpt lat="44.28249" lon="4.83449">
        <ele>84</ele>
        <time>2018-09-30T08:45:11Z</time>
      </trkpt>
      <trkpt lat="44.28264" lon="4.83451">
        <ele>84</ele>
        <time>2018-09-30T08:45:13Z</time>
      </trkpt>
      <trkpt lat="44.28286" lon="4.83454">
        <ele>83</ele>
        <time>2018-09-30T08:45:16Z</time>
      </trkpt>
      <trkpt lat="44.28308" lon="4.83457">
        <ele>83</ele>
        <time>2018-09-30T08:45:19Z</time>
      </trkpt>
      <trkpt lat="44.28331" lon="4.83463">
        <ele>83</ele>
        <time>2018-09-30T08:45:22Z</time>
      </trkpt>
      <trkpt lat="44.28352" lon="4.83473">
        <ele>83</ele>
        <time>2018-09-30T08:45:25Z</time>
      </trkpt>
      <trkpt lat="44.28373" lon="4.83485">
        <ele>83</ele>
        <time>2018-09-30T08:45:28Z</time>
      </trkpt>
      <trkpt lat="44.28394" lon="4.83498">
        <ele>83</ele>
        <time>2018-09-30T08:45:31Z</time>
      </trkpt>
      <trkpt lat="44.28407" lon="4.83507">
        <ele>83</ele>
        <time>2018-09-30T08:45:33Z</time>
      </trkpt>
      <trkpt lat="44.28421" lon="4.83517">
        <ele>83</ele>
        <time>2018-09-30T08:45:35Z</time>
      </trkpt>
      <trkpt lat="44.28442" lon="4.8353">
        <ele>83</ele>
        <time>2018-09-30T08:45:38Z</time>
      </trkpt>
      <trkpt lat="44.28461" lon="4.83544">
        <ele>84</ele>
        <time>2018-09-30T08:45:41Z</time>
      </trkpt>
      <trkpt lat="44.28475" lon="4.83553">
        <ele>84</ele>
        <time>2018-09-30T08:45:43Z</time>
      </trkpt>
      <trkpt lat="44.28495" lon="4.83567">
        <ele>84</ele>
        <time>2018-09-30T08:45:46Z</time>
      </trkpt>
      <trkpt lat="44.28514" lon="4.8358">
        <ele>83</ele>
        <time>2018-09-30T08:45:49Z</time>
      </trkpt>
      <trkpt lat="44.28532" lon="4.83593">
        <ele>83</ele>
        <time>2018-09-30T08:45:52Z</time>
      </trkpt>
      <trkpt lat="44.28543" lon="4.83599">
        <ele>83</ele>
        <time>2018-09-30T08:45:54Z</time>
      </trkpt>
      <trkpt lat="44.28558" lon="4.83606">
        <ele>83</ele>
        <time>2018-09-30T08:45:57Z</time>
      </trkpt>
      <trkpt lat="44.28573" lon="4.8361">
        <ele>83</ele>
        <time>2018-09-30T08:46:00Z</time>
      </trkpt>
      <trkpt lat="44.28582" lon="4.83612">
        <ele>83</ele>
        <time>2018-09-30T08:46:02Z</time>
      </trkpt>
      <trkpt lat="44.28593" lon="4.83612">
        <ele>82</ele>
        <time>2018-09-30T08:46:05Z</time>
      </trkpt>
      <trkpt lat="44.28596" lon="4.83611">
        <ele>82</ele>
        <time>2018-09-30T08:46:07Z</time>
      </trkpt>
      <trkpt lat="44.28597" lon="4.83611">
        <ele>82</ele>
        <time>2018-09-30T08:46:09Z</time>
      </trkpt>
      <trkpt lat="44.28598" lon="4.83611">
        <ele>82</ele>
        <time>2018-09-30T08:46:11Z</time>
      </trkpt>
      <trkpt lat="44.28601" lon="4.83608">
        <ele>82</ele>
        <time>2018-09-30T08:46:14Z</time>
      </trkpt>
      <trkpt lat="44.28602" lon="4.83598">
        <ele>82</ele>
        <time>2018-09-30T08:46:17Z</time>
      </trkpt>
      <trkpt lat="44.28598" lon="4.83589">
        <ele>82</ele>
        <time>2018-09-30T08:46:19Z</time>
      </trkpt>
      <trkpt lat="44.28591" lon="4.83572">
        <ele>83</ele>
        <time>2018-09-30T08:46:22Z</time>
      </trkpt>
      <trkpt lat="44.28586" lon="4.8356">
        <ele>83</ele>
        <time>2018-09-30T08:46:24Z</time>
      </trkpt>
      <trkpt lat="44.2858" lon="4.83547">
        <ele>83</ele>
        <time>2018-09-30T08:46:26Z</time>
      </trkpt>
      <trkpt lat="44.28573" lon="4.83525">
        <ele>83</ele>
        <time>2018-09-30T08:46:29Z</time>
      </trkpt>
      <trkpt lat="44.28568" lon="4.83509">
        <ele>83</ele>
        <time>2018-09-30T08:46:31Z</time>
      </trkpt>
      <trkpt lat="44.28564" lon="4.83494">
        <ele>83</ele>
        <time>2018-09-30T08:46:33Z</time>
      </trkpt>
      <trkpt lat="44.28558" lon="4.83471">
        <ele>83</ele>
        <time>2018-09-30T08:46:36Z</time>
      </trkpt>
      <trkpt lat="44.28553" lon="4.83446">
        <ele>82</ele>
        <time>2018-09-30T08:46:39Z</time>
      </trkpt>
      <trkpt lat="44.28551" lon="4.83429">
        <ele>82</ele>
        <time>2018-09-30T08:46:41Z</time>
      </trkpt>
      <trkpt lat="44.28548" lon="4.83403">
        <ele>82</ele>
        <time>2018-09-30T08:46:44Z</time>
      </trkpt>
      <trkpt lat="44.28548" lon="4.83386">
        <ele>82</ele>
        <time>2018-09-30T08:46:46Z</time>
      </trkpt>
      <trkpt lat="44.28548" lon="4.83359">
        <ele>83</ele>
        <time>2018-09-30T08:46:49Z</time>
      </trkpt>
      <trkpt lat="44.28548" lon="4.83334">
        <ele>82</ele>
        <time>2018-09-30T08:46:52Z</time>
      </trkpt>
      <trkpt lat="44.2855" lon="4.83308">
        <ele>82</ele>
        <time>2018-09-30T08:46:55Z</time>
      </trkpt>
      <trkpt lat="44.28554" lon="4.8328">
        <ele>83</ele>
        <time>2018-09-30T08:46:58Z</time>
      </trkpt>
      <trkpt lat="44.2856" lon="4.83252">
        <ele>83</ele>
        <time>2018-09-30T08:47:01Z</time>
      </trkpt>
      <trkpt lat="44.28567" lon="4.83222">
        <ele>83</ele>
        <time>2018-09-30T08:47:04Z</time>
      </trkpt>
      <trkpt lat="44.28575" lon="4.83192">
        <ele>83</ele>
        <time>2018-09-30T08:47:07Z</time>
      </trkpt>
      <trkpt lat="44.28582" lon="4.83162">
        <ele>83</ele>
        <time>2018-09-30T08:47:10Z</time>
      </trkpt>
      <trkpt lat="44.28587" lon="4.83142">
        <ele>83</ele>
        <time>2018-09-30T08:47:12Z</time>
      </trkpt>
      <trkpt lat="44.28594" lon="4.83111">
        <ele>83</ele>
        <time>2018-09-30T08:47:15Z</time>
      </trkpt>
      <trkpt lat="44.28602" lon="4.83079">
        <ele>83</ele>
        <time>2018-09-30T08:47:18Z</time>
      </trkpt>
      <trkpt lat="44.2861" lon="4.83047">
        <ele>82</ele>
        <time>2018-09-30T08:47:21Z</time>
      </trkpt>
      <trkpt lat="44.28618" lon="4.83015">
        <ele>82</ele>
        <time>2018-09-30T08:47:24Z</time>
      </trkpt>
      <trkpt lat="44.28626" lon="4.82983">
        <ele>81</ele>
        <time>2018-09-30T08:47:27Z</time>
      </trkpt>
      <trkpt lat="44.28632" lon="4.82962">
        <ele>81</ele>
        <time>2018-09-30T08:47:29Z</time>
      </trkpt>
      <trkpt lat="44.2864" lon="4.82928">
        <ele>80</ele>
        <time>2018-09-30T08:47:32Z</time>
      </trkpt>
      <trkpt lat="44.28649" lon="4.82891">
        <ele>80</ele>
        <time>2018-09-30T08:47:35Z</time>
      </trkpt>
      <trkpt lat="44.28655" lon="4.82867">
        <ele>80</ele>
        <time>2018-09-30T08:47:37Z</time>
      </trkpt>
      <trkpt lat="44.28664" lon="4.82832">
        <ele>79</ele>
        <time>2018-09-30T08:47:40Z</time>
      </trkpt>
      <trkpt lat="44.28672" lon="4.82796">
        <ele>79</ele>
        <time>2018-09-30T08:47:43Z</time>
      </trkpt>
      <trkpt lat="44.28678" lon="4.82773">
        <ele>78</ele>
        <time>2018-09-30T08:47:45Z</time>
      </trkpt>
      <trkpt lat="44.28684" lon="4.82738">
        <ele>77</ele>
        <time>2018-09-30T08:47:48Z</time>
      </trkpt>
      <trkpt lat="44.2869" lon="4.82702">
        <ele>76</ele>
        <time>2018-09-30T08:47:51Z</time>
      </trkpt>
      <trkpt lat="44.28696" lon="4.82667">
        <ele>76</ele>
        <time>2018-09-30T08:47:54Z</time>
      </trkpt>
      <trkpt lat="44.28698" lon="4.82644">
        <ele>75</ele>
        <time>2018-09-30T08:47:56Z</time>
      </trkpt>
      <trkpt lat="44.28701" lon="4.82621">
        <ele>75</ele>
        <time>2018-09-30T08:47:58Z</time>
      </trkpt>
      <trkpt lat="44.28704" lon="4.82587">
        <ele>75</ele>
        <time>2018-09-30T08:48:01Z</time>
      </trkpt>
      <trkpt lat="44.28706" lon="4.82565">
        <ele>74</ele>
        <time>2018-09-30T08:48:03Z</time>
      </trkpt>
      <trkpt lat="44.28709" lon="4.82532">
        <ele>74</ele>
        <time>2018-09-30T08:48:06Z</time>
      </trkpt>
      <trkpt lat="44.2871" lon="4.8251">
        <ele>74</ele>
        <time>2018-09-30T08:48:08Z</time>
      </trkpt>
      <trkpt lat="44.28713" lon="4.82478">
        <ele>74</ele>
        <time>2018-09-30T08:48:11Z</time>
      </trkpt>
      <trkpt lat="44.28714" lon="4.82457">
        <ele>74</ele>
        <time>2018-09-30T08:48:13Z</time>
      </trkpt>
      <trkpt lat="44.28717" lon="4.82424">
        <ele>74</ele>
        <time>2018-09-30T08:48:16Z</time>
      </trkpt>
      <trkpt lat="44.28718" lon="4.82402">
        <ele>74</ele>
        <time>2018-09-30T08:48:18Z</time>
      </trkpt>
      <trkpt lat="44.28719" lon="4.82381">
        <ele>74</ele>
        <time>2018-09-30T08:48:20Z</time>
      </trkpt>
      <trkpt lat="44.28719" lon="4.82348">
        <ele>74</ele>
        <time>2018-09-30T08:48:23Z</time>
      </trkpt>
      <trkpt lat="44.28719" lon="4.82316">
        <ele>74</ele>
        <time>2018-09-30T08:48:26Z</time>
      </trkpt>
      <trkpt lat="44.28717" lon="4.82284">
        <ele>74</ele>
        <time>2018-09-30T08:48:29Z</time>
      </trkpt>
      <trkpt lat="44.28715" lon="4.82252">
        <ele>74</ele>
        <time>2018-09-30T08:48:32Z</time>
      </trkpt>
      <trkpt lat="44.28712" lon="4.8222">
        <ele>74</ele>
        <time>2018-09-30T08:48:35Z</time>
      </trkpt>
      <trkpt lat="44.28709" lon="4.82199">
        <ele>74</ele>
        <time>2018-09-30T08:48:37Z</time>
      </trkpt>
      <trkpt lat="44.28706" lon="4.82179">
        <ele>74</ele>
        <time>2018-09-30T08:48:39Z</time>
      </trkpt>
      <trkpt lat="44.28701" lon="4.82148">
        <ele>74</ele>
        <time>2018-09-30T08:48:42Z</time>
      </trkpt>
      <trkpt lat="44.28697" lon="4.82128">
        <ele>74</ele>
        <time>2018-09-30T08:48:44Z</time>
      </trkpt>
      <trkpt lat="44.28691" lon="4.82097">
        <ele>73</ele>
        <time>2018-09-30T08:48:47Z</time>
      </trkpt>
      <trkpt lat="44.28686" lon="4.82078">
        <ele>73</ele>
        <time>2018-09-30T08:48:49Z</time>
      </trkpt>
      <trkpt lat="44.28681" lon="4.82058">
        <ele>73</ele>
        <time>2018-09-30T08:48:51Z</time>
      </trkpt>
      <trkpt lat="44.28672" lon="4.8203">
        <ele>73</ele>
        <time>2018-09-30T08:48:54Z</time>
      </trkpt>
      <trkpt lat="44.28667" lon="4.82011">
        <ele>73</ele>
        <time>2018-09-30T08:48:56Z</time>
      </trkpt>
      <trkpt lat="44.28657" lon="4.81982">
        <ele>72</ele>
        <time>2018-09-30T08:48:59Z</time>
      </trkpt>
      <trkpt lat="44.2865" lon="4.81963">
        <ele>72</ele>
        <time>2018-09-30T08:49:01Z</time>
      </trkpt>
      <trkpt lat="44.2864" lon="4.81935">
        <ele>73</ele>
        <time>2018-09-30T08:49:04Z</time>
      </trkpt>
      <trkpt lat="44.28633" lon="4.81917">
        <ele>73</ele>
        <time>2018-09-30T08:49:06Z</time>
      </trkpt>
      <trkpt lat="44.28622" lon="4.81889">
        <ele>73</ele>
        <time>2018-09-30T08:49:09Z</time>
      </trkpt>
      <trkpt lat="44.28611" lon="4.81861">
        <ele>73</ele>
        <time>2018-09-30T08:49:12Z</time>
      </trkpt>
      <trkpt lat="44.286" lon="4.81832">
        <ele>73</ele>
        <time>2018-09-30T08:49:15Z</time>
      </trkpt>
      <trkpt lat="44.28593" lon="4.81813">
        <ele>73</ele>
        <time>2018-09-30T08:49:17Z</time>
      </trkpt>
      <trkpt lat="44.28584" lon="4.81785">
        <ele>74</ele>
        <time>2018-09-30T08:49:20Z</time>
      </trkpt>
      <trkpt lat="44.28575" lon="4.81756">
        <ele>73</ele>
        <time>2018-09-30T08:49:23Z</time>
      </trkpt>
      <trkpt lat="44.28567" lon="4.81727">
        <ele>73</ele>
        <time>2018-09-30T08:49:26Z</time>
      </trkpt>
      <trkpt lat="44.28563" lon="4.81706">
        <ele>73</ele>
        <time>2018-09-30T08:49:28Z</time>
      </trkpt>
      <trkpt lat="44.28559" lon="4.81686">
        <ele>73</ele>
        <time>2018-09-30T08:49:30Z</time>
      </trkpt>
      <trkpt lat="44.28553" lon="4.81655">
        <ele>73</ele>
        <time>2018-09-30T08:49:33Z</time>
      </trkpt>
      <trkpt lat="44.28547" lon="4.81624">
        <ele>73</ele>
        <time>2018-09-30T08:49:36Z</time>
      </trkpt>
      <trkpt lat="44.28543" lon="4.81603">
        <ele>73</ele>
        <time>2018-09-30T08:49:38Z</time>
      </trkpt>
      <trkpt lat="44.28537" lon="4.81572">
        <ele>73</ele>
        <time>2018-09-30T08:49:41Z</time>
      </trkpt>
      <trkpt lat="44.2853" lon="4.8154">
        <ele>73</ele>
        <time>2018-09-30T08:49:44Z</time>
      </trkpt>
      <trkpt lat="44.28525" lon="4.81519">
        <ele>73</ele>
        <time>2018-09-30T08:49:46Z</time>
      </trkpt>
      <trkpt lat="44.28517" lon="4.81488">
        <ele>73</ele>
        <time>2018-09-30T08:49:49Z</time>
      </trkpt>
      <trkpt lat="44.28511" lon="4.81468">
        <ele>72</ele>
        <time>2018-09-30T08:49:51Z</time>
      </trkpt>
      <trkpt lat="44.28501" lon="4.81437">
        <ele>72</ele>
        <time>2018-09-30T08:49:54Z</time>
      </trkpt>
      <trkpt lat="44.28494" lon="4.81418">
        <ele>72</ele>
        <time>2018-09-30T08:49:56Z</time>
      </trkpt>
      <trkpt lat="44.28487" lon="4.81398">
        <ele>72</ele>
        <time>2018-09-30T08:49:58Z</time>
      </trkpt>
      <trkpt lat="44.2848" lon="4.81379">
        <ele>72</ele>
        <time>2018-09-30T08:50:00Z</time>
      </trkpt>
      <trkpt lat="44.28473" lon="4.81359">
        <ele>72</ele>
        <time>2018-09-30T08:50:02Z</time>
      </trkpt>
      <trkpt lat="44.28467" lon="4.8134">
        <ele>72</ele>
        <time>2018-09-30T08:50:04Z</time>
      </trkpt>
      <trkpt lat="44.2846" lon="4.8132">
        <ele>72</ele>
        <time>2018-09-30T08:50:06Z</time>
      </trkpt>
      <trkpt lat="44.2845" lon="4.81291">
        <ele>72</ele>
        <time>2018-09-30T08:50:09Z</time>
      </trkpt>
      <trkpt lat="44.28443" lon="4.81271">
        <ele>72</ele>
        <time>2018-09-30T08:50:11Z</time>
      </trkpt>
      <trkpt lat="44.28432" lon="4.81241">
        <ele>72</ele>
        <time>2018-09-30T08:50:14Z</time>
      </trkpt>
      <trkpt lat="44.28422" lon="4.81211">
        <ele>72</ele>
        <time>2018-09-30T08:50:17Z</time>
      </trkpt>
      <trkpt lat="44.28411" lon="4.81181">
        <ele>71</ele>
        <time>2018-09-30T08:50:20Z</time>
      </trkpt>
      <trkpt lat="44.284" lon="4.8115">
        <ele>71</ele>
        <time>2018-09-30T08:50:23Z</time>
      </trkpt>
      <trkpt lat="44.28389" lon="4.81119">
        <ele>70</ele>
        <time>2018-09-30T08:50:26Z</time>
      </trkpt>
      <trkpt lat="44.28378" lon="4.81087">
        <ele>70</ele>
        <time>2018-09-30T08:50:29Z</time>
      </trkpt>
      <trkpt lat="44.28367" lon="4.81056">
        <ele>69</ele>
        <time>2018-09-30T08:50:32Z</time>
      </trkpt>
      <trkpt lat="44.28356" lon="4.81024">
        <ele>69</ele>
        <time>2018-09-30T08:50:35Z</time>
      </trkpt>
      <trkpt lat="44.28348" lon="4.81003">
        <ele>68</ele>
        <time>2018-09-30T08:50:37Z</time>
      </trkpt>
      <trkpt lat="44.28337" lon="4.80972">
        <ele>68</ele>
        <time>2018-09-30T08:50:40Z</time>
      </trkpt>
      <trkpt lat="44.28326" lon="4.8094">
        <ele>68</ele>
        <time>2018-09-30T08:50:43Z</time>
      </trkpt>
      <trkpt lat="44.28314" lon="4.80908">
        <ele>68</ele>
        <time>2018-09-30T08:50:46Z</time>
      </trkpt>
      <trkpt lat="44.28303" lon="4.80876">
        <ele>67</ele>
        <time>2018-09-30T08:50:49Z</time>
      </trkpt>
      <trkpt lat="44.28296" lon="4.80856">
        <ele>67</ele>
        <time>2018-09-30T08:50:51Z</time>
      </trkpt>
      <trkpt lat="44.28285" lon="4.80826">
        <ele>66</ele>
        <time>2018-09-30T08:50:54Z</time>
      </trkpt>
      <trkpt lat="44.28278" lon="4.80806">
        <ele>66</ele>
        <time>2018-09-30T08:50:56Z</time>
      </trkpt>
      <trkpt lat="44.28267" lon="4.80776">
        <ele>66</ele>
        <time>2018-09-30T08:50:59Z</time>
      </trkpt>
      <trkpt lat="44.2826" lon="4.80756">
        <ele>66</ele>
        <time>2018-09-30T08:51:01Z</time>
      </trkpt>
      <trkpt lat="44.28249" lon="4.80727">
        <ele>66</ele>
        <time>2018-09-30T08:51:04Z</time>
      </trkpt>
      <trkpt lat="44.28239" lon="4.80699">
        <ele>67</ele>
        <time>2018-09-30T08:51:07Z</time>
      </trkpt>
      <trkpt lat="44.28229" lon="4.80671">
        <ele>68</ele>
        <time>2018-09-30T08:51:10Z</time>
      </trkpt>
      <trkpt lat="44.2822" lon="4.80644">
        <ele>69</ele>
        <time>2018-09-30T08:51:13Z</time>
      </trkpt>
      <trkpt lat="44.28211" lon="4.80616">
        <ele>70</ele>
        <time>2018-09-30T08:51:16Z</time>
      </trkpt>
      <trkpt lat="44.28205" lon="4.80597">
        <ele>70</ele>
        <time>2018-09-30T08:51:18Z</time>
      </trkpt>
      <trkpt lat="44.28197" lon="4.80568">
        <ele>70</ele>
        <time>2018-09-30T08:51:21Z</time>
      </trkpt>
      <trkpt lat="44.28191" lon="4.80549">
        <ele>70</ele>
        <time>2018-09-30T08:51:23Z</time>
      </trkpt>
      <trkpt lat="44.28186" lon="4.8053">
        <ele>70</ele>
        <time>2018-09-30T08:51:25Z</time>
      </trkpt>
      <trkpt lat="44.28178" lon="4.805">
        <ele>71</ele>
        <time>2018-09-30T08:51:28Z</time>
      </trkpt>
      <trkpt lat="44.2817" lon="4.8047">
        <ele>71</ele>
        <time>2018-09-30T08:51:31Z</time>
      </trkpt>
      <trkpt lat="44.28162" lon="4.8044">
        <ele>71</ele>
        <time>2018-09-30T08:51:34Z</time>
      </trkpt>
      <trkpt lat="44.28153" lon="4.8041">
        <ele>71</ele>
        <time>2018-09-30T08:51:37Z</time>
      </trkpt>
      <trkpt lat="44.28143" lon="4.80381">
        <ele>71</ele>
        <time>2018-09-30T08:51:40Z</time>
      </trkpt>
      <trkpt lat="44.28133" lon="4.80352">
        <ele>72</ele>
        <time>2018-09-30T08:51:43Z</time>
      </trkpt>
      <trkpt lat="44.28127" lon="4.80332">
        <ele>72</ele>
        <time>2018-09-30T08:51:45Z</time>
      </trkpt>
      <trkpt lat="44.28116" lon="4.80303">
        <ele>71</ele>
        <time>2018-09-30T08:51:48Z</time>
      </trkpt>
      <trkpt lat="44.28109" lon="4.80283">
        <ele>71</ele>
        <time>2018-09-30T08:51:50Z</time>
      </trkpt>
      <trkpt lat="44.28099" lon="4.80253">
        <ele>71</ele>
        <time>2018-09-30T08:51:53Z</time>
      </trkpt>
      <trkpt lat="44.28088" lon="4.80223">
        <ele>71</ele>
        <time>2018-09-30T08:51:56Z</time>
      </trkpt>
      <trkpt lat="44.28078" lon="4.80193">
        <ele>71</ele>
        <time>2018-09-30T08:51:59Z</time>
      </trkpt>
      <trkpt lat="44.28068" lon="4.80162">
        <ele>71</ele>
        <time>2018-09-30T08:52:02Z</time>
      </trkpt>
      <trkpt lat="44.28061" lon="4.8013">
        <ele>70</ele>
        <time>2018-09-30T08:52:05Z</time>
      </trkpt>
      <trkpt lat="44.28055" lon="4.80097">
        <ele>71</ele>
        <time>2018-09-30T08:52:08Z</time>
      </trkpt>
      <trkpt lat="44.28051" lon="4.80075">
        <ele>70</ele>
        <time>2018-09-30T08:52:10Z</time>
      </trkpt>
      <trkpt lat="44.28048" lon="4.80053">
        <ele>71</ele>
        <time>2018-09-30T08:52:12Z</time>
      </trkpt>
      <trkpt lat="44.28044" lon="4.8002">
        <ele>71</ele>
        <time>2018-09-30T08:52:15Z</time>
      </trkpt>
      <trkpt lat="44.28041" lon="4.79998">
        <ele>70</ele>
        <time>2018-09-30T08:52:17Z</time>
      </trkpt>
      <trkpt lat="44.28036" lon="4.79965">
        <ele>70</ele>
        <time>2018-09-30T08:52:20Z</time>
      </trkpt>
      <trkpt lat="44.28034" lon="4.79943">
        <ele>70</ele>
        <time>2018-09-30T08:52:22Z</time>
      </trkpt>
      <trkpt lat="44.28032" lon="4.7991">
        <ele>70</ele>
        <time>2018-09-30T08:52:25Z</time>
      </trkpt>
      <trkpt lat="44.28032" lon="4.79877">
        <ele>70</ele>
        <time>2018-09-30T08:52:28Z</time>
      </trkpt>
      <trkpt lat="44.28033" lon="4.79843">
        <ele>70</ele>
        <time>2018-09-30T08:52:31Z</time>
      </trkpt>
      <trkpt lat="44.28035" lon="4.7981">
        <ele>70</ele>
        <time>2018-09-30T08:52:34Z</time>
      </trkpt>
      <trkpt lat="44.2804" lon="4.79777">
        <ele>69</ele>
        <time>2018-09-30T08:52:37Z</time>
      </trkpt>
      <trkpt lat="44.28043" lon="4.79755">
        <ele>69</ele>
        <time>2018-09-30T08:52:39Z</time>
      </trkpt>
      <trkpt lat="44.28046" lon="4.79732">
        <ele>69</ele>
        <time>2018-09-30T08:52:41Z</time>
      </trkpt>
      <trkpt lat="44.2805" lon="4.79698">
        <ele>69</ele>
        <time>2018-09-30T08:52:44Z</time>
      </trkpt>
      <trkpt lat="44.28054" lon="4.79663">
        <ele>69</ele>
        <time>2018-09-30T08:52:47Z</time>
      </trkpt>
      <trkpt lat="44.28056" lon="4.79639">
        <ele>69</ele>
        <time>2018-09-30T08:52:49Z</time>
      </trkpt>
      <trkpt lat="44.28058" lon="4.79602">
        <ele>68</ele>
        <time>2018-09-30T08:52:52Z</time>
      </trkpt>
      <trkpt lat="44.28059" lon="4.79565">
        <ele>67</ele>
        <time>2018-09-30T08:52:55Z</time>
      </trkpt>
      <trkpt lat="44.28056" lon="4.79528">
        <ele>67</ele>
        <time>2018-09-30T08:52:58Z</time>
      </trkpt>
      <trkpt lat="44.28053" lon="4.7949">
        <ele>67</ele>
        <time>2018-09-30T08:53:01Z</time>
      </trkpt>
      <trkpt lat="44.2805" lon="4.79464">
        <ele>67</ele>
        <time>2018-09-30T08:53:03Z</time>
      </trkpt>
      <trkpt lat="44.28047" lon="4.79439">
        <ele>66</ele>
        <time>2018-09-30T08:53:05Z</time>
      </trkpt>
      <trkpt lat="44.28044" lon="4.79414">
        <ele>65</ele>
        <time>2018-09-30T08:53:07Z</time>
      </trkpt>
      <trkpt lat="44.28041" lon="4.79376">
        <ele>65</ele>
        <time>2018-09-30T08:53:10Z</time>
      </trkpt>
      <trkpt lat="44.28038" lon="4.79351">
        <ele>64</ele>
        <time>2018-09-30T08:53:12Z</time>
      </trkpt>
      <trkpt lat="44.28037" lon="4.79313">
        <ele>64</ele>
        <time>2018-09-30T08:53:15Z</time>
      </trkpt>
      <trkpt lat="44.28035" lon="4.79275">
        <ele>64</ele>
        <time>2018-09-30T08:53:18Z</time>
      </trkpt>
      <trkpt lat="44.28036" lon="4.79237">
        <ele>63</ele>
        <time>2018-09-30T08:53:21Z</time>
      </trkpt>
      <trkpt lat="44.28037" lon="4.79212">
        <ele>63</ele>
        <time>2018-09-30T08:53:23Z</time>
      </trkpt>
      <trkpt lat="44.28039" lon="4.79175">
        <ele>62</ele>
        <time>2018-09-30T08:53:26Z</time>
      </trkpt>
      <trkpt lat="44.2804" lon="4.79151">
        <ele>62</ele>
        <time>2018-09-30T08:53:28Z</time>
      </trkpt>
      <trkpt lat="44.28042" lon="4.79127">
        <ele>62</ele>
        <time>2018-09-30T08:53:30Z</time>
      </trkpt>
      <trkpt lat="44.28044" lon="4.79091">
        <ele>61</ele>
        <time>2018-09-30T08:53:33Z</time>
      </trkpt>
      <trkpt lat="44.28045" lon="4.79056">
        <ele>62</ele>
        <time>2018-09-30T08:53:36Z</time>
      </trkpt>
      <trkpt lat="44.28046" lon="4.79021">
        <ele>62</ele>
        <time>2018-09-30T08:53:39Z</time>
      </trkpt>
      <trkpt lat="44.28046" lon="4.78987">
        <ele>62</ele>
        <time>2018-09-30T08:53:42Z</time>
      </trkpt>
      <trkpt lat="44.28044" lon="4.78953">
        <ele>61</ele>
        <time>2018-09-30T08:53:45Z</time>
      </trkpt>
      <trkpt lat="44.2804" lon="4.7892">
        <ele>61</ele>
        <time>2018-09-30T08:53:48Z</time>
      </trkpt>
      <trkpt lat="44.28032" lon="4.78887">
        <ele>61</ele>
        <time>2018-09-30T08:53:51Z</time>
      </trkpt>
      <trkpt lat="44.28027" lon="4.78864">
        <ele>60</ele>
        <time>2018-09-30T08:53:53Z</time>
      </trkpt>
      <trkpt lat="44.28022" lon="4.78842">
        <ele>59</ele>
        <time>2018-09-30T08:53:55Z</time>
      </trkpt>
      <trkpt lat="44.28015" lon="4.78809">
        <ele>58</ele>
        <time>2018-09-30T08:53:58Z</time>
      </trkpt>
      <trkpt lat="44.28009" lon="4.78775">
        <ele>59</ele>
        <time>2018-09-30T08:54:01Z</time>
      </trkpt>
      <trkpt lat="44.28007" lon="4.78753">
        <ele>59</ele>
        <time>2018-09-30T08:54:03Z</time>
      </trkpt>
      <trkpt lat="44.28006" lon="4.78718">
        <ele>60</ele>
        <time>2018-09-30T08:54:06Z</time>
      </trkpt>
      <trkpt lat="44.28007" lon="4.78683">
        <ele>60</ele>
        <time>2018-09-30T08:54:09Z</time>
      </trkpt>
      <trkpt lat="44.28008" lon="4.78647">
        <ele>60</ele>
        <time>2018-09-30T08:54:12Z</time>
      </trkpt>
      <trkpt lat="44.28008" lon="4.78612">
        <ele>59</ele>
        <time>2018-09-30T08:54:15Z</time>
      </trkpt>
      <trkpt lat="44.28006" lon="4.78588">
        <ele>59</ele>
        <time>2018-09-30T08:54:17Z</time>
      </trkpt>
      <trkpt lat="44.28004" lon="4.78556">
        <ele>58</ele>
        <time>2018-09-30T08:54:20Z</time>
      </trkpt>
      <trkpt lat="44.28001" lon="4.78527">
        <ele>58</ele>
        <time>2018-09-30T08:54:23Z</time>
      </trkpt>
      <trkpt lat="44.27998" lon="4.78505">
        <ele>58</ele>
        <time>2018-09-30T08:54:25Z</time>
      </trkpt>
      <trkpt lat="44.27996" lon="4.78482">
        <ele>57</ele>
        <time>2018-09-30T08:54:27Z</time>
      </trkpt>
      <trkpt lat="44.27993" lon="4.78447">
        <ele>57</ele>
        <time>2018-09-30T08:54:30Z</time>
      </trkpt>
      <trkpt lat="44.2799" lon="4.78423">
        <ele>57</ele>
        <time>2018-09-30T08:54:32Z</time>
      </trkpt>
      <trkpt lat="44.27986" lon="4.78397">
        <ele>58</ele>
        <time>2018-09-30T08:54:34Z</time>
      </trkpt>
      <trkpt lat="44.27981" lon="4.78359">
        <ele>58</ele>
        <time>2018-09-30T08:54:37Z</time>
      </trkpt>
      <trkpt lat="44.27977" lon="4.78335">
        <ele>58</ele>
        <time>2018-09-30T08:54:39Z</time>
      </trkpt>
      <trkpt lat="44.27972" lon="4.78301">
        <ele>58</ele>
        <time>2018-09-30T08:54:42Z</time>
      </trkpt>
      <trkpt lat="44.27968" lon="4.78279">
        <ele>58</ele>
        <time>2018-09-30T08:54:44Z</time>
      </trkpt>
      <trkpt lat="44.27965" lon="4.78259">
        <ele>58</ele>
        <time>2018-09-30T08:54:46Z</time>
      </trkpt>
      <trkpt lat="44.2796" lon="4.78227">
        <ele>59</ele>
        <time>2018-09-30T08:54:49Z</time>
      </trkpt>
      <trkpt lat="44.27956" lon="4.78206">
        <ele>59</ele>
        <time>2018-09-30T08:54:51Z</time>
      </trkpt>
      <trkpt lat="44.27951" lon="4.78176">
        <ele>59</ele>
        <time>2018-09-30T08:54:54Z</time>
      </trkpt>
      <trkpt lat="44.27946" lon="4.78146">
        <ele>58</ele>
        <time>2018-09-30T08:54:57Z</time>
      </trkpt>
      <trkpt lat="44.27941" lon="4.78118">
        <ele>58</ele>
        <time>2018-09-30T08:55:00Z</time>
      </trkpt>
      <trkpt lat="44.27938" lon="4.78098">
        <ele>58</ele>
        <time>2018-09-30T08:55:02Z</time>
      </trkpt>
      <trkpt lat="44.27933" lon="4.78066">
        <ele>58</ele>
        <time>2018-09-30T08:55:05Z</time>
      </trkpt>
      <trkpt lat="44.27928" lon="4.78035">
        <ele>59</ele>
        <time>2018-09-30T08:55:08Z</time>
      </trkpt>
      <trkpt lat="44.27925" lon="4.78013">
        <ele>59</ele>
        <time>2018-09-30T08:55:10Z</time>
      </trkpt>
      <trkpt lat="44.27921" lon="4.77991">
        <ele>59</ele>
        <time>2018-09-30T08:55:12Z</time>
      </trkpt>
      <trkpt lat="44.27917" lon="4.77969">
        <ele>59</ele>
        <time>2018-09-30T08:55:14Z</time>
      </trkpt>
      <trkpt lat="44.27911" lon="4.77935">
        <ele>60</ele>
        <time>2018-09-30T08:55:17Z</time>
      </trkpt>
      <trkpt lat="44.27906" lon="4.77902">
        <ele>59</ele>
        <time>2018-09-30T08:55:20Z</time>
      </trkpt>
      <trkpt lat="44.279" lon="4.77869">
        <ele>59</ele>
        <time>2018-09-30T08:55:23Z</time>
      </trkpt>
      <trkpt lat="44.27896" lon="4.77846">
        <ele>59</ele>
        <time>2018-09-30T08:55:25Z</time>
      </trkpt>
      <trkpt lat="44.27891" lon="4.77814">
        <ele>59</ele>
        <time>2018-09-30T08:55:28Z</time>
      </trkpt>
      <trkpt lat="44.27885" lon="4.77781">
        <ele>59</ele>
        <time>2018-09-30T08:55:31Z</time>
      </trkpt>
      <trkpt lat="44.2788" lon="4.77748">
        <ele>58</ele>
        <time>2018-09-30T08:55:34Z</time>
      </trkpt>
      <trkpt lat="44.27877" lon="4.77725">
        <ele>58</ele>
        <time>2018-09-30T08:55:36Z</time>
      </trkpt>
      <trkpt lat="44.27873" lon="4.77703">
        <ele>58</ele>
        <time>2018-09-30T08:55:38Z</time>
      </trkpt>
      <trkpt lat="44.27868" lon="4.7767">
        <ele>57</ele>
        <time>2018-09-30T08:55:41Z</time>
      </trkpt>
      <trkpt lat="44.27863" lon="4.77638">
        <ele>58</ele>
        <time>2018-09-30T08:55:44Z</time>
      </trkpt>
      <trkpt lat="44.2786" lon="4.77616">
        <ele>58</ele>
        <time>2018-09-30T08:55:46Z</time>
      </trkpt>
      <trkpt lat="44.27855" lon="4.77583">
        <ele>58</ele>
        <time>2018-09-30T08:55:49Z</time>
      </trkpt>
      <trkpt lat="44.27849" lon="4.7755">
        <ele>58</ele>
        <time>2018-09-30T08:55:52Z</time>
      </trkpt>
      <trkpt lat="44.27846" lon="4.77528">
        <ele>58</ele>
        <time>2018-09-30T08:55:54Z</time>
      </trkpt>
      <trkpt lat="44.2784" lon="4.77495">
        <ele>59</ele>
        <time>2018-09-30T08:55:57Z</time>
      </trkpt>
      <trkpt lat="44.27837" lon="4.77474">
        <ele>58</ele>
        <time>2018-09-30T08:55:59Z</time>
      </trkpt>
      <trkpt lat="44.27832" lon="4.77442">
        <ele>58</ele>
        <time>2018-09-30T08:56:02Z</time>
      </trkpt>
      <trkpt lat="44.27827" lon="4.77409">
        <ele>58</ele>
        <time>2018-09-30T08:56:05Z</time>
      </trkpt>
      <trkpt lat="44.27824" lon="4.77387">
        <ele>57</ele>
        <time>2018-09-30T08:56:07Z</time>
      </trkpt>
      <trkpt lat="44.27819" lon="4.77353">
        <ele>57</ele>
        <time>2018-09-30T08:56:10Z</time>
      </trkpt>
      <trkpt lat="44.27817" lon="4.77331">
        <ele>57</ele>
        <time>2018-09-30T08:56:12Z</time>
      </trkpt>
      <trkpt lat="44.27815" lon="4.77309">
        <ele>57</ele>
        <time>2018-09-30T08:56:14Z</time>
      </trkpt>
      <trkpt lat="44.27813" lon="4.77286">
        <ele>57</ele>
        <time>2018-09-30T08:56:16Z</time>
      </trkpt>
      <trkpt lat="44.27809" lon="4.77253">
        <ele>57</ele>
        <time>2018-09-30T08:56:19Z</time>
      </trkpt>
      <trkpt lat="44.27807" lon="4.7723">
        <ele>57</ele>
        <time>2018-09-30T08:56:21Z</time>
      </trkpt>
      <trkpt lat="44.27804" lon="4.77196">
        <ele>57</ele>
        <time>2018-09-30T08:56:24Z</time>
      </trkpt>
      <trkpt lat="44.27802" lon="4.77174">
        <ele>58</ele>
        <time>2018-09-30T08:56:26Z</time>
      </trkpt>
      <trkpt lat="44.27798" lon="4.7714">
        <ele>57</ele>
        <time>2018-09-30T08:56:29Z</time>
      </trkpt>
      <trkpt lat="44.27796" lon="4.77118">
        <ele>57</ele>
        <time>2018-09-30T08:56:31Z</time>
      </trkpt>
      <trkpt lat="44.27793" lon="4.77084">
        <ele>57</ele>
        <time>2018-09-30T08:56:34Z</time>
      </trkpt>
      <trkpt lat="44.27791" lon="4.77063">
        <ele>58</ele>
        <time>2018-09-30T08:56:36Z</time>
      </trkpt>
      <trkpt lat="44.27788" lon="4.77029">
        <ele>58</ele>
        <time>2018-09-30T08:56:39Z</time>
      </trkpt>
      <trkpt lat="44.27786" lon="4.77006">
        <ele>59</ele>
        <time>2018-09-30T08:56:41Z</time>
      </trkpt>
      <trkpt lat="44.27782" lon="4.76972">
        <ele>58</ele>
        <time>2018-09-30T08:56:44Z</time>
      </trkpt>
      <trkpt lat="44.2778" lon="4.7695">
        <ele>57</ele>
        <time>2018-09-30T08:56:46Z</time>
      </trkpt>
      <trkpt lat="44.27777" lon="4.76917">
        <ele>56</ele>
        <time>2018-09-30T08:56:49Z</time>
      </trkpt>
      <trkpt lat="44.27775" lon="4.76895">
        <ele>56</ele>
        <time>2018-09-30T08:56:51Z</time>
      </trkpt>
      <trkpt lat="44.27773" lon="4.76863">
        <ele>57</ele>
        <time>2018-09-30T08:56:54Z</time>
      </trkpt>
      <trkpt lat="44.27771" lon="4.76842">
        <ele>57</ele>
        <time>2018-09-30T08:56:56Z</time>
      </trkpt>
      <trkpt lat="44.27768" lon="4.76811">
        <ele>57</ele>
        <time>2018-09-30T08:56:59Z</time>
      </trkpt>
      <trkpt lat="44.27766" lon="4.76791">
        <ele>57</ele>
        <time>2018-09-30T08:57:01Z</time>
      </trkpt>
      <trkpt lat="44.27763" lon="4.7676">
        <ele>57</ele>
        <time>2018-09-30T08:57:04Z</time>
      </trkpt>
      <trkpt lat="44.27761" lon="4.7674">
        <ele>57</ele>
        <time>2018-09-30T08:57:06Z</time>
      </trkpt>
      <trkpt lat="44.27758" lon="4.7671">
        <ele>57</ele>
        <time>2018-09-30T08:57:09Z</time>
      </trkpt>
      <trkpt lat="44.27756" lon="4.76689">
        <ele>57</ele>
        <time>2018-09-30T08:57:11Z</time>
      </trkpt>
      <trkpt lat="44.27753" lon="4.76658">
        <ele>58</ele>
        <time>2018-09-30T08:57:14Z</time>
      </trkpt>
      <trkpt lat="44.27751" lon="4.76637">
        <ele>57</ele>
        <time>2018-09-30T08:57:16Z</time>
      </trkpt>
      <trkpt lat="44.27749" lon="4.76616">
        <ele>57</ele>
        <time>2018-09-30T08:57:18Z</time>
      </trkpt>
      <trkpt lat="44.27747" lon="4.76595">
        <ele>57</ele>
        <time>2018-09-30T08:57:20Z</time>
      </trkpt>
      <trkpt lat="44.27745" lon="4.76565">
        <ele>57</ele>
        <time>2018-09-30T08:57:23Z</time>
      </trkpt>
      <trkpt lat="44.27742" lon="4.76544">
        <ele>57</ele>
        <time>2018-09-30T08:57:25Z</time>
      </trkpt>
      <trkpt lat="44.27741" lon="4.76523">
        <ele>57</ele>
        <time>2018-09-30T08:57:27Z</time>
      </trkpt>
      <trkpt lat="44.27738" lon="4.76492">
        <ele>57</ele>
        <time>2018-09-30T08:57:30Z</time>
      </trkpt>
      <trkpt lat="44.27736" lon="4.76472">
        <ele>58</ele>
        <time>2018-09-30T08:57:32Z</time>
      </trkpt>
      <trkpt lat="44.27733" lon="4.76442">
        <ele>58</ele>
        <time>2018-09-30T08:57:35Z</time>
      </trkpt>
      <trkpt lat="44.27731" lon="4.76421">
        <ele>58</ele>
        <time>2018-09-30T08:57:37Z</time>
      </trkpt>
      <trkpt lat="44.27729" lon="4.76401">
        <ele>58</ele>
        <time>2018-09-30T08:57:39Z</time>
      </trkpt>
      <trkpt lat="44.27726" lon="4.76369">
        <ele>57</ele>
        <time>2018-09-30T08:57:42Z</time>
      </trkpt>
      <trkpt lat="44.27725" lon="4.76348">
        <ele>57</ele>
        <time>2018-09-30T08:57:44Z</time>
      </trkpt>
      <trkpt lat="44.27722" lon="4.76318">
        <ele>57</ele>
        <time>2018-09-30T08:57:47Z</time>
      </trkpt>
      <trkpt lat="44.2772" lon="4.76297">
        <ele>57</ele>
        <time>2018-09-30T08:57:49Z</time>
      </trkpt>
      <trkpt lat="44.27718" lon="4.76265">
        <ele>57</ele>
        <time>2018-09-30T08:57:52Z</time>
      </trkpt>
      <trkpt lat="44.27715" lon="4.76233">
        <ele>57</ele>
        <time>2018-09-30T08:57:55Z</time>
      </trkpt>
      <trkpt lat="44.27713" lon="4.76211">
        <ele>57</ele>
        <time>2018-09-30T08:57:57Z</time>
      </trkpt>
      <trkpt lat="44.2771" lon="4.76179">
        <ele>57</ele>
        <time>2018-09-30T08:58:00Z</time>
      </trkpt>
      <trkpt lat="44.27707" lon="4.76148">
        <ele>57</ele>
        <time>2018-09-30T08:58:03Z</time>
      </trkpt>
      <trkpt lat="44.27705" lon="4.76127">
        <ele>57</ele>
        <time>2018-09-30T08:58:05Z</time>
      </trkpt>
      <trkpt lat="44.27702" lon="4.76097">
        <ele>57</ele>
        <time>2018-09-30T08:58:08Z</time>
      </trkpt>
      <trkpt lat="44.27701" lon="4.76076">
        <ele>57</ele>
        <time>2018-09-30T08:58:10Z</time>
      </trkpt>
      <trkpt lat="44.27698" lon="4.76046">
        <ele>56</ele>
        <time>2018-09-30T08:58:13Z</time>
      </trkpt>
      <trkpt lat="44.27696" lon="4.76025">
        <ele>56</ele>
        <time>2018-09-30T08:58:15Z</time>
      </trkpt>
      <trkpt lat="44.27695" lon="4.76005">
        <ele>56</ele>
        <time>2018-09-30T08:58:17Z</time>
      </trkpt>
      <trkpt lat="44.27695" lon="4.75985">
        <ele>56</ele>
        <time>2018-09-30T08:58:19Z</time>
      </trkpt>
      <trkpt lat="44.27699" lon="4.75954">
        <ele>56</ele>
        <time>2018-09-30T08:58:22Z</time>
      </trkpt>
      <trkpt lat="44.27707" lon="4.75926">
        <ele>56</ele>
        <time>2018-09-30T08:58:25Z</time>
      </trkpt>
      <trkpt lat="44.27712" lon="4.75907">
        <ele>56</ele>
        <time>2018-09-30T08:58:27Z</time>
      </trkpt>
      <trkpt lat="44.27718" lon="4.75888">
        <ele>55</ele>
        <time>2018-09-30T08:58:29Z</time>
      </trkpt>
      <trkpt lat="44.27724" lon="4.75871">
        <ele>55</ele>
        <time>2018-09-30T08:58:31Z</time>
      </trkpt>
      <trkpt lat="44.27731" lon="4.75856">
        <ele>54</ele>
        <time>2018-09-30T08:58:33Z</time>
      </trkpt>
      <trkpt lat="44.27742" lon="4.75847">
        <ele>54</ele>
        <time>2018-09-30T08:58:35Z</time>
      </trkpt>
      <trkpt lat="44.27754" lon="4.75845">
        <ele>54</ele>
        <time>2018-09-30T08:58:37Z</time>
      </trkpt>
      <trkpt lat="44.27772" lon="4.75852">
        <ele>53</ele>
        <time>2018-09-30T08:58:40Z</time>
      </trkpt>
      <trkpt lat="44.27784" lon="4.75858">
        <ele>53</ele>
        <time>2018-09-30T08:58:42Z</time>
      </trkpt>
      <trkpt lat="44.27803" lon="4.75869">
        <ele>53</ele>
        <time>2018-09-30T08:58:45Z</time>
      </trkpt>
      <trkpt lat="44.27816" lon="4.75875">
        <ele>53</ele>
        <time>2018-09-30T08:58:47Z</time>
      </trkpt>
      <trkpt lat="44.27829" lon="4.75881">
        <ele>53</ele>
        <time>2018-09-30T08:58:49Z</time>
      </trkpt>
      <trkpt lat="44.27848" lon="4.7589">
        <ele>52</ele>
        <time>2018-09-30T08:58:52Z</time>
      </trkpt>
      <trkpt lat="44.27862" lon="4.75896">
        <ele>51</ele>
        <time>2018-09-30T08:58:54Z</time>
      </trkpt>
      <trkpt lat="44.27877" lon="4.75902">
        <ele>51</ele>
        <time>2018-09-30T08:58:56Z</time>
      </trkpt>
      <trkpt lat="44.279" lon="4.7591">
        <ele>51</ele>
        <time>2018-09-30T08:58:59Z</time>
      </trkpt>
      <trkpt lat="44.27917" lon="4.75914">
        <ele>50</ele>
        <time>2018-09-30T08:59:01Z</time>
      </trkpt>
      <trkpt lat="44.27942" lon="4.7592">
        <ele>51</ele>
        <time>2018-09-30T08:59:04Z</time>
      </trkpt>
      <trkpt lat="44.27959" lon="4.75923">
        <ele>50</ele>
        <time>2018-09-30T08:59:06Z</time>
      </trkpt>
      <trkpt lat="44.27976" lon="4.75926">
        <ele>49</ele>
        <time>2018-09-30T08:59:08Z</time>
      </trkpt>
      <trkpt lat="44.27993" lon="4.75929">
        <ele>49</ele>
        <time>2018-09-30T08:59:10Z</time>
      </trkpt>
      <trkpt lat="44.2801" lon="4.75931">
        <ele>49</ele>
        <time>2018-09-30T08:59:12Z</time>
      </trkpt>
      <trkpt lat="44.28026" lon="4.75932">
        <ele>49</ele>
        <time>2018-09-30T08:59:14Z</time>
      </trkpt>
      <trkpt lat="44.28049" lon="4.75932">
        <ele>50</ele>
        <time>2018-09-30T08:59:17Z</time>
      </trkpt>
      <trkpt lat="44.28073" lon="4.7593">
        <ele>50</ele>
        <time>2018-09-30T08:59:20Z</time>
      </trkpt>
      <trkpt lat="44.28096" lon="4.75928">
        <ele>51</ele>
        <time>2018-09-30T08:59:23Z</time>
      </trkpt>
      <trkpt lat="44.28118" lon="4.75926">
        <ele>51</ele>
        <time>2018-09-30T08:59:26Z</time>
      </trkpt>
      <trkpt lat="44.28134" lon="4.75924">
        <ele>51</ele>
        <time>2018-09-30T08:59:28Z</time>
      </trkpt>
      <trkpt lat="44.28149" lon="4.75922">
        <ele>51</ele>
        <time>2018-09-30T08:59:30Z</time>
      </trkpt>
      <trkpt lat="44.28172" lon="4.7592">
        <ele>51</ele>
        <time>2018-09-30T08:59:33Z</time>
      </trkpt>
      <trkpt lat="44.28187" lon="4.75918">
        <ele>51</ele>
        <time>2018-09-30T08:59:35Z</time>
      </trkpt>
      <trkpt lat="44.28209" lon="4.75916">
        <ele>52</ele>
        <time>2018-09-30T08:59:38Z</time>
      </trkpt>
      <trkpt lat="44.28232" lon="4.75914">
        <ele>52</ele>
        <time>2018-09-30T08:59:41Z</time>
      </trkpt>
      <trkpt lat="44.28254" lon="4.75911">
        <ele>52</ele>
        <time>2018-09-30T08:59:44Z</time>
      </trkpt>
      <trkpt lat="44.28269" lon="4.7591">
        <ele>52</ele>
        <time>2018-09-30T08:59:46Z</time>
      </trkpt>
      <trkpt lat="44.28283" lon="4.75909">
        <ele>52</ele>
        <time>2018-09-30T08:59:48Z</time>
      </trkpt>
      <trkpt lat="44.28298" lon="4.75907">
        <ele>53</ele>
        <time>2018-09-30T08:59:50Z</time>
      </trkpt>
      <trkpt lat="44.28312" lon="4.75906">
        <ele>53</ele>
        <time>2018-09-30T08:59:52Z</time>
      </trkpt>
      <trkpt lat="44.28326" lon="4.75904">
        <ele>53</ele>
        <time>2018-09-30T08:59:54Z</time>
      </trkpt>
      <trkpt lat="44.28349" lon="4.75901">
        <ele>54</ele>
        <time>2018-09-30T08:59:57Z</time>
      </trkpt>
      <trkpt lat="44.28371" lon="4.75899">
        <ele>54</ele>
        <time>2018-09-30T09:00:00Z</time>
      </trkpt>
      <trkpt lat="44.28386" lon="4.75897">
        <ele>55</ele>
        <time>2018-09-30T09:00:02Z</time>
      </trkpt>
      <trkpt lat="44.284" lon="4.75897">
        <ele>54</ele>
        <time>2018-09-30T09:00:04Z</time>
      </trkpt>
      <trkpt lat="44.28423" lon="4.75896">
        <ele>54</ele>
        <time>2018-09-30T09:00:07Z</time>
      </trkpt>
      <trkpt lat="44.28447" lon="4.75896">
        <ele>53</ele>
        <time>2018-09-30T09:00:10Z</time>
      </trkpt>
      <trkpt lat="44.28462" lon="4.75898">
        <ele>53</ele>
        <time>2018-09-30T09:00:12Z</time>
      </trkpt>
      <trkpt lat="44.28478" lon="4.759">
        <ele>54</ele>
        <time>2018-09-30T09:00:14Z</time>
      </trkpt>
      <trkpt lat="44.28493" lon="4.75902">
        <ele>54</ele>
        <time>2018-09-30T09:00:16Z</time>
      </trkpt>
      <trkpt lat="44.28517" lon="4.75905">
        <ele>53</ele>
        <time>2018-09-30T09:00:19Z</time>
      </trkpt>
      <trkpt lat="44.28532" lon="4.75909">
        <ele>53</ele>
        <time>2018-09-30T09:00:21Z</time>
      </trkpt>
      <trkpt lat="44.28555" lon="4.75912">
        <ele>53</ele>
        <time>2018-09-30T09:00:24Z</time>
      </trkpt>
      <trkpt lat="44.28571" lon="4.75915">
        <ele>54</ele>
        <time>2018-09-30T09:00:26Z</time>
      </trkpt>
      <trkpt lat="44.28586" lon="4.75917">
        <ele>54</ele>
        <time>2018-09-30T09:00:28Z</time>
      </trkpt>
      <trkpt lat="44.28601" lon="4.7592">
        <ele>55</ele>
        <time>2018-09-30T09:00:30Z</time>
      </trkpt>
      <trkpt lat="44.28623" lon="4.75921">
        <ele>55</ele>
        <time>2018-09-30T09:00:33Z</time>
      </trkpt>
      <trkpt lat="44.28638" lon="4.7592">
        <ele>54</ele>
        <time>2018-09-30T09:00:35Z</time>
      </trkpt>
      <trkpt lat="44.2866" lon="4.75915">
        <ele>54</ele>
        <time>2018-09-30T09:00:38Z</time>
      </trkpt>
      <trkpt lat="44.28682" lon="4.75907">
        <ele>54</ele>
        <time>2018-09-30T09:00:41Z</time>
      </trkpt>
      <trkpt lat="44.28696" lon="4.75899">
        <ele>54</ele>
        <time>2018-09-30T09:00:43Z</time>
      </trkpt>
      <trkpt lat="44.28709" lon="4.7589">
        <ele>55</ele>
        <time>2018-09-30T09:00:45Z</time>
      </trkpt>
      <trkpt lat="44.28722" lon="4.7588">
        <ele>55</ele>
        <time>2018-09-30T09:00:47Z</time>
      </trkpt>
      <trkpt lat="44.28734" lon="4.75868">
        <ele>55</ele>
        <time>2018-09-30T09:00:49Z</time>
      </trkpt>
      <trkpt lat="44.2875" lon="4.75847">
        <ele>55</ele>
        <time>2018-09-30T09:00:52Z</time>
      </trkpt>
      <trkpt lat="44.2876" lon="4.75831">
        <ele>55</ele>
        <time>2018-09-30T09:00:54Z</time>
      </trkpt>
      <trkpt lat="44.28773" lon="4.75806">
        <ele>55</ele>
        <time>2018-09-30T09:00:57Z</time>
      </trkpt>
      <trkpt lat="44.28781" lon="4.75788">
        <ele>54</ele>
        <time>2018-09-30T09:00:59Z</time>
      </trkpt>
      <trkpt lat="44.2879" lon="4.75759">
        <ele>55</ele>
        <time>2018-09-30T09:01:02Z</time>
      </trkpt>
      <trkpt lat="44.28795" lon="4.75739">
        <ele>54</ele>
        <time>2018-09-30T09:01:04Z</time>
      </trkpt>
      <trkpt lat="44.288" lon="4.7571">
        <ele>54</ele>
        <time>2018-09-30T09:01:07Z</time>
      </trkpt>
      <trkpt lat="44.28802" lon="4.75692">
        <ele>54</ele>
        <time>2018-09-30T09:01:09Z</time>
      </trkpt>
      <trkpt lat="44.28804" lon="4.75675">
        <ele>53</ele>
        <time>2018-09-30T09:01:11Z</time>
      </trkpt>
      <trkpt lat="44.28807" lon="4.75652">
        <ele>53</ele>
        <time>2018-09-30T09:01:14Z</time>
      </trkpt>
      <trkpt lat="44.28809" lon="4.75636">
        <ele>53</ele>
        <time>2018-09-30T09:01:16Z</time>
      </trkpt>
      <trkpt lat="44.28812" lon="4.75615">
        <ele>52</ele>
        <time>2018-09-30T09:01:19Z</time>
      </trkpt>
      <trkpt lat="44.28814" lon="4.75595">
        <ele>52</ele>
        <time>2018-09-30T09:01:22Z</time>
      </trkpt>
      <trkpt lat="44.28815" lon="4.75582">
        <ele>52</ele>
        <time>2018-09-30T09:01:24Z</time>
      </trkpt>
      <trkpt lat="44.28818" lon="4.75564">
        <ele>52</ele>
        <time>2018-09-30T09:01:27Z</time>
      </trkpt>
      <trkpt lat="44.2882" lon="4.75555">
        <ele>51</ele>
        <time>2018-09-30T09:01:29Z</time>
      </trkpt>
      <trkpt lat="44.28823" lon="4.75549">
        <ele>51</ele>
        <time>2018-09-30T09:01:32Z</time>
      </trkpt>
      <trkpt lat="44.28824" lon="4.7555">
        <ele>50</ele>
        <time>2018-09-30T09:01:34Z</time>
      </trkpt>
      <trkpt lat="44.28822" lon="4.75549">
        <ele>50</ele>
        <time>2018-09-30T09:01:37Z</time>
      </trkpt>
      <trkpt lat="44.28822" lon="4.75549">
        <ele>50</ele>
        <time>2018-09-30T09:01:40Z</time>
      </trkpt>
      <trkpt lat="44.28822" lon="4.75548">
        <ele>50</ele>
        <time>2018-09-30T09:01:43Z</time>
      </trkpt>
      <trkpt lat="44.28822" lon="4.75548">
        <ele>50</ele>
        <time>2018-09-30T09:01:46Z</time>
      </trkpt>
      <trkpt lat="44.28823" lon="4.75546">
        <ele>50</ele>
        <time>2018-09-30T09:01:49Z</time>
      </trkpt>
      <trkpt lat="44.28826" lon="4.75546">
        <ele>50</ele>
        <time>2018-09-30T09:01:51Z</time>
      </trkpt>
      <trkpt lat="44.28831" lon="4.75551">
        <ele>50</ele>
        <time>2018-09-30T09:01:54Z</time>
      </trkpt>
      <trkpt lat="44.28839" lon="4.75559">
        <ele>50</ele>
        <time>2018-09-30T09:01:57Z</time>
      </trkpt>
      <trkpt lat="44.2885" lon="4.7557">
        <ele>50</ele>
        <time>2018-09-30T09:02:00Z</time>
      </trkpt>
      <trkpt lat="44.28861" lon="4.75581">
        <ele>51</ele>
        <time>2018-09-30T09:02:03Z</time>
      </trkpt>
      <trkpt lat="44.28873" lon="4.75593">
        <ele>51</ele>
        <time>2018-09-30T09:02:06Z</time>
      </trkpt>
      <trkpt lat="44.28881" lon="4.75602">
        <ele>51</ele>
        <time>2018-09-30T09:02:08Z</time>
      </trkpt>
      <trkpt lat="44.28889" lon="4.75611">
        <ele>51</ele>
        <time>2018-09-30T09:02:10Z</time>
      </trkpt>
      <trkpt lat="44.28902" lon="4.75626">
        <ele>52</ele>
        <time>2018-09-30T09:02:13Z</time>
      </trkpt>
      <trkpt lat="44.2891" lon="4.75635">
        <ele>52</ele>
        <time>2018-09-30T09:02:15Z</time>
      </trkpt>
      <trkpt lat="44.28923" lon="4.75649">
        <ele>53</ele>
        <time>2018-09-30T09:02:18Z</time>
      </trkpt>
      <trkpt lat="44.28932" lon="4.75659">
        <ele>53</ele>
        <time>2018-09-30T09:02:20Z</time>
      </trkpt>
      <trkpt lat="44.2894" lon="4.75668">
        <ele>53</ele>
        <time>2018-09-30T09:02:22Z</time>
      </trkpt>
      <trkpt lat="44.28947" lon="4.75677">
        <ele>53</ele>
        <time>2018-09-30T09:02:24Z</time>
      </trkpt>
      <trkpt lat="44.28955" lon="4.75687">
        <ele>53</ele>
        <time>2018-09-30T09:02:26Z</time>
      </trkpt>
      <trkpt lat="44.28963" lon="4.75696">
        <ele>53</ele>
        <time>2018-09-30T09:02:28Z</time>
      </trkpt>
      <trkpt lat="44.28974" lon="4.7571">
        <ele>53</ele>
        <time>2018-09-30T09:02:31Z</time>
      </trkpt>
      <trkpt lat="44.28986" lon="4.75723">
        <ele>53</ele>
        <time>2018-09-30T09:02:34Z</time>
      </trkpt>
      <trkpt lat="44.28993" lon="4.75733">
        <ele>54</ele>
        <time>2018-09-30T09:02:36Z</time>
      </trkpt>
      <trkpt lat="44.29" lon="4.75741">
        <ele>54</ele>
        <time>2018-09-30T09:02:38Z</time>
      </trkpt>
      <trkpt lat="44.29013" lon="4.75755">
        <ele>55</ele>
        <time>2018-09-30T09:02:41Z</time>
      </trkpt>
      <trkpt lat="44.2902" lon="4.75764">
        <ele>55</ele>
        <time>2018-09-30T09:02:43Z</time>
      </trkpt>
      <trkpt lat="44.29029" lon="4.75773">
        <ele>55</ele>
        <time>2018-09-30T09:02:45Z</time>
      </trkpt>
      <trkpt lat="44.29037" lon="4.75781">
        <ele>55</ele>
        <time>2018-09-30T09:02:47Z</time>
      </trkpt>
      <trkpt lat="44.29048" lon="4.75795">
        <ele>55</ele>
        <time>2018-09-30T09:02:50Z</time>
      </trkpt>
      <trkpt lat="44.2906" lon="4.75807">
        <ele>55</ele>
        <time>2018-09-30T09:02:53Z</time>
      </trkpt>
      <trkpt lat="44.29067" lon="4.75814">
        <ele>55</ele>
        <time>2018-09-30T09:02:55Z</time>
      </trkpt>
      <trkpt lat="44.29073" lon="4.7582">
        <ele>55</ele>
        <time>2018-09-30T09:02:57Z</time>
      </trkpt>
      <trkpt lat="44.2908" lon="4.75821">
        <ele>56</ele>
        <time>2018-09-30T09:02:59Z</time>
      </trkpt>
      <trkpt lat="44.29085" lon="4.75815">
        <ele>56</ele>
        <time>2018-09-30T09:03:01Z</time>
      </trkpt>
      <trkpt lat="44.29095" lon="4.75806">
        <ele>56</ele>
        <time>2018-09-30T09:03:04Z</time>
      </trkpt>
      <trkpt lat="44.29103" lon="4.75799">
        <ele>57</ele>
        <time>2018-09-30T09:03:06Z</time>
      </trkpt>
      <trkpt lat="44.29116" lon="4.75788">
        <ele>57</ele>
        <time>2018-09-30T09:03:09Z</time>
      </trkpt>
      <trkpt lat="44.29128" lon="4.75776">
        <ele>57</ele>
        <time>2018-09-30T09:03:12Z</time>
      </trkpt>
      <trkpt lat="44.29137" lon="4.75769">
        <ele>57</ele>
        <time>2018-09-30T09:03:14Z</time>
      </trkpt>
      <trkpt lat="44.29146" lon="4.75761">
        <ele>57</ele>
        <time>2018-09-30T09:03:16Z</time>
      </trkpt>
      <trkpt lat="44.29159" lon="4.75749">
        <ele>57</ele>
        <time>2018-09-30T09:03:19Z</time>
      </trkpt>
      <trkpt lat="44.29168" lon="4.7574">
        <ele>57</ele>
        <time>2018-09-30T09:03:21Z</time>
      </trkpt>
      <trkpt lat="44.29181" lon="4.75728">
        <ele>57</ele>
        <time>2018-09-30T09:03:24Z</time>
      </trkpt>
      <trkpt lat="44.2919" lon="4.75719">
        <ele>57</ele>
        <time>2018-09-30T09:03:26Z</time>
      </trkpt>
      <trkpt lat="44.29204" lon="4.75706">
        <ele>57</ele>
        <time>2018-09-30T09:03:29Z</time>
      </trkpt>
      <trkpt lat="44.29213" lon="4.75697">
        <ele>57</ele>
        <time>2018-09-30T09:03:31Z</time>
      </trkpt>
      <trkpt lat="44.29221" lon="4.75687">
        <ele>57</ele>
        <time>2018-09-30T09:03:33Z</time>
      </trkpt>
      <trkpt lat="44.29231" lon="4.75679">
        <ele>57</ele>
        <time>2018-09-30T09:03:35Z</time>
      </trkpt>
      <trkpt lat="44.29241" lon="4.7567">
        <ele>57</ele>
        <time>2018-09-30T09:03:37Z</time>
      </trkpt>
      <trkpt lat="44.29257" lon="4.75659">
        <ele>57</ele>
        <time>2018-09-30T09:03:40Z</time>
      </trkpt>
      <trkpt lat="44.29268" lon="4.7565">
        <ele>57</ele>
        <time>2018-09-30T09:03:42Z</time>
      </trkpt>
      <trkpt lat="44.29278" lon="4.7564">
        <ele>57</ele>
        <time>2018-09-30T09:03:44Z</time>
      </trkpt>
      <trkpt lat="44.29294" lon="4.75625">
        <ele>57</ele>
        <time>2018-09-30T09:03:47Z</time>
      </trkpt>
      <trkpt lat="44.29309" lon="4.75609">
        <ele>57</ele>
        <time>2018-09-30T09:03:50Z</time>
      </trkpt>
      <trkpt lat="44.2932" lon="4.756">
        <ele>58</ele>
        <time>2018-09-30T09:03:52Z</time>
      </trkpt>
      <trkpt lat="44.2933" lon="4.7559">
        <ele>58</ele>
        <time>2018-09-30T09:03:54Z</time>
      </trkpt>
      <trkpt lat="44.2934" lon="4.7558">
        <ele>59</ele>
        <time>2018-09-30T09:03:56Z</time>
      </trkpt>
      <trkpt lat="44.29356" lon="4.75564">
        <ele>59</ele>
        <time>2018-09-30T09:03:59Z</time>
      </trkpt>
      <trkpt lat="44.29372" lon="4.7555">
        <ele>58</ele>
        <time>2018-09-30T09:04:02Z</time>
      </trkpt>
      <trkpt lat="44.29383" lon="4.7554">
        <ele>58</ele>
        <time>2018-09-30T09:04:04Z</time>
      </trkpt>
      <trkpt lat="44.29399" lon="4.75525">
        <ele>58</ele>
        <time>2018-09-30T09:04:07Z</time>
      </trkpt>
      <trkpt lat="44.29415" lon="4.75509">
        <ele>58</ele>
        <time>2018-09-30T09:04:10Z</time>
      </trkpt>
      <trkpt lat="44.29426" lon="4.75499">
        <ele>58</ele>
        <time>2018-09-30T09:04:12Z</time>
      </trkpt>
      <trkpt lat="44.29437" lon="4.7549">
        <ele>58</ele>
        <time>2018-09-30T09:04:14Z</time>
      </trkpt>
      <trkpt lat="44.29448" lon="4.7548">
        <ele>58</ele>
        <time>2018-09-30T09:04:16Z</time>
      </trkpt>
      <trkpt lat="44.29457" lon="4.75471">
        <ele>57</ele>
        <time>2018-09-30T09:04:18Z</time>
      </trkpt>
      <trkpt lat="44.29467" lon="4.75461">
        <ele>57</ele>
        <time>2018-09-30T09:04:20Z</time>
      </trkpt>
      <trkpt lat="44.29476" lon="4.75451">
        <ele>57</ele>
        <time>2018-09-30T09:04:22Z</time>
      </trkpt>
      <trkpt lat="44.29486" lon="4.75442">
        <ele>57</ele>
        <time>2018-09-30T09:04:24Z</time>
      </trkpt>
      <trkpt lat="44.29499" lon="4.75428">
        <ele>57</ele>
        <time>2018-09-30T09:04:27Z</time>
      </trkpt>
      <trkpt lat="44.29508" lon="4.75419">
        <ele>57</ele>
        <time>2018-09-30T09:04:29Z</time>
      </trkpt>
      <trkpt lat="44.29517" lon="4.7541">
        <ele>57</ele>
        <time>2018-09-30T09:04:31Z</time>
      </trkpt>
      <trkpt lat="44.29532" lon="4.75397">
        <ele>56</ele>
        <time>2018-09-30T09:04:34Z</time>
      </trkpt>
      <trkpt lat="44.29542" lon="4.75389">
        <ele>56</ele>
        <time>2018-09-30T09:04:36Z</time>
      </trkpt>
      <trkpt lat="44.29558" lon="4.75383">
        <ele>55</ele>
        <time>2018-09-30T09:04:39Z</time>
      </trkpt>
      <trkpt lat="44.29575" lon="4.75381">
        <ele>55</ele>
        <time>2018-09-30T09:04:42Z</time>
      </trkpt>
      <trkpt lat="44.29587" lon="4.7538">
        <ele>56</ele>
        <time>2018-09-30T09:04:44Z</time>
      </trkpt>
      <trkpt lat="44.29605" lon="4.75379">
        <ele>55</ele>
        <time>2018-09-30T09:04:47Z</time>
      </trkpt>
      <trkpt lat="44.29623" lon="4.75379">
        <ele>55</ele>
        <time>2018-09-30T09:04:50Z</time>
      </trkpt>
      <trkpt lat="44.29634" lon="4.75379">
        <ele>55</ele>
        <time>2018-09-30T09:04:52Z</time>
      </trkpt>
      <trkpt lat="44.29647" lon="4.7538">
        <ele>55</ele>
        <time>2018-09-30T09:04:54Z</time>
      </trkpt>
      <trkpt lat="44.29665" lon="4.7538">
        <ele>55</ele>
        <time>2018-09-30T09:04:57Z</time>
      </trkpt>
      <trkpt lat="44.29683" lon="4.75381">
        <ele>54</ele>
        <time>2018-09-30T09:05:00Z</time>
      </trkpt>
      <trkpt lat="44.29695" lon="4.75382">
        <ele>54</ele>
        <time>2018-09-30T09:05:02Z</time>
      </trkpt>
      <trkpt lat="44.29706" lon="4.75383">
        <ele>53</ele>
        <time>2018-09-30T09:05:04Z</time>
      </trkpt>
      <trkpt lat="44.29722" lon="4.75384">
        <ele>53</ele>
        <time>2018-09-30T09:05:07Z</time>
      </trkpt>
      <trkpt lat="44.29739" lon="4.75385">
        <ele>54</ele>
        <time>2018-09-30T09:05:10Z</time>
      </trkpt>
      <trkpt lat="44.29751" lon="4.75386">
        <ele>54</ele>
        <time>2018-09-30T09:05:12Z</time>
      </trkpt>
      <trkpt lat="44.29763" lon="4.75387">
        <ele>54</ele>
        <time>2018-09-30T09:05:14Z</time>
      </trkpt>
      <trkpt lat="44.2978" lon="4.75388">
        <ele>54</ele>
        <time>2018-09-30T09:05:17Z</time>
      </trkpt>
      <trkpt lat="44.29798" lon="4.75389">
        <ele>55</ele>
        <time>2018-09-30T09:05:20Z</time>
      </trkpt>
      <trkpt lat="44.2981" lon="4.7539">
        <ele>54</ele>
        <time>2018-09-30T09:05:22Z</time>
      </trkpt>
      <trkpt lat="44.29822" lon="4.7539">
        <ele>54</ele>
        <time>2018-09-30T09:05:24Z</time>
      </trkpt>
      <trkpt lat="44.2984" lon="4.7539">
        <ele>54</ele>
        <time>2018-09-30T09:05:27Z</time>
      </trkpt>
      <trkpt lat="44.29859" lon="4.7539">
        <ele>53</ele>
        <time>2018-09-30T09:05:30Z</time>
      </trkpt>
      <trkpt lat="44.29871" lon="4.75388">
        <ele>53</ele>
        <time>2018-09-30T09:05:32Z</time>
      </trkpt>
      <trkpt lat="44.29884" lon="4.75387">
        <ele>53</ele>
        <time>2018-09-30T09:05:34Z</time>
      </trkpt>
      <trkpt lat="44.29896" lon="4.75386">
        <ele>53</ele>
        <time>2018-09-30T09:05:36Z</time>
      </trkpt>
      <trkpt lat="44.29909" lon="4.75384">
        <ele>53</ele>
        <time>2018-09-30T09:05:38Z</time>
      </trkpt>
      <trkpt lat="44.29921" lon="4.75383">
        <ele>53</ele>
        <time>2018-09-30T09:05:40Z</time>
      </trkpt>
      <trkpt lat="44.29934" lon="4.75381">
        <ele>53</ele>
        <time>2018-09-30T09:05:42Z</time>
      </trkpt>
      <trkpt lat="44.29947" lon="4.7538">
        <ele>52</ele>
        <time>2018-09-30T09:05:44Z</time>
      </trkpt>
      <trkpt lat="44.29967" lon="4.75377">
        <ele>52</ele>
        <time>2018-09-30T09:05:47Z</time>
      </trkpt>
      <trkpt lat="44.29986" lon="4.75375">
        <ele>52</ele>
        <time>2018-09-30T09:05:50Z</time>
      </trkpt>
      <trkpt lat="44.29998" lon="4.75373">
        <ele>53</ele>
        <time>2018-09-30T09:05:52Z</time>
      </trkpt>
      <trkpt lat="44.30011" lon="4.75371">
        <ele>53</ele>
        <time>2018-09-30T09:05:54Z</time>
      </trkpt>
      <trkpt lat="44.30022" lon="4.75369">
        <ele>53</ele>
        <time>2018-09-30T09:05:56Z</time>
      </trkpt>
      <trkpt lat="44.3004" lon="4.75364">
        <ele>53</ele>
        <time>2018-09-30T09:05:59Z</time>
      </trkpt>
      <trkpt lat="44.3005" lon="4.75359">
        <ele>53</ele>
        <time>2018-09-30T09:06:01Z</time>
      </trkpt>
      <trkpt lat="44.30066" lon="4.75359">
        <ele>53</ele>
        <time>2018-09-30T09:06:04Z</time>
      </trkpt>
      <trkpt lat="44.30079" lon="4.75373">
        <ele>53</ele>
        <time>2018-09-30T09:06:07Z</time>
      </trkpt>
      <trkpt lat="44.30087" lon="4.75383">
        <ele>53</ele>
        <time>2018-09-30T09:06:09Z</time>
      </trkpt>
      <trkpt lat="44.30095" lon="4.75392">
        <ele>53</ele>
        <time>2018-09-30T09:06:11Z</time>
      </trkpt>
      <trkpt lat="44.30106" lon="4.75406">
        <ele>52</ele>
        <time>2018-09-30T09:06:14Z</time>
      </trkpt>
      <trkpt lat="44.30112" lon="4.75415">
        <ele>52</ele>
        <time>2018-09-30T09:06:16Z</time>
      </trkpt>
      <trkpt lat="44.3012" lon="4.75424">
        <ele>53</ele>
        <time>2018-09-30T09:06:18Z</time>
      </trkpt>
      <trkpt lat="44.30129" lon="4.7543">
        <ele>54</ele>
        <time>2018-09-30T09:06:20Z</time>
      </trkpt>
      <trkpt lat="44.30143" lon="4.75434">
        <ele>53</ele>
        <time>2018-09-30T09:06:23Z</time>
      </trkpt>
      <trkpt lat="44.30158" lon="4.75434">
        <ele>54</ele>
        <time>2018-09-30T09:06:26Z</time>
      </trkpt>
      <trkpt lat="44.30173" lon="4.75433">
        <ele>53</ele>
        <time>2018-09-30T09:06:29Z</time>
      </trkpt>
      <trkpt lat="44.30183" lon="4.75433">
        <ele>54</ele>
        <time>2018-09-30T09:06:31Z</time>
      </trkpt>
      <trkpt lat="44.30192" lon="4.75432">
        <ele>53</ele>
        <time>2018-09-30T09:06:33Z</time>
      </trkpt>
      <trkpt lat="44.30202" lon="4.75432">
        <ele>53</ele>
        <time>2018-09-30T09:06:35Z</time>
      </trkpt>
      <trkpt lat="44.3021" lon="4.75431">
        <ele>53</ele>
        <time>2018-09-30T09:06:37Z</time>
      </trkpt>
      <trkpt lat="44.30217" lon="4.7543">
        <ele>53</ele>
        <time>2018-09-30T09:06:40Z</time>
      </trkpt>
      <trkpt lat="44.3022" lon="4.75428">
        <ele>53</ele>
        <time>2018-09-30T09:06:42Z</time>
      </trkpt>
      <trkpt lat="44.3022" lon="4.75418">
        <ele>53</ele>
        <time>2018-09-30T09:06:45Z</time>
      </trkpt>
      <trkpt lat="44.30217" lon="4.75409">
        <ele>53</ele>
        <time>2018-09-30T09:06:47Z</time>
      </trkpt>
      <trkpt lat="44.30214" lon="4.75398">
        <ele>53</ele>
        <time>2018-09-30T09:06:49Z</time>
      </trkpt>
      <trkpt lat="44.30212" lon="4.75385">
        <ele>54</ele>
        <time>2018-09-30T09:06:51Z</time>
      </trkpt>
      <trkpt lat="44.3021" lon="4.75371">
        <ele>54</ele>
        <time>2018-09-30T09:06:53Z</time>
      </trkpt>
      <trkpt lat="44.30209" lon="4.75357">
        <ele>54</ele>
        <time>2018-09-30T09:06:55Z</time>
      </trkpt>
      <trkpt lat="44.30209" lon="4.75342">
        <ele>54</ele>
        <time>2018-09-30T09:06:57Z</time>
      </trkpt>
      <trkpt lat="44.30209" lon="4.75319">
        <ele>54</ele>
        <time>2018-09-30T09:07:00Z</time>
      </trkpt>
      <trkpt lat="44.30209" lon="4.75304">
        <ele>54</ele>
        <time>2018-09-30T09:07:02Z</time>
      </trkpt>
      <trkpt lat="44.30216" lon="4.75295">
        <ele>54</ele>
        <time>2018-09-30T09:07:04Z</time>
      </trkpt>
      <trkpt lat="44.30226" lon="4.75293">
        <ele>54</ele>
        <time>2018-09-30T09:07:06Z</time>
      </trkpt>
      <trkpt lat="44.30241" lon="4.75292">
        <ele>54</ele>
        <time>2018-09-30T09:07:09Z</time>
      </trkpt>
      <trkpt lat="44.30252" lon="4.75292">
        <ele>54</ele>
        <time>2018-09-30T09:07:11Z</time>
      </trkpt>
      <trkpt lat="44.30262" lon="4.75291">
        <ele>54</ele>
        <time>2018-09-30T09:07:13Z</time>
      </trkpt>
      <trkpt lat="44.30272" lon="4.7529">
        <ele>55</ele>
        <time>2018-09-30T09:07:15Z</time>
      </trkpt>
      <trkpt lat="44.30288" lon="4.7529">
        <ele>55</ele>
        <time>2018-09-30T09:07:18Z</time>
      </trkpt>
      <trkpt lat="44.30304" lon="4.75289">
        <ele>55</ele>
        <time>2018-09-30T09:07:21Z</time>
      </trkpt>
      <trkpt lat="44.30315" lon="4.75288">
        <ele>55</ele>
        <time>2018-09-30T09:07:23Z</time>
      </trkpt>
      <trkpt lat="44.3033" lon="4.75287">
        <ele>57</ele>
        <time>2018-09-30T09:07:26Z</time>
      </trkpt>
      <trkpt lat="44.30345" lon="4.75289">
        <ele>57</ele>
        <time>2018-09-30T09:07:29Z</time>
      </trkpt>
      <trkpt lat="44.30358" lon="4.75294">
        <ele>57</ele>
        <time>2018-09-30T09:07:32Z</time>
      </trkpt>
      <trkpt lat="44.30366" lon="4.75299">
        <ele>57</ele>
        <time>2018-09-30T09:07:34Z</time>
      </trkpt>
      <trkpt lat="44.30376" lon="4.75309">
        <ele>58</ele>
        <time>2018-09-30T09:07:37Z</time>
      </trkpt>
      <trkpt lat="44.30384" lon="4.75321">
        <ele>59</ele>
        <time>2018-09-30T09:07:40Z</time>
      </trkpt>
      <trkpt lat="44.30388" lon="4.75329">
        <ele>60</ele>
        <time>2018-09-30T09:07:42Z</time>
      </trkpt>
      <trkpt lat="44.30394" lon="4.75338">
        <ele>61</ele>
        <time>2018-09-30T09:07:45Z</time>
      </trkpt>
      <trkpt lat="44.30398" lon="4.75345">
        <ele>61</ele>
        <time>2018-09-30T09:07:47Z</time>
      </trkpt>
      <trkpt lat="44.30401" lon="4.75352">
        <ele>62</ele>
        <time>2018-09-30T09:07:49Z</time>
      </trkpt>
      <trkpt lat="44.30407" lon="4.75361">
        <ele>63</ele>
        <time>2018-09-30T09:07:52Z</time>
      </trkpt>
      <trkpt lat="44.30413" lon="4.75363">
        <ele>63</ele>
        <time>2018-09-30T09:07:54Z</time>
      </trkpt>
      <trkpt lat="44.30419" lon="4.75364">
        <ele>63</ele>
        <time>2018-09-30T09:07:56Z</time>
      </trkpt>
      <trkpt lat="44.30428" lon="4.75367">
        <ele>64</ele>
        <time>2018-09-30T09:07:59Z</time>
      </trkpt>
      <trkpt lat="44.30436" lon="4.75371">
        <ele>65</ele>
        <time>2018-09-30T09:08:02Z</time>
      </trkpt>
      <trkpt lat="44.30439" lon="4.75377">
        <ele>66</ele>
        <time>2018-09-30T09:08:04Z</time>
      </trkpt>
      <trkpt lat="44.30442" lon="4.75384">
        <ele>67</ele>
        <time>2018-09-30T09:08:06Z</time>
      </trkpt>
      <trkpt lat="44.30442" lon="4.75395">
        <ele>67</ele>
        <time>2018-09-30T09:08:09Z</time>
      </trkpt>
      <trkpt lat="44.30443" lon="4.75403">
        <ele>68</ele>
        <time>2018-09-30T09:08:11Z</time>
      </trkpt>
      <trkpt lat="44.30447" lon="4.75414">
        <ele>68</ele>
        <time>2018-09-30T09:08:14Z</time>
      </trkpt>
      <trkpt lat="44.3045" lon="4.75421">
        <ele>69</ele>
        <time>2018-09-30T09:08:16Z</time>
      </trkpt>
      <trkpt lat="44.30453" lon="4.75426">
        <ele>69</ele>
        <time>2018-09-30T09:08:18Z</time>
      </trkpt>
      <trkpt lat="44.30454" lon="4.75433">
        <ele>70</ele>
        <time>2018-09-30T09:08:21Z</time>
      </trkpt>
      <trkpt lat="44.30454" lon="4.75439">
        <ele>70</ele>
        <time>2018-09-30T09:08:24Z</time>
      </trkpt>
      <trkpt lat="44.30452" lon="4.75445">
        <ele>70</ele>
        <time>2018-09-30T09:08:27Z</time>
      </trkpt>
      <trkpt lat="44.30448" lon="4.75448">
        <ele>70</ele>
        <time>2018-09-30T09:08:30Z</time>
      </trkpt>
      <trkpt lat="44.30444" lon="4.75449">
        <ele>69</ele>
        <time>2018-09-30T09:08:32Z</time>
      </trkpt>
      <trkpt lat="44.30441" lon="4.75452">
        <ele>69</ele>
        <time>2018-09-30T09:08:34Z</time>
      </trkpt>
      <trkpt lat="44.30436" lon="4.75463">
        <ele>68</ele>
        <time>2018-09-30T09:08:37Z</time>
      </trkpt>
      <trkpt lat="44.30434" lon="4.75483">
        <ele>68</ele>
        <time>2018-09-30T09:08:40Z</time>
      </trkpt>
      <trkpt lat="44.30433" lon="4.75493">
        <ele>68</ele>
        <time>2018-09-30T09:08:42Z</time>
      </trkpt>
      <trkpt lat="44.30432" lon="4.75498">
        <ele>67</ele>
        <time>2018-09-30T09:08:44Z</time>
      </trkpt>
      <trkpt lat="44.30427" lon="4.75498">
        <ele>66</ele>
        <time>2018-09-30T09:08:47Z</time>
      </trkpt>
      <trkpt lat="44.30426" lon="4.75491">
        <ele>65</ele>
        <time>2018-09-30T09:08:50Z</time>
      </trkpt>
      <trkpt lat="44.30425" lon="4.75485">
        <ele>66</ele>
        <time>2018-09-30T09:08:53Z</time>
      </trkpt>
      <trkpt lat="44.30425" lon="4.75485">
        <ele>65</ele>
        <time>2018-09-30T09:08:56Z</time>
      </trkpt>
    </trkseg>
  </trk>
</gpx>